<?xml version="1.0" encoding="UTF-8" standalone="no" ?>
<gpx xmlns="http://www.topografix.com/GPX/1/1" xmlns:xsi="http://www.w3.org/2001/XMLSchema-instance" xsi:schemaLocation="http://www.topografix.com/GPX/1/1 http://www.topografix.com/GPX/1/1/gpx.xsd" version="1.1" creator="VisuGPX - https://www.visugpx.com">
  <metadata>
    <name>descente du randome a bar sur loup</name>
    <desc><![CDATA[enchainement enduro]]></desc>
  </metadata>
  <trk>
    <name><![CDATA[descente du randome a bar sur loup_1]]></name>
    <trkseg>
      <trkpt lat="43.73532" lon="6.94618">
        <ele>1095.800048</ele>
        <time>2012-01-15T12:04:03Z</time>
      </trkpt>
      <trkpt lat="43.73533" lon="6.94621">
        <ele>1095.625</ele>
        <time>2012-01-15T12:04:04Z</time>
      </trkpt>
      <trkpt lat="43.7354" lon="6.94624">
        <ele>1100.3</ele>
        <time>2012-01-15T12:05:26Z</time>
      </trkpt>
      <trkpt lat="43.73548" lon="6.94628">
        <ele>1109.5</ele>
        <time>2012-01-15T12:11:08Z</time>
      </trkpt>
      <trkpt lat="43.73561" lon="6.94623">
        <ele>1108.4</ele>
        <time>2012-01-15T12:11:14Z</time>
      </trkpt>
      <trkpt lat="43.73568" lon="6.94618">
        <ele>1107.7</ele>
        <time>2012-01-15T12:11:17Z</time>
      </trkpt>
      <trkpt lat="43.73572" lon="6.9461">
        <ele>1106.9</ele>
        <time>2012-01-15T12:11:20Z</time>
      </trkpt>
      <trkpt lat="43.73574" lon="6.94599">
        <ele>1106</ele>
        <time>2012-01-15T12:11:23Z</time>
      </trkpt>
      <trkpt lat="43.73574" lon="6.94587">
        <ele>1105.2</ele>
        <time>2012-01-15T12:11:26Z</time>
      </trkpt>
      <trkpt lat="43.73573" lon="6.94579">
        <ele>1105</ele>
        <time>2012-01-15T12:11:28Z</time>
      </trkpt>
      <trkpt lat="43.73571" lon="6.94567">
        <ele>1105.1</ele>
        <time>2012-01-15T12:11:31Z</time>
      </trkpt>
      <trkpt lat="43.73569" lon="6.94555">
        <ele>1105.4</ele>
        <time>2012-01-15T12:11:34Z</time>
      </trkpt>
      <trkpt lat="43.73566" lon="6.94548">
        <ele>1105.7</ele>
        <time>2012-01-15T12:11:36Z</time>
      </trkpt>
      <trkpt lat="43.73562" lon="6.94542">
        <ele>1105.8</ele>
        <time>2012-01-15T12:11:38Z</time>
      </trkpt>
      <trkpt lat="43.73557" lon="6.94536">
        <ele>1105.8</ele>
        <time>2012-01-15T12:11:40Z</time>
      </trkpt>
      <trkpt lat="43.73552" lon="6.94532">
        <ele>1105.6</ele>
        <time>2012-01-15T12:11:42Z</time>
      </trkpt>
      <trkpt lat="43.73546" lon="6.94529">
        <ele>1105.2</ele>
        <time>2012-01-15T12:11:44Z</time>
      </trkpt>
      <trkpt lat="43.7354" lon="6.94525">
        <ele>1105</ele>
        <time>2012-01-15T12:11:46Z</time>
      </trkpt>
      <trkpt lat="43.73535" lon="6.94522">
        <ele>1104.8</ele>
        <time>2012-01-15T12:11:48Z</time>
      </trkpt>
      <trkpt lat="43.7353" lon="6.94518">
        <ele>1104.8</ele>
        <time>2012-01-15T12:11:50Z</time>
      </trkpt>
      <trkpt lat="43.73522" lon="6.9451">
        <ele>1104.9</ele>
        <time>2012-01-15T12:11:53Z</time>
      </trkpt>
      <trkpt lat="43.73518" lon="6.94505">
        <ele>1104.9</ele>
        <time>2012-01-15T12:11:55Z</time>
      </trkpt>
      <trkpt lat="43.73514" lon="6.94498">
        <ele>1104.9</ele>
        <time>2012-01-15T12:11:57Z</time>
      </trkpt>
      <trkpt lat="43.73509" lon="6.94488">
        <ele>1104.4</ele>
        <time>2012-01-15T12:12:00Z</time>
      </trkpt>
      <trkpt lat="43.73505" lon="6.94482">
        <ele>1104.1</ele>
        <time>2012-01-15T12:12:02Z</time>
      </trkpt>
      <trkpt lat="43.73502" lon="6.94475">
        <ele>1104</ele>
        <time>2012-01-15T12:12:04Z</time>
      </trkpt>
      <trkpt lat="43.73498" lon="6.94468">
        <ele>1104</ele>
        <time>2012-01-15T12:12:06Z</time>
      </trkpt>
      <trkpt lat="43.73494" lon="6.94462">
        <ele>1103.8</ele>
        <time>2012-01-15T12:12:08Z</time>
      </trkpt>
      <trkpt lat="43.73491" lon="6.94459">
        <ele>1103.8</ele>
        <time>2012-01-15T12:12:09Z</time>
      </trkpt>
      <trkpt lat="43.73483" lon="6.94453">
        <ele>1103.5</ele>
        <time>2012-01-15T12:12:12Z</time>
      </trkpt>
      <trkpt lat="43.73476" lon="6.94445">
        <ele>1102.9</ele>
        <time>2012-01-15T12:12:15Z</time>
      </trkpt>
      <trkpt lat="43.73473" lon="6.94437">
        <ele>1104.5</ele>
        <time>2012-01-15T12:12:17Z</time>
      </trkpt>
      <trkpt lat="43.73474" lon="6.94425">
        <ele>1107.2</ele>
        <time>2012-01-15T12:12:20Z</time>
      </trkpt>
      <trkpt lat="43.73476" lon="6.94418">
        <ele>1107.7</ele>
        <time>2012-01-15T12:12:22Z</time>
      </trkpt>
      <trkpt lat="43.73479" lon="6.9441">
        <ele>1108.1</ele>
        <time>2012-01-15T12:12:24Z</time>
      </trkpt>
      <trkpt lat="43.73481" lon="6.94398">
        <ele>1108.7</ele>
        <time>2012-01-15T12:12:27Z</time>
      </trkpt>
      <trkpt lat="43.73478" lon="6.94386">
        <ele>1108.8</ele>
        <time>2012-01-15T12:12:30Z</time>
      </trkpt>
      <trkpt lat="43.73474" lon="6.9438">
        <ele>1109.9</ele>
        <time>2012-01-15T12:12:32Z</time>
      </trkpt>
      <trkpt lat="43.73468" lon="6.94372">
        <ele>1110.3</ele>
        <time>2012-01-15T12:12:35Z</time>
      </trkpt>
      <trkpt lat="43.73462" lon="6.94364">
        <ele>1111</ele>
        <time>2012-01-15T12:12:38Z</time>
      </trkpt>
      <trkpt lat="43.73457" lon="6.94354">
        <ele>1111.6</ele>
        <time>2012-01-15T12:12:41Z</time>
      </trkpt>
      <trkpt lat="43.73454" lon="6.94347">
        <ele>1112.1</ele>
        <time>2012-01-15T12:12:43Z</time>
      </trkpt>
      <trkpt lat="43.73451" lon="6.94339">
        <ele>1112.9</ele>
        <time>2012-01-15T12:12:45Z</time>
      </trkpt>
      <trkpt lat="43.73447" lon="6.94328">
        <ele>1113.7</ele>
        <time>2012-01-15T12:12:48Z</time>
      </trkpt>
      <trkpt lat="43.73442" lon="6.94318">
        <ele>1114.5</ele>
        <time>2012-01-15T12:12:51Z</time>
      </trkpt>
      <trkpt lat="43.73438" lon="6.94307">
        <ele>1115.7</ele>
        <time>2012-01-15T12:12:54Z</time>
      </trkpt>
      <trkpt lat="43.73435" lon="6.94296">
        <ele>1115.6</ele>
        <time>2012-01-15T12:12:57Z</time>
      </trkpt>
      <trkpt lat="43.73433" lon="6.94285">
        <ele>1115.6</ele>
        <time>2012-01-15T12:13:00Z</time>
      </trkpt>
      <trkpt lat="43.73433" lon="6.94273">
        <ele>1115.6</ele>
        <time>2012-01-15T12:13:03Z</time>
      </trkpt>
      <trkpt lat="43.73433" lon="6.94264">
        <ele>1115.6</ele>
        <time>2012-01-15T12:13:05Z</time>
      </trkpt>
      <trkpt lat="43.73432" lon="6.94255">
        <ele>1116</ele>
        <time>2012-01-15T12:13:07Z</time>
      </trkpt>
      <trkpt lat="43.73432" lon="6.94246">
        <ele>1116.6</ele>
        <time>2012-01-15T12:13:09Z</time>
      </trkpt>
      <trkpt lat="43.73432" lon="6.94242">
        <ele>1116.9</ele>
        <time>2012-01-15T12:13:10Z</time>
      </trkpt>
      <trkpt lat="43.73433" lon="6.94226">
        <ele>1117.3</ele>
        <time>2012-01-15T12:13:14Z</time>
      </trkpt>
      <trkpt lat="43.73434" lon="6.94215">
        <ele>1116.6</ele>
        <time>2012-01-15T12:13:17Z</time>
      </trkpt>
      <trkpt lat="43.73429" lon="6.94205">
        <ele>1117.1</ele>
        <time>2012-01-15T12:13:21Z</time>
      </trkpt>
      <trkpt lat="43.73423" lon="6.94199">
        <ele>1117.6</ele>
        <time>2012-01-15T12:13:24Z</time>
      </trkpt>
      <trkpt lat="43.73415" lon="6.94198">
        <ele>1118.2</ele>
        <time>2012-01-15T12:13:27Z</time>
      </trkpt>
      <trkpt lat="43.73408" lon="6.94199">
        <ele>1119.4</ele>
        <time>2012-01-15T12:13:30Z</time>
      </trkpt>
      <trkpt lat="43.734" lon="6.94203">
        <ele>1120.1</ele>
        <time>2012-01-15T12:13:33Z</time>
      </trkpt>
      <trkpt lat="43.73392" lon="6.94208">
        <ele>1120.4</ele>
        <time>2012-01-15T12:13:36Z</time>
      </trkpt>
      <trkpt lat="43.73384" lon="6.94213">
        <ele>1120.9</ele>
        <time>2012-01-15T12:13:39Z</time>
      </trkpt>
      <trkpt lat="43.73376" lon="6.94217">
        <ele>1121.5</ele>
        <time>2012-01-15T12:13:42Z</time>
      </trkpt>
      <trkpt lat="43.73367" lon="6.9422">
        <ele>1122</ele>
        <time>2012-01-15T12:13:45Z</time>
      </trkpt>
      <trkpt lat="43.73359" lon="6.94222">
        <ele>1122</ele>
        <time>2012-01-15T12:13:48Z</time>
      </trkpt>
      <trkpt lat="43.73351" lon="6.94225">
        <ele>1122.3</ele>
        <time>2012-01-15T12:13:51Z</time>
      </trkpt>
      <trkpt lat="43.73344" lon="6.94228">
        <ele>1122.9</ele>
        <time>2012-01-15T12:13:54Z</time>
      </trkpt>
      <trkpt lat="43.73336" lon="6.94231">
        <ele>1122.8</ele>
        <time>2012-01-15T12:13:57Z</time>
      </trkpt>
      <trkpt lat="43.7333" lon="6.94233">
        <ele>1123</ele>
        <time>2012-01-15T12:13:59Z</time>
      </trkpt>
      <trkpt lat="43.73324" lon="6.94235">
        <ele>1123.2</ele>
        <time>2012-01-15T12:14:01Z</time>
      </trkpt>
      <trkpt lat="43.73315" lon="6.94239">
        <ele>1123</ele>
        <time>2012-01-15T12:14:04Z</time>
      </trkpt>
      <trkpt lat="43.73307" lon="6.94242">
        <ele>1122.6</ele>
        <time>2012-01-15T12:14:07Z</time>
      </trkpt>
      <trkpt lat="43.73299" lon="6.94246">
        <ele>1122.3</ele>
        <time>2012-01-15T12:14:10Z</time>
      </trkpt>
      <trkpt lat="43.73297" lon="6.94248">
        <ele>1121.8</ele>
        <time>2012-01-15T12:14:11Z</time>
      </trkpt>
      <trkpt lat="43.73286" lon="6.94259">
        <ele>1119.8</ele>
        <time>2012-01-15T12:14:19Z</time>
      </trkpt>
      <trkpt lat="43.73283" lon="6.9425">
        <ele>1118.5</ele>
        <time>2012-01-15T12:14:28Z</time>
      </trkpt>
      <trkpt lat="43.73279" lon="6.94242">
        <ele>1118.4</ele>
        <time>2012-01-15T12:14:30Z</time>
      </trkpt>
      <trkpt lat="43.73275" lon="6.94233">
        <ele>1118</ele>
        <time>2012-01-15T12:14:32Z</time>
      </trkpt>
      <trkpt lat="43.73271" lon="6.94225">
        <ele>1117.7</ele>
        <time>2012-01-15T12:14:34Z</time>
      </trkpt>
      <trkpt lat="43.73265" lon="6.94218">
        <ele>1117.5</ele>
        <time>2012-01-15T12:14:36Z</time>
      </trkpt>
      <trkpt lat="43.73259" lon="6.94212">
        <ele>1116</ele>
        <time>2012-01-15T12:14:38Z</time>
      </trkpt>
      <trkpt lat="43.73255" lon="6.94206">
        <ele>1115.7</ele>
        <time>2012-01-15T12:14:40Z</time>
      </trkpt>
      <trkpt lat="43.7325" lon="6.94201">
        <ele>1115</ele>
        <time>2012-01-15T12:14:42Z</time>
      </trkpt>
      <trkpt lat="43.73244" lon="6.94195">
        <ele>1115</ele>
        <time>2012-01-15T12:14:44Z</time>
      </trkpt>
      <trkpt lat="43.73237" lon="6.94189">
        <ele>1115</ele>
        <time>2012-01-15T12:14:47Z</time>
      </trkpt>
      <trkpt lat="43.73232" lon="6.94186">
        <ele>1115.3</ele>
        <time>2012-01-15T12:14:49Z</time>
      </trkpt>
      <trkpt lat="43.73225" lon="6.94186">
        <ele>1115.7</ele>
        <time>2012-01-15T12:14:51Z</time>
      </trkpt>
      <trkpt lat="43.73218" lon="6.94186">
        <ele>1115.9</ele>
        <time>2012-01-15T12:14:53Z</time>
      </trkpt>
      <trkpt lat="43.73211" lon="6.94185">
        <ele>1116</ele>
        <time>2012-01-15T12:14:55Z</time>
      </trkpt>
      <trkpt lat="43.73203" lon="6.94181">
        <ele>1115.4</ele>
        <time>2012-01-15T12:14:58Z</time>
      </trkpt>
      <trkpt lat="43.73196" lon="6.94176">
        <ele>1115.8</ele>
        <time>2012-01-15T12:15:01Z</time>
      </trkpt>
      <trkpt lat="43.7319" lon="6.94168">
        <ele>1116.2</ele>
        <time>2012-01-15T12:15:04Z</time>
      </trkpt>
      <trkpt lat="43.73183" lon="6.9416">
        <ele>1116.2</ele>
        <time>2012-01-15T12:15:09Z</time>
      </trkpt>
      <trkpt lat="43.73179" lon="6.94151">
        <ele>1117</ele>
        <time>2012-01-15T12:15:14Z</time>
      </trkpt>
      <trkpt lat="43.73177" lon="6.9415">
        <ele>1117.7</ele>
        <time>2012-01-15T12:15:15Z</time>
      </trkpt>
      <trkpt lat="43.73163" lon="6.94145">
        <ele>1119.7</ele>
        <time>2012-01-15T12:15:22Z</time>
      </trkpt>
      <trkpt lat="43.73155" lon="6.94141">
        <ele>1121</ele>
        <time>2012-01-15T12:15:26Z</time>
      </trkpt>
      <trkpt lat="43.73146" lon="6.94138">
        <ele>1121.2</ele>
        <time>2012-01-15T12:15:30Z</time>
      </trkpt>
      <trkpt lat="43.73139" lon="6.94135">
        <ele>1121.8</ele>
        <time>2012-01-15T12:15:34Z</time>
      </trkpt>
      <trkpt lat="43.73131" lon="6.94133">
        <ele>1122.5</ele>
        <time>2012-01-15T12:15:38Z</time>
      </trkpt>
      <trkpt lat="43.73123" lon="6.9413">
        <ele>1123</ele>
        <time>2012-01-15T12:15:42Z</time>
      </trkpt>
      <trkpt lat="43.73115" lon="6.94127">
        <ele>1123.7</ele>
        <time>2012-01-15T12:15:46Z</time>
      </trkpt>
      <trkpt lat="43.73107" lon="6.94125">
        <ele>1124.7</ele>
        <time>2012-01-15T12:15:50Z</time>
      </trkpt>
      <trkpt lat="43.731" lon="6.94122">
        <ele>1125</ele>
        <time>2012-01-15T12:15:54Z</time>
      </trkpt>
      <trkpt lat="43.73092" lon="6.9412">
        <ele>1126.7</ele>
        <time>2012-01-15T12:15:58Z</time>
      </trkpt>
      <trkpt lat="43.73083" lon="6.94116">
        <ele>1128.3</ele>
        <time>2012-01-15T12:16:03Z</time>
      </trkpt>
      <trkpt lat="43.73075" lon="6.94113">
        <ele>1129.7</ele>
        <time>2012-01-15T12:16:08Z</time>
      </trkpt>
      <trkpt lat="43.73066" lon="6.9411">
        <ele>1130.4</ele>
        <time>2012-01-15T12:16:13Z</time>
      </trkpt>
      <trkpt lat="43.7306" lon="6.94107">
        <ele>1131.8</ele>
        <time>2012-01-15T12:16:17Z</time>
      </trkpt>
      <trkpt lat="43.73058" lon="6.94106">
        <ele>1131.9</ele>
        <time>2012-01-15T12:16:18Z</time>
      </trkpt>
      <trkpt lat="43.73045" lon="6.941">
        <ele>1133.5</ele>
        <time>2012-01-15T12:16:25Z</time>
      </trkpt>
      <trkpt lat="43.73038" lon="6.94095">
        <ele>1133.5</ele>
        <time>2012-01-15T12:16:29Z</time>
      </trkpt>
      <trkpt lat="43.7303" lon="6.94091">
        <ele>1134.1</ele>
        <time>2012-01-15T12:16:33Z</time>
      </trkpt>
      <trkpt lat="43.73022" lon="6.94087">
        <ele>1134.3</ele>
        <time>2012-01-15T12:16:37Z</time>
      </trkpt>
      <trkpt lat="43.73015" lon="6.94082">
        <ele>1135.1</ele>
        <time>2012-01-15T12:16:41Z</time>
      </trkpt>
      <trkpt lat="43.73008" lon="6.94076">
        <ele>1135</ele>
        <time>2012-01-15T12:16:45Z</time>
      </trkpt>
      <trkpt lat="43.73" lon="6.94071">
        <ele>1135.7</ele>
        <time>2012-01-15T12:16:49Z</time>
      </trkpt>
      <trkpt lat="43.72994" lon="6.94065">
        <ele>1136.7</ele>
        <time>2012-01-15T12:16:53Z</time>
      </trkpt>
      <trkpt lat="43.72987" lon="6.94059">
        <ele>1138</ele>
        <time>2012-01-15T12:16:57Z</time>
      </trkpt>
      <trkpt lat="43.72981" lon="6.94051">
        <ele>1138.7</ele>
        <time>2012-01-15T12:17:01Z</time>
      </trkpt>
      <trkpt lat="43.72976" lon="6.94042">
        <ele>1138.7</ele>
        <time>2012-01-15T12:17:05Z</time>
      </trkpt>
      <trkpt lat="43.72971" lon="6.94034">
        <ele>1139.1</ele>
        <time>2012-01-15T12:17:09Z</time>
      </trkpt>
      <trkpt lat="43.72966" lon="6.94026">
        <ele>1140</ele>
        <time>2012-01-15T12:17:13Z</time>
      </trkpt>
      <trkpt lat="43.72961" lon="6.94018">
        <ele>1140.3</ele>
        <time>2012-01-15T12:17:17Z</time>
      </trkpt>
      <trkpt lat="43.72955" lon="6.9401">
        <ele>1139.6</ele>
        <time>2012-01-15T12:17:21Z</time>
      </trkpt>
      <trkpt lat="43.72954" lon="6.94008">
        <ele>1139.9</ele>
        <time>2012-01-15T12:17:22Z</time>
      </trkpt>
      <trkpt lat="43.72943" lon="6.93995">
        <ele>1141.5</ele>
        <time>2012-01-15T12:17:29Z</time>
      </trkpt>
      <trkpt lat="43.72935" lon="6.93992">
        <ele>1140.7</ele>
        <time>2012-01-15T12:17:33Z</time>
      </trkpt>
      <trkpt lat="43.72927" lon="6.93991">
        <ele>1140.1</ele>
        <time>2012-01-15T12:17:51Z</time>
      </trkpt>
      <trkpt lat="43.72919" lon="6.93991">
        <ele>1140.2</ele>
        <time>2012-01-15T12:17:57Z</time>
      </trkpt>
      <trkpt lat="43.72912" lon="6.93991">
        <ele>1141.3</ele>
        <time>2012-01-15T12:18:01Z</time>
      </trkpt>
      <trkpt lat="43.72904" lon="6.93991">
        <ele>1141.5</ele>
        <time>2012-01-15T12:18:05Z</time>
      </trkpt>
      <trkpt lat="43.72896" lon="6.93991">
        <ele>1140.8</ele>
        <time>2012-01-15T12:18:09Z</time>
      </trkpt>
      <trkpt lat="43.72889" lon="6.93991">
        <ele>1141.3</ele>
        <time>2012-01-15T12:18:13Z</time>
      </trkpt>
      <trkpt lat="43.72881" lon="6.93991">
        <ele>1140.9</ele>
        <time>2012-01-15T12:18:17Z</time>
      </trkpt>
      <trkpt lat="43.72873" lon="6.9399">
        <ele>1140.8</ele>
        <time>2012-01-15T12:18:20Z</time>
      </trkpt>
      <trkpt lat="43.72866" lon="6.93989">
        <ele>1140.2</ele>
        <time>2012-01-15T12:18:23Z</time>
      </trkpt>
      <trkpt lat="43.72864" lon="6.93989">
        <ele>1140</ele>
        <time>2012-01-15T12:18:24Z</time>
      </trkpt>
      <trkpt lat="43.72849" lon="6.93988">
        <ele>1140.5</ele>
        <time>2012-01-15T12:18:31Z</time>
      </trkpt>
      <trkpt lat="43.72841" lon="6.93988">
        <ele>1140.5</ele>
        <time>2012-01-15T12:18:35Z</time>
      </trkpt>
      <trkpt lat="43.72833" lon="6.93987">
        <ele>1140.8</ele>
        <time>2012-01-15T12:18:39Z</time>
      </trkpt>
      <trkpt lat="43.72824" lon="6.93986">
        <ele>1140.6</ele>
        <time>2012-01-15T12:18:43Z</time>
      </trkpt>
      <trkpt lat="43.72816" lon="6.93986">
        <ele>1141.3</ele>
        <time>2012-01-15T12:18:47Z</time>
      </trkpt>
      <trkpt lat="43.72808" lon="6.93986">
        <ele>1141.6</ele>
        <time>2012-01-15T12:18:51Z</time>
      </trkpt>
      <trkpt lat="43.728" lon="6.93986">
        <ele>1142.8</ele>
        <time>2012-01-15T12:18:55Z</time>
      </trkpt>
      <trkpt lat="43.72791" lon="6.93986">
        <ele>1143.5</ele>
        <time>2012-01-15T12:18:59Z</time>
      </trkpt>
      <trkpt lat="43.72783" lon="6.93985">
        <ele>1145</ele>
        <time>2012-01-15T12:19:03Z</time>
      </trkpt>
      <trkpt lat="43.72775" lon="6.93985">
        <ele>1146.1</ele>
        <time>2012-01-15T12:19:07Z</time>
      </trkpt>
      <trkpt lat="43.72767" lon="6.93983">
        <ele>1146.1</ele>
        <time>2012-01-15T12:19:11Z</time>
      </trkpt>
      <trkpt lat="43.72759" lon="6.93982">
        <ele>1146.7</ele>
        <time>2012-01-15T12:19:15Z</time>
      </trkpt>
      <trkpt lat="43.72751" lon="6.93981">
        <ele>1147.7</ele>
        <time>2012-01-15T12:19:19Z</time>
      </trkpt>
      <trkpt lat="43.72743" lon="6.93979">
        <ele>1148.4</ele>
        <time>2012-01-15T12:19:23Z</time>
      </trkpt>
      <trkpt lat="43.72736" lon="6.93977">
        <ele>1148.8</ele>
        <time>2012-01-15T12:19:27Z</time>
      </trkpt>
      <trkpt lat="43.72734" lon="6.93977">
        <ele>1148.8</ele>
        <time>2012-01-15T12:19:28Z</time>
      </trkpt>
      <trkpt lat="43.72718" lon="6.93972">
        <ele>1150.2</ele>
        <time>2012-01-15T12:19:37Z</time>
      </trkpt>
      <trkpt lat="43.7271" lon="6.9397">
        <ele>1151.4</ele>
        <time>2012-01-15T12:19:42Z</time>
      </trkpt>
      <trkpt lat="43.72702" lon="6.93968">
        <ele>1151.4</ele>
        <time>2012-01-15T12:19:47Z</time>
      </trkpt>
      <trkpt lat="43.72693" lon="6.93966">
        <ele>1153.4</ele>
        <time>2012-01-15T12:19:52Z</time>
      </trkpt>
      <trkpt lat="43.72686" lon="6.93964">
        <ele>1154.3</ele>
        <time>2012-01-15T12:19:57Z</time>
      </trkpt>
      <trkpt lat="43.72677" lon="6.93963">
        <ele>1155.4</ele>
        <time>2012-01-15T12:20:02Z</time>
      </trkpt>
      <trkpt lat="43.72669" lon="6.93961">
        <ele>1156.6</ele>
        <time>2012-01-15T12:20:07Z</time>
      </trkpt>
      <trkpt lat="43.72662" lon="6.93959">
        <ele>1157.4</ele>
        <time>2012-01-15T12:20:12Z</time>
      </trkpt>
      <trkpt lat="43.72654" lon="6.93957">
        <ele>1157.6</ele>
        <time>2012-01-15T12:20:17Z</time>
      </trkpt>
      <trkpt lat="43.72646" lon="6.93955">
        <ele>1158.7</ele>
        <time>2012-01-15T12:20:22Z</time>
      </trkpt>
      <trkpt lat="43.72638" lon="6.93954">
        <ele>1160.1</ele>
        <time>2012-01-15T12:20:27Z</time>
      </trkpt>
      <trkpt lat="43.7263" lon="6.93953">
        <ele>1161.7</ele>
        <time>2012-01-15T12:20:32Z</time>
      </trkpt>
      <trkpt lat="43.72628" lon="6.93952">
        <ele>1161.6</ele>
        <time>2012-01-15T12:20:33Z</time>
      </trkpt>
      <trkpt lat="43.72615" lon="6.93949">
        <ele>1163.4</ele>
        <time>2012-01-15T12:20:42Z</time>
      </trkpt>
      <trkpt lat="43.72607" lon="6.93947">
        <ele>1164.6</ele>
        <time>2012-01-15T12:20:47Z</time>
      </trkpt>
      <trkpt lat="43.72598" lon="6.93945">
        <ele>1166.1</ele>
        <time>2012-01-15T12:20:53Z</time>
      </trkpt>
      <trkpt lat="43.72591" lon="6.93943">
        <ele>1167</ele>
        <time>2012-01-15T12:20:58Z</time>
      </trkpt>
      <trkpt lat="43.72582" lon="6.93942">
        <ele>1168.4</ele>
        <time>2012-01-15T12:21:04Z</time>
      </trkpt>
      <trkpt lat="43.72573" lon="6.93939">
        <ele>1169.4</ele>
        <time>2012-01-15T12:21:10Z</time>
      </trkpt>
      <trkpt lat="43.72565" lon="6.93938">
        <ele>1170.3</ele>
        <time>2012-01-15T12:21:16Z</time>
      </trkpt>
      <trkpt lat="43.72556" lon="6.93937">
        <ele>1171.8</ele>
        <time>2012-01-15T12:21:22Z</time>
      </trkpt>
      <trkpt lat="43.72547" lon="6.93934">
        <ele>1173.5</ele>
        <time>2012-01-15T12:21:28Z</time>
      </trkpt>
      <trkpt lat="43.7254" lon="6.93933">
        <ele>1175.5</ele>
        <time>2012-01-15T12:21:33Z</time>
      </trkpt>
      <trkpt lat="43.72531" lon="6.93932">
        <ele>1176</ele>
        <time>2012-01-15T12:21:39Z</time>
      </trkpt>
      <trkpt lat="43.7253" lon="6.93931">
        <ele>1175.8</ele>
        <time>2012-01-15T12:21:40Z</time>
      </trkpt>
      <trkpt lat="43.72514" lon="6.93927">
        <ele>1179.3</ele>
        <time>2012-01-15T12:21:51Z</time>
      </trkpt>
      <trkpt lat="43.72506" lon="6.93924">
        <ele>1179.8</ele>
        <time>2012-01-15T12:21:56Z</time>
      </trkpt>
      <trkpt lat="43.72498" lon="6.93918">
        <ele>1181</ele>
        <time>2012-01-15T12:22:01Z</time>
      </trkpt>
      <trkpt lat="43.72492" lon="6.93912">
        <ele>1181.5</ele>
        <time>2012-01-15T12:22:06Z</time>
      </trkpt>
      <trkpt lat="43.72486" lon="6.93904">
        <ele>1182.7</ele>
        <time>2012-01-15T12:22:11Z</time>
      </trkpt>
      <trkpt lat="43.7248" lon="6.93898">
        <ele>1183.4</ele>
        <time>2012-01-15T12:22:15Z</time>
      </trkpt>
      <trkpt lat="43.72474" lon="6.93892">
        <ele>1183.9</ele>
        <time>2012-01-15T12:22:19Z</time>
      </trkpt>
      <trkpt lat="43.72468" lon="6.93886">
        <ele>1183.9</ele>
        <time>2012-01-15T12:22:23Z</time>
      </trkpt>
      <trkpt lat="43.72461" lon="6.9388">
        <ele>1184.7</ele>
        <time>2012-01-15T12:22:27Z</time>
      </trkpt>
      <trkpt lat="43.72456" lon="6.93874">
        <ele>1184.7</ele>
        <time>2012-01-15T12:22:31Z</time>
      </trkpt>
      <trkpt lat="43.7245" lon="6.93866">
        <ele>1185</ele>
        <time>2012-01-15T12:22:35Z</time>
      </trkpt>
      <trkpt lat="43.72445" lon="6.93858">
        <ele>1185.7</ele>
        <time>2012-01-15T12:22:39Z</time>
      </trkpt>
      <trkpt lat="43.72439" lon="6.9385">
        <ele>1185.3</ele>
        <time>2012-01-15T12:22:43Z</time>
      </trkpt>
      <trkpt lat="43.72438" lon="6.93848">
        <ele>1185.4</ele>
        <time>2012-01-15T12:22:44Z</time>
      </trkpt>
      <trkpt lat="43.72427" lon="6.93838">
        <ele>1186.9</ele>
        <time>2012-01-15T12:22:51Z</time>
      </trkpt>
      <trkpt lat="43.7242" lon="6.93832">
        <ele>1188.2</ele>
        <time>2012-01-15T12:22:56Z</time>
      </trkpt>
      <trkpt lat="43.72413" lon="6.93825">
        <ele>1188.6</ele>
        <time>2012-01-15T12:23:01Z</time>
      </trkpt>
      <trkpt lat="43.72406" lon="6.9382">
        <ele>1190.3</ele>
        <time>2012-01-15T12:23:06Z</time>
      </trkpt>
      <trkpt lat="43.72399" lon="6.93815">
        <ele>1191.2</ele>
        <time>2012-01-15T12:23:11Z</time>
      </trkpt>
      <trkpt lat="43.72391" lon="6.9381">
        <ele>1192.2</ele>
        <time>2012-01-15T12:23:16Z</time>
      </trkpt>
      <trkpt lat="43.72384" lon="6.93805">
        <ele>1193.3</ele>
        <time>2012-01-15T12:23:21Z</time>
      </trkpt>
      <trkpt lat="43.72376" lon="6.93801">
        <ele>1194.7</ele>
        <time>2012-01-15T12:23:26Z</time>
      </trkpt>
      <trkpt lat="43.72368" lon="6.93796">
        <ele>1196.4</ele>
        <time>2012-01-15T12:23:32Z</time>
      </trkpt>
      <trkpt lat="43.72361" lon="6.93791">
        <ele>1197.3</ele>
        <time>2012-01-15T12:23:38Z</time>
      </trkpt>
      <trkpt lat="43.72354" lon="6.93786">
        <ele>1197.7</ele>
        <time>2012-01-15T12:23:44Z</time>
      </trkpt>
      <trkpt lat="43.72352" lon="6.93786">
        <ele>1198.3</ele>
        <time>2012-01-15T12:23:45Z</time>
      </trkpt>
      <trkpt lat="43.72337" lon="6.93781">
        <ele>1201.5</ele>
        <time>2012-01-15T12:23:56Z</time>
      </trkpt>
      <trkpt lat="43.72329" lon="6.93782">
        <ele>1202.5</ele>
        <time>2012-01-15T12:24:02Z</time>
      </trkpt>
      <trkpt lat="43.72321" lon="6.93782">
        <ele>1203.9</ele>
        <time>2012-01-15T12:24:09Z</time>
      </trkpt>
      <trkpt lat="43.72313" lon="6.93785">
        <ele>1205.7</ele>
        <time>2012-01-15T12:24:15Z</time>
      </trkpt>
      <trkpt lat="43.72305" lon="6.93788">
        <ele>1206.7</ele>
        <time>2012-01-15T12:24:21Z</time>
      </trkpt>
      <trkpt lat="43.72297" lon="6.93793">
        <ele>1207.9</ele>
        <time>2012-01-15T12:24:27Z</time>
      </trkpt>
      <trkpt lat="43.7229" lon="6.93799">
        <ele>1208.4</ele>
        <time>2012-01-15T12:24:33Z</time>
      </trkpt>
      <trkpt lat="43.72282" lon="6.93806">
        <ele>1209.3</ele>
        <time>2012-01-15T12:24:39Z</time>
      </trkpt>
      <trkpt lat="43.72276" lon="6.93813">
        <ele>1209.7</ele>
        <time>2012-01-15T12:24:44Z</time>
      </trkpt>
      <trkpt lat="43.7227" lon="6.93821">
        <ele>1210.7</ele>
        <time>2012-01-15T12:24:50Z</time>
      </trkpt>
      <trkpt lat="43.72269" lon="6.93823">
        <ele>1210.7</ele>
        <time>2012-01-15T12:24:51Z</time>
      </trkpt>
      <trkpt lat="43.72256" lon="6.93834">
        <ele>1212.4</ele>
        <time>2012-01-15T12:25:00Z</time>
      </trkpt>
      <trkpt lat="43.72248" lon="6.93838">
        <ele>1212.7</ele>
        <time>2012-01-15T12:25:05Z</time>
      </trkpt>
      <trkpt lat="43.7224" lon="6.93842">
        <ele>1213.6</ele>
        <time>2012-01-15T12:25:10Z</time>
      </trkpt>
      <trkpt lat="43.72232" lon="6.93846">
        <ele>1214.8</ele>
        <time>2012-01-15T12:25:15Z</time>
      </trkpt>
      <trkpt lat="43.72224" lon="6.9385">
        <ele>1215.4</ele>
        <time>2012-01-15T12:25:20Z</time>
      </trkpt>
      <trkpt lat="43.72216" lon="6.93852">
        <ele>1216.7</ele>
        <time>2012-01-15T12:25:25Z</time>
      </trkpt>
      <trkpt lat="43.72207" lon="6.93853">
        <ele>1217.4</ele>
        <time>2012-01-15T12:25:30Z</time>
      </trkpt>
      <trkpt lat="43.72199" lon="6.93852">
        <ele>1217.3</ele>
        <time>2012-01-15T12:25:35Z</time>
      </trkpt>
      <trkpt lat="43.72191" lon="6.93849">
        <ele>1218.4</ele>
        <time>2012-01-15T12:25:40Z</time>
      </trkpt>
      <trkpt lat="43.72184" lon="6.93846">
        <ele>1220.2</ele>
        <time>2012-01-15T12:25:45Z</time>
      </trkpt>
      <trkpt lat="43.72177" lon="6.93842">
        <ele>1221.9</ele>
        <time>2012-01-15T12:25:50Z</time>
      </trkpt>
      <trkpt lat="43.7217" lon="6.93837">
        <ele>1222.8</ele>
        <time>2012-01-15T12:25:55Z</time>
      </trkpt>
      <trkpt lat="43.72169" lon="6.93836">
        <ele>1222.7</ele>
        <time>2012-01-15T12:25:56Z</time>
      </trkpt>
      <trkpt lat="43.72156" lon="6.93823">
        <ele>1224.8</ele>
        <time>2012-01-15T12:26:07Z</time>
      </trkpt>
      <trkpt lat="43.7215" lon="6.93816">
        <ele>1225.7</ele>
        <time>2012-01-15T12:26:12Z</time>
      </trkpt>
      <trkpt lat="43.72143" lon="6.93809">
        <ele>1227.2</ele>
        <time>2012-01-15T12:26:18Z</time>
      </trkpt>
      <trkpt lat="43.72138" lon="6.93801">
        <ele>1227.6</ele>
        <time>2012-01-15T12:26:24Z</time>
      </trkpt>
      <trkpt lat="43.72131" lon="6.93793">
        <ele>1228.5</ele>
        <time>2012-01-15T12:26:30Z</time>
      </trkpt>
      <trkpt lat="43.72124" lon="6.93785">
        <ele>1230.9</ele>
        <time>2012-01-15T12:26:36Z</time>
      </trkpt>
      <trkpt lat="43.72118" lon="6.93777">
        <ele>1232.3</ele>
        <time>2012-01-15T12:26:42Z</time>
      </trkpt>
      <trkpt lat="43.72112" lon="6.9377">
        <ele>1232.7</ele>
        <time>2012-01-15T12:26:48Z</time>
      </trkpt>
      <trkpt lat="43.72105" lon="6.93763">
        <ele>1234.5</ele>
        <time>2012-01-15T12:26:55Z</time>
      </trkpt>
      <trkpt lat="43.72098" lon="6.93755">
        <ele>1235.5</ele>
        <time>2012-01-15T12:27:02Z</time>
      </trkpt>
      <trkpt lat="43.72097" lon="6.93754">
        <ele>1235.4</ele>
        <time>2012-01-15T12:27:03Z</time>
      </trkpt>
      <trkpt lat="43.72084" lon="6.9374">
        <ele>1238.7</ele>
        <time>2012-01-15T12:27:16Z</time>
      </trkpt>
      <trkpt lat="43.72078" lon="6.93735">
        <ele>1240.3</ele>
        <time>2012-01-15T12:27:22Z</time>
      </trkpt>
      <trkpt lat="43.72072" lon="6.93726">
        <ele>1241.1</ele>
        <time>2012-01-15T12:27:29Z</time>
      </trkpt>
      <trkpt lat="43.72064" lon="6.9372">
        <ele>1243.1</ele>
        <time>2012-01-15T12:27:36Z</time>
      </trkpt>
      <trkpt lat="43.72057" lon="6.93713">
        <ele>1244.8</ele>
        <time>2012-01-15T12:27:43Z</time>
      </trkpt>
      <trkpt lat="43.7205" lon="6.93707">
        <ele>1246</ele>
        <time>2012-01-15T12:27:50Z</time>
      </trkpt>
      <trkpt lat="43.72044" lon="6.937">
        <ele>1247.5</ele>
        <time>2012-01-15T12:27:57Z</time>
      </trkpt>
      <trkpt lat="43.72036" lon="6.93694">
        <ele>1249.1</ele>
        <time>2012-01-15T12:28:04Z</time>
      </trkpt>
      <trkpt lat="43.72035" lon="6.93693">
        <ele>1249.2</ele>
        <time>2012-01-15T12:28:05Z</time>
      </trkpt>
      <trkpt lat="43.72022" lon="6.93681">
        <ele>1251.3</ele>
        <time>2012-01-15T12:28:18Z</time>
      </trkpt>
      <trkpt lat="43.72016" lon="6.93674">
        <ele>1253.4</ele>
        <time>2012-01-15T12:28:25Z</time>
      </trkpt>
      <trkpt lat="43.7201" lon="6.93667">
        <ele>1254.6</ele>
        <time>2012-01-15T12:28:32Z</time>
      </trkpt>
      <trkpt lat="43.72003" lon="6.9366">
        <ele>1256.5</ele>
        <time>2012-01-15T12:28:39Z</time>
      </trkpt>
      <trkpt lat="43.71996" lon="6.93652">
        <ele>1256.9</ele>
        <time>2012-01-15T12:28:46Z</time>
      </trkpt>
      <trkpt lat="43.71988" lon="6.93647">
        <ele>1257.9</ele>
        <time>2012-01-15T12:28:53Z</time>
      </trkpt>
      <trkpt lat="43.71982" lon="6.93638">
        <ele>1259.9</ele>
        <time>2012-01-15T12:29:00Z</time>
      </trkpt>
      <trkpt lat="43.71975" lon="6.93634">
        <ele>1260.8</ele>
        <time>2012-01-15T12:29:06Z</time>
      </trkpt>
      <trkpt lat="43.71974" lon="6.93633">
        <ele>1260.7</ele>
        <time>2012-01-15T12:29:07Z</time>
      </trkpt>
      <trkpt lat="43.71962" lon="6.93619">
        <ele>1264.7</ele>
        <time>2012-01-15T12:29:20Z</time>
      </trkpt>
      <trkpt lat="43.71955" lon="6.93611">
        <ele>1266.1</ele>
        <time>2012-01-15T12:29:27Z</time>
      </trkpt>
      <trkpt lat="43.71949" lon="6.93603">
        <ele>1266.9</ele>
        <time>2012-01-15T12:29:34Z</time>
      </trkpt>
      <trkpt lat="43.71944" lon="6.93594">
        <ele>1268</ele>
        <time>2012-01-15T12:29:41Z</time>
      </trkpt>
      <trkpt lat="43.71938" lon="6.93585">
        <ele>1270</ele>
        <time>2012-01-15T12:29:48Z</time>
      </trkpt>
      <trkpt lat="43.71932" lon="6.93579">
        <ele>1270.9</ele>
        <time>2012-01-15T12:29:55Z</time>
      </trkpt>
      <trkpt lat="43.71926" lon="6.9357">
        <ele>1273</ele>
        <time>2012-01-15T12:30:03Z</time>
      </trkpt>
      <trkpt lat="43.71919" lon="6.93562">
        <ele>1274.8</ele>
        <time>2012-01-15T12:30:12Z</time>
      </trkpt>
      <trkpt lat="43.71919" lon="6.93561">
        <ele>1275</ele>
        <time>2012-01-15T12:30:13Z</time>
      </trkpt>
      <trkpt lat="43.71907" lon="6.93546">
        <ele>1279.1</ele>
        <time>2012-01-15T12:30:29Z</time>
      </trkpt>
      <trkpt lat="43.719" lon="6.93538">
        <ele>1280.6</ele>
        <time>2012-01-15T12:30:37Z</time>
      </trkpt>
      <trkpt lat="43.71894" lon="6.93529">
        <ele>1280.3</ele>
        <time>2012-01-15T12:30:43Z</time>
      </trkpt>
      <trkpt lat="43.71888" lon="6.9352">
        <ele>1281.2</ele>
        <time>2012-01-15T12:30:48Z</time>
      </trkpt>
      <trkpt lat="43.71882" lon="6.93511">
        <ele>1281.8</ele>
        <time>2012-01-15T12:30:53Z</time>
      </trkpt>
      <trkpt lat="43.71877" lon="6.93503">
        <ele>1281.6</ele>
        <time>2012-01-15T12:30:58Z</time>
      </trkpt>
      <trkpt lat="43.71872" lon="6.93495">
        <ele>1281.8</ele>
        <time>2012-01-15T12:31:02Z</time>
      </trkpt>
      <trkpt lat="43.71867" lon="6.93487">
        <ele>1281.6</ele>
        <time>2012-01-15T12:31:06Z</time>
      </trkpt>
      <trkpt lat="43.71861" lon="6.93478">
        <ele>1281.5</ele>
        <time>2012-01-15T12:31:10Z</time>
      </trkpt>
      <trkpt lat="43.71856" lon="6.9347">
        <ele>1281.5</ele>
        <time>2012-01-15T12:31:13Z</time>
      </trkpt>
      <trkpt lat="43.71855" lon="6.93467">
        <ele>1281.4</ele>
        <time>2012-01-15T12:31:14Z</time>
      </trkpt>
      <trkpt lat="43.71847" lon="6.93454">
        <ele>1281.6</ele>
        <time>2012-01-15T12:31:19Z</time>
      </trkpt>
      <trkpt lat="43.71842" lon="6.93446">
        <ele>1281.4</ele>
        <time>2012-01-15T12:31:22Z</time>
      </trkpt>
      <trkpt lat="43.71837" lon="6.93436">
        <ele>1281.2</ele>
        <time>2012-01-15T12:31:25Z</time>
      </trkpt>
      <trkpt lat="43.71833" lon="6.93429">
        <ele>1281.4</ele>
        <time>2012-01-15T12:31:27Z</time>
      </trkpt>
      <trkpt lat="43.71828" lon="6.9342">
        <ele>1281.4</ele>
        <time>2012-01-15T12:31:29Z</time>
      </trkpt>
      <trkpt lat="43.71823" lon="6.93411">
        <ele>1280.2</ele>
        <time>2012-01-15T12:31:31Z</time>
      </trkpt>
      <trkpt lat="43.71819" lon="6.93402">
        <ele>1280.2</ele>
        <time>2012-01-15T12:31:33Z</time>
      </trkpt>
      <trkpt lat="43.71814" lon="6.93393">
        <ele>1280.2</ele>
        <time>2012-01-15T12:31:35Z</time>
      </trkpt>
      <trkpt lat="43.7181" lon="6.93384">
        <ele>1280</ele>
        <time>2012-01-15T12:31:37Z</time>
      </trkpt>
      <trkpt lat="43.71806" lon="6.93376">
        <ele>1279.9</ele>
        <time>2012-01-15T12:31:39Z</time>
      </trkpt>
      <trkpt lat="43.718" lon="6.93384">
        <ele>1280.6</ele>
        <time>2012-01-15T12:42:14Z</time>
      </trkpt>
      <trkpt lat="43.71799" lon="6.93386">
        <ele>1280</ele>
        <time>2012-01-15T12:42:15Z</time>
      </trkpt>
      <trkpt lat="43.71795" lon="6.93405">
        <ele>1279.1</ele>
        <time>2012-01-15T12:42:20Z</time>
      </trkpt>
      <trkpt lat="43.71797" lon="6.93417">
        <ele>1278.6</ele>
        <time>2012-01-15T12:42:22Z</time>
      </trkpt>
      <trkpt lat="43.71798" lon="6.93427">
        <ele>1277</ele>
        <time>2012-01-15T12:42:25Z</time>
      </trkpt>
      <trkpt lat="43.71794" lon="6.93435">
        <ele>1275.4</ele>
        <time>2012-01-15T12:42:27Z</time>
      </trkpt>
      <trkpt lat="43.7179" lon="6.93444">
        <ele>1274.1</ele>
        <time>2012-01-15T12:42:29Z</time>
      </trkpt>
      <trkpt lat="43.71785" lon="6.93452">
        <ele>1273.6</ele>
        <time>2012-01-15T12:42:31Z</time>
      </trkpt>
      <trkpt lat="43.71782" lon="6.93461">
        <ele>1273.3</ele>
        <time>2012-01-15T12:42:33Z</time>
      </trkpt>
      <trkpt lat="43.71779" lon="6.93469">
        <ele>1273.5</ele>
        <time>2012-01-15T12:42:35Z</time>
      </trkpt>
      <trkpt lat="43.71778" lon="6.93477">
        <ele>1273.3</ele>
        <time>2012-01-15T12:42:37Z</time>
      </trkpt>
      <trkpt lat="43.7178" lon="6.93487">
        <ele>1272.6</ele>
        <time>2012-01-15T12:42:39Z</time>
      </trkpt>
      <trkpt lat="43.71781" lon="6.93495">
        <ele>1272</ele>
        <time>2012-01-15T12:42:41Z</time>
      </trkpt>
      <trkpt lat="43.71781" lon="6.93505">
        <ele>1270.5</ele>
        <time>2012-01-15T12:42:43Z</time>
      </trkpt>
      <trkpt lat="43.7178" lon="6.93511">
        <ele>1270.4</ele>
        <time>2012-01-15T12:42:44Z</time>
      </trkpt>
      <trkpt lat="43.71779" lon="6.93518">
        <ele>1270.4</ele>
        <time>2012-01-15T12:42:45Z</time>
      </trkpt>
      <trkpt lat="43.71776" lon="6.93524">
        <ele>1270</ele>
        <time>2012-01-15T12:42:46Z</time>
      </trkpt>
      <trkpt lat="43.71773" lon="6.93529">
        <ele>1269.8</ele>
        <time>2012-01-15T12:42:47Z</time>
      </trkpt>
      <trkpt lat="43.71768" lon="6.93533">
        <ele>1269.6</ele>
        <time>2012-01-15T12:42:48Z</time>
      </trkpt>
      <trkpt lat="43.71764" lon="6.93536">
        <ele>1269.7</ele>
        <time>2012-01-15T12:42:49Z</time>
      </trkpt>
      <trkpt lat="43.7176" lon="6.9354">
        <ele>1269.9</ele>
        <time>2012-01-15T12:42:50Z</time>
      </trkpt>
      <trkpt lat="43.71756" lon="6.93543">
        <ele>1269.3</ele>
        <time>2012-01-15T12:42:51Z</time>
      </trkpt>
      <trkpt lat="43.71752" lon="6.93548">
        <ele>1268.9</ele>
        <time>2012-01-15T12:42:52Z</time>
      </trkpt>
      <trkpt lat="43.71751" lon="6.93554">
        <ele>1268.4</ele>
        <time>2012-01-15T12:42:53Z</time>
      </trkpt>
      <trkpt lat="43.7175" lon="6.93561">
        <ele>1268.1</ele>
        <time>2012-01-15T12:42:54Z</time>
      </trkpt>
      <trkpt lat="43.71748" lon="6.93573">
        <ele>1267.5</ele>
        <time>2012-01-15T12:42:56Z</time>
      </trkpt>
      <trkpt lat="43.71753" lon="6.93582">
        <ele>1266</ele>
        <time>2012-01-15T12:42:59Z</time>
      </trkpt>
      <trkpt lat="43.71759" lon="6.93586">
        <ele>1264.9</ele>
        <time>2012-01-15T12:43:03Z</time>
      </trkpt>
      <trkpt lat="43.71764" lon="6.93593">
        <ele>1263.1</ele>
        <time>2012-01-15T12:43:10Z</time>
      </trkpt>
      <trkpt lat="43.71769" lon="6.93603">
        <ele>1262</ele>
        <time>2012-01-15T12:43:13Z</time>
      </trkpt>
      <trkpt lat="43.71777" lon="6.93608">
        <ele>1261.7</ele>
        <time>2012-01-15T12:43:16Z</time>
      </trkpt>
      <trkpt lat="43.7178" lon="6.93607">
        <ele>1261.1</ele>
        <time>2012-01-15T12:43:17Z</time>
      </trkpt>
      <trkpt lat="43.71792" lon="6.93611">
        <ele>1259.7</ele>
        <time>2012-01-15T12:43:21Z</time>
      </trkpt>
      <trkpt lat="43.71798" lon="6.93618">
        <ele>1258.8</ele>
        <time>2012-01-15T12:43:24Z</time>
      </trkpt>
      <trkpt lat="43.71802" lon="6.93625">
        <ele>1258.8</ele>
        <time>2012-01-15T12:43:26Z</time>
      </trkpt>
      <trkpt lat="43.71807" lon="6.93633">
        <ele>1259.3</ele>
        <time>2012-01-15T12:43:28Z</time>
      </trkpt>
      <trkpt lat="43.71816" lon="6.93638">
        <ele>1258.9</ele>
        <time>2012-01-15T12:43:30Z</time>
      </trkpt>
      <trkpt lat="43.71824" lon="6.93641">
        <ele>1258.5</ele>
        <time>2012-01-15T12:43:32Z</time>
      </trkpt>
      <trkpt lat="43.71831" lon="6.93647">
        <ele>1258</ele>
        <time>2012-01-15T12:43:34Z</time>
      </trkpt>
      <trkpt lat="43.71835" lon="6.93657">
        <ele>1257.2</ele>
        <time>2012-01-15T12:43:36Z</time>
      </trkpt>
      <trkpt lat="43.71837" lon="6.93667">
        <ele>1256.7</ele>
        <time>2012-01-15T12:43:38Z</time>
      </trkpt>
      <trkpt lat="43.71843" lon="6.93673">
        <ele>1255.7</ele>
        <time>2012-01-15T12:43:41Z</time>
      </trkpt>
      <trkpt lat="43.71848" lon="6.93681">
        <ele>1254.7</ele>
        <time>2012-01-15T12:43:43Z</time>
      </trkpt>
      <trkpt lat="43.71852" lon="6.9369">
        <ele>1254</ele>
        <time>2012-01-15T12:43:46Z</time>
      </trkpt>
      <trkpt lat="43.71857" lon="6.93697">
        <ele>1254.7</ele>
        <time>2012-01-15T12:43:49Z</time>
      </trkpt>
      <trkpt lat="43.71865" lon="6.93705">
        <ele>1255.1</ele>
        <time>2012-01-15T12:43:52Z</time>
      </trkpt>
      <trkpt lat="43.7187" lon="6.93711">
        <ele>1254.7</ele>
        <time>2012-01-15T12:43:54Z</time>
      </trkpt>
      <trkpt lat="43.71876" lon="6.93718">
        <ele>1254.3</ele>
        <time>2012-01-15T12:43:56Z</time>
      </trkpt>
      <trkpt lat="43.71879" lon="6.93723">
        <ele>1254.2</ele>
        <time>2012-01-15T12:43:57Z</time>
      </trkpt>
      <trkpt lat="43.71882" lon="6.93728">
        <ele>1254.1</ele>
        <time>2012-01-15T12:43:58Z</time>
      </trkpt>
      <trkpt lat="43.71883" lon="6.93735">
        <ele>1254</ele>
        <time>2012-01-15T12:43:59Z</time>
      </trkpt>
      <trkpt lat="43.71886" lon="6.93741">
        <ele>1253.4</ele>
        <time>2012-01-15T12:44:00Z</time>
      </trkpt>
      <trkpt lat="43.71889" lon="6.93748">
        <ele>1253</ele>
        <time>2012-01-15T12:44:01Z</time>
      </trkpt>
      <trkpt lat="43.71893" lon="6.93754">
        <ele>1252.3</ele>
        <time>2012-01-15T12:44:02Z</time>
      </trkpt>
      <trkpt lat="43.71897" lon="6.9376">
        <ele>1251.8</ele>
        <time>2012-01-15T12:44:03Z</time>
      </trkpt>
      <trkpt lat="43.71902" lon="6.93765">
        <ele>1251.4</ele>
        <time>2012-01-15T12:44:04Z</time>
      </trkpt>
      <trkpt lat="43.71907" lon="6.9377">
        <ele>1250</ele>
        <time>2012-01-15T12:44:05Z</time>
      </trkpt>
      <trkpt lat="43.71913" lon="6.93772">
        <ele>1249</ele>
        <time>2012-01-15T12:44:06Z</time>
      </trkpt>
      <trkpt lat="43.71917" lon="6.93774">
        <ele>1248.2</ele>
        <time>2012-01-15T12:44:07Z</time>
      </trkpt>
      <trkpt lat="43.71921" lon="6.93778">
        <ele>1247.7</ele>
        <time>2012-01-15T12:44:08Z</time>
      </trkpt>
      <trkpt lat="43.71925" lon="6.93781">
        <ele>1246.7</ele>
        <time>2012-01-15T12:44:09Z</time>
      </trkpt>
      <trkpt lat="43.7193" lon="6.93784">
        <ele>1246</ele>
        <time>2012-01-15T12:44:10Z</time>
      </trkpt>
      <trkpt lat="43.71935" lon="6.93788">
        <ele>1245.5</ele>
        <time>2012-01-15T12:44:11Z</time>
      </trkpt>
      <trkpt lat="43.71939" lon="6.93792">
        <ele>1245</ele>
        <time>2012-01-15T12:44:12Z</time>
      </trkpt>
      <trkpt lat="43.71943" lon="6.93797">
        <ele>1244.6</ele>
        <time>2012-01-15T12:44:13Z</time>
      </trkpt>
      <trkpt lat="43.71948" lon="6.93802">
        <ele>1243.4</ele>
        <time>2012-01-15T12:44:14Z</time>
      </trkpt>
      <trkpt lat="43.71953" lon="6.93806">
        <ele>1242.5</ele>
        <time>2012-01-15T12:44:15Z</time>
      </trkpt>
      <trkpt lat="43.71958" lon="6.9381">
        <ele>1241.8</ele>
        <time>2012-01-15T12:44:16Z</time>
      </trkpt>
      <trkpt lat="43.71963" lon="6.93814">
        <ele>1241.4</ele>
        <time>2012-01-15T12:44:17Z</time>
      </trkpt>
      <trkpt lat="43.71969" lon="6.93818">
        <ele>1241.1</ele>
        <time>2012-01-15T12:44:18Z</time>
      </trkpt>
      <trkpt lat="43.71974" lon="6.9382">
        <ele>1239.8</ele>
        <time>2012-01-15T12:44:19Z</time>
      </trkpt>
      <trkpt lat="43.71979" lon="6.93831">
        <ele>1237.1</ele>
        <time>2012-01-15T12:44:21Z</time>
      </trkpt>
      <trkpt lat="43.71982" lon="6.9384">
        <ele>1234.9</ele>
        <time>2012-01-15T12:44:23Z</time>
      </trkpt>
      <trkpt lat="43.7199" lon="6.93845">
        <ele>1233.7</ele>
        <time>2012-01-15T12:44:25Z</time>
      </trkpt>
      <trkpt lat="43.71995" lon="6.93848">
        <ele>1233</ele>
        <time>2012-01-15T12:44:26Z</time>
      </trkpt>
      <trkpt lat="43.72" lon="6.93852">
        <ele>1232.5</ele>
        <time>2012-01-15T12:44:27Z</time>
      </trkpt>
      <trkpt lat="43.72004" lon="6.93856">
        <ele>1231.3</ele>
        <time>2012-01-15T12:44:28Z</time>
      </trkpt>
      <trkpt lat="43.72009" lon="6.93858">
        <ele>1230.4</ele>
        <time>2012-01-15T12:44:29Z</time>
      </trkpt>
      <trkpt lat="43.72013" lon="6.93863">
        <ele>1229.7</ele>
        <time>2012-01-15T12:44:30Z</time>
      </trkpt>
      <trkpt lat="43.72017" lon="6.93868">
        <ele>1228.5</ele>
        <time>2012-01-15T12:44:31Z</time>
      </trkpt>
      <trkpt lat="43.72022" lon="6.93874">
        <ele>1227.6</ele>
        <time>2012-01-15T12:44:32Z</time>
      </trkpt>
      <trkpt lat="43.72026" lon="6.93881">
        <ele>1226.8</ele>
        <time>2012-01-15T12:44:33Z</time>
      </trkpt>
      <trkpt lat="43.7203" lon="6.93886">
        <ele>1226.2</ele>
        <time>2012-01-15T12:44:34Z</time>
      </trkpt>
      <trkpt lat="43.72034" lon="6.9389">
        <ele>1225.4</ele>
        <time>2012-01-15T12:44:35Z</time>
      </trkpt>
      <trkpt lat="43.72039" lon="6.93894">
        <ele>1224.8</ele>
        <time>2012-01-15T12:44:36Z</time>
      </trkpt>
      <trkpt lat="43.72044" lon="6.93898">
        <ele>1224.3</ele>
        <time>2012-01-15T12:44:37Z</time>
      </trkpt>
      <trkpt lat="43.72048" lon="6.93901">
        <ele>1223.1</ele>
        <time>2012-01-15T12:44:38Z</time>
      </trkpt>
      <trkpt lat="43.72053" lon="6.93905">
        <ele>1222.2</ele>
        <time>2012-01-15T12:44:39Z</time>
      </trkpt>
      <trkpt lat="43.72057" lon="6.93908">
        <ele>1221.4</ele>
        <time>2012-01-15T12:44:40Z</time>
      </trkpt>
      <trkpt lat="43.72062" lon="6.9391">
        <ele>1220.7</ele>
        <time>2012-01-15T12:44:41Z</time>
      </trkpt>
      <trkpt lat="43.72067" lon="6.93912">
        <ele>1220.3</ele>
        <time>2012-01-15T12:44:42Z</time>
      </trkpt>
      <trkpt lat="43.72072" lon="6.93916">
        <ele>1219.1</ele>
        <time>2012-01-15T12:44:43Z</time>
      </trkpt>
      <trkpt lat="43.72077" lon="6.93922">
        <ele>1218.2</ele>
        <time>2012-01-15T12:44:44Z</time>
      </trkpt>
      <trkpt lat="43.72082" lon="6.93928">
        <ele>1217.4</ele>
        <time>2012-01-15T12:44:45Z</time>
      </trkpt>
      <trkpt lat="43.72085" lon="6.93933">
        <ele>1216.7</ele>
        <time>2012-01-15T12:44:46Z</time>
      </trkpt>
      <trkpt lat="43.72089" lon="6.93936">
        <ele>1215.8</ele>
        <time>2012-01-15T12:44:47Z</time>
      </trkpt>
      <trkpt lat="43.72094" lon="6.9394">
        <ele>1215.1</ele>
        <time>2012-01-15T12:44:48Z</time>
      </trkpt>
      <trkpt lat="43.721" lon="6.93944">
        <ele>1214.6</ele>
        <time>2012-01-15T12:44:49Z</time>
      </trkpt>
      <trkpt lat="43.72105" lon="6.93949">
        <ele>1213.6</ele>
        <time>2012-01-15T12:44:50Z</time>
      </trkpt>
      <trkpt lat="43.72111" lon="6.93954">
        <ele>1212.8</ele>
        <time>2012-01-15T12:44:51Z</time>
      </trkpt>
      <trkpt lat="43.72116" lon="6.93959">
        <ele>1211.5</ele>
        <time>2012-01-15T12:44:52Z</time>
      </trkpt>
      <trkpt lat="43.72122" lon="6.93964">
        <ele>1210.5</ele>
        <time>2012-01-15T12:44:53Z</time>
      </trkpt>
      <trkpt lat="43.72127" lon="6.93968">
        <ele>1209.7</ele>
        <time>2012-01-15T12:44:54Z</time>
      </trkpt>
      <trkpt lat="43.72132" lon="6.93973">
        <ele>1209.1</ele>
        <time>2012-01-15T12:44:55Z</time>
      </trkpt>
      <trkpt lat="43.72136" lon="6.93979">
        <ele>1208.6</ele>
        <time>2012-01-15T12:44:56Z</time>
      </trkpt>
      <trkpt lat="43.72142" lon="6.93986">
        <ele>1207.6</ele>
        <time>2012-01-15T12:44:58Z</time>
      </trkpt>
      <trkpt lat="43.72147" lon="6.93993">
        <ele>1207.1</ele>
        <time>2012-01-15T12:45:00Z</time>
      </trkpt>
      <trkpt lat="43.72152" lon="6.94">
        <ele>1206.6</ele>
        <time>2012-01-15T12:45:02Z</time>
      </trkpt>
      <trkpt lat="43.72156" lon="6.9401">
        <ele>1205.4</ele>
        <time>2012-01-15T12:45:04Z</time>
      </trkpt>
      <trkpt lat="43.72157" lon="6.94016">
        <ele>1204.7</ele>
        <time>2012-01-15T12:45:05Z</time>
      </trkpt>
      <trkpt lat="43.72158" lon="6.94023">
        <ele>1204.2</ele>
        <time>2012-01-15T12:45:06Z</time>
      </trkpt>
      <trkpt lat="43.72158" lon="6.9403">
        <ele>1203.8</ele>
        <time>2012-01-15T12:45:07Z</time>
      </trkpt>
      <trkpt lat="43.72158" lon="6.94038">
        <ele>1203.5</ele>
        <time>2012-01-15T12:45:08Z</time>
      </trkpt>
      <trkpt lat="43.72159" lon="6.94046">
        <ele>1202.8</ele>
        <time>2012-01-15T12:45:09Z</time>
      </trkpt>
      <trkpt lat="43.7216" lon="6.94054">
        <ele>1202.2</ele>
        <time>2012-01-15T12:45:10Z</time>
      </trkpt>
      <trkpt lat="43.72161" lon="6.94063">
        <ele>1201.1</ele>
        <time>2012-01-15T12:45:11Z</time>
      </trkpt>
      <trkpt lat="43.72162" lon="6.94072">
        <ele>1200.3</ele>
        <time>2012-01-15T12:45:12Z</time>
      </trkpt>
      <trkpt lat="43.72163" lon="6.94081">
        <ele>1199.6</ele>
        <time>2012-01-15T12:45:13Z</time>
      </trkpt>
      <trkpt lat="43.72164" lon="6.94089">
        <ele>1199.2</ele>
        <time>2012-01-15T12:45:14Z</time>
      </trkpt>
      <trkpt lat="43.72166" lon="6.94096">
        <ele>1198.8</ele>
        <time>2012-01-15T12:45:15Z</time>
      </trkpt>
      <trkpt lat="43.72169" lon="6.94103">
        <ele>1197.9</ele>
        <time>2012-01-15T12:45:16Z</time>
      </trkpt>
      <trkpt lat="43.72171" lon="6.9411">
        <ele>1197.2</ele>
        <time>2012-01-15T12:45:17Z</time>
      </trkpt>
      <trkpt lat="43.72173" lon="6.94118">
        <ele>1196.7</ele>
        <time>2012-01-15T12:45:18Z</time>
      </trkpt>
      <trkpt lat="43.72176" lon="6.94126">
        <ele>1196.3</ele>
        <time>2012-01-15T12:45:19Z</time>
      </trkpt>
      <trkpt lat="43.72181" lon="6.94133">
        <ele>1196</ele>
        <time>2012-01-15T12:45:20Z</time>
      </trkpt>
      <trkpt lat="43.72185" lon="6.9414">
        <ele>1194.8</ele>
        <time>2012-01-15T12:45:21Z</time>
      </trkpt>
      <trkpt lat="43.72189" lon="6.94144">
        <ele>1193.9</ele>
        <time>2012-01-15T12:45:22Z</time>
      </trkpt>
      <trkpt lat="43.72196" lon="6.9415">
        <ele>1192.2</ele>
        <time>2012-01-15T12:45:24Z</time>
      </trkpt>
      <trkpt lat="43.72201" lon="6.9416">
        <ele>1190.5</ele>
        <time>2012-01-15T12:45:26Z</time>
      </trkpt>
      <trkpt lat="43.72203" lon="6.94166">
        <ele>1190</ele>
        <time>2012-01-15T12:45:27Z</time>
      </trkpt>
      <trkpt lat="43.72206" lon="6.94173">
        <ele>1189.4</ele>
        <time>2012-01-15T12:45:28Z</time>
      </trkpt>
      <trkpt lat="43.72209" lon="6.94179">
        <ele>1189</ele>
        <time>2012-01-15T12:45:29Z</time>
      </trkpt>
      <trkpt lat="43.72214" lon="6.94185">
        <ele>1188.3</ele>
        <time>2012-01-15T12:45:30Z</time>
      </trkpt>
      <trkpt lat="43.72217" lon="6.94191">
        <ele>1187.9</ele>
        <time>2012-01-15T12:45:31Z</time>
      </trkpt>
      <trkpt lat="43.7222" lon="6.94198">
        <ele>1187.1</ele>
        <time>2012-01-15T12:45:32Z</time>
      </trkpt>
      <trkpt lat="43.72223" lon="6.94203">
        <ele>1186.6</ele>
        <time>2012-01-15T12:45:33Z</time>
      </trkpt>
      <trkpt lat="43.72228" lon="6.94206">
        <ele>1186.2</ele>
        <time>2012-01-15T12:45:34Z</time>
      </trkpt>
      <trkpt lat="43.72231" lon="6.94211">
        <ele>1185.9</ele>
        <time>2012-01-15T12:45:35Z</time>
      </trkpt>
      <trkpt lat="43.72233" lon="6.94218">
        <ele>1185.7</ele>
        <time>2012-01-15T12:45:36Z</time>
      </trkpt>
      <trkpt lat="43.72236" lon="6.94225">
        <ele>1184.5</ele>
        <time>2012-01-15T12:45:37Z</time>
      </trkpt>
      <trkpt lat="43.72239" lon="6.94231">
        <ele>1183.6</ele>
        <time>2012-01-15T12:45:38Z</time>
      </trkpt>
      <trkpt lat="43.72244" lon="6.94241">
        <ele>1182.4</ele>
        <time>2012-01-15T12:45:40Z</time>
      </trkpt>
      <trkpt lat="43.72246" lon="6.94253">
        <ele>1181.2</ele>
        <time>2012-01-15T12:45:42Z</time>
      </trkpt>
      <trkpt lat="43.72249" lon="6.94259">
        <ele>1180.7</ele>
        <time>2012-01-15T12:45:43Z</time>
      </trkpt>
      <trkpt lat="43.72253" lon="6.94269">
        <ele>1179.8</ele>
        <time>2012-01-15T12:45:45Z</time>
      </trkpt>
      <trkpt lat="43.72258" lon="6.94278">
        <ele>1178.7</ele>
        <time>2012-01-15T12:45:50Z</time>
      </trkpt>
      <trkpt lat="43.72266" lon="6.94283">
        <ele>1177.4</ele>
        <time>2012-01-15T12:45:54Z</time>
      </trkpt>
      <trkpt lat="43.72272" lon="6.94289">
        <ele>1177.3</ele>
        <time>2012-01-15T12:45:57Z</time>
      </trkpt>
      <trkpt lat="43.72279" lon="6.94296">
        <ele>1178.7</ele>
        <time>2012-01-15T12:46:01Z</time>
      </trkpt>
      <trkpt lat="43.72285" lon="6.94301">
        <ele>1179</ele>
        <time>2012-01-15T12:46:04Z</time>
      </trkpt>
      <trkpt lat="43.7229" lon="6.94308">
        <ele>1179.6</ele>
        <time>2012-01-15T12:46:07Z</time>
      </trkpt>
      <trkpt lat="43.72293" lon="6.94316">
        <ele>1179.8</ele>
        <time>2012-01-15T12:46:09Z</time>
      </trkpt>
      <trkpt lat="43.72294" lon="6.94326">
        <ele>1179.4</ele>
        <time>2012-01-15T12:46:11Z</time>
      </trkpt>
      <trkpt lat="43.72296" lon="6.94336">
        <ele>1178.7</ele>
        <time>2012-01-15T12:46:13Z</time>
      </trkpt>
      <trkpt lat="43.723" lon="6.94346">
        <ele>1177.9</ele>
        <time>2012-01-15T12:46:15Z</time>
      </trkpt>
      <trkpt lat="43.72305" lon="6.94353">
        <ele>1177.6</ele>
        <time>2012-01-15T12:46:17Z</time>
      </trkpt>
      <trkpt lat="43.72309" lon="6.94359">
        <ele>1177.3</ele>
        <time>2012-01-15T12:46:19Z</time>
      </trkpt>
      <trkpt lat="43.7231" lon="6.94363">
        <ele>1177.2</ele>
        <time>2012-01-15T12:46:20Z</time>
      </trkpt>
      <trkpt lat="43.72315" lon="6.94376">
        <ele>1177</ele>
        <time>2012-01-15T12:46:23Z</time>
      </trkpt>
      <trkpt lat="43.72315" lon="6.94387">
        <ele>1177.1</ele>
        <time>2012-01-15T12:46:25Z</time>
      </trkpt>
      <trkpt lat="43.72314" lon="6.94398">
        <ele>1176.7</ele>
        <time>2012-01-15T12:46:27Z</time>
      </trkpt>
      <trkpt lat="43.72314" lon="6.94409">
        <ele>1175.6</ele>
        <time>2012-01-15T12:46:29Z</time>
      </trkpt>
      <trkpt lat="43.72315" lon="6.94418">
        <ele>1174.7</ele>
        <time>2012-01-15T12:46:31Z</time>
      </trkpt>
      <trkpt lat="43.72317" lon="6.94429">
        <ele>1173.8</ele>
        <time>2012-01-15T12:46:34Z</time>
      </trkpt>
      <trkpt lat="43.72322" lon="6.94438">
        <ele>1173.3</ele>
        <time>2012-01-15T12:46:38Z</time>
      </trkpt>
      <trkpt lat="43.72325" lon="6.94448">
        <ele>1172.2</ele>
        <time>2012-01-15T12:46:43Z</time>
      </trkpt>
      <trkpt lat="43.72329" lon="6.94457">
        <ele>1171.4</ele>
        <time>2012-01-15T12:46:48Z</time>
      </trkpt>
      <trkpt lat="43.72334" lon="6.94459">
        <ele>1171</ele>
        <time>2012-01-15T12:46:50Z</time>
      </trkpt>
      <trkpt lat="43.72341" lon="6.94463">
        <ele>1170.3</ele>
        <time>2012-01-15T12:46:52Z</time>
      </trkpt>
      <trkpt lat="43.72349" lon="6.94467">
        <ele>1169.3</ele>
        <time>2012-01-15T12:46:54Z</time>
      </trkpt>
      <trkpt lat="43.72356" lon="6.94473">
        <ele>1167.4</ele>
        <time>2012-01-15T12:46:56Z</time>
      </trkpt>
      <trkpt lat="43.72361" lon="6.94477">
        <ele>1166.8</ele>
        <time>2012-01-15T12:46:57Z</time>
      </trkpt>
      <trkpt lat="43.72366" lon="6.94481">
        <ele>1165.5</ele>
        <time>2012-01-15T12:46:58Z</time>
      </trkpt>
      <trkpt lat="43.7237" lon="6.94485">
        <ele>1164.5</ele>
        <time>2012-01-15T12:46:59Z</time>
      </trkpt>
      <trkpt lat="43.72374" lon="6.94489">
        <ele>1163.3</ele>
        <time>2012-01-15T12:47:00Z</time>
      </trkpt>
      <trkpt lat="43.7238" lon="6.94495">
        <ele>1161.8</ele>
        <time>2012-01-15T12:47:02Z</time>
      </trkpt>
      <trkpt lat="43.72387" lon="6.94503">
        <ele>1160.3</ele>
        <time>2012-01-15T12:47:04Z</time>
      </trkpt>
      <trkpt lat="43.72393" lon="6.94511">
        <ele>1158.4</ele>
        <time>2012-01-15T12:47:06Z</time>
      </trkpt>
      <trkpt lat="43.72397" lon="6.94516">
        <ele>1156.7</ele>
        <time>2012-01-15T12:47:07Z</time>
      </trkpt>
      <trkpt lat="43.72401" lon="6.9452">
        <ele>1155.5</ele>
        <time>2012-01-15T12:47:08Z</time>
      </trkpt>
      <trkpt lat="43.72405" lon="6.94524">
        <ele>1154.5</ele>
        <time>2012-01-15T12:47:09Z</time>
      </trkpt>
      <trkpt lat="43.72409" lon="6.94527">
        <ele>1153.3</ele>
        <time>2012-01-15T12:47:10Z</time>
      </trkpt>
      <trkpt lat="43.72413" lon="6.94531">
        <ele>1152.4</ele>
        <time>2012-01-15T12:47:11Z</time>
      </trkpt>
      <trkpt lat="43.72417" lon="6.94535">
        <ele>1151.5</ele>
        <time>2012-01-15T12:47:12Z</time>
      </trkpt>
      <trkpt lat="43.72421" lon="6.9454">
        <ele>1150.9</ele>
        <time>2012-01-15T12:47:13Z</time>
      </trkpt>
      <trkpt lat="43.72425" lon="6.94545">
        <ele>1150.4</ele>
        <time>2012-01-15T12:47:14Z</time>
      </trkpt>
      <trkpt lat="43.7243" lon="6.94549">
        <ele>1149.1</ele>
        <time>2012-01-15T12:47:15Z</time>
      </trkpt>
      <trkpt lat="43.72435" lon="6.94554">
        <ele>1148.1</ele>
        <time>2012-01-15T12:47:16Z</time>
      </trkpt>
      <trkpt lat="43.72439" lon="6.94558">
        <ele>1147</ele>
        <time>2012-01-15T12:47:17Z</time>
      </trkpt>
      <trkpt lat="43.72445" lon="6.94565">
        <ele>1146</ele>
        <time>2012-01-15T12:47:19Z</time>
      </trkpt>
      <trkpt lat="43.72451" lon="6.94572">
        <ele>1143.5</ele>
        <time>2012-01-15T12:47:24Z</time>
      </trkpt>
      <trkpt lat="43.72452" lon="6.94574">
        <ele>1142.9</ele>
        <time>2012-01-15T12:47:25Z</time>
      </trkpt>
      <trkpt lat="43.72458" lon="6.94593">
        <ele>1139.3</ele>
        <time>2012-01-15T12:47:36Z</time>
      </trkpt>
      <trkpt lat="43.72462" lon="6.94603">
        <ele>1137.9</ele>
        <time>2012-01-15T12:47:39Z</time>
      </trkpt>
      <trkpt lat="43.72467" lon="6.94608">
        <ele>1137.1</ele>
        <time>2012-01-15T12:47:41Z</time>
      </trkpt>
      <trkpt lat="43.72471" lon="6.94616">
        <ele>1135.9</ele>
        <time>2012-01-15T12:47:43Z</time>
      </trkpt>
      <trkpt lat="43.72477" lon="6.9462">
        <ele>1134.7</ele>
        <time>2012-01-15T12:47:45Z</time>
      </trkpt>
      <trkpt lat="43.72484" lon="6.94625">
        <ele>1134</ele>
        <time>2012-01-15T12:47:47Z</time>
      </trkpt>
      <trkpt lat="43.72487" lon="6.94629">
        <ele>1133</ele>
        <time>2012-01-15T12:47:48Z</time>
      </trkpt>
      <trkpt lat="43.72491" lon="6.94634">
        <ele>1132.3</ele>
        <time>2012-01-15T12:47:49Z</time>
      </trkpt>
      <trkpt lat="43.72498" lon="6.9464">
        <ele>1130.8</ele>
        <time>2012-01-15T12:47:51Z</time>
      </trkpt>
      <trkpt lat="43.72505" lon="6.94646">
        <ele>1129.4</ele>
        <time>2012-01-15T12:47:53Z</time>
      </trkpt>
      <trkpt lat="43.72512" lon="6.9465">
        <ele>1128</ele>
        <time>2012-01-15T12:47:55Z</time>
      </trkpt>
      <trkpt lat="43.7252" lon="6.94653">
        <ele>1126.5</ele>
        <time>2012-01-15T12:47:57Z</time>
      </trkpt>
      <trkpt lat="43.72526" lon="6.94662">
        <ele>1125.6</ele>
        <time>2012-01-15T12:47:59Z</time>
      </trkpt>
      <trkpt lat="43.72531" lon="6.94672">
        <ele>1123.5</ele>
        <time>2012-01-15T12:48:01Z</time>
      </trkpt>
      <trkpt lat="43.72535" lon="6.94677">
        <ele>1122</ele>
        <time>2012-01-15T12:48:02Z</time>
      </trkpt>
      <trkpt lat="43.72538" lon="6.94682">
        <ele>1120.9</ele>
        <time>2012-01-15T12:48:03Z</time>
      </trkpt>
      <trkpt lat="43.72542" lon="6.94686">
        <ele>1119.6</ele>
        <time>2012-01-15T12:48:04Z</time>
      </trkpt>
      <trkpt lat="43.72546" lon="6.9469">
        <ele>1118.7</ele>
        <time>2012-01-15T12:48:05Z</time>
      </trkpt>
      <trkpt lat="43.7255" lon="6.94695">
        <ele>1118</ele>
        <time>2012-01-15T12:48:06Z</time>
      </trkpt>
      <trkpt lat="43.72553" lon="6.94701">
        <ele>1116.5</ele>
        <time>2012-01-15T12:48:07Z</time>
      </trkpt>
      <trkpt lat="43.72556" lon="6.94708">
        <ele>1115.3</ele>
        <time>2012-01-15T12:48:08Z</time>
      </trkpt>
      <trkpt lat="43.7256" lon="6.94717">
        <ele>1113.2</ele>
        <time>2012-01-15T12:48:10Z</time>
      </trkpt>
      <trkpt lat="43.72566" lon="6.94726">
        <ele>1111.5</ele>
        <time>2012-01-15T12:48:15Z</time>
      </trkpt>
      <trkpt lat="43.72565" lon="6.94737">
        <ele>1110.1</ele>
        <time>2012-01-15T12:48:19Z</time>
      </trkpt>
      <trkpt lat="43.7257" lon="6.94746">
        <ele>1109.2</ele>
        <time>2012-01-15T12:48:23Z</time>
      </trkpt>
      <trkpt lat="43.72577" lon="6.94749">
        <ele>1108.5</ele>
        <time>2012-01-15T12:48:26Z</time>
      </trkpt>
      <trkpt lat="43.72579" lon="6.9475">
        <ele>1108</ele>
        <time>2012-01-15T12:48:27Z</time>
      </trkpt>
      <trkpt lat="43.72582" lon="6.94765">
        <ele>1107</ele>
        <time>2012-01-15T12:48:30Z</time>
      </trkpt>
      <trkpt lat="43.72584" lon="6.94771">
        <ele>1107.1</ele>
        <time>2012-01-15T12:48:31Z</time>
      </trkpt>
      <trkpt lat="43.72584" lon="6.94778">
        <ele>1107.1</ele>
        <time>2012-01-15T12:48:32Z</time>
      </trkpt>
      <trkpt lat="43.72583" lon="6.9479">
        <ele>1105.2</ele>
        <time>2012-01-15T12:48:34Z</time>
      </trkpt>
      <trkpt lat="43.72582" lon="6.94801">
        <ele>1103.5</ele>
        <time>2012-01-15T12:48:37Z</time>
      </trkpt>
      <trkpt lat="43.72585" lon="6.94812">
        <ele>1101.3</ele>
        <time>2012-01-15T12:49:49Z</time>
      </trkpt>
      <trkpt lat="43.72587" lon="6.94814">
        <ele>1101.3</ele>
        <time>2012-01-15T12:49:50Z</time>
      </trkpt>
      <trkpt lat="43.72592" lon="6.94829">
        <ele>1101.2</ele>
        <time>2012-01-15T12:49:53Z</time>
      </trkpt>
      <trkpt lat="43.72593" lon="6.9484">
        <ele>1100.5</ele>
        <time>2012-01-15T12:49:55Z</time>
      </trkpt>
      <trkpt lat="43.72593" lon="6.94851">
        <ele>1099.7</ele>
        <time>2012-01-15T12:49:57Z</time>
      </trkpt>
      <trkpt lat="43.72593" lon="6.94862">
        <ele>1099.8</ele>
        <time>2012-01-15T12:49:59Z</time>
      </trkpt>
      <trkpt lat="43.72593" lon="6.94873">
        <ele>1099.9</ele>
        <time>2012-01-15T12:50:01Z</time>
      </trkpt>
      <trkpt lat="43.72593" lon="6.94879">
        <ele>1100</ele>
        <time>2012-01-15T12:50:02Z</time>
      </trkpt>
      <trkpt lat="43.72594" lon="6.94887">
        <ele>1099.3</ele>
        <time>2012-01-15T12:50:03Z</time>
      </trkpt>
      <trkpt lat="43.72593" lon="6.94894">
        <ele>1098.9</ele>
        <time>2012-01-15T12:50:04Z</time>
      </trkpt>
      <trkpt lat="43.72592" lon="6.94901">
        <ele>1098.1</ele>
        <time>2012-01-15T12:50:05Z</time>
      </trkpt>
      <trkpt lat="43.72591" lon="6.94908">
        <ele>1097.5</ele>
        <time>2012-01-15T12:50:06Z</time>
      </trkpt>
      <trkpt lat="43.7259" lon="6.94916">
        <ele>1097</ele>
        <time>2012-01-15T12:50:07Z</time>
      </trkpt>
      <trkpt lat="43.7259" lon="6.94923">
        <ele>1096.9</ele>
        <time>2012-01-15T12:50:08Z</time>
      </trkpt>
      <trkpt lat="43.7259" lon="6.94929">
        <ele>1096.8</ele>
        <time>2012-01-15T12:50:09Z</time>
      </trkpt>
      <trkpt lat="43.72591" lon="6.94941">
        <ele>1096.5</ele>
        <time>2012-01-15T12:50:11Z</time>
      </trkpt>
      <trkpt lat="43.72594" lon="6.94953">
        <ele>1095.9</ele>
        <time>2012-01-15T12:50:13Z</time>
      </trkpt>
      <trkpt lat="43.72599" lon="6.94962">
        <ele>1094.8</ele>
        <time>2012-01-15T12:50:15Z</time>
      </trkpt>
      <trkpt lat="43.72607" lon="6.94966">
        <ele>1092.9</ele>
        <time>2012-01-15T12:50:17Z</time>
      </trkpt>
      <trkpt lat="43.72613" lon="6.94971">
        <ele>1091</ele>
        <time>2012-01-15T12:50:19Z</time>
      </trkpt>
      <trkpt lat="43.7262" lon="6.94967">
        <ele>1087.8</ele>
        <time>2012-01-15T12:50:30Z</time>
      </trkpt>
      <trkpt lat="43.72625" lon="6.9496">
        <ele>1087.3</ele>
        <time>2012-01-15T12:50:32Z</time>
      </trkpt>
      <trkpt lat="43.72632" lon="6.94954">
        <ele>1086.3</ele>
        <time>2012-01-15T12:50:34Z</time>
      </trkpt>
      <trkpt lat="43.72639" lon="6.94951">
        <ele>1084.9</ele>
        <time>2012-01-15T12:50:37Z</time>
      </trkpt>
      <trkpt lat="43.72644" lon="6.94942">
        <ele>1083.4</ele>
        <time>2012-01-15T12:50:40Z</time>
      </trkpt>
      <trkpt lat="43.72651" lon="6.94939">
        <ele>1081.5</ele>
        <time>2012-01-15T12:50:43Z</time>
      </trkpt>
      <trkpt lat="43.72657" lon="6.9494">
        <ele>1080.7</ele>
        <time>2012-01-15T12:50:45Z</time>
      </trkpt>
      <trkpt lat="43.72664" lon="6.94941">
        <ele>1079</ele>
        <time>2012-01-15T12:50:47Z</time>
      </trkpt>
      <trkpt lat="43.72668" lon="6.94943">
        <ele>1077.9</ele>
        <time>2012-01-15T12:50:48Z</time>
      </trkpt>
      <trkpt lat="43.72672" lon="6.94946">
        <ele>1077.1</ele>
        <time>2012-01-15T12:50:49Z</time>
      </trkpt>
      <trkpt lat="43.72681" lon="6.94951">
        <ele>1075.4</ele>
        <time>2012-01-15T12:50:51Z</time>
      </trkpt>
      <trkpt lat="43.72684" lon="6.94954">
        <ele>1074.6</ele>
        <time>2012-01-15T12:50:52Z</time>
      </trkpt>
      <trkpt lat="43.72689" lon="6.94969">
        <ele>1072.9</ele>
        <time>2012-01-15T12:50:55Z</time>
      </trkpt>
      <trkpt lat="43.72691" lon="6.94979">
        <ele>1071.9</ele>
        <time>2012-01-15T12:50:57Z</time>
      </trkpt>
      <trkpt lat="43.72688" lon="6.94988">
        <ele>1070.7</ele>
        <time>2012-01-15T12:50:59Z</time>
      </trkpt>
      <trkpt lat="43.72686" lon="6.94999">
        <ele>1068.8</ele>
        <time>2012-01-15T12:51:02Z</time>
      </trkpt>
      <trkpt lat="43.72683" lon="6.95007">
        <ele>1068.5</ele>
        <time>2012-01-15T12:51:05Z</time>
      </trkpt>
      <trkpt lat="43.7268" lon="6.95018">
        <ele>1069.2</ele>
        <time>2012-01-15T12:51:08Z</time>
      </trkpt>
      <trkpt lat="43.72678" lon="6.95029">
        <ele>1068.3</ele>
        <time>2012-01-15T12:51:11Z</time>
      </trkpt>
      <trkpt lat="43.72679" lon="6.95039">
        <ele>1068.7</ele>
        <time>2012-01-15T12:51:13Z</time>
      </trkpt>
      <trkpt lat="43.72687" lon="6.95044">
        <ele>1066.8</ele>
        <time>2012-01-15T12:51:16Z</time>
      </trkpt>
      <trkpt lat="43.72693" lon="6.95045">
        <ele>1065.6</ele>
        <time>2012-01-15T12:51:18Z</time>
      </trkpt>
      <trkpt lat="43.727" lon="6.95046">
        <ele>1063.9</ele>
        <time>2012-01-15T12:51:20Z</time>
      </trkpt>
      <trkpt lat="43.72708" lon="6.95045">
        <ele>1060.9</ele>
        <time>2012-01-15T12:51:22Z</time>
      </trkpt>
      <trkpt lat="43.72714" lon="6.9505">
        <ele>1058.2</ele>
        <time>2012-01-15T12:51:41Z</time>
      </trkpt>
      <trkpt lat="43.72719" lon="6.95057">
        <ele>1057.9</ele>
        <time>2012-01-15T12:51:46Z</time>
      </trkpt>
      <trkpt lat="43.72727" lon="6.95062">
        <ele>1057.2</ele>
        <time>2012-01-15T12:51:49Z</time>
      </trkpt>
      <trkpt lat="43.72733" lon="6.95066">
        <ele>1056.9</ele>
        <time>2012-01-15T12:51:51Z</time>
      </trkpt>
      <trkpt lat="43.72739" lon="6.95074">
        <ele>1055.6</ele>
        <time>2012-01-15T12:51:54Z</time>
      </trkpt>
      <trkpt lat="43.72741" lon="6.95076">
        <ele>1055.3</ele>
        <time>2012-01-15T12:51:55Z</time>
      </trkpt>
      <trkpt lat="43.72752" lon="6.95087">
        <ele>1054.8</ele>
        <time>2012-01-15T12:52:02Z</time>
      </trkpt>
      <trkpt lat="43.72759" lon="6.95092">
        <ele>1054.6</ele>
        <time>2012-01-15T12:52:06Z</time>
      </trkpt>
      <trkpt lat="43.72765" lon="6.951">
        <ele>1055.9</ele>
        <time>2012-01-15T12:52:12Z</time>
      </trkpt>
      <trkpt lat="43.72772" lon="6.95108">
        <ele>1057.9</ele>
        <time>2012-01-15T12:52:17Z</time>
      </trkpt>
      <trkpt lat="43.72776" lon="6.95117">
        <ele>1057.8</ele>
        <time>2012-01-15T12:52:21Z</time>
      </trkpt>
      <trkpt lat="43.72781" lon="6.95126">
        <ele>1057.6</ele>
        <time>2012-01-15T12:52:25Z</time>
      </trkpt>
      <trkpt lat="43.72785" lon="6.95135">
        <ele>1057.2</ele>
        <time>2012-01-15T12:52:28Z</time>
      </trkpt>
      <trkpt lat="43.7279" lon="6.95141">
        <ele>1055.4</ele>
        <time>2012-01-15T12:52:31Z</time>
      </trkpt>
      <trkpt lat="43.72796" lon="6.95142">
        <ele>1054.2</ele>
        <time>2012-01-15T12:52:33Z</time>
      </trkpt>
      <trkpt lat="43.72803" lon="6.95146">
        <ele>1053.2</ele>
        <time>2012-01-15T12:52:35Z</time>
      </trkpt>
      <trkpt lat="43.72807" lon="6.9515">
        <ele>1052.7</ele>
        <time>2012-01-15T12:52:36Z</time>
      </trkpt>
      <trkpt lat="43.72813" lon="6.95158">
        <ele>1051.3</ele>
        <time>2012-01-15T12:52:38Z</time>
      </trkpt>
      <trkpt lat="43.72818" lon="6.95167">
        <ele>1050.3</ele>
        <time>2012-01-15T12:52:41Z</time>
      </trkpt>
      <trkpt lat="43.72822" lon="6.95175">
        <ele>1050.8</ele>
        <time>2012-01-15T12:52:44Z</time>
      </trkpt>
      <trkpt lat="43.72825" lon="6.95186">
        <ele>1051.2</ele>
        <time>2012-01-15T12:52:47Z</time>
      </trkpt>
      <trkpt lat="43.72832" lon="6.95192">
        <ele>1050.7</ele>
        <time>2012-01-15T12:52:49Z</time>
      </trkpt>
      <trkpt lat="43.72836" lon="6.95194">
        <ele>1050.4</ele>
        <time>2012-01-15T12:52:50Z</time>
      </trkpt>
      <trkpt lat="43.72841" lon="6.95196">
        <ele>1049.9</ele>
        <time>2012-01-15T12:52:51Z</time>
      </trkpt>
      <trkpt lat="43.72846" lon="6.95199">
        <ele>1049.5</ele>
        <time>2012-01-15T12:52:52Z</time>
      </trkpt>
      <trkpt lat="43.7285" lon="6.95202">
        <ele>1049.2</ele>
        <time>2012-01-15T12:52:53Z</time>
      </trkpt>
      <trkpt lat="43.72855" lon="6.95205">
        <ele>1048.6</ele>
        <time>2012-01-15T12:52:54Z</time>
      </trkpt>
      <trkpt lat="43.72859" lon="6.95209">
        <ele>1048.1</ele>
        <time>2012-01-15T12:52:55Z</time>
      </trkpt>
      <trkpt lat="43.72864" lon="6.95213">
        <ele>1047.3</ele>
        <time>2012-01-15T12:52:56Z</time>
      </trkpt>
      <trkpt lat="43.72869" lon="6.95218">
        <ele>1046.6</ele>
        <time>2012-01-15T12:52:57Z</time>
      </trkpt>
      <trkpt lat="43.72877" lon="6.95223">
        <ele>1045.4</ele>
        <time>2012-01-15T12:52:59Z</time>
      </trkpt>
      <trkpt lat="43.72882" lon="6.95229">
        <ele>1044.7</ele>
        <time>2012-01-15T12:53:01Z</time>
      </trkpt>
      <trkpt lat="43.72888" lon="6.95234">
        <ele>1043.8</ele>
        <time>2012-01-15T12:53:03Z</time>
      </trkpt>
      <trkpt lat="43.72892" lon="6.95238">
        <ele>1043.3</ele>
        <time>2012-01-15T12:53:04Z</time>
      </trkpt>
      <trkpt lat="43.72896" lon="6.95243">
        <ele>1042.9</ele>
        <time>2012-01-15T12:53:05Z</time>
      </trkpt>
      <trkpt lat="43.729" lon="6.95248">
        <ele>1042</ele>
        <time>2012-01-15T12:53:06Z</time>
      </trkpt>
      <trkpt lat="43.72905" lon="6.95252">
        <ele>1041.3</ele>
        <time>2012-01-15T12:53:07Z</time>
      </trkpt>
      <trkpt lat="43.72908" lon="6.95258">
        <ele>1040.6</ele>
        <time>2012-01-15T12:53:08Z</time>
      </trkpt>
      <trkpt lat="43.7291" lon="6.95265">
        <ele>1040.1</ele>
        <time>2012-01-15T12:53:09Z</time>
      </trkpt>
      <trkpt lat="43.72913" lon="6.95271">
        <ele>1039</ele>
        <time>2012-01-15T12:53:10Z</time>
      </trkpt>
      <trkpt lat="43.72916" lon="6.95276">
        <ele>1038.2</ele>
        <time>2012-01-15T12:53:11Z</time>
      </trkpt>
      <trkpt lat="43.72922" lon="6.95286">
        <ele>1036.9</ele>
        <time>2012-01-15T12:53:13Z</time>
      </trkpt>
      <trkpt lat="43.72931" lon="6.95289">
        <ele>1034.9</ele>
        <time>2012-01-15T12:53:16Z</time>
      </trkpt>
      <trkpt lat="43.72937" lon="6.9529">
        <ele>1034.1</ele>
        <time>2012-01-15T12:53:18Z</time>
      </trkpt>
      <trkpt lat="43.72944" lon="6.95293">
        <ele>1033.6</ele>
        <time>2012-01-15T12:53:20Z</time>
      </trkpt>
      <trkpt lat="43.72952" lon="6.95297">
        <ele>1032.9</ele>
        <time>2012-01-15T12:53:22Z</time>
      </trkpt>
      <trkpt lat="43.72956" lon="6.95299">
        <ele>1032.5</ele>
        <time>2012-01-15T12:53:23Z</time>
      </trkpt>
      <trkpt lat="43.72962" lon="6.95301">
        <ele>1032.2</ele>
        <time>2012-01-15T12:53:24Z</time>
      </trkpt>
      <trkpt lat="43.72968" lon="6.95305">
        <ele>1031.7</ele>
        <time>2012-01-15T12:53:25Z</time>
      </trkpt>
      <trkpt lat="43.72974" lon="6.95308">
        <ele>1031.2</ele>
        <time>2012-01-15T12:53:26Z</time>
      </trkpt>
      <trkpt lat="43.7298" lon="6.95311">
        <ele>1030.7</ele>
        <time>2012-01-15T12:53:27Z</time>
      </trkpt>
      <trkpt lat="43.72985" lon="6.95314">
        <ele>1030.3</ele>
        <time>2012-01-15T12:53:28Z</time>
      </trkpt>
      <trkpt lat="43.7299" lon="6.95316">
        <ele>1030</ele>
        <time>2012-01-15T12:53:29Z</time>
      </trkpt>
      <trkpt lat="43.72995" lon="6.95319">
        <ele>1029.2</ele>
        <time>2012-01-15T12:53:30Z</time>
      </trkpt>
      <trkpt lat="43.73003" lon="6.95322">
        <ele>1027.5</ele>
        <time>2012-01-15T12:53:32Z</time>
      </trkpt>
      <trkpt lat="43.73009" lon="6.95318">
        <ele>1025.6</ele>
        <time>2012-01-15T12:53:34Z</time>
      </trkpt>
      <trkpt lat="43.73016" lon="6.9531">
        <ele>1025.1</ele>
        <time>2012-01-15T12:53:38Z</time>
      </trkpt>
      <trkpt lat="43.7302" lon="6.95301">
        <ele>1024.9</ele>
        <time>2012-01-15T12:53:42Z</time>
      </trkpt>
      <trkpt lat="43.73025" lon="6.95291">
        <ele>1026.1</ele>
        <time>2012-01-15T12:53:47Z</time>
      </trkpt>
      <trkpt lat="43.73026" lon="6.95281">
        <ele>1026.5</ele>
        <time>2012-01-15T12:53:51Z</time>
      </trkpt>
      <trkpt lat="43.73032" lon="6.95272">
        <ele>1028.2</ele>
        <time>2012-01-15T12:54:25Z</time>
      </trkpt>
      <trkpt lat="43.73033" lon="6.95273">
        <ele>1028.1</ele>
        <time>2012-01-15T12:54:26Z</time>
      </trkpt>
      <trkpt lat="43.73048" lon="6.95282">
        <ele>1028</ele>
        <time>2012-01-15T12:54:33Z</time>
      </trkpt>
      <trkpt lat="43.73055" lon="6.95287">
        <ele>1029</ele>
        <time>2012-01-15T12:54:37Z</time>
      </trkpt>
      <trkpt lat="43.73057" lon="6.95295">
        <ele>1027.9</ele>
        <time>2012-01-15T12:54:40Z</time>
      </trkpt>
      <trkpt lat="43.73063" lon="6.95301">
        <ele>1027.2</ele>
        <time>2012-01-15T12:54:43Z</time>
      </trkpt>
      <trkpt lat="43.7307" lon="6.95304">
        <ele>1026.3</ele>
        <time>2012-01-15T12:54:46Z</time>
      </trkpt>
      <trkpt lat="43.73076" lon="6.9531">
        <ele>1025.5</ele>
        <time>2012-01-15T12:54:49Z</time>
      </trkpt>
      <trkpt lat="43.73075" lon="6.9532">
        <ele>1023.2</ele>
        <time>2012-01-15T12:55:10Z</time>
      </trkpt>
      <trkpt lat="43.7307" lon="6.95331">
        <ele>1023.2</ele>
        <time>2012-01-15T12:55:13Z</time>
      </trkpt>
      <trkpt lat="43.73066" lon="6.95339">
        <ele>1022.3</ele>
        <time>2012-01-15T12:55:16Z</time>
      </trkpt>
      <trkpt lat="43.73059" lon="6.95346">
        <ele>1020.7</ele>
        <time>2012-01-15T12:55:19Z</time>
      </trkpt>
      <trkpt lat="43.73059" lon="6.95354">
        <ele>1019.6</ele>
        <time>2012-01-15T12:55:21Z</time>
      </trkpt>
      <trkpt lat="43.73059" lon="6.95363">
        <ele>1018.4</ele>
        <time>2012-01-15T12:55:23Z</time>
      </trkpt>
      <trkpt lat="43.73059" lon="6.95375">
        <ele>1015</ele>
        <time>2012-01-15T12:55:37Z</time>
      </trkpt>
      <trkpt lat="43.7306" lon="6.95376">
        <ele>1015</ele>
        <time>2012-01-15T12:55:38Z</time>
      </trkpt>
      <trkpt lat="43.73073" lon="6.95382">
        <ele>1013.7</ele>
        <time>2012-01-15T12:55:42Z</time>
      </trkpt>
      <trkpt lat="43.73079" lon="6.9539">
        <ele>1012.9</ele>
        <time>2012-01-15T12:55:44Z</time>
      </trkpt>
      <trkpt lat="43.73084" lon="6.95399">
        <ele>1007.8</ele>
        <time>2012-01-15T12:55:55Z</time>
      </trkpt>
      <trkpt lat="43.73089" lon="6.95404">
        <ele>1007.7</ele>
        <time>2012-01-15T12:55:57Z</time>
      </trkpt>
      <trkpt lat="43.73092" lon="6.95414">
        <ele>1006.5</ele>
        <time>2012-01-15T12:56:00Z</time>
      </trkpt>
      <trkpt lat="43.73087" lon="6.95423">
        <ele>1005.1</ele>
        <time>2012-01-15T12:56:02Z</time>
      </trkpt>
      <trkpt lat="43.73083" lon="6.95432">
        <ele>1003.9</ele>
        <time>2012-01-15T12:56:04Z</time>
      </trkpt>
      <trkpt lat="43.73079" lon="6.95442">
        <ele>1002.7</ele>
        <time>2012-01-15T12:56:06Z</time>
      </trkpt>
      <trkpt lat="43.73073" lon="6.95449">
        <ele>1001.5</ele>
        <time>2012-01-15T12:56:08Z</time>
      </trkpt>
      <trkpt lat="43.73067" lon="6.95455">
        <ele>1000.6</ele>
        <time>2012-01-15T12:56:10Z</time>
      </trkpt>
      <trkpt lat="43.73062" lon="6.95462">
        <ele>999</ele>
        <time>2012-01-15T12:56:12Z</time>
      </trkpt>
      <trkpt lat="43.73059" lon="6.95467">
        <ele>998.1</ele>
        <time>2012-01-15T12:56:13Z</time>
      </trkpt>
      <trkpt lat="43.73054" lon="6.95476">
        <ele>996.8</ele>
        <time>2012-01-15T12:56:15Z</time>
      </trkpt>
      <trkpt lat="43.73052" lon="6.95482">
        <ele>994.6</ele>
        <time>2012-01-15T12:56:17Z</time>
      </trkpt>
      <trkpt lat="43.73049" lon="6.95491">
        <ele>993.7</ele>
        <time>2012-01-15T12:56:19Z</time>
      </trkpt>
      <trkpt lat="43.73046" lon="6.955">
        <ele>991.6</ele>
        <time>2012-01-15T12:56:21Z</time>
      </trkpt>
      <trkpt lat="43.73039" lon="6.95504">
        <ele>989.9</ele>
        <time>2012-01-15T12:56:23Z</time>
      </trkpt>
      <trkpt lat="43.73031" lon="6.95509">
        <ele>988.6</ele>
        <time>2012-01-15T12:56:25Z</time>
      </trkpt>
      <trkpt lat="43.73023" lon="6.95513">
        <ele>987.9</ele>
        <time>2012-01-15T12:56:27Z</time>
      </trkpt>
      <trkpt lat="43.73016" lon="6.95516">
        <ele>987.4</ele>
        <time>2012-01-15T12:56:29Z</time>
      </trkpt>
      <trkpt lat="43.73008" lon="6.95512">
        <ele>985.9</ele>
        <time>2012-01-15T12:56:32Z</time>
      </trkpt>
      <trkpt lat="43.73" lon="6.9551">
        <ele>984.6</ele>
        <time>2012-01-15T12:56:36Z</time>
      </trkpt>
      <trkpt lat="43.72993" lon="6.95516">
        <ele>981.8</ele>
        <time>2012-01-15T12:56:41Z</time>
      </trkpt>
      <trkpt lat="43.72992" lon="6.95517">
        <ele>981</ele>
        <time>2012-01-15T12:56:42Z</time>
      </trkpt>
      <trkpt lat="43.72977" lon="6.95522">
        <ele>977.2</ele>
        <time>2012-01-15T12:56:50Z</time>
      </trkpt>
      <trkpt lat="43.72969" lon="6.95525">
        <ele>973.5</ele>
        <time>2012-01-15T12:56:58Z</time>
      </trkpt>
      <trkpt lat="43.72961" lon="6.95529">
        <ele>970.9</ele>
        <time>2012-01-15T12:57:03Z</time>
      </trkpt>
      <trkpt lat="43.72953" lon="6.95531">
        <ele>967.6</ele>
        <time>2012-01-15T12:57:09Z</time>
      </trkpt>
      <trkpt lat="43.72946" lon="6.95534">
        <ele>965.7</ele>
        <time>2012-01-15T12:57:13Z</time>
      </trkpt>
      <trkpt lat="43.72939" lon="6.95535">
        <ele>964.2</ele>
        <time>2012-01-15T12:57:16Z</time>
      </trkpt>
      <trkpt lat="43.72931" lon="6.95535">
        <ele>962.2</ele>
        <time>2012-01-15T12:57:19Z</time>
      </trkpt>
      <trkpt lat="43.72924" lon="6.95537">
        <ele>960.9</ele>
        <time>2012-01-15T12:57:22Z</time>
      </trkpt>
      <trkpt lat="43.72916" lon="6.9554">
        <ele>957.9</ele>
        <time>2012-01-15T12:57:25Z</time>
      </trkpt>
      <trkpt lat="43.72908" lon="6.95543">
        <ele>955.1</ele>
        <time>2012-01-15T12:57:28Z</time>
      </trkpt>
      <trkpt lat="43.72903" lon="6.95545">
        <ele>953.2</ele>
        <time>2012-01-15T12:57:30Z</time>
      </trkpt>
      <trkpt lat="43.72897" lon="6.95547">
        <ele>951.8</ele>
        <time>2012-01-15T12:57:32Z</time>
      </trkpt>
      <trkpt lat="43.72891" lon="6.95551">
        <ele>950.3</ele>
        <time>2012-01-15T12:57:34Z</time>
      </trkpt>
      <trkpt lat="43.72885" lon="6.95555">
        <ele>948</ele>
        <time>2012-01-15T12:57:36Z</time>
      </trkpt>
      <trkpt lat="43.72878" lon="6.95558">
        <ele>945.8</ele>
        <time>2012-01-15T12:57:38Z</time>
      </trkpt>
      <trkpt lat="43.72872" lon="6.95563">
        <ele>943.4</ele>
        <time>2012-01-15T12:57:40Z</time>
      </trkpt>
      <trkpt lat="43.72866" lon="6.95569">
        <ele>940.6</ele>
        <time>2012-01-15T12:57:42Z</time>
      </trkpt>
      <trkpt lat="43.72862" lon="6.95572">
        <ele>939.7</ele>
        <time>2012-01-15T12:57:43Z</time>
      </trkpt>
      <trkpt lat="43.72854" lon="6.95582">
        <ele>936</ele>
        <time>2012-01-15T12:57:46Z</time>
      </trkpt>
      <trkpt lat="43.7285" lon="6.9559">
        <ele>933.5</ele>
        <time>2012-01-15T12:57:48Z</time>
      </trkpt>
      <trkpt lat="43.72845" lon="6.95597">
        <ele>931.3</ele>
        <time>2012-01-15T12:57:50Z</time>
      </trkpt>
      <trkpt lat="43.72846" lon="6.95609">
        <ele>927.5</ele>
        <time>2012-01-15T12:57:53Z</time>
      </trkpt>
      <trkpt lat="43.72844" lon="6.95617">
        <ele>925.1</ele>
        <time>2012-01-15T12:57:55Z</time>
      </trkpt>
      <trkpt lat="43.72841" lon="6.95629">
        <ele>922.7</ele>
        <time>2012-01-15T12:57:58Z</time>
      </trkpt>
      <trkpt lat="43.72847" lon="6.95637">
        <ele>917.5</ele>
        <time>2012-01-15T13:00:30Z</time>
      </trkpt>
      <trkpt lat="43.72847" lon="6.95639">
        <ele>917.6</ele>
        <time>2012-01-15T13:00:31Z</time>
      </trkpt>
      <trkpt lat="43.72847" lon="6.9566">
        <ele>915.1</ele>
        <time>2012-01-15T13:00:36Z</time>
      </trkpt>
      <trkpt lat="43.72845" lon="6.95672">
        <ele>912.2</ele>
        <time>2012-01-15T13:00:40Z</time>
      </trkpt>
      <trkpt lat="43.72841" lon="6.95681">
        <ele>910.2</ele>
        <time>2012-01-15T13:06:51Z</time>
      </trkpt>
      <trkpt lat="43.7284" lon="6.95683">
        <ele>909.9</ele>
        <time>2012-01-15T13:06:52Z</time>
      </trkpt>
      <trkpt lat="43.7284" lon="6.9567">
        <ele>911.5</ele>
        <time>2012-01-15T13:08:42Z</time>
      </trkpt>
      <trkpt lat="43.7284" lon="6.9567">
        <ele>911.2</ele>
        <time>2012-01-15T13:08:43Z</time>
      </trkpt>
      <trkpt lat="43.72831" lon="6.95664">
        <ele>908.6</ele>
        <time>2012-01-15T13:09:44Z</time>
      </trkpt>
      <trkpt lat="43.72823" lon="6.95649">
        <ele>906.9</ele>
        <time>2012-01-15T13:09:49Z</time>
      </trkpt>
      <trkpt lat="43.72819" lon="6.95639">
        <ele>905.4</ele>
        <time>2012-01-15T13:09:53Z</time>
      </trkpt>
      <trkpt lat="43.72814" lon="6.95631">
        <ele>904.8</ele>
        <time>2012-01-15T13:09:58Z</time>
      </trkpt>
      <trkpt lat="43.72806" lon="6.95628">
        <ele>898.1</ele>
        <time>2012-01-15T13:10:08Z</time>
      </trkpt>
      <trkpt lat="43.728" lon="6.9563">
        <ele>896.9</ele>
        <time>2012-01-15T13:10:10Z</time>
      </trkpt>
      <trkpt lat="43.72792" lon="6.95629">
        <ele>895.8</ele>
        <time>2012-01-15T13:10:12Z</time>
      </trkpt>
      <trkpt lat="43.72785" lon="6.95631">
        <ele>894.3</ele>
        <time>2012-01-15T13:10:15Z</time>
      </trkpt>
      <trkpt lat="43.72777" lon="6.95633">
        <ele>891.6</ele>
        <time>2012-01-15T13:10:18Z</time>
      </trkpt>
      <trkpt lat="43.72769" lon="6.95633">
        <ele>888.8</ele>
        <time>2012-01-15T13:10:21Z</time>
      </trkpt>
      <trkpt lat="43.72764" lon="6.95626">
        <ele>885.9</ele>
        <time>2012-01-15T13:10:25Z</time>
      </trkpt>
      <trkpt lat="43.72756" lon="6.95621">
        <ele>885</ele>
        <time>2012-01-15T13:10:28Z</time>
      </trkpt>
      <trkpt lat="43.7275" lon="6.95628">
        <ele>882.5</ele>
        <time>2012-01-15T13:10:34Z</time>
      </trkpt>
      <trkpt lat="43.72745" lon="6.95634">
        <ele>881.6</ele>
        <time>2012-01-15T13:10:36Z</time>
      </trkpt>
      <trkpt lat="43.72739" lon="6.95635">
        <ele>880</ele>
        <time>2012-01-15T13:10:38Z</time>
      </trkpt>
      <trkpt lat="43.72732" lon="6.95633">
        <ele>878.2</ele>
        <time>2012-01-15T13:10:40Z</time>
      </trkpt>
      <trkpt lat="43.72725" lon="6.95636">
        <ele>877.1</ele>
        <time>2012-01-15T13:10:42Z</time>
      </trkpt>
      <trkpt lat="43.72717" lon="6.95637">
        <ele>874.9</ele>
        <time>2012-01-15T13:10:45Z</time>
      </trkpt>
      <trkpt lat="43.72714" lon="6.9564">
        <ele>874.3</ele>
        <time>2012-01-15T13:10:46Z</time>
      </trkpt>
      <trkpt lat="43.72706" lon="6.95645">
        <ele>871.8</ele>
        <time>2012-01-15T13:10:49Z</time>
      </trkpt>
      <trkpt lat="43.72702" lon="6.95652">
        <ele>869</ele>
        <time>2012-01-15T13:10:51Z</time>
      </trkpt>
      <trkpt lat="43.72698" lon="6.95662">
        <ele>865.1</ele>
        <time>2012-01-15T13:10:57Z</time>
      </trkpt>
      <trkpt lat="43.727" lon="6.9565">
        <ele>863.6</ele>
        <time>2012-01-15T13:11:35Z</time>
      </trkpt>
      <trkpt lat="43.72706" lon="6.95642">
        <ele>864.7</ele>
        <time>2012-01-15T13:12:31Z</time>
      </trkpt>
      <trkpt lat="43.72707" lon="6.95642">
        <ele>864.9</ele>
        <time>2012-01-15T13:12:32Z</time>
      </trkpt>
      <trkpt lat="43.72702" lon="6.95662">
        <ele>864.8</ele>
        <time>2012-01-15T13:13:22Z</time>
      </trkpt>
      <trkpt lat="43.72697" lon="6.9567">
        <ele>864.8</ele>
        <time>2012-01-15T13:13:24Z</time>
      </trkpt>
      <trkpt lat="43.72693" lon="6.95676">
        <ele>863.1</ele>
        <time>2012-01-15T13:13:26Z</time>
      </trkpt>
      <trkpt lat="43.72689" lon="6.95683">
        <ele>862.1</ele>
        <time>2012-01-15T13:13:28Z</time>
      </trkpt>
      <trkpt lat="43.72687" lon="6.95694">
        <ele>861.2</ele>
        <time>2012-01-15T13:13:32Z</time>
      </trkpt>
      <trkpt lat="43.72687" lon="6.95696">
        <ele>861.2</ele>
        <time>2012-01-15T13:13:33Z</time>
      </trkpt>
      <trkpt lat="43.72691" lon="6.95712">
        <ele>860.1</ele>
        <time>2012-01-15T13:13:36Z</time>
      </trkpt>
      <trkpt lat="43.72691" lon="6.95724">
        <ele>858.9</ele>
        <time>2012-01-15T13:13:38Z</time>
      </trkpt>
      <trkpt lat="43.72689" lon="6.95732">
        <ele>858.2</ele>
        <time>2012-01-15T13:13:42Z</time>
      </trkpt>
      <trkpt lat="43.72684" lon="6.9574">
        <ele>857</ele>
        <time>2012-01-15T13:13:44Z</time>
      </trkpt>
      <trkpt lat="43.72678" lon="6.95745">
        <ele>855.8</ele>
        <time>2012-01-15T13:13:46Z</time>
      </trkpt>
      <trkpt lat="43.7267" lon="6.95748">
        <ele>854.9</ele>
        <time>2012-01-15T13:13:48Z</time>
      </trkpt>
      <trkpt lat="43.72665" lon="6.95751">
        <ele>853.6</ele>
        <time>2012-01-15T13:13:50Z</time>
      </trkpt>
      <trkpt lat="43.72659" lon="6.95755">
        <ele>852</ele>
        <time>2012-01-15T13:13:52Z</time>
      </trkpt>
      <trkpt lat="43.72651" lon="6.95753">
        <ele>850.3</ele>
        <time>2012-01-15T13:13:55Z</time>
      </trkpt>
      <trkpt lat="43.72644" lon="6.95747">
        <ele>848.6</ele>
        <time>2012-01-15T13:13:59Z</time>
      </trkpt>
      <trkpt lat="43.72637" lon="6.9574">
        <ele>847.6</ele>
        <time>2012-01-15T13:14:02Z</time>
      </trkpt>
      <trkpt lat="43.7263" lon="6.95733">
        <ele>847</ele>
        <time>2012-01-15T13:14:05Z</time>
      </trkpt>
      <trkpt lat="43.72625" lon="6.95725">
        <ele>847.1</ele>
        <time>2012-01-15T13:14:08Z</time>
      </trkpt>
      <trkpt lat="43.72619" lon="6.95717">
        <ele>847.3</ele>
        <time>2012-01-15T13:14:14Z</time>
      </trkpt>
      <trkpt lat="43.7261" lon="6.95717">
        <ele>849</ele>
        <time>2012-01-15T13:14:25Z</time>
      </trkpt>
      <trkpt lat="43.72607" lon="6.95728">
        <ele>850.3</ele>
        <time>2012-01-15T13:14:35Z</time>
      </trkpt>
      <trkpt lat="43.72608" lon="6.95731">
        <ele>850.3</ele>
        <time>2012-01-15T13:14:36Z</time>
      </trkpt>
      <trkpt lat="43.72609" lon="6.95745">
        <ele>850.7</ele>
        <time>2012-01-15T13:14:40Z</time>
      </trkpt>
      <trkpt lat="43.72607" lon="6.95754">
        <ele>850.1</ele>
        <time>2012-01-15T13:14:42Z</time>
      </trkpt>
      <trkpt lat="43.72605" lon="6.95764">
        <ele>849.2</ele>
        <time>2012-01-15T13:14:44Z</time>
      </trkpt>
      <trkpt lat="43.72604" lon="6.95774">
        <ele>848.3</ele>
        <time>2012-01-15T13:14:46Z</time>
      </trkpt>
      <trkpt lat="43.72601" lon="6.95783">
        <ele>847.7</ele>
        <time>2012-01-15T13:14:48Z</time>
      </trkpt>
      <trkpt lat="43.72596" lon="6.95793">
        <ele>847.8</ele>
        <time>2012-01-15T13:14:51Z</time>
      </trkpt>
      <trkpt lat="43.72594" lon="6.95804">
        <ele>847.5</ele>
        <time>2012-01-15T13:14:54Z</time>
      </trkpt>
      <trkpt lat="43.72597" lon="6.95815">
        <ele>846.3</ele>
        <time>2012-01-15T13:14:57Z</time>
      </trkpt>
      <trkpt lat="43.72594" lon="6.95823">
        <ele>845.2</ele>
        <time>2012-01-15T13:14:59Z</time>
      </trkpt>
      <trkpt lat="43.7259" lon="6.95831">
        <ele>843.6</ele>
        <time>2012-01-15T13:15:01Z</time>
      </trkpt>
      <trkpt lat="43.72585" lon="6.95838">
        <ele>842</ele>
        <time>2012-01-15T13:15:04Z</time>
      </trkpt>
      <trkpt lat="43.72577" lon="6.95845">
        <ele>839.6</ele>
        <time>2012-01-15T13:15:07Z</time>
      </trkpt>
      <trkpt lat="43.72571" lon="6.95848">
        <ele>837.8</ele>
        <time>2012-01-15T13:15:09Z</time>
      </trkpt>
      <trkpt lat="43.72563" lon="6.95849">
        <ele>836.5</ele>
        <time>2012-01-15T13:15:12Z</time>
      </trkpt>
      <trkpt lat="43.72556" lon="6.95856">
        <ele>833.8</ele>
        <time>2012-01-15T13:15:20Z</time>
      </trkpt>
      <trkpt lat="43.72548" lon="6.9586">
        <ele>832.6</ele>
        <time>2012-01-15T13:15:25Z</time>
      </trkpt>
      <trkpt lat="43.72541" lon="6.95864">
        <ele>831</ele>
        <time>2012-01-15T13:15:33Z</time>
      </trkpt>
      <trkpt lat="43.72543" lon="6.95874">
        <ele>830.6</ele>
        <time>2012-01-15T13:15:36Z</time>
      </trkpt>
      <trkpt lat="43.72545" lon="6.95876">
        <ele>830.4</ele>
        <time>2012-01-15T13:15:37Z</time>
      </trkpt>
      <trkpt lat="43.72545" lon="6.95896">
        <ele>829.5</ele>
        <time>2012-01-15T13:15:45Z</time>
      </trkpt>
      <trkpt lat="43.72548" lon="6.95906">
        <ele>829.3</ele>
        <time>2012-01-15T13:15:49Z</time>
      </trkpt>
      <trkpt lat="43.72554" lon="6.95915">
        <ele>829.3</ele>
        <time>2012-01-15T13:15:53Z</time>
      </trkpt>
      <trkpt lat="43.7255" lon="6.95927">
        <ele>828</ele>
        <time>2012-01-15T13:15:57Z</time>
      </trkpt>
      <trkpt lat="43.72547" lon="6.95934">
        <ele>827</ele>
        <time>2012-01-15T13:15:59Z</time>
      </trkpt>
      <trkpt lat="43.72542" lon="6.95942">
        <ele>826.3</ele>
        <time>2012-01-15T13:16:02Z</time>
      </trkpt>
      <trkpt lat="43.72535" lon="6.95948">
        <ele>824.3</ele>
        <time>2012-01-15T13:16:11Z</time>
      </trkpt>
      <trkpt lat="43.7253" lon="6.95957">
        <ele>823.2</ele>
        <time>2012-01-15T13:16:20Z</time>
      </trkpt>
      <trkpt lat="43.72528" lon="6.95967">
        <ele>824.3</ele>
        <time>2012-01-15T13:16:27Z</time>
      </trkpt>
      <trkpt lat="43.72521" lon="6.95973">
        <ele>822.4</ele>
        <time>2012-01-15T13:16:30Z</time>
      </trkpt>
      <trkpt lat="43.72516" lon="6.95979">
        <ele>822</ele>
        <time>2012-01-15T13:16:32Z</time>
      </trkpt>
      <trkpt lat="43.7251" lon="6.95986">
        <ele>821.3</ele>
        <time>2012-01-15T13:16:34Z</time>
      </trkpt>
      <trkpt lat="43.72505" lon="6.95994">
        <ele>821.2</ele>
        <time>2012-01-15T13:16:36Z</time>
      </trkpt>
      <trkpt lat="43.725" lon="6.96001">
        <ele>821</ele>
        <time>2012-01-15T13:16:38Z</time>
      </trkpt>
      <trkpt lat="43.72498" lon="6.96005">
        <ele>820.9</ele>
        <time>2012-01-15T13:16:39Z</time>
      </trkpt>
      <trkpt lat="43.72492" lon="6.96018">
        <ele>820.2</ele>
        <time>2012-01-15T13:16:42Z</time>
      </trkpt>
      <trkpt lat="43.72489" lon="6.96028">
        <ele>820</ele>
        <time>2012-01-15T13:16:44Z</time>
      </trkpt>
      <trkpt lat="43.72486" lon="6.96037">
        <ele>820.2</ele>
        <time>2012-01-15T13:16:46Z</time>
      </trkpt>
      <trkpt lat="43.72483" lon="6.96046">
        <ele>819.6</ele>
        <time>2012-01-15T13:16:48Z</time>
      </trkpt>
      <trkpt lat="43.72481" lon="6.96054">
        <ele>819.2</ele>
        <time>2012-01-15T13:16:50Z</time>
      </trkpt>
      <trkpt lat="43.7248" lon="6.96063">
        <ele>819.3</ele>
        <time>2012-01-15T13:16:52Z</time>
      </trkpt>
      <trkpt lat="43.72478" lon="6.96074">
        <ele>818.9</ele>
        <time>2012-01-15T13:16:55Z</time>
      </trkpt>
      <trkpt lat="43.72472" lon="6.96081">
        <ele>817.9</ele>
        <time>2012-01-15T13:16:59Z</time>
      </trkpt>
      <trkpt lat="43.72467" lon="6.96088">
        <ele>817</ele>
        <time>2012-01-15T13:17:03Z</time>
      </trkpt>
      <trkpt lat="43.72465" lon="6.96096">
        <ele>816.1</ele>
        <time>2012-01-15T13:17:05Z</time>
      </trkpt>
      <trkpt lat="43.72461" lon="6.96105">
        <ele>814.9</ele>
        <time>2012-01-15T13:17:07Z</time>
      </trkpt>
      <trkpt lat="43.72459" lon="6.96111">
        <ele>814.5</ele>
        <time>2012-01-15T13:17:08Z</time>
      </trkpt>
      <trkpt lat="43.72457" lon="6.96116">
        <ele>814.1</ele>
        <time>2012-01-15T13:17:09Z</time>
      </trkpt>
      <trkpt lat="43.72452" lon="6.96127">
        <ele>813.5</ele>
        <time>2012-01-15T13:17:11Z</time>
      </trkpt>
      <trkpt lat="43.72448" lon="6.96137">
        <ele>812.2</ele>
        <time>2012-01-15T13:17:13Z</time>
      </trkpt>
      <trkpt lat="43.72444" lon="6.96149">
        <ele>810.9</ele>
        <time>2012-01-15T13:17:15Z</time>
      </trkpt>
      <trkpt lat="43.7244" lon="6.96159">
        <ele>810.1</ele>
        <time>2012-01-15T13:17:17Z</time>
      </trkpt>
      <trkpt lat="43.72437" lon="6.96165">
        <ele>809.4</ele>
        <time>2012-01-15T13:17:18Z</time>
      </trkpt>
      <trkpt lat="43.72431" lon="6.96173">
        <ele>808.6</ele>
        <time>2012-01-15T13:17:20Z</time>
      </trkpt>
      <trkpt lat="43.72427" lon="6.96176">
        <ele>808.5</ele>
        <time>2012-01-15T13:17:21Z</time>
      </trkpt>
      <trkpt lat="43.72419" lon="6.96178">
        <ele>807.1</ele>
        <time>2012-01-15T13:17:23Z</time>
      </trkpt>
      <trkpt lat="43.72411" lon="6.96176">
        <ele>804</ele>
        <time>2012-01-15T13:17:28Z</time>
      </trkpt>
      <trkpt lat="43.72404" lon="6.9617">
        <ele>802.3</ele>
        <time>2012-01-15T13:17:31Z</time>
      </trkpt>
      <trkpt lat="43.72399" lon="6.96164">
        <ele>801.9</ele>
        <time>2012-01-15T13:17:33Z</time>
      </trkpt>
      <trkpt lat="43.72392" lon="6.96161">
        <ele>801.4</ele>
        <time>2012-01-15T13:17:35Z</time>
      </trkpt>
      <trkpt lat="43.72385" lon="6.96159">
        <ele>800.8</ele>
        <time>2012-01-15T13:17:37Z</time>
      </trkpt>
      <trkpt lat="43.72377" lon="6.96156">
        <ele>800.4</ele>
        <time>2012-01-15T13:17:39Z</time>
      </trkpt>
      <trkpt lat="43.72374" lon="6.96154">
        <ele>800.1</ele>
        <time>2012-01-15T13:17:40Z</time>
      </trkpt>
      <trkpt lat="43.72364" lon="6.96151">
        <ele>800.1</ele>
        <time>2012-01-15T13:17:43Z</time>
      </trkpt>
      <trkpt lat="43.72356" lon="6.96156">
        <ele>800</ele>
        <time>2012-01-15T13:17:46Z</time>
      </trkpt>
      <trkpt lat="43.72353" lon="6.96163">
        <ele>799.8</ele>
        <time>2012-01-15T13:17:48Z</time>
      </trkpt>
      <trkpt lat="43.72351" lon="6.96173">
        <ele>799.4</ele>
        <time>2012-01-15T13:17:50Z</time>
      </trkpt>
      <trkpt lat="43.72345" lon="6.96176">
        <ele>798.6</ele>
        <time>2012-01-15T13:18:17Z</time>
      </trkpt>
      <trkpt lat="43.72338" lon="6.96181">
        <ele>796.8</ele>
        <time>2012-01-15T13:18:20Z</time>
      </trkpt>
      <trkpt lat="43.7233" lon="6.96178">
        <ele>792.6</ele>
        <time>2012-01-15T13:18:27Z</time>
      </trkpt>
      <trkpt lat="43.72323" lon="6.96178">
        <ele>791</ele>
        <time>2012-01-15T13:18:29Z</time>
      </trkpt>
      <trkpt lat="43.72315" lon="6.96179">
        <ele>789.5</ele>
        <time>2012-01-15T13:18:31Z</time>
      </trkpt>
      <trkpt lat="43.72307" lon="6.96181">
        <ele>786.6</ele>
        <time>2012-01-15T13:18:33Z</time>
      </trkpt>
      <trkpt lat="43.72298" lon="6.96184">
        <ele>782.5</ele>
        <time>2012-01-15T13:18:36Z</time>
      </trkpt>
      <trkpt lat="43.72293" lon="6.96189">
        <ele>780.6</ele>
        <time>2012-01-15T13:18:38Z</time>
      </trkpt>
      <trkpt lat="43.72289" lon="6.96197">
        <ele>778.8</ele>
        <time>2012-01-15T13:18:40Z</time>
      </trkpt>
      <trkpt lat="43.72288" lon="6.96202">
        <ele>778.2</ele>
        <time>2012-01-15T13:18:41Z</time>
      </trkpt>
      <trkpt lat="43.72286" lon="6.96217">
        <ele>776.7</ele>
        <time>2012-01-15T13:18:45Z</time>
      </trkpt>
      <trkpt lat="43.72287" lon="6.96206">
        <ele>776.6</ele>
        <time>2012-01-15T13:18:55Z</time>
      </trkpt>
      <trkpt lat="43.72283" lon="6.96216">
        <ele>776.3</ele>
        <time>2012-01-15T13:19:46Z</time>
      </trkpt>
      <trkpt lat="43.72283" lon="6.9622">
        <ele>776</ele>
        <time>2012-01-15T13:19:47Z</time>
      </trkpt>
      <trkpt lat="43.72282" lon="6.96236">
        <ele>775.9</ele>
        <time>2012-01-15T13:19:51Z</time>
      </trkpt>
      <trkpt lat="43.72284" lon="6.96244">
        <ele>776.1</ele>
        <time>2012-01-15T13:19:53Z</time>
      </trkpt>
      <trkpt lat="43.72285" lon="6.96253">
        <ele>776.3</ele>
        <time>2012-01-15T13:19:55Z</time>
      </trkpt>
      <trkpt lat="43.72285" lon="6.96262">
        <ele>776.3</ele>
        <time>2012-01-15T13:19:57Z</time>
      </trkpt>
      <trkpt lat="43.72286" lon="6.9627">
        <ele>775.6</ele>
        <time>2012-01-15T13:19:59Z</time>
      </trkpt>
      <trkpt lat="43.72287" lon="6.96279">
        <ele>775</ele>
        <time>2012-01-15T13:20:01Z</time>
      </trkpt>
      <trkpt lat="43.72287" lon="6.96288">
        <ele>776</ele>
        <time>2012-01-15T13:20:03Z</time>
      </trkpt>
      <trkpt lat="43.72288" lon="6.96297">
        <ele>775.4</ele>
        <time>2012-01-15T13:20:05Z</time>
      </trkpt>
      <trkpt lat="43.7229" lon="6.96306">
        <ele>775.2</ele>
        <time>2012-01-15T13:20:07Z</time>
      </trkpt>
      <trkpt lat="43.72291" lon="6.96317">
        <ele>775.1</ele>
        <time>2012-01-15T13:20:10Z</time>
      </trkpt>
      <trkpt lat="43.72293" lon="6.96327">
        <ele>774.7</ele>
        <time>2012-01-15T13:20:13Z</time>
      </trkpt>
      <trkpt lat="43.72296" lon="6.96338">
        <ele>775.2</ele>
        <time>2012-01-15T13:20:16Z</time>
      </trkpt>
      <trkpt lat="43.723" lon="6.96346">
        <ele>775</ele>
        <time>2012-01-15T13:20:18Z</time>
      </trkpt>
      <trkpt lat="43.72304" lon="6.96354">
        <ele>774.6</ele>
        <time>2012-01-15T13:20:20Z</time>
      </trkpt>
      <trkpt lat="43.72308" lon="6.96362">
        <ele>774.5</ele>
        <time>2012-01-15T13:20:22Z</time>
      </trkpt>
      <trkpt lat="43.72314" lon="6.96369">
        <ele>774.7</ele>
        <time>2012-01-15T13:20:24Z</time>
      </trkpt>
      <trkpt lat="43.72321" lon="6.96375">
        <ele>774.5</ele>
        <time>2012-01-15T13:20:26Z</time>
      </trkpt>
      <trkpt lat="43.72327" lon="6.96378">
        <ele>773.8</ele>
        <time>2012-01-15T13:20:28Z</time>
      </trkpt>
      <trkpt lat="43.7233" lon="6.96388">
        <ele>772.6</ele>
        <time>2012-01-15T13:20:31Z</time>
      </trkpt>
      <trkpt lat="43.72323" lon="6.96396">
        <ele>771.9</ele>
        <time>2012-01-15T13:20:34Z</time>
      </trkpt>
      <trkpt lat="43.72316" lon="6.96398">
        <ele>771.4</ele>
        <time>2012-01-15T13:20:36Z</time>
      </trkpt>
      <trkpt lat="43.72309" lon="6.96399">
        <ele>770.8</ele>
        <time>2012-01-15T13:20:38Z</time>
      </trkpt>
      <trkpt lat="43.72303" lon="6.964">
        <ele>770.5</ele>
        <time>2012-01-15T13:20:40Z</time>
      </trkpt>
      <trkpt lat="43.72297" lon="6.96401">
        <ele>769.8</ele>
        <time>2012-01-15T13:20:42Z</time>
      </trkpt>
      <trkpt lat="43.72289" lon="6.96402">
        <ele>768.5</ele>
        <time>2012-01-15T13:20:45Z</time>
      </trkpt>
      <trkpt lat="43.72282" lon="6.96406">
        <ele>767.7</ele>
        <time>2012-01-15T13:20:48Z</time>
      </trkpt>
      <trkpt lat="43.7228" lon="6.96407">
        <ele>767.7</ele>
        <time>2012-01-15T13:20:49Z</time>
      </trkpt>
      <trkpt lat="43.72281" lon="6.96428">
        <ele>766.6</ele>
        <time>2012-01-15T13:20:59Z</time>
      </trkpt>
      <trkpt lat="43.72278" lon="6.96438">
        <ele>766.7</ele>
        <time>2012-01-15T13:21:02Z</time>
      </trkpt>
      <trkpt lat="43.72273" lon="6.96444">
        <ele>766.1</ele>
        <time>2012-01-15T13:21:04Z</time>
      </trkpt>
      <trkpt lat="43.72267" lon="6.96451">
        <ele>765.4</ele>
        <time>2012-01-15T13:21:06Z</time>
      </trkpt>
      <trkpt lat="43.7226" lon="6.96457">
        <ele>765.2</ele>
        <time>2012-01-15T13:21:08Z</time>
      </trkpt>
      <trkpt lat="43.72256" lon="6.9646">
        <ele>765.2</ele>
        <time>2012-01-15T13:21:09Z</time>
      </trkpt>
      <trkpt lat="43.72251" lon="6.96462">
        <ele>765.2</ele>
        <time>2012-01-15T13:21:10Z</time>
      </trkpt>
      <trkpt lat="43.72247" lon="6.96464">
        <ele>764.9</ele>
        <time>2012-01-15T13:21:11Z</time>
      </trkpt>
      <trkpt lat="43.72242" lon="6.96466">
        <ele>764.6</ele>
        <time>2012-01-15T13:21:12Z</time>
      </trkpt>
      <trkpt lat="43.72237" lon="6.96468">
        <ele>764.4</ele>
        <time>2012-01-15T13:21:13Z</time>
      </trkpt>
      <trkpt lat="43.72232" lon="6.9647">
        <ele>764.2</ele>
        <time>2012-01-15T13:21:14Z</time>
      </trkpt>
      <trkpt lat="43.72228" lon="6.96471">
        <ele>763.5</ele>
        <time>2012-01-15T13:21:15Z</time>
      </trkpt>
      <trkpt lat="43.72223" lon="6.96474">
        <ele>763</ele>
        <time>2012-01-15T13:21:16Z</time>
      </trkpt>
      <trkpt lat="43.72218" lon="6.96476">
        <ele>762.6</ele>
        <time>2012-01-15T13:21:17Z</time>
      </trkpt>
      <trkpt lat="43.72214" lon="6.96478">
        <ele>762.5</ele>
        <time>2012-01-15T13:21:18Z</time>
      </trkpt>
      <trkpt lat="43.72209" lon="6.96488">
        <ele>762.2</ele>
        <time>2012-01-15T13:21:20Z</time>
      </trkpt>
      <trkpt lat="43.72204" lon="6.96494">
        <ele>762</ele>
        <time>2012-01-15T13:21:22Z</time>
      </trkpt>
      <trkpt lat="43.72197" lon="6.96494">
        <ele>761.7</ele>
        <time>2012-01-15T13:21:24Z</time>
      </trkpt>
      <trkpt lat="43.72191" lon="6.96494">
        <ele>761.4</ele>
        <time>2012-01-15T13:21:26Z</time>
      </trkpt>
      <trkpt lat="43.72184" lon="6.96495">
        <ele>761</ele>
        <time>2012-01-15T13:21:28Z</time>
      </trkpt>
      <trkpt lat="43.72176" lon="6.965">
        <ele>761.2</ele>
        <time>2012-01-15T13:21:31Z</time>
      </trkpt>
      <trkpt lat="43.7217" lon="6.96506">
        <ele>761.8</ele>
        <time>2012-01-15T13:21:34Z</time>
      </trkpt>
      <trkpt lat="43.72163" lon="6.96512">
        <ele>762.1</ele>
        <time>2012-01-15T13:22:22Z</time>
      </trkpt>
      <trkpt lat="43.72161" lon="6.96514">
        <ele>761.9</ele>
        <time>2012-01-15T13:22:23Z</time>
      </trkpt>
      <trkpt lat="43.7215" lon="6.96523">
        <ele>762.1</ele>
        <time>2012-01-15T13:22:28Z</time>
      </trkpt>
      <trkpt lat="43.72144" lon="6.96528">
        <ele>762.7</ele>
        <time>2012-01-15T13:22:31Z</time>
      </trkpt>
      <trkpt lat="43.72138" lon="6.96534">
        <ele>763.1</ele>
        <time>2012-01-15T13:22:34Z</time>
      </trkpt>
      <trkpt lat="43.72131" lon="6.96539">
        <ele>763.5</ele>
        <time>2012-01-15T13:22:37Z</time>
      </trkpt>
      <trkpt lat="43.72123" lon="6.96544">
        <ele>764.2</ele>
        <time>2012-01-15T13:22:40Z</time>
      </trkpt>
      <trkpt lat="43.72115" lon="6.96548">
        <ele>764.4</ele>
        <time>2012-01-15T13:22:43Z</time>
      </trkpt>
      <trkpt lat="43.72106" lon="6.9655">
        <ele>764.3</ele>
        <time>2012-01-15T13:22:46Z</time>
      </trkpt>
      <trkpt lat="43.72098" lon="6.96553">
        <ele>764.7</ele>
        <time>2012-01-15T13:22:49Z</time>
      </trkpt>
      <trkpt lat="43.7209" lon="6.96555">
        <ele>764.2</ele>
        <time>2012-01-15T13:22:52Z</time>
      </trkpt>
      <trkpt lat="43.72081" lon="6.96556">
        <ele>764.4</ele>
        <time>2012-01-15T13:22:55Z</time>
      </trkpt>
      <trkpt lat="43.72073" lon="6.96551">
        <ele>763.8</ele>
        <time>2012-01-15T13:22:58Z</time>
      </trkpt>
      <trkpt lat="43.72068" lon="6.96542">
        <ele>762.6</ele>
        <time>2012-01-15T13:23:01Z</time>
      </trkpt>
      <trkpt lat="43.72065" lon="6.96535">
        <ele>761.6</ele>
        <time>2012-01-15T13:23:03Z</time>
      </trkpt>
      <trkpt lat="43.72063" lon="6.96525">
        <ele>760.9</ele>
        <time>2012-01-15T13:23:05Z</time>
      </trkpt>
      <trkpt lat="43.72061" lon="6.96514">
        <ele>760.4</ele>
        <time>2012-01-15T13:23:07Z</time>
      </trkpt>
      <trkpt lat="43.7206" lon="6.96508">
        <ele>760.3</ele>
        <time>2012-01-15T13:23:08Z</time>
      </trkpt>
      <trkpt lat="43.72059" lon="6.96501">
        <ele>760</ele>
        <time>2012-01-15T13:23:09Z</time>
      </trkpt>
      <trkpt lat="43.72058" lon="6.96493">
        <ele>759.7</ele>
        <time>2012-01-15T13:23:10Z</time>
      </trkpt>
      <trkpt lat="43.72058" lon="6.96486">
        <ele>759.6</ele>
        <time>2012-01-15T13:23:11Z</time>
      </trkpt>
      <trkpt lat="43.72057" lon="6.96478">
        <ele>759.2</ele>
        <time>2012-01-15T13:23:12Z</time>
      </trkpt>
      <trkpt lat="43.72057" lon="6.96471">
        <ele>759</ele>
        <time>2012-01-15T13:23:13Z</time>
      </trkpt>
      <trkpt lat="43.72056" lon="6.96463">
        <ele>758.6</ele>
        <time>2012-01-15T13:23:14Z</time>
      </trkpt>
      <trkpt lat="43.72056" lon="6.96456">
        <ele>758.3</ele>
        <time>2012-01-15T13:23:15Z</time>
      </trkpt>
      <trkpt lat="43.72055" lon="6.96449">
        <ele>758</ele>
        <time>2012-01-15T13:23:16Z</time>
      </trkpt>
      <trkpt lat="43.72054" lon="6.96437">
        <ele>758.1</ele>
        <time>2012-01-15T13:23:18Z</time>
      </trkpt>
      <trkpt lat="43.72053" lon="6.96427">
        <ele>757.6</ele>
        <time>2012-01-15T13:23:20Z</time>
      </trkpt>
      <trkpt lat="43.72051" lon="6.96416">
        <ele>757.5</ele>
        <time>2012-01-15T13:23:22Z</time>
      </trkpt>
      <trkpt lat="43.72048" lon="6.96407">
        <ele>757.2</ele>
        <time>2012-01-15T13:23:24Z</time>
      </trkpt>
      <trkpt lat="43.72047" lon="6.96402">
        <ele>757</ele>
        <time>2012-01-15T13:23:25Z</time>
      </trkpt>
      <trkpt lat="43.72043" lon="6.9639">
        <ele>757.1</ele>
        <time>2012-01-15T13:23:28Z</time>
      </trkpt>
      <trkpt lat="43.72041" lon="6.96379">
        <ele>757.3</ele>
        <time>2012-01-15T13:23:31Z</time>
      </trkpt>
      <trkpt lat="43.72037" lon="6.96369">
        <ele>757.5</ele>
        <time>2012-01-15T13:23:35Z</time>
      </trkpt>
      <trkpt lat="43.72034" lon="6.96358">
        <ele>758.2</ele>
        <time>2012-01-15T13:23:39Z</time>
      </trkpt>
      <trkpt lat="43.72032" lon="6.96348">
        <ele>759.9</ele>
        <time>2012-01-15T13:23:43Z</time>
      </trkpt>
      <trkpt lat="43.72031" lon="6.96338">
        <ele>760.6</ele>
        <time>2012-01-15T13:23:48Z</time>
      </trkpt>
      <trkpt lat="43.72031" lon="6.96326">
        <ele>760.7</ele>
        <time>2012-01-15T13:23:53Z</time>
      </trkpt>
      <trkpt lat="43.72029" lon="6.96315">
        <ele>761.8</ele>
        <time>2012-01-15T13:23:57Z</time>
      </trkpt>
      <trkpt lat="43.72029" lon="6.96305">
        <ele>763.3</ele>
        <time>2012-01-15T13:24:01Z</time>
      </trkpt>
      <trkpt lat="43.72026" lon="6.96294">
        <ele>764.1</ele>
        <time>2012-01-15T13:24:06Z</time>
      </trkpt>
      <trkpt lat="43.72022" lon="6.96284">
        <ele>764.4</ele>
        <time>2012-01-15T13:24:11Z</time>
      </trkpt>
      <trkpt lat="43.72018" lon="6.96274">
        <ele>764.7</ele>
        <time>2012-01-15T13:24:16Z</time>
      </trkpt>
      <trkpt lat="43.72015" lon="6.96264">
        <ele>766.5</ele>
        <time>2012-01-15T13:24:21Z</time>
      </trkpt>
      <trkpt lat="43.72012" lon="6.96254">
        <ele>767.8</ele>
        <time>2012-01-15T13:24:26Z</time>
      </trkpt>
      <trkpt lat="43.72012" lon="6.96252">
        <ele>767.9</ele>
        <time>2012-01-15T13:24:27Z</time>
      </trkpt>
      <trkpt lat="43.7201" lon="6.96232">
        <ele>768.4</ele>
        <time>2012-01-15T13:24:35Z</time>
      </trkpt>
      <trkpt lat="43.72008" lon="6.9622">
        <ele>769.1</ele>
        <time>2012-01-15T13:24:40Z</time>
      </trkpt>
      <trkpt lat="43.72007" lon="6.96209">
        <ele>769</ele>
        <time>2012-01-15T13:24:45Z</time>
      </trkpt>
      <trkpt lat="43.72002" lon="6.96202">
        <ele>767.8</ele>
        <time>2012-01-15T13:24:50Z</time>
      </trkpt>
      <trkpt lat="43.71994" lon="6.96199">
        <ele>768.1</ele>
        <time>2012-01-15T13:24:53Z</time>
      </trkpt>
      <trkpt lat="43.71988" lon="6.96196">
        <ele>768.1</ele>
        <time>2012-01-15T13:24:55Z</time>
      </trkpt>
      <trkpt lat="43.71981" lon="6.96193">
        <ele>767.7</ele>
        <time>2012-01-15T13:24:57Z</time>
      </trkpt>
      <trkpt lat="43.71974" lon="6.96188">
        <ele>767.3</ele>
        <time>2012-01-15T13:24:59Z</time>
      </trkpt>
      <trkpt lat="43.71968" lon="6.96182">
        <ele>766.7</ele>
        <time>2012-01-15T13:25:01Z</time>
      </trkpt>
      <trkpt lat="43.7196" lon="6.96178">
        <ele>765.8</ele>
        <time>2012-01-15T13:25:03Z</time>
      </trkpt>
      <trkpt lat="43.71951" lon="6.96176">
        <ele>765.1</ele>
        <time>2012-01-15T13:25:05Z</time>
      </trkpt>
      <trkpt lat="43.71943" lon="6.96177">
        <ele>764</ele>
        <time>2012-01-15T13:25:07Z</time>
      </trkpt>
      <trkpt lat="43.71935" lon="6.96178">
        <ele>764.6</ele>
        <time>2012-01-15T13:25:09Z</time>
      </trkpt>
      <trkpt lat="43.71927" lon="6.96179">
        <ele>764.5</ele>
        <time>2012-01-15T13:25:11Z</time>
      </trkpt>
      <trkpt lat="43.7192" lon="6.96181">
        <ele>764.5</ele>
        <time>2012-01-15T13:25:13Z</time>
      </trkpt>
      <trkpt lat="43.71914" lon="6.96183">
        <ele>764.8</ele>
        <time>2012-01-15T13:25:15Z</time>
      </trkpt>
      <trkpt lat="43.71906" lon="6.96185">
        <ele>764.6</ele>
        <time>2012-01-15T13:25:18Z</time>
      </trkpt>
      <trkpt lat="43.71898" lon="6.96186">
        <ele>764.1</ele>
        <time>2012-01-15T13:25:21Z</time>
      </trkpt>
      <trkpt lat="43.7189" lon="6.96188">
        <ele>764.9</ele>
        <time>2012-01-15T13:25:24Z</time>
      </trkpt>
      <trkpt lat="43.71883" lon="6.96189">
        <ele>764.9</ele>
        <time>2012-01-15T13:25:27Z</time>
      </trkpt>
      <trkpt lat="43.7188" lon="6.9619">
        <ele>765.1</ele>
        <time>2012-01-15T13:25:28Z</time>
      </trkpt>
      <trkpt lat="43.71869" lon="6.96193">
        <ele>766</ele>
        <time>2012-01-15T13:25:33Z</time>
      </trkpt>
      <trkpt lat="43.71862" lon="6.96196">
        <ele>766.7</ele>
        <time>2012-01-15T13:25:36Z</time>
      </trkpt>
      <trkpt lat="43.71855" lon="6.962">
        <ele>766.9</ele>
        <time>2012-01-15T13:25:39Z</time>
      </trkpt>
      <trkpt lat="43.7185" lon="6.96207">
        <ele>766.8</ele>
        <time>2012-01-15T13:25:42Z</time>
      </trkpt>
      <trkpt lat="43.71845" lon="6.96214">
        <ele>766.8</ele>
        <time>2012-01-15T13:25:45Z</time>
      </trkpt>
      <trkpt lat="43.7184" lon="6.96224">
        <ele>767.1</ele>
        <time>2012-01-15T13:25:49Z</time>
      </trkpt>
      <trkpt lat="43.71833" lon="6.96232">
        <ele>767</ele>
        <time>2012-01-15T13:25:53Z</time>
      </trkpt>
      <trkpt lat="43.71828" lon="6.96238">
        <ele>766.9</ele>
        <time>2012-01-15T13:25:56Z</time>
      </trkpt>
      <trkpt lat="43.71822" lon="6.96244">
        <ele>767.3</ele>
        <time>2012-01-15T13:25:59Z</time>
      </trkpt>
      <trkpt lat="43.71817" lon="6.96252">
        <ele>767.3</ele>
        <time>2012-01-15T13:26:02Z</time>
      </trkpt>
      <trkpt lat="43.71812" lon="6.96261">
        <ele>767.1</ele>
        <time>2012-01-15T13:26:05Z</time>
      </trkpt>
      <trkpt lat="43.71809" lon="6.96271">
        <ele>766.7</ele>
        <time>2012-01-15T13:26:08Z</time>
      </trkpt>
      <trkpt lat="43.71806" lon="6.96281">
        <ele>767.1</ele>
        <time>2012-01-15T13:26:11Z</time>
      </trkpt>
      <trkpt lat="43.71804" lon="6.96293">
        <ele>766.8</ele>
        <time>2012-01-15T13:26:15Z</time>
      </trkpt>
      <trkpt lat="43.71803" lon="6.96302">
        <ele>767</ele>
        <time>2012-01-15T13:26:18Z</time>
      </trkpt>
      <trkpt lat="43.718" lon="6.96314">
        <ele>767.4</ele>
        <time>2012-01-15T13:26:22Z</time>
      </trkpt>
      <trkpt lat="43.71798" lon="6.96325">
        <ele>767.4</ele>
        <time>2012-01-15T13:26:26Z</time>
      </trkpt>
      <trkpt lat="43.71796" lon="6.96336">
        <ele>767.9</ele>
        <time>2012-01-15T13:26:30Z</time>
      </trkpt>
      <trkpt lat="43.71795" lon="6.96339">
        <ele>768.2</ele>
        <time>2012-01-15T13:26:31Z</time>
      </trkpt>
      <trkpt lat="43.71791" lon="6.96357">
        <ele>769</ele>
        <time>2012-01-15T13:26:38Z</time>
      </trkpt>
      <trkpt lat="43.71788" lon="6.96367">
        <ele>769.5</ele>
        <time>2012-01-15T13:26:42Z</time>
      </trkpt>
      <trkpt lat="43.71785" lon="6.96377">
        <ele>770.7</ele>
        <time>2012-01-15T13:26:46Z</time>
      </trkpt>
      <trkpt lat="43.71782" lon="6.96386">
        <ele>772.1</ele>
        <time>2012-01-15T13:26:50Z</time>
      </trkpt>
      <trkpt lat="43.71779" lon="6.96395">
        <ele>771.7</ele>
        <time>2012-01-15T13:26:54Z</time>
      </trkpt>
      <trkpt lat="43.71775" lon="6.96404">
        <ele>772.8</ele>
        <time>2012-01-15T13:26:58Z</time>
      </trkpt>
      <trkpt lat="43.71771" lon="6.96413">
        <ele>773.8</ele>
        <time>2012-01-15T13:27:02Z</time>
      </trkpt>
      <trkpt lat="43.71766" lon="6.96421">
        <ele>774.6</ele>
        <time>2012-01-15T13:27:06Z</time>
      </trkpt>
      <trkpt lat="43.71761" lon="6.96428">
        <ele>775.2</ele>
        <time>2012-01-15T13:27:10Z</time>
      </trkpt>
      <trkpt lat="43.71755" lon="6.96436">
        <ele>775.3</ele>
        <time>2012-01-15T13:27:14Z</time>
      </trkpt>
      <trkpt lat="43.71748" lon="6.96442">
        <ele>775.9</ele>
        <time>2012-01-15T13:27:18Z</time>
      </trkpt>
      <trkpt lat="43.71742" lon="6.96448">
        <ele>777</ele>
        <time>2012-01-15T13:27:22Z</time>
      </trkpt>
      <trkpt lat="43.71735" lon="6.96454">
        <ele>777</ele>
        <time>2012-01-15T13:27:26Z</time>
      </trkpt>
      <trkpt lat="43.71729" lon="6.9646">
        <ele>777.8</ele>
        <time>2012-01-15T13:27:30Z</time>
      </trkpt>
      <trkpt lat="43.71721" lon="6.96466">
        <ele>779.2</ele>
        <time>2012-01-15T13:27:34Z</time>
      </trkpt>
      <trkpt lat="43.7172" lon="6.96468">
        <ele>778.9</ele>
        <time>2012-01-15T13:27:35Z</time>
      </trkpt>
      <trkpt lat="43.7171" lon="6.96484">
        <ele>778</ele>
        <time>2012-01-15T13:27:42Z</time>
      </trkpt>
      <trkpt lat="43.71707" lon="6.96495">
        <ele>778.6</ele>
        <time>2012-01-15T13:27:46Z</time>
      </trkpt>
      <trkpt lat="43.71704" lon="6.96503">
        <ele>779</ele>
        <time>2012-01-15T13:27:49Z</time>
      </trkpt>
      <trkpt lat="43.71699" lon="6.96513">
        <ele>779.2</ele>
        <time>2012-01-15T13:27:53Z</time>
      </trkpt>
      <trkpt lat="43.71693" lon="6.96522">
        <ele>779.8</ele>
        <time>2012-01-15T13:27:57Z</time>
      </trkpt>
      <trkpt lat="43.71688" lon="6.96529">
        <ele>779.3</ele>
        <time>2012-01-15T13:28:00Z</time>
      </trkpt>
      <trkpt lat="43.71681" lon="6.96536">
        <ele>779.1</ele>
        <time>2012-01-15T13:28:03Z</time>
      </trkpt>
      <trkpt lat="43.71674" lon="6.9654">
        <ele>779</ele>
        <time>2012-01-15T13:28:05Z</time>
      </trkpt>
      <trkpt lat="43.71667" lon="6.96545">
        <ele>778</ele>
        <time>2012-01-15T13:28:07Z</time>
      </trkpt>
      <trkpt lat="43.71662" lon="6.96548">
        <ele>777.6</ele>
        <time>2012-01-15T13:28:08Z</time>
      </trkpt>
      <trkpt lat="43.71658" lon="6.96552">
        <ele>777.4</ele>
        <time>2012-01-15T13:28:09Z</time>
      </trkpt>
      <trkpt lat="43.71654" lon="6.96556">
        <ele>777.2</ele>
        <time>2012-01-15T13:28:10Z</time>
      </trkpt>
      <trkpt lat="43.71651" lon="6.96561">
        <ele>776.7</ele>
        <time>2012-01-15T13:28:11Z</time>
      </trkpt>
      <trkpt lat="43.71647" lon="6.96565">
        <ele>776.3</ele>
        <time>2012-01-15T13:28:12Z</time>
      </trkpt>
      <trkpt lat="43.71642" lon="6.96575">
        <ele>776.4</ele>
        <time>2012-01-15T13:28:14Z</time>
      </trkpt>
      <trkpt lat="43.71636" lon="6.96584">
        <ele>776.1</ele>
        <time>2012-01-15T13:28:16Z</time>
      </trkpt>
      <trkpt lat="43.71632" lon="6.96593">
        <ele>776</ele>
        <time>2012-01-15T13:28:18Z</time>
      </trkpt>
      <trkpt lat="43.71627" lon="6.96602">
        <ele>775.8</ele>
        <time>2012-01-15T13:28:20Z</time>
      </trkpt>
      <trkpt lat="43.71623" lon="6.96609">
        <ele>775.3</ele>
        <time>2012-01-15T13:28:22Z</time>
      </trkpt>
      <trkpt lat="43.71619" lon="6.96619">
        <ele>775.7</ele>
        <time>2012-01-15T13:28:25Z</time>
      </trkpt>
      <trkpt lat="43.71614" lon="6.96628">
        <ele>775.4</ele>
        <time>2012-01-15T13:28:28Z</time>
      </trkpt>
      <trkpt lat="43.71609" lon="6.96636">
        <ele>775.7</ele>
        <time>2012-01-15T13:28:31Z</time>
      </trkpt>
      <trkpt lat="43.71605" lon="6.96645">
        <ele>776.5</ele>
        <time>2012-01-15T13:28:34Z</time>
      </trkpt>
      <trkpt lat="43.71601" lon="6.96653">
        <ele>777.3</ele>
        <time>2012-01-15T13:28:37Z</time>
      </trkpt>
      <trkpt lat="43.716" lon="6.96656">
        <ele>777.7</ele>
        <time>2012-01-15T13:28:38Z</time>
      </trkpt>
      <trkpt lat="43.71592" lon="6.96673">
        <ele>778.2</ele>
        <time>2012-01-15T13:28:45Z</time>
      </trkpt>
      <trkpt lat="43.71588" lon="6.96682">
        <ele>778.7</ele>
        <time>2012-01-15T13:28:49Z</time>
      </trkpt>
      <trkpt lat="43.71585" lon="6.96691">
        <ele>779.4</ele>
        <time>2012-01-15T13:28:53Z</time>
      </trkpt>
      <trkpt lat="43.71581" lon="6.967">
        <ele>780.1</ele>
        <time>2012-01-15T13:28:57Z</time>
      </trkpt>
      <trkpt lat="43.71577" lon="6.9671">
        <ele>781.7</ele>
        <time>2012-01-15T13:29:02Z</time>
      </trkpt>
      <trkpt lat="43.71572" lon="6.96721">
        <ele>782.5</ele>
        <time>2012-01-15T13:29:07Z</time>
      </trkpt>
      <trkpt lat="43.71568" lon="6.96729">
        <ele>782.5</ele>
        <time>2012-01-15T13:29:11Z</time>
      </trkpt>
      <trkpt lat="43.71562" lon="6.96736">
        <ele>783.4</ele>
        <time>2012-01-15T13:29:15Z</time>
      </trkpt>
      <trkpt lat="43.71557" lon="6.96742">
        <ele>784.8</ele>
        <time>2012-01-15T13:29:19Z</time>
      </trkpt>
      <trkpt lat="43.7155" lon="6.96747">
        <ele>785</ele>
        <time>2012-01-15T13:29:23Z</time>
      </trkpt>
      <trkpt lat="43.71543" lon="6.96751">
        <ele>785.4</ele>
        <time>2012-01-15T13:29:27Z</time>
      </trkpt>
      <trkpt lat="43.71535" lon="6.96754">
        <ele>786</ele>
        <time>2012-01-15T13:29:31Z</time>
      </trkpt>
      <trkpt lat="43.71527" lon="6.96756">
        <ele>785.8</ele>
        <time>2012-01-15T13:29:35Z</time>
      </trkpt>
      <trkpt lat="43.7152" lon="6.96758">
        <ele>785.9</ele>
        <time>2012-01-15T13:29:38Z</time>
      </trkpt>
      <trkpt lat="43.71518" lon="6.96758">
        <ele>785.9</ele>
        <time>2012-01-15T13:29:39Z</time>
      </trkpt>
      <trkpt lat="43.71506" lon="6.96756">
        <ele>787.5</ele>
        <time>2012-01-15T13:29:44Z</time>
      </trkpt>
      <trkpt lat="43.71499" lon="6.96754">
        <ele>788.5</ele>
        <time>2012-01-15T13:29:47Z</time>
      </trkpt>
      <trkpt lat="43.71492" lon="6.96749">
        <ele>788.1</ele>
        <time>2012-01-15T13:29:50Z</time>
      </trkpt>
      <trkpt lat="43.71486" lon="6.96741">
        <ele>788.3</ele>
        <time>2012-01-15T13:29:53Z</time>
      </trkpt>
      <trkpt lat="43.71481" lon="6.96733">
        <ele>787.9</ele>
        <time>2012-01-15T13:29:56Z</time>
      </trkpt>
      <trkpt lat="43.71477" lon="6.96724">
        <ele>788.4</ele>
        <time>2012-01-15T13:29:59Z</time>
      </trkpt>
      <trkpt lat="43.71472" lon="6.96714">
        <ele>788.8</ele>
        <time>2012-01-15T13:30:02Z</time>
      </trkpt>
      <trkpt lat="43.71468" lon="6.96704">
        <ele>788.8</ele>
        <time>2012-01-15T13:30:05Z</time>
      </trkpt>
      <trkpt lat="43.71463" lon="6.96695">
        <ele>788.5</ele>
        <time>2012-01-15T13:30:08Z</time>
      </trkpt>
      <trkpt lat="43.71458" lon="6.96686">
        <ele>788.5</ele>
        <time>2012-01-15T13:30:11Z</time>
      </trkpt>
      <trkpt lat="43.71454" lon="6.96676">
        <ele>789.2</ele>
        <time>2012-01-15T13:30:14Z</time>
      </trkpt>
      <trkpt lat="43.71451" lon="6.96664">
        <ele>789.9</ele>
        <time>2012-01-15T13:30:17Z</time>
      </trkpt>
      <trkpt lat="43.71449" lon="6.96652">
        <ele>789.5</ele>
        <time>2012-01-15T13:30:20Z</time>
      </trkpt>
      <trkpt lat="43.71448" lon="6.9664">
        <ele>789.9</ele>
        <time>2012-01-15T13:30:23Z</time>
      </trkpt>
      <trkpt lat="43.71447" lon="6.96628">
        <ele>789.6</ele>
        <time>2012-01-15T13:30:26Z</time>
      </trkpt>
      <trkpt lat="43.71447" lon="6.96617">
        <ele>790</ele>
        <time>2012-01-15T13:30:29Z</time>
      </trkpt>
      <trkpt lat="43.71447" lon="6.96605">
        <ele>790.1</ele>
        <time>2012-01-15T13:30:32Z</time>
      </trkpt>
      <trkpt lat="43.71445" lon="6.96593">
        <ele>790</ele>
        <time>2012-01-15T13:30:35Z</time>
      </trkpt>
      <trkpt lat="43.71442" lon="6.96581">
        <ele>790.1</ele>
        <time>2012-01-15T13:30:38Z</time>
      </trkpt>
      <trkpt lat="43.71437" lon="6.96564">
        <ele>789</ele>
        <time>2012-01-15T13:30:42Z</time>
      </trkpt>
      <trkpt lat="43.71436" lon="6.96559">
        <ele>789.8</ele>
        <time>2012-01-15T13:30:44Z</time>
      </trkpt>
      <trkpt lat="43.71432" lon="6.96544">
        <ele>789.4</ele>
        <time>2012-01-15T13:30:48Z</time>
      </trkpt>
      <trkpt lat="43.7143" lon="6.96533">
        <ele>789.6</ele>
        <time>2012-01-15T13:30:51Z</time>
      </trkpt>
      <trkpt lat="43.71429" lon="6.96521">
        <ele>789.8</ele>
        <time>2012-01-15T13:30:54Z</time>
      </trkpt>
      <trkpt lat="43.7143" lon="6.96509">
        <ele>790.3</ele>
        <time>2012-01-15T13:30:57Z</time>
      </trkpt>
      <trkpt lat="43.71431" lon="6.96497">
        <ele>790.5</ele>
        <time>2012-01-15T13:31:00Z</time>
      </trkpt>
      <trkpt lat="43.71431" lon="6.96489">
        <ele>790.6</ele>
        <time>2012-01-15T13:31:02Z</time>
      </trkpt>
      <trkpt lat="43.71432" lon="6.96481">
        <ele>790.7</ele>
        <time>2012-01-15T13:31:04Z</time>
      </trkpt>
      <trkpt lat="43.71433" lon="6.96472">
        <ele>790.6</ele>
        <time>2012-01-15T13:31:06Z</time>
      </trkpt>
      <trkpt lat="43.71433" lon="6.96464">
        <ele>790.4</ele>
        <time>2012-01-15T13:31:08Z</time>
      </trkpt>
      <trkpt lat="43.71432" lon="6.96452">
        <ele>790</ele>
        <time>2012-01-15T13:31:11Z</time>
      </trkpt>
      <trkpt lat="43.71429" lon="6.9644">
        <ele>790.2</ele>
        <time>2012-01-15T13:31:14Z</time>
      </trkpt>
      <trkpt lat="43.71426" lon="6.9643">
        <ele>790.9</ele>
        <time>2012-01-15T13:31:17Z</time>
      </trkpt>
      <trkpt lat="43.71421" lon="6.9642">
        <ele>791</ele>
        <time>2012-01-15T13:31:20Z</time>
      </trkpt>
      <trkpt lat="43.71415" lon="6.96411">
        <ele>791.1</ele>
        <time>2012-01-15T13:31:23Z</time>
      </trkpt>
      <trkpt lat="43.71411" lon="6.96404">
        <ele>791</ele>
        <time>2012-01-15T13:31:25Z</time>
      </trkpt>
      <trkpt lat="43.71408" lon="6.96398">
        <ele>791</ele>
        <time>2012-01-15T13:31:27Z</time>
      </trkpt>
      <trkpt lat="43.71404" lon="6.96391">
        <ele>791</ele>
        <time>2012-01-15T13:31:29Z</time>
      </trkpt>
      <trkpt lat="43.714" lon="6.96385">
        <ele>790.8</ele>
        <time>2012-01-15T13:31:31Z</time>
      </trkpt>
      <trkpt lat="43.71396" lon="6.96378">
        <ele>790.8</ele>
        <time>2012-01-15T13:31:33Z</time>
      </trkpt>
      <trkpt lat="43.71392" lon="6.96371">
        <ele>790.7</ele>
        <time>2012-01-15T13:31:35Z</time>
      </trkpt>
      <trkpt lat="43.71389" lon="6.96364">
        <ele>790.7</ele>
        <time>2012-01-15T13:31:37Z</time>
      </trkpt>
      <trkpt lat="43.71385" lon="6.96357">
        <ele>790.9</ele>
        <time>2012-01-15T13:31:39Z</time>
      </trkpt>
      <trkpt lat="43.71381" lon="6.9635">
        <ele>790.7</ele>
        <time>2012-01-15T13:31:41Z</time>
      </trkpt>
      <trkpt lat="43.71377" lon="6.96343">
        <ele>790.2</ele>
        <time>2012-01-15T13:31:43Z</time>
      </trkpt>
      <trkpt lat="43.71372" lon="6.96337">
        <ele>790.6</ele>
        <time>2012-01-15T13:31:45Z</time>
      </trkpt>
      <trkpt lat="43.7137" lon="6.96334">
        <ele>790.7</ele>
        <time>2012-01-15T13:31:46Z</time>
      </trkpt>
      <trkpt lat="43.71358" lon="6.96323">
        <ele>792.1</ele>
        <time>2012-01-15T13:31:51Z</time>
      </trkpt>
      <trkpt lat="43.71352" lon="6.9632">
        <ele>792.5</ele>
        <time>2012-01-15T13:31:53Z</time>
      </trkpt>
      <trkpt lat="43.71346" lon="6.96317">
        <ele>792.4</ele>
        <time>2012-01-15T13:31:55Z</time>
      </trkpt>
      <trkpt lat="43.71339" lon="6.96314">
        <ele>791.8</ele>
        <time>2012-01-15T13:31:57Z</time>
      </trkpt>
      <trkpt lat="43.71333" lon="6.96312">
        <ele>791.4</ele>
        <time>2012-01-15T13:31:59Z</time>
      </trkpt>
      <trkpt lat="43.71327" lon="6.9631">
        <ele>791.4</ele>
        <time>2012-01-15T13:32:01Z</time>
      </trkpt>
      <trkpt lat="43.71321" lon="6.96306">
        <ele>791.8</ele>
        <time>2012-01-15T13:32:03Z</time>
      </trkpt>
      <trkpt lat="43.71315" lon="6.96302">
        <ele>792.2</ele>
        <time>2012-01-15T13:32:05Z</time>
      </trkpt>
      <trkpt lat="43.71309" lon="6.96294">
        <ele>791.8</ele>
        <time>2012-01-15T13:32:08Z</time>
      </trkpt>
      <trkpt lat="43.71302" lon="6.96286">
        <ele>792.2</ele>
        <time>2012-01-15T13:32:11Z</time>
      </trkpt>
      <trkpt lat="43.71297" lon="6.96281">
        <ele>791.9</ele>
        <time>2012-01-15T13:32:13Z</time>
      </trkpt>
      <trkpt lat="43.7129" lon="6.9628">
        <ele>791.7</ele>
        <time>2012-01-15T13:32:15Z</time>
      </trkpt>
      <trkpt lat="43.71284" lon="6.96281">
        <ele>792</ele>
        <time>2012-01-15T13:32:17Z</time>
      </trkpt>
      <trkpt lat="43.71278" lon="6.96283">
        <ele>791.4</ele>
        <time>2012-01-15T13:32:19Z</time>
      </trkpt>
      <trkpt lat="43.71271" lon="6.96284">
        <ele>791.6</ele>
        <time>2012-01-15T13:32:21Z</time>
      </trkpt>
      <trkpt lat="43.71265" lon="6.96285">
        <ele>791.6</ele>
        <time>2012-01-15T13:32:23Z</time>
      </trkpt>
      <trkpt lat="43.71258" lon="6.96285">
        <ele>791.6</ele>
        <time>2012-01-15T13:32:25Z</time>
      </trkpt>
      <trkpt lat="43.71251" lon="6.96285">
        <ele>791.6</ele>
        <time>2012-01-15T13:32:27Z</time>
      </trkpt>
      <trkpt lat="43.71244" lon="6.96286">
        <ele>791.3</ele>
        <time>2012-01-15T13:32:29Z</time>
      </trkpt>
      <trkpt lat="43.71237" lon="6.96288">
        <ele>791</ele>
        <time>2012-01-15T13:32:31Z</time>
      </trkpt>
      <trkpt lat="43.7123" lon="6.9629">
        <ele>791.4</ele>
        <time>2012-01-15T13:32:33Z</time>
      </trkpt>
      <trkpt lat="43.71224" lon="6.96292">
        <ele>791.6</ele>
        <time>2012-01-15T13:32:35Z</time>
      </trkpt>
      <trkpt lat="43.71217" lon="6.96294">
        <ele>791.9</ele>
        <time>2012-01-15T13:32:37Z</time>
      </trkpt>
      <trkpt lat="43.7121" lon="6.96294">
        <ele>791.9</ele>
        <time>2012-01-15T13:32:39Z</time>
      </trkpt>
      <trkpt lat="43.71202" lon="6.96293">
        <ele>791.2</ele>
        <time>2012-01-15T13:32:41Z</time>
      </trkpt>
      <trkpt lat="43.71195" lon="6.9629">
        <ele>790.5</ele>
        <time>2012-01-15T13:32:43Z</time>
      </trkpt>
      <trkpt lat="43.71189" lon="6.96285">
        <ele>790.5</ele>
        <time>2012-01-15T13:32:45Z</time>
      </trkpt>
      <trkpt lat="43.71183" lon="6.96279">
        <ele>790.6</ele>
        <time>2012-01-15T13:32:47Z</time>
      </trkpt>
      <trkpt lat="43.71181" lon="6.96275">
        <ele>790.2</ele>
        <time>2012-01-15T13:32:48Z</time>
      </trkpt>
      <trkpt lat="43.71173" lon="6.96267">
        <ele>789.5</ele>
        <time>2012-01-15T13:32:51Z</time>
      </trkpt>
      <trkpt lat="43.71165" lon="6.96268">
        <ele>789.4</ele>
        <time>2012-01-15T13:32:54Z</time>
      </trkpt>
      <trkpt lat="43.71157" lon="6.96267">
        <ele>788.9</ele>
        <time>2012-01-15T13:32:57Z</time>
      </trkpt>
      <trkpt lat="43.71151" lon="6.96263">
        <ele>788.2</ele>
        <time>2012-01-15T13:32:59Z</time>
      </trkpt>
      <trkpt lat="43.71144" lon="6.96258">
        <ele>787.9</ele>
        <time>2012-01-15T13:33:02Z</time>
      </trkpt>
      <trkpt lat="43.71137" lon="6.96252">
        <ele>788.2</ele>
        <time>2012-01-15T13:33:06Z</time>
      </trkpt>
      <trkpt lat="43.71129" lon="6.96257">
        <ele>788.5</ele>
        <time>2012-01-15T13:33:12Z</time>
      </trkpt>
      <trkpt lat="43.71124" lon="6.96264">
        <ele>788.5</ele>
        <time>2012-01-15T13:33:17Z</time>
      </trkpt>
      <trkpt lat="43.71117" lon="6.96272">
        <ele>787.5</ele>
        <time>2012-01-15T13:33:22Z</time>
      </trkpt>
      <trkpt lat="43.7111" lon="6.96275">
        <ele>786.8</ele>
        <time>2012-01-15T13:33:25Z</time>
      </trkpt>
      <trkpt lat="43.71102" lon="6.96277">
        <ele>785.2</ele>
        <time>2012-01-15T13:33:29Z</time>
      </trkpt>
      <trkpt lat="43.71095" lon="6.96276">
        <ele>784.8</ele>
        <time>2012-01-15T13:33:33Z</time>
      </trkpt>
      <trkpt lat="43.71088" lon="6.9627">
        <ele>784.4</ele>
        <time>2012-01-15T13:33:37Z</time>
      </trkpt>
      <trkpt lat="43.71081" lon="6.96266">
        <ele>784.3</ele>
        <time>2012-01-15T13:33:40Z</time>
      </trkpt>
      <trkpt lat="43.71074" lon="6.96261">
        <ele>784.2</ele>
        <time>2012-01-15T13:33:43Z</time>
      </trkpt>
      <trkpt lat="43.71066" lon="6.96259">
        <ele>784.4</ele>
        <time>2012-01-15T13:33:46Z</time>
      </trkpt>
      <trkpt lat="43.71058" lon="6.96257">
        <ele>784.4</ele>
        <time>2012-01-15T13:33:49Z</time>
      </trkpt>
      <trkpt lat="43.71055" lon="6.96256">
        <ele>784</ele>
        <time>2012-01-15T13:33:50Z</time>
      </trkpt>
      <trkpt lat="43.71042" lon="6.9625">
        <ele>783.5</ele>
        <time>2012-01-15T13:33:55Z</time>
      </trkpt>
      <trkpt lat="43.71038" lon="6.96242">
        <ele>784.2</ele>
        <time>2012-01-15T13:33:58Z</time>
      </trkpt>
      <trkpt lat="43.71033" lon="6.96235">
        <ele>784.5</ele>
        <time>2012-01-15T13:34:01Z</time>
      </trkpt>
      <trkpt lat="43.71026" lon="6.96231">
        <ele>784.8</ele>
        <time>2012-01-15T13:34:04Z</time>
      </trkpt>
      <trkpt lat="43.71021" lon="6.96222">
        <ele>785.4</ele>
        <time>2012-01-15T13:34:07Z</time>
      </trkpt>
      <trkpt lat="43.71017" lon="6.96213">
        <ele>784.8</ele>
        <time>2012-01-15T13:34:10Z</time>
      </trkpt>
      <trkpt lat="43.71014" lon="6.96203">
        <ele>785.1</ele>
        <time>2012-01-15T13:34:13Z</time>
      </trkpt>
      <trkpt lat="43.71012" lon="6.96194">
        <ele>786.1</ele>
        <time>2012-01-15T13:34:16Z</time>
      </trkpt>
      <trkpt lat="43.71007" lon="6.96185">
        <ele>786.8</ele>
        <time>2012-01-15T13:34:20Z</time>
      </trkpt>
      <trkpt lat="43.71001" lon="6.96176">
        <ele>787.4</ele>
        <time>2012-01-15T13:34:24Z</time>
      </trkpt>
      <trkpt lat="43.70999" lon="6.96166">
        <ele>787.5</ele>
        <time>2012-01-15T13:34:28Z</time>
      </trkpt>
      <trkpt lat="43.70992" lon="6.96161">
        <ele>788.3</ele>
        <time>2012-01-15T13:34:32Z</time>
      </trkpt>
      <trkpt lat="43.70985" lon="6.96157">
        <ele>790.3</ele>
        <time>2012-01-15T13:34:37Z</time>
      </trkpt>
      <trkpt lat="43.7098" lon="6.96147">
        <ele>790.9</ele>
        <time>2012-01-15T13:34:44Z</time>
      </trkpt>
      <trkpt lat="43.70975" lon="6.96139">
        <ele>793</ele>
        <time>2012-01-15T13:34:51Z</time>
      </trkpt>
      <trkpt lat="43.70974" lon="6.96138">
        <ele>793.2</ele>
        <time>2012-01-15T13:34:52Z</time>
      </trkpt>
      <trkpt lat="43.70963" lon="6.96124">
        <ele>795.9</ele>
        <time>2012-01-15T13:35:05Z</time>
      </trkpt>
      <trkpt lat="43.70957" lon="6.96116">
        <ele>798.2</ele>
        <time>2012-01-15T13:35:13Z</time>
      </trkpt>
      <trkpt lat="43.70951" lon="6.96109">
        <ele>799.3</ele>
        <time>2012-01-15T13:35:20Z</time>
      </trkpt>
      <trkpt lat="43.70949" lon="6.96098">
        <ele>800.1</ele>
        <time>2012-01-15T13:35:27Z</time>
      </trkpt>
      <trkpt lat="43.70948" lon="6.96086">
        <ele>801.7</ele>
        <time>2012-01-15T13:35:33Z</time>
      </trkpt>
      <trkpt lat="43.70947" lon="6.96075">
        <ele>802.3</ele>
        <time>2012-01-15T13:35:38Z</time>
      </trkpt>
      <trkpt lat="43.70946" lon="6.96063">
        <ele>802.1</ele>
        <time>2012-01-15T13:35:43Z</time>
      </trkpt>
      <trkpt lat="43.70947" lon="6.96053">
        <ele>802.7</ele>
        <time>2012-01-15T13:35:47Z</time>
      </trkpt>
      <trkpt lat="43.70948" lon="6.96043">
        <ele>803</ele>
        <time>2012-01-15T13:35:51Z</time>
      </trkpt>
      <trkpt lat="43.7095" lon="6.96031">
        <ele>804.1</ele>
        <time>2012-01-15T13:35:55Z</time>
      </trkpt>
      <trkpt lat="43.7095" lon="6.96028">
        <ele>804.2</ele>
        <time>2012-01-15T13:35:56Z</time>
      </trkpt>
      <trkpt lat="43.70949" lon="6.96009">
        <ele>804.8</ele>
        <time>2012-01-15T13:36:03Z</time>
      </trkpt>
      <trkpt lat="43.70945" lon="6.95999">
        <ele>806.2</ele>
        <time>2012-01-15T13:36:07Z</time>
      </trkpt>
      <trkpt lat="43.70942" lon="6.95989">
        <ele>807.6</ele>
        <time>2012-01-15T13:36:12Z</time>
      </trkpt>
      <trkpt lat="43.70938" lon="6.95978">
        <ele>807.7</ele>
        <time>2012-01-15T13:37:07Z</time>
      </trkpt>
      <trkpt lat="43.70937" lon="6.95977">
        <ele>807.8</ele>
        <time>2012-01-15T13:37:08Z</time>
      </trkpt>
      <trkpt lat="43.70927" lon="6.95963">
        <ele>807.7</ele>
        <time>2012-01-15T13:37:15Z</time>
      </trkpt>
      <trkpt lat="43.70919" lon="6.95959">
        <ele>806.8</ele>
        <time>2012-01-15T13:37:20Z</time>
      </trkpt>
      <trkpt lat="43.70912" lon="6.95953">
        <ele>806.7</ele>
        <time>2012-01-15T13:37:23Z</time>
      </trkpt>
      <trkpt lat="43.70907" lon="6.95948">
        <ele>806.6</ele>
        <time>2012-01-15T13:37:25Z</time>
      </trkpt>
      <trkpt lat="43.70902" lon="6.95943">
        <ele>806.2</ele>
        <time>2012-01-15T13:37:27Z</time>
      </trkpt>
      <trkpt lat="43.70895" lon="6.95937">
        <ele>806.1</ele>
        <time>2012-01-15T13:37:30Z</time>
      </trkpt>
      <trkpt lat="43.70888" lon="6.9593">
        <ele>806.6</ele>
        <time>2012-01-15T13:37:33Z</time>
      </trkpt>
      <trkpt lat="43.70882" lon="6.95922">
        <ele>807.7</ele>
        <time>2012-01-15T13:37:36Z</time>
      </trkpt>
      <trkpt lat="43.70876" lon="6.95915">
        <ele>808.1</ele>
        <time>2012-01-15T13:37:39Z</time>
      </trkpt>
      <trkpt lat="43.7087" lon="6.95908">
        <ele>807.8</ele>
        <time>2012-01-15T13:37:42Z</time>
      </trkpt>
      <trkpt lat="43.70864" lon="6.959">
        <ele>808.3</ele>
        <time>2012-01-15T13:37:46Z</time>
      </trkpt>
      <trkpt lat="43.70857" lon="6.95892">
        <ele>809.3</ele>
        <time>2012-01-15T13:37:50Z</time>
      </trkpt>
      <trkpt lat="43.70851" lon="6.95884">
        <ele>810.2</ele>
        <time>2012-01-15T13:37:54Z</time>
      </trkpt>
      <trkpt lat="43.70846" lon="6.95877">
        <ele>811.5</ele>
        <time>2012-01-15T13:37:57Z</time>
      </trkpt>
      <trkpt lat="43.70839" lon="6.9587">
        <ele>811.5</ele>
        <time>2012-01-15T13:38:01Z</time>
      </trkpt>
      <trkpt lat="43.70832" lon="6.95864">
        <ele>812.1</ele>
        <time>2012-01-15T13:38:05Z</time>
      </trkpt>
      <trkpt lat="43.70823" lon="6.9586">
        <ele>812.4</ele>
        <time>2012-01-15T13:38:09Z</time>
      </trkpt>
      <trkpt lat="43.70821" lon="6.95859">
        <ele>812.3</ele>
        <time>2012-01-15T13:38:10Z</time>
      </trkpt>
      <trkpt lat="43.70809" lon="6.95851">
        <ele>813</ele>
        <time>2012-01-15T13:38:15Z</time>
      </trkpt>
      <trkpt lat="43.70802" lon="6.95846">
        <ele>813.2</ele>
        <time>2012-01-15T13:38:18Z</time>
      </trkpt>
      <trkpt lat="43.70795" lon="6.95846">
        <ele>813</ele>
        <time>2012-01-15T13:38:21Z</time>
      </trkpt>
      <trkpt lat="43.70787" lon="6.95845">
        <ele>813.1</ele>
        <time>2012-01-15T13:38:24Z</time>
      </trkpt>
      <trkpt lat="43.7078" lon="6.95846">
        <ele>813.8</ele>
        <time>2012-01-15T13:38:27Z</time>
      </trkpt>
      <trkpt lat="43.70776" lon="6.95854">
        <ele>813.8</ele>
        <time>2012-01-15T13:38:29Z</time>
      </trkpt>
      <trkpt lat="43.70771" lon="6.95859">
        <ele>813.1</ele>
        <time>2012-01-15T13:38:31Z</time>
      </trkpt>
      <trkpt lat="43.70763" lon="6.95857">
        <ele>812.1</ele>
        <time>2012-01-15T13:38:33Z</time>
      </trkpt>
      <trkpt lat="43.70755" lon="6.95861">
        <ele>811.3</ele>
        <time>2012-01-15T13:38:35Z</time>
      </trkpt>
      <trkpt lat="43.70751" lon="6.95862">
        <ele>811.1</ele>
        <time>2012-01-15T13:38:36Z</time>
      </trkpt>
      <trkpt lat="43.70746" lon="6.95864">
        <ele>810.3</ele>
        <time>2012-01-15T13:38:37Z</time>
      </trkpt>
      <trkpt lat="43.70742" lon="6.95867">
        <ele>809.6</ele>
        <time>2012-01-15T13:38:38Z</time>
      </trkpt>
      <trkpt lat="43.7074" lon="6.95873">
        <ele>809.2</ele>
        <time>2012-01-15T13:38:39Z</time>
      </trkpt>
      <trkpt lat="43.70737" lon="6.95879">
        <ele>808.6</ele>
        <time>2012-01-15T13:38:40Z</time>
      </trkpt>
      <trkpt lat="43.70731" lon="6.95887">
        <ele>807.7</ele>
        <time>2012-01-15T13:38:42Z</time>
      </trkpt>
      <trkpt lat="43.70724" lon="6.95892">
        <ele>806.7</ele>
        <time>2012-01-15T13:38:44Z</time>
      </trkpt>
      <trkpt lat="43.7072" lon="6.95892">
        <ele>806.3</ele>
        <time>2012-01-15T13:38:45Z</time>
      </trkpt>
      <trkpt lat="43.70711" lon="6.95894">
        <ele>805.4</ele>
        <time>2012-01-15T13:38:47Z</time>
      </trkpt>
      <trkpt lat="43.70704" lon="6.95902">
        <ele>804.7</ele>
        <time>2012-01-15T13:38:49Z</time>
      </trkpt>
      <trkpt lat="43.70699" lon="6.9591">
        <ele>804.4</ele>
        <time>2012-01-15T13:38:51Z</time>
      </trkpt>
      <trkpt lat="43.70692" lon="6.95916">
        <ele>803.1</ele>
        <time>2012-01-15T13:38:54Z</time>
      </trkpt>
      <trkpt lat="43.70686" lon="6.95922">
        <ele>801.8</ele>
        <time>2012-01-15T13:38:56Z</time>
      </trkpt>
      <trkpt lat="43.70682" lon="6.95928">
        <ele>800.6</ele>
        <time>2012-01-15T13:38:58Z</time>
      </trkpt>
      <trkpt lat="43.70674" lon="6.95932">
        <ele>799.3</ele>
        <time>2012-01-15T13:39:00Z</time>
      </trkpt>
      <trkpt lat="43.7067" lon="6.95934">
        <ele>798.8</ele>
        <time>2012-01-15T13:39:01Z</time>
      </trkpt>
      <trkpt lat="43.70665" lon="6.95935">
        <ele>798.4</ele>
        <time>2012-01-15T13:39:02Z</time>
      </trkpt>
      <trkpt lat="43.7066" lon="6.95937">
        <ele>797.8</ele>
        <time>2012-01-15T13:39:03Z</time>
      </trkpt>
      <trkpt lat="43.70655" lon="6.9594">
        <ele>797.3</ele>
        <time>2012-01-15T13:39:04Z</time>
      </trkpt>
      <trkpt lat="43.7065" lon="6.95943">
        <ele>796.9</ele>
        <time>2012-01-15T13:39:05Z</time>
      </trkpt>
      <trkpt lat="43.70645" lon="6.9595">
        <ele>795.5</ele>
        <time>2012-01-15T13:39:07Z</time>
      </trkpt>
      <trkpt lat="43.70641" lon="6.95959">
        <ele>794.3</ele>
        <time>2012-01-15T13:39:09Z</time>
      </trkpt>
      <trkpt lat="43.7064" lon="6.95969">
        <ele>793.7</ele>
        <time>2012-01-15T13:39:11Z</time>
      </trkpt>
      <trkpt lat="43.70641" lon="6.95973">
        <ele>793.5</ele>
        <time>2012-01-15T13:39:12Z</time>
      </trkpt>
      <trkpt lat="43.70644" lon="6.95986">
        <ele>792.8</ele>
        <time>2012-01-15T13:39:15Z</time>
      </trkpt>
      <trkpt lat="43.70647" lon="6.95995">
        <ele>792.5</ele>
        <time>2012-01-15T13:39:17Z</time>
      </trkpt>
      <trkpt lat="43.70649" lon="6.96004">
        <ele>792.3</ele>
        <time>2012-01-15T13:39:19Z</time>
      </trkpt>
      <trkpt lat="43.7065" lon="6.96012">
        <ele>792.5</ele>
        <time>2012-01-15T13:39:21Z</time>
      </trkpt>
      <trkpt lat="43.70651" lon="6.96021">
        <ele>793</ele>
        <time>2012-01-15T13:39:23Z</time>
      </trkpt>
      <trkpt lat="43.70652" lon="6.96029">
        <ele>793.2</ele>
        <time>2012-01-15T13:39:25Z</time>
      </trkpt>
      <trkpt lat="43.70653" lon="6.96039">
        <ele>792.9</ele>
        <time>2012-01-15T13:39:27Z</time>
      </trkpt>
      <trkpt lat="43.70656" lon="6.96048">
        <ele>792.5</ele>
        <time>2012-01-15T13:39:29Z</time>
      </trkpt>
      <trkpt lat="43.70658" lon="6.96057">
        <ele>792.3</ele>
        <time>2012-01-15T13:39:31Z</time>
      </trkpt>
      <trkpt lat="43.7066" lon="6.96066">
        <ele>792.6</ele>
        <time>2012-01-15T13:39:33Z</time>
      </trkpt>
      <trkpt lat="43.70663" lon="6.96075">
        <ele>792.1</ele>
        <time>2012-01-15T13:39:35Z</time>
      </trkpt>
      <trkpt lat="43.70666" lon="6.96085">
        <ele>791.7</ele>
        <time>2012-01-15T13:39:37Z</time>
      </trkpt>
      <trkpt lat="43.70671" lon="6.96091">
        <ele>791.1</ele>
        <time>2012-01-15T13:39:39Z</time>
      </trkpt>
      <trkpt lat="43.70677" lon="6.96095">
        <ele>791.1</ele>
        <time>2012-01-15T13:39:41Z</time>
      </trkpt>
      <trkpt lat="43.70682" lon="6.96102">
        <ele>791.3</ele>
        <time>2012-01-15T13:39:43Z</time>
      </trkpt>
      <trkpt lat="43.70684" lon="6.96111">
        <ele>791.5</ele>
        <time>2012-01-15T13:39:45Z</time>
      </trkpt>
      <trkpt lat="43.70687" lon="6.96119">
        <ele>792.1</ele>
        <time>2012-01-15T13:39:47Z</time>
      </trkpt>
      <trkpt lat="43.7069" lon="6.96128">
        <ele>792.4</ele>
        <time>2012-01-15T13:39:49Z</time>
      </trkpt>
      <trkpt lat="43.70694" lon="6.96136">
        <ele>792.5</ele>
        <time>2012-01-15T13:39:51Z</time>
      </trkpt>
      <trkpt lat="43.70697" lon="6.96144">
        <ele>792.1</ele>
        <time>2012-01-15T13:39:53Z</time>
      </trkpt>
      <trkpt lat="43.70699" lon="6.96154">
        <ele>791.6</ele>
        <time>2012-01-15T13:39:55Z</time>
      </trkpt>
      <trkpt lat="43.70702" lon="6.96163">
        <ele>791.5</ele>
        <time>2012-01-15T13:39:57Z</time>
      </trkpt>
      <trkpt lat="43.70708" lon="6.9617">
        <ele>791.9</ele>
        <time>2012-01-15T13:39:59Z</time>
      </trkpt>
      <trkpt lat="43.7071" lon="6.96179">
        <ele>791.4</ele>
        <time>2012-01-15T13:40:01Z</time>
      </trkpt>
      <trkpt lat="43.70708" lon="6.96191">
        <ele>791</ele>
        <time>2012-01-15T13:40:03Z</time>
      </trkpt>
      <trkpt lat="43.70706" lon="6.96197">
        <ele>790.8</ele>
        <time>2012-01-15T13:40:04Z</time>
      </trkpt>
      <trkpt lat="43.70706" lon="6.96209">
        <ele>790.2</ele>
        <time>2012-01-15T13:40:06Z</time>
      </trkpt>
      <trkpt lat="43.7071" lon="6.9622">
        <ele>789.2</ele>
        <time>2012-01-15T13:40:08Z</time>
      </trkpt>
      <trkpt lat="43.70713" lon="6.96232">
        <ele>788.5</ele>
        <time>2012-01-15T13:40:10Z</time>
      </trkpt>
      <trkpt lat="43.70715" lon="6.96244">
        <ele>786.9</ele>
        <time>2012-01-15T13:40:17Z</time>
      </trkpt>
      <trkpt lat="43.70715" lon="6.96245">
        <ele>786.9</ele>
        <time>2012-01-15T13:40:18Z</time>
      </trkpt>
      <trkpt lat="43.70723" lon="6.96264">
        <ele>786.9</ele>
        <time>2012-01-15T13:40:29Z</time>
      </trkpt>
      <trkpt lat="43.70726" lon="6.96274">
        <ele>787.3</ele>
        <time>2012-01-15T13:40:32Z</time>
      </trkpt>
      <trkpt lat="43.70729" lon="6.96285">
        <ele>787.5</ele>
        <time>2012-01-15T13:40:35Z</time>
      </trkpt>
      <trkpt lat="43.70731" lon="6.96295">
        <ele>787.3</ele>
        <time>2012-01-15T13:40:37Z</time>
      </trkpt>
      <trkpt lat="43.70733" lon="6.96307">
        <ele>786.7</ele>
        <time>2012-01-15T13:40:39Z</time>
      </trkpt>
      <trkpt lat="43.70733" lon="6.96315">
        <ele>786.5</ele>
        <time>2012-01-15T13:40:40Z</time>
      </trkpt>
      <trkpt lat="43.70731" lon="6.96322">
        <ele>786</ele>
        <time>2012-01-15T13:40:41Z</time>
      </trkpt>
      <trkpt lat="43.70728" lon="6.96329">
        <ele>785.6</ele>
        <time>2012-01-15T13:40:42Z</time>
      </trkpt>
      <trkpt lat="43.70725" lon="6.96337">
        <ele>785.2</ele>
        <time>2012-01-15T13:40:43Z</time>
      </trkpt>
      <trkpt lat="43.7072" lon="6.96343">
        <ele>784.9</ele>
        <time>2012-01-15T13:40:44Z</time>
      </trkpt>
      <trkpt lat="43.70718" lon="6.9635">
        <ele>784.6</ele>
        <time>2012-01-15T13:40:45Z</time>
      </trkpt>
      <trkpt lat="43.70717" lon="6.96358">
        <ele>783.9</ele>
        <time>2012-01-15T13:40:46Z</time>
      </trkpt>
      <trkpt lat="43.70716" lon="6.96365">
        <ele>783.4</ele>
        <time>2012-01-15T13:40:47Z</time>
      </trkpt>
      <trkpt lat="43.70714" lon="6.96373">
        <ele>783.3</ele>
        <time>2012-01-15T13:40:48Z</time>
      </trkpt>
      <trkpt lat="43.70712" lon="6.96381">
        <ele>783.3</ele>
        <time>2012-01-15T13:40:49Z</time>
      </trkpt>
      <trkpt lat="43.70709" lon="6.96388">
        <ele>782.8</ele>
        <time>2012-01-15T13:40:50Z</time>
      </trkpt>
      <trkpt lat="43.70708" lon="6.96395">
        <ele>782.4</ele>
        <time>2012-01-15T13:40:51Z</time>
      </trkpt>
      <trkpt lat="43.70708" lon="6.96402">
        <ele>781.5</ele>
        <time>2012-01-15T13:40:52Z</time>
      </trkpt>
      <trkpt lat="43.70711" lon="6.96408">
        <ele>780.9</ele>
        <time>2012-01-15T13:40:53Z</time>
      </trkpt>
      <trkpt lat="43.70715" lon="6.96414">
        <ele>780.4</ele>
        <time>2012-01-15T13:40:54Z</time>
      </trkpt>
      <trkpt lat="43.70717" lon="6.9642">
        <ele>780.3</ele>
        <time>2012-01-15T13:40:55Z</time>
      </trkpt>
      <trkpt lat="43.70716" lon="6.96427">
        <ele>780.2</ele>
        <time>2012-01-15T13:40:56Z</time>
      </trkpt>
      <trkpt lat="43.70715" lon="6.96435">
        <ele>779.9</ele>
        <time>2012-01-15T13:40:57Z</time>
      </trkpt>
      <trkpt lat="43.70714" lon="6.96442">
        <ele>779.7</ele>
        <time>2012-01-15T13:40:58Z</time>
      </trkpt>
      <trkpt lat="43.70713" lon="6.96449">
        <ele>779.5</ele>
        <time>2012-01-15T13:40:59Z</time>
      </trkpt>
      <trkpt lat="43.70712" lon="6.96456">
        <ele>778.7</ele>
        <time>2012-01-15T13:41:00Z</time>
      </trkpt>
      <trkpt lat="43.70717" lon="6.96467">
        <ele>777.6</ele>
        <time>2012-01-15T13:41:02Z</time>
      </trkpt>
      <trkpt lat="43.70722" lon="6.96468">
        <ele>777.3</ele>
        <time>2012-01-15T13:41:03Z</time>
      </trkpt>
      <trkpt lat="43.70726" lon="6.96471">
        <ele>776.8</ele>
        <time>2012-01-15T13:41:04Z</time>
      </trkpt>
      <trkpt lat="43.70729" lon="6.96476">
        <ele>776.4</ele>
        <time>2012-01-15T13:41:05Z</time>
      </trkpt>
      <trkpt lat="43.70731" lon="6.96482">
        <ele>776.1</ele>
        <time>2012-01-15T13:41:06Z</time>
      </trkpt>
      <trkpt lat="43.70734" lon="6.96489">
        <ele>775.7</ele>
        <time>2012-01-15T13:41:07Z</time>
      </trkpt>
      <trkpt lat="43.70737" lon="6.96494">
        <ele>775.4</ele>
        <time>2012-01-15T13:41:08Z</time>
      </trkpt>
      <trkpt lat="43.70741" lon="6.96498">
        <ele>775</ele>
        <time>2012-01-15T13:41:09Z</time>
      </trkpt>
      <trkpt lat="43.70748" lon="6.96505">
        <ele>774.6</ele>
        <time>2012-01-15T13:41:11Z</time>
      </trkpt>
      <trkpt lat="43.70748" lon="6.96515">
        <ele>773.8</ele>
        <time>2012-01-15T13:41:13Z</time>
      </trkpt>
      <trkpt lat="43.70747" lon="6.96526">
        <ele>774.2</ele>
        <time>2012-01-15T13:41:15Z</time>
      </trkpt>
      <trkpt lat="43.70745" lon="6.96537">
        <ele>774.4</ele>
        <time>2012-01-15T13:41:17Z</time>
      </trkpt>
      <trkpt lat="43.70745" lon="6.96548">
        <ele>774.5</ele>
        <time>2012-01-15T13:41:19Z</time>
      </trkpt>
      <trkpt lat="43.70747" lon="6.96552">
        <ele>774.6</ele>
        <time>2012-01-15T13:41:20Z</time>
      </trkpt>
      <trkpt lat="43.70751" lon="6.96568">
        <ele>774.3</ele>
        <time>2012-01-15T13:41:23Z</time>
      </trkpt>
      <trkpt lat="43.7075" lon="6.9658">
        <ele>774.6</ele>
        <time>2012-01-15T13:41:25Z</time>
      </trkpt>
      <trkpt lat="43.70753" lon="6.9659">
        <ele>774.2</ele>
        <time>2012-01-15T13:41:27Z</time>
      </trkpt>
      <trkpt lat="43.70756" lon="6.96599">
        <ele>773.9</ele>
        <time>2012-01-15T13:41:29Z</time>
      </trkpt>
      <trkpt lat="43.70759" lon="6.96604">
        <ele>773.9</ele>
        <time>2012-01-15T13:41:30Z</time>
      </trkpt>
      <trkpt lat="43.70761" lon="6.9661">
        <ele>773.9</ele>
        <time>2012-01-15T13:41:31Z</time>
      </trkpt>
      <trkpt lat="43.70764" lon="6.96615">
        <ele>773.9</ele>
        <time>2012-01-15T13:41:32Z</time>
      </trkpt>
      <trkpt lat="43.70768" lon="6.96621">
        <ele>773.6</ele>
        <time>2012-01-15T13:41:33Z</time>
      </trkpt>
      <trkpt lat="43.70771" lon="6.96627">
        <ele>773.3</ele>
        <time>2012-01-15T13:41:34Z</time>
      </trkpt>
      <trkpt lat="43.70773" lon="6.96634">
        <ele>772.7</ele>
        <time>2012-01-15T13:41:35Z</time>
      </trkpt>
      <trkpt lat="43.70774" lon="6.9664">
        <ele>772.2</ele>
        <time>2012-01-15T13:41:36Z</time>
      </trkpt>
      <trkpt lat="43.70777" lon="6.96646">
        <ele>771.8</ele>
        <time>2012-01-15T13:41:37Z</time>
      </trkpt>
      <trkpt lat="43.70781" lon="6.96649">
        <ele>771.1</ele>
        <time>2012-01-15T13:41:38Z</time>
      </trkpt>
      <trkpt lat="43.70785" lon="6.96653">
        <ele>770.5</ele>
        <time>2012-01-15T13:41:39Z</time>
      </trkpt>
      <trkpt lat="43.70791" lon="6.96662">
        <ele>768.4</ele>
        <time>2012-01-15T13:41:41Z</time>
      </trkpt>
      <trkpt lat="43.70796" lon="6.96671">
        <ele>766</ele>
        <time>2012-01-15T13:41:43Z</time>
      </trkpt>
      <trkpt lat="43.70797" lon="6.96683">
        <ele>764.5</ele>
        <time>2012-01-15T13:41:45Z</time>
      </trkpt>
      <trkpt lat="43.70799" lon="6.96689">
        <ele>764</ele>
        <time>2012-01-15T13:41:46Z</time>
      </trkpt>
      <trkpt lat="43.70802" lon="6.96696">
        <ele>763.3</ele>
        <time>2012-01-15T13:41:47Z</time>
      </trkpt>
      <trkpt lat="43.70807" lon="6.96705">
        <ele>761.5</ele>
        <time>2012-01-15T13:41:49Z</time>
      </trkpt>
      <trkpt lat="43.70811" lon="6.96715">
        <ele>759.8</ele>
        <time>2012-01-15T13:41:51Z</time>
      </trkpt>
      <trkpt lat="43.70816" lon="6.96722">
        <ele>757.7</ele>
        <time>2012-01-15T13:41:53Z</time>
      </trkpt>
      <trkpt lat="43.7082" lon="6.96729">
        <ele>755.3</ele>
        <time>2012-01-15T13:41:55Z</time>
      </trkpt>
      <trkpt lat="43.70825" lon="6.96735">
        <ele>753.3</ele>
        <time>2012-01-15T13:41:57Z</time>
      </trkpt>
      <trkpt lat="43.70831" lon="6.96743">
        <ele>751</ele>
        <time>2012-01-15T13:41:59Z</time>
      </trkpt>
      <trkpt lat="43.70838" lon="6.96749">
        <ele>748.6</ele>
        <time>2012-01-15T13:42:01Z</time>
      </trkpt>
      <trkpt lat="43.70845" lon="6.96756">
        <ele>747</ele>
        <time>2012-01-15T13:42:03Z</time>
      </trkpt>
      <trkpt lat="43.70852" lon="6.96761">
        <ele>744.4</ele>
        <time>2012-01-15T13:42:05Z</time>
      </trkpt>
      <trkpt lat="43.70856" lon="6.96761">
        <ele>742.8</ele>
        <time>2012-01-15T13:42:06Z</time>
      </trkpt>
      <trkpt lat="43.70861" lon="6.9676">
        <ele>741.6</ele>
        <time>2012-01-15T13:42:07Z</time>
      </trkpt>
      <trkpt lat="43.70866" lon="6.96759">
        <ele>739.9</ele>
        <time>2012-01-15T13:42:08Z</time>
      </trkpt>
      <trkpt lat="43.70873" lon="6.96761">
        <ele>737.7</ele>
        <time>2012-01-15T13:42:10Z</time>
      </trkpt>
      <trkpt lat="43.70879" lon="6.96769">
        <ele>736.1</ele>
        <time>2012-01-15T13:42:12Z</time>
      </trkpt>
      <trkpt lat="43.70885" lon="6.96778">
        <ele>733.6</ele>
        <time>2012-01-15T13:42:14Z</time>
      </trkpt>
      <trkpt lat="43.70888" lon="6.96788">
        <ele>731.9</ele>
        <time>2012-01-15T13:42:16Z</time>
      </trkpt>
      <trkpt lat="43.70894" lon="6.96798">
        <ele>730.3</ele>
        <time>2012-01-15T13:42:18Z</time>
      </trkpt>
      <trkpt lat="43.70897" lon="6.96803">
        <ele>729.6</ele>
        <time>2012-01-15T13:42:19Z</time>
      </trkpt>
      <trkpt lat="43.70903" lon="6.96812">
        <ele>727</ele>
        <time>2012-01-15T13:42:21Z</time>
      </trkpt>
      <trkpt lat="43.70906" lon="6.96816">
        <ele>726.1</ele>
        <time>2012-01-15T13:42:22Z</time>
      </trkpt>
      <trkpt lat="43.70911" lon="6.96829">
        <ele>723.8</ele>
        <time>2012-01-15T13:42:25Z</time>
      </trkpt>
      <trkpt lat="43.70911" lon="6.96835">
        <ele>723.4</ele>
        <time>2012-01-15T13:42:26Z</time>
      </trkpt>
      <trkpt lat="43.70911" lon="6.96842">
        <ele>722.6</ele>
        <time>2012-01-15T13:42:27Z</time>
      </trkpt>
      <trkpt lat="43.70911" lon="6.96849">
        <ele>722</ele>
        <time>2012-01-15T13:42:28Z</time>
      </trkpt>
      <trkpt lat="43.70912" lon="6.96855">
        <ele>721.5</ele>
        <time>2012-01-15T13:42:29Z</time>
      </trkpt>
      <trkpt lat="43.70913" lon="6.96862">
        <ele>721</ele>
        <time>2012-01-15T13:42:30Z</time>
      </trkpt>
      <trkpt lat="43.70913" lon="6.96869">
        <ele>720.5</ele>
        <time>2012-01-15T13:42:31Z</time>
      </trkpt>
      <trkpt lat="43.70914" lon="6.96876">
        <ele>719.5</ele>
        <time>2012-01-15T13:42:32Z</time>
      </trkpt>
      <trkpt lat="43.70915" lon="6.96882">
        <ele>718.8</ele>
        <time>2012-01-15T13:42:33Z</time>
      </trkpt>
      <trkpt lat="43.70918" lon="6.96892">
        <ele>717.3</ele>
        <time>2012-01-15T13:42:35Z</time>
      </trkpt>
      <trkpt lat="43.70921" lon="6.96901">
        <ele>715.6</ele>
        <time>2012-01-15T13:42:38Z</time>
      </trkpt>
      <trkpt lat="43.70923" lon="6.96913">
        <ele>713.1</ele>
        <time>2012-01-15T13:42:45Z</time>
      </trkpt>
      <trkpt lat="43.70926" lon="6.96924">
        <ele>712.4</ele>
        <time>2012-01-15T13:43:03Z</time>
      </trkpt>
      <trkpt lat="43.70929" lon="6.96935">
        <ele>712.9</ele>
        <time>2012-01-15T13:43:17Z</time>
      </trkpt>
      <trkpt lat="43.70928" lon="6.96944">
        <ele>712.4</ele>
        <time>2012-01-15T13:43:20Z</time>
      </trkpt>
      <trkpt lat="43.70926" lon="6.96955">
        <ele>711.2</ele>
        <time>2012-01-15T13:43:23Z</time>
      </trkpt>
      <trkpt lat="43.70925" lon="6.96959">
        <ele>710.5</ele>
        <time>2012-01-15T13:43:24Z</time>
      </trkpt>
      <trkpt lat="43.70924" lon="6.96972">
        <ele>709.4</ele>
        <time>2012-01-15T13:43:27Z</time>
      </trkpt>
      <trkpt lat="43.70924" lon="6.96981">
        <ele>709</ele>
        <time>2012-01-15T13:43:29Z</time>
      </trkpt>
      <trkpt lat="43.70921" lon="6.96992">
        <ele>708.8</ele>
        <time>2012-01-15T13:43:33Z</time>
      </trkpt>
      <trkpt lat="43.70919" lon="6.97004">
        <ele>708</ele>
        <time>2012-01-15T13:43:36Z</time>
      </trkpt>
      <trkpt lat="43.70914" lon="6.97013">
        <ele>706.4</ele>
        <time>2012-01-15T13:43:39Z</time>
      </trkpt>
      <trkpt lat="43.70911" lon="6.97024">
        <ele>705.2</ele>
        <time>2012-01-15T13:43:42Z</time>
      </trkpt>
      <trkpt lat="43.70908" lon="6.97032">
        <ele>703.7</ele>
        <time>2012-01-15T13:43:45Z</time>
      </trkpt>
      <trkpt lat="43.70903" lon="6.9704">
        <ele>703.5</ele>
        <time>2012-01-15T13:43:48Z</time>
      </trkpt>
      <trkpt lat="43.70899" lon="6.97049">
        <ele>702.9</ele>
        <time>2012-01-15T13:43:51Z</time>
      </trkpt>
      <trkpt lat="43.70895" lon="6.97057">
        <ele>702.8</ele>
        <time>2012-01-15T13:43:54Z</time>
      </trkpt>
      <trkpt lat="43.7089" lon="6.97065">
        <ele>701.3</ele>
        <time>2012-01-15T13:43:57Z</time>
      </trkpt>
      <trkpt lat="43.70884" lon="6.97073">
        <ele>699.2</ele>
        <time>2012-01-15T13:44:19Z</time>
      </trkpt>
      <trkpt lat="43.70876" lon="6.97079">
        <ele>699.9</ele>
        <time>2012-01-15T13:45:42Z</time>
      </trkpt>
      <trkpt lat="43.70875" lon="6.97079">
        <ele>700</ele>
        <time>2012-01-15T13:45:43Z</time>
      </trkpt>
      <trkpt lat="43.70859" lon="6.97082">
        <ele>699.3</ele>
        <time>2012-01-15T13:45:56Z</time>
      </trkpt>
      <trkpt lat="43.70852" lon="6.97082">
        <ele>699</ele>
        <time>2012-01-15T13:45:58Z</time>
      </trkpt>
      <trkpt lat="43.70844" lon="6.97082">
        <ele>698.4</ele>
        <time>2012-01-15T13:46:01Z</time>
      </trkpt>
      <trkpt lat="43.70835" lon="6.97085">
        <ele>697.6</ele>
        <time>2012-01-15T13:46:04Z</time>
      </trkpt>
      <trkpt lat="43.70826" lon="6.97084">
        <ele>697.2</ele>
        <time>2012-01-15T13:46:07Z</time>
      </trkpt>
      <trkpt lat="43.7082" lon="6.97084">
        <ele>696.4</ele>
        <time>2012-01-15T13:46:09Z</time>
      </trkpt>
      <trkpt lat="43.70811" lon="6.97084">
        <ele>696</ele>
        <time>2012-01-15T13:46:12Z</time>
      </trkpt>
      <trkpt lat="43.70806" lon="6.97083">
        <ele>695.8</ele>
        <time>2012-01-15T13:46:14Z</time>
      </trkpt>
      <trkpt lat="43.70799" lon="6.97083">
        <ele>695.4</ele>
        <time>2012-01-15T13:46:16Z</time>
      </trkpt>
      <trkpt lat="43.7079" lon="6.97083">
        <ele>695.3</ele>
        <time>2012-01-15T13:46:18Z</time>
      </trkpt>
      <trkpt lat="43.70782" lon="6.97081">
        <ele>694.6</ele>
        <time>2012-01-15T13:46:20Z</time>
      </trkpt>
      <trkpt lat="43.70774" lon="6.97079">
        <ele>693.7</ele>
        <time>2012-01-15T13:46:22Z</time>
      </trkpt>
      <trkpt lat="43.70766" lon="6.97075">
        <ele>693.2</ele>
        <time>2012-01-15T13:46:24Z</time>
      </trkpt>
      <trkpt lat="43.70758" lon="6.97073">
        <ele>692.6</ele>
        <time>2012-01-15T13:46:26Z</time>
      </trkpt>
      <trkpt lat="43.7075" lon="6.9707">
        <ele>691.9</ele>
        <time>2012-01-15T13:46:28Z</time>
      </trkpt>
      <trkpt lat="43.70742" lon="6.97071">
        <ele>691.5</ele>
        <time>2012-01-15T13:46:30Z</time>
      </trkpt>
      <trkpt lat="43.70734" lon="6.97073">
        <ele>690.9</ele>
        <time>2012-01-15T13:46:32Z</time>
      </trkpt>
      <trkpt lat="43.70725" lon="6.97075">
        <ele>690.1</ele>
        <time>2012-01-15T13:46:34Z</time>
      </trkpt>
      <trkpt lat="43.70717" lon="6.97076">
        <ele>689.5</ele>
        <time>2012-01-15T13:46:36Z</time>
      </trkpt>
      <trkpt lat="43.70712" lon="6.97077">
        <ele>689.4</ele>
        <time>2012-01-15T13:46:37Z</time>
      </trkpt>
      <trkpt lat="43.70708" lon="6.97076">
        <ele>689.4</ele>
        <time>2012-01-15T13:46:38Z</time>
      </trkpt>
      <trkpt lat="43.70703" lon="6.97075">
        <ele>689.3</ele>
        <time>2012-01-15T13:46:39Z</time>
      </trkpt>
      <trkpt lat="43.70699" lon="6.97074">
        <ele>689.3</ele>
        <time>2012-01-15T13:46:40Z</time>
      </trkpt>
      <trkpt lat="43.70694" lon="6.97073">
        <ele>689</ele>
        <time>2012-01-15T13:46:41Z</time>
      </trkpt>
      <trkpt lat="43.7069" lon="6.97073">
        <ele>688.7</ele>
        <time>2012-01-15T13:46:42Z</time>
      </trkpt>
      <trkpt lat="43.70685" lon="6.97073">
        <ele>688.5</ele>
        <time>2012-01-15T13:46:43Z</time>
      </trkpt>
      <trkpt lat="43.70681" lon="6.97074">
        <ele>688.3</ele>
        <time>2012-01-15T13:46:44Z</time>
      </trkpt>
      <trkpt lat="43.70669" lon="6.97074">
        <ele>688.1</ele>
        <time>2012-01-15T13:46:47Z</time>
      </trkpt>
      <trkpt lat="43.70662" lon="6.97074">
        <ele>688.5</ele>
        <time>2012-01-15T13:46:49Z</time>
      </trkpt>
      <trkpt lat="43.70655" lon="6.97073">
        <ele>688.6</ele>
        <time>2012-01-15T13:46:51Z</time>
      </trkpt>
      <trkpt lat="43.70647" lon="6.97073">
        <ele>687.7</ele>
        <time>2012-01-15T13:46:53Z</time>
      </trkpt>
      <trkpt lat="43.7064" lon="6.97073">
        <ele>686.8</ele>
        <time>2012-01-15T13:46:55Z</time>
      </trkpt>
      <trkpt lat="43.70632" lon="6.97073">
        <ele>687</ele>
        <time>2012-01-15T13:46:57Z</time>
      </trkpt>
      <trkpt lat="43.70623" lon="6.97072">
        <ele>687.7</ele>
        <time>2012-01-15T13:46:59Z</time>
      </trkpt>
      <trkpt lat="43.70615" lon="6.97071">
        <ele>686.5</ele>
        <time>2012-01-15T13:47:01Z</time>
      </trkpt>
      <trkpt lat="43.70607" lon="6.9707">
        <ele>685.4</ele>
        <time>2012-01-15T13:47:03Z</time>
      </trkpt>
      <trkpt lat="43.70598" lon="6.9707">
        <ele>684.8</ele>
        <time>2012-01-15T13:47:05Z</time>
      </trkpt>
      <trkpt lat="43.7059" lon="6.97068">
        <ele>684.8</ele>
        <time>2012-01-15T13:47:07Z</time>
      </trkpt>
      <trkpt lat="43.70582" lon="6.97067">
        <ele>683.8</ele>
        <time>2012-01-15T13:47:09Z</time>
      </trkpt>
      <trkpt lat="43.70573" lon="6.97067">
        <ele>683.4</ele>
        <time>2012-01-15T13:47:11Z</time>
      </trkpt>
      <trkpt lat="43.70565" lon="6.97067">
        <ele>682.9</ele>
        <time>2012-01-15T13:47:13Z</time>
      </trkpt>
      <trkpt lat="43.70556" lon="6.97066">
        <ele>682.4</ele>
        <time>2012-01-15T13:47:15Z</time>
      </trkpt>
      <trkpt lat="43.70551" lon="6.97066">
        <ele>682.1</ele>
        <time>2012-01-15T13:47:16Z</time>
      </trkpt>
      <trkpt lat="43.70547" lon="6.97065">
        <ele>681.5</ele>
        <time>2012-01-15T13:47:17Z</time>
      </trkpt>
      <trkpt lat="43.70542" lon="6.97064">
        <ele>681.1</ele>
        <time>2012-01-15T13:47:18Z</time>
      </trkpt>
      <trkpt lat="43.70537" lon="6.97064">
        <ele>680.4</ele>
        <time>2012-01-15T13:47:19Z</time>
      </trkpt>
      <trkpt lat="43.70533" lon="6.97064">
        <ele>680</ele>
        <time>2012-01-15T13:47:20Z</time>
      </trkpt>
      <trkpt lat="43.70528" lon="6.97062">
        <ele>679.6</ele>
        <time>2012-01-15T13:47:21Z</time>
      </trkpt>
      <trkpt lat="43.7052" lon="6.9706">
        <ele>679</ele>
        <time>2012-01-15T13:47:23Z</time>
      </trkpt>
      <trkpt lat="43.70511" lon="6.97057">
        <ele>677.6</ele>
        <time>2012-01-15T13:47:25Z</time>
      </trkpt>
      <trkpt lat="43.70507" lon="6.97055">
        <ele>677.1</ele>
        <time>2012-01-15T13:47:26Z</time>
      </trkpt>
      <trkpt lat="43.70502" lon="6.97052">
        <ele>676.7</ele>
        <time>2012-01-15T13:47:27Z</time>
      </trkpt>
      <trkpt lat="43.70494" lon="6.97049">
        <ele>676</ele>
        <time>2012-01-15T13:47:29Z</time>
      </trkpt>
      <trkpt lat="43.70488" lon="6.97043">
        <ele>675.4</ele>
        <time>2012-01-15T13:47:31Z</time>
      </trkpt>
      <trkpt lat="43.70482" lon="6.97036">
        <ele>674.9</ele>
        <time>2012-01-15T13:47:33Z</time>
      </trkpt>
      <trkpt lat="43.70477" lon="6.97029">
        <ele>673.6</ele>
        <time>2012-01-15T13:47:35Z</time>
      </trkpt>
      <trkpt lat="43.70473" lon="6.97023">
        <ele>673.1</ele>
        <time>2012-01-15T13:47:37Z</time>
      </trkpt>
      <trkpt lat="43.70467" lon="6.97016">
        <ele>673.5</ele>
        <time>2012-01-15T13:47:39Z</time>
      </trkpt>
      <trkpt lat="43.70462" lon="6.9701">
        <ele>673.1</ele>
        <time>2012-01-15T13:47:41Z</time>
      </trkpt>
      <trkpt lat="43.70458" lon="6.97002">
        <ele>672.4</ele>
        <time>2012-01-15T13:47:43Z</time>
      </trkpt>
      <trkpt lat="43.70453" lon="6.96996">
        <ele>672</ele>
        <time>2012-01-15T13:47:45Z</time>
      </trkpt>
      <trkpt lat="43.70451" lon="6.96992">
        <ele>671.7</ele>
        <time>2012-01-15T13:47:46Z</time>
      </trkpt>
      <trkpt lat="43.70443" lon="6.96981">
        <ele>671.3</ele>
        <time>2012-01-15T13:47:49Z</time>
      </trkpt>
      <trkpt lat="43.70437" lon="6.96973">
        <ele>670.1</ele>
        <time>2012-01-15T13:47:51Z</time>
      </trkpt>
      <trkpt lat="43.70432" lon="6.96965">
        <ele>669.2</ele>
        <time>2012-01-15T13:47:53Z</time>
      </trkpt>
      <trkpt lat="43.70427" lon="6.96958">
        <ele>668.2</ele>
        <time>2012-01-15T13:47:55Z</time>
      </trkpt>
      <trkpt lat="43.70421" lon="6.9695">
        <ele>665.1</ele>
        <time>2012-01-15T13:48:07Z</time>
      </trkpt>
      <trkpt lat="43.70413" lon="6.96944">
        <ele>665.9</ele>
        <time>2012-01-15T13:48:57Z</time>
      </trkpt>
      <trkpt lat="43.70412" lon="6.96944">
        <ele>665.7</ele>
        <time>2012-01-15T13:48:58Z</time>
      </trkpt>
      <trkpt lat="43.70401" lon="6.96929">
        <ele>665.6</ele>
        <time>2012-01-15T13:49:22Z</time>
      </trkpt>
      <trkpt lat="43.70398" lon="6.96918">
        <ele>664.2</ele>
        <time>2012-01-15T13:49:25Z</time>
      </trkpt>
      <trkpt lat="43.70395" lon="6.96909">
        <ele>664.3</ele>
        <time>2012-01-15T13:49:27Z</time>
      </trkpt>
      <trkpt lat="43.70393" lon="6.969">
        <ele>663.2</ele>
        <time>2012-01-15T13:49:29Z</time>
      </trkpt>
      <trkpt lat="43.7039" lon="6.96889">
        <ele>662.9</ele>
        <time>2012-01-15T13:49:32Z</time>
      </trkpt>
      <trkpt lat="43.70388" lon="6.96881">
        <ele>663</ele>
        <time>2012-01-15T13:49:34Z</time>
      </trkpt>
      <trkpt lat="43.70385" lon="6.96872">
        <ele>662.8</ele>
        <time>2012-01-15T13:49:36Z</time>
      </trkpt>
      <trkpt lat="43.70383" lon="6.96863">
        <ele>662.5</ele>
        <time>2012-01-15T13:49:38Z</time>
      </trkpt>
      <trkpt lat="43.70381" lon="6.96854">
        <ele>661.7</ele>
        <time>2012-01-15T13:49:40Z</time>
      </trkpt>
      <trkpt lat="43.70378" lon="6.96843">
        <ele>662</ele>
        <time>2012-01-15T13:49:43Z</time>
      </trkpt>
      <trkpt lat="43.70374" lon="6.96834">
        <ele>661.8</ele>
        <time>2012-01-15T13:49:46Z</time>
      </trkpt>
      <trkpt lat="43.70373" lon="6.96823">
        <ele>661</ele>
        <time>2012-01-15T13:49:49Z</time>
      </trkpt>
      <trkpt lat="43.70373" lon="6.96811">
        <ele>659.3</ele>
        <time>2012-01-15T13:49:53Z</time>
      </trkpt>
      <trkpt lat="43.70372" lon="6.96799">
        <ele>659.4</ele>
        <time>2012-01-15T13:49:57Z</time>
      </trkpt>
      <trkpt lat="43.70372" lon="6.96789">
        <ele>658.7</ele>
        <time>2012-01-15T13:50:00Z</time>
      </trkpt>
      <trkpt lat="43.70372" lon="6.96785">
        <ele>658</ele>
        <time>2012-01-15T13:50:01Z</time>
      </trkpt>
      <trkpt lat="43.70373" lon="6.96772">
        <ele>657.1</ele>
        <time>2012-01-15T13:50:04Z</time>
      </trkpt>
      <trkpt lat="43.70372" lon="6.96762">
        <ele>656.9</ele>
        <time>2012-01-15T13:50:06Z</time>
      </trkpt>
      <trkpt lat="43.70371" lon="6.96752">
        <ele>656.4</ele>
        <time>2012-01-15T13:50:08Z</time>
      </trkpt>
      <trkpt lat="43.70369" lon="6.96743">
        <ele>655.7</ele>
        <time>2012-01-15T13:50:10Z</time>
      </trkpt>
      <trkpt lat="43.70367" lon="6.96735">
        <ele>655.2</ele>
        <time>2012-01-15T13:50:12Z</time>
      </trkpt>
      <trkpt lat="43.70365" lon="6.96725">
        <ele>655.2</ele>
        <time>2012-01-15T13:50:14Z</time>
      </trkpt>
      <trkpt lat="43.70363" lon="6.96715">
        <ele>654.6</ele>
        <time>2012-01-15T13:50:16Z</time>
      </trkpt>
      <trkpt lat="43.70361" lon="6.96705">
        <ele>653.8</ele>
        <time>2012-01-15T13:50:18Z</time>
      </trkpt>
      <trkpt lat="43.70359" lon="6.96695">
        <ele>653.3</ele>
        <time>2012-01-15T13:50:20Z</time>
      </trkpt>
      <trkpt lat="43.70358" lon="6.96685">
        <ele>652.9</ele>
        <time>2012-01-15T13:50:22Z</time>
      </trkpt>
      <trkpt lat="43.70355" lon="6.96674">
        <ele>652.4</ele>
        <time>2012-01-15T13:50:24Z</time>
      </trkpt>
      <trkpt lat="43.70352" lon="6.96663">
        <ele>652.2</ele>
        <time>2012-01-15T13:50:26Z</time>
      </trkpt>
      <trkpt lat="43.7035" lon="6.96654">
        <ele>650.9</ele>
        <time>2012-01-15T13:50:28Z</time>
      </trkpt>
      <trkpt lat="43.70348" lon="6.96643">
        <ele>650.4</ele>
        <time>2012-01-15T13:50:31Z</time>
      </trkpt>
      <trkpt lat="43.70347" lon="6.96633">
        <ele>650.8</ele>
        <time>2012-01-15T13:50:34Z</time>
      </trkpt>
      <trkpt lat="43.70345" lon="6.96624">
        <ele>651.7</ele>
        <time>2012-01-15T13:50:37Z</time>
      </trkpt>
      <trkpt lat="43.70343" lon="6.96615">
        <ele>651.8</ele>
        <time>2012-01-15T13:50:40Z</time>
      </trkpt>
      <trkpt lat="43.70342" lon="6.96604">
        <ele>651.8</ele>
        <time>2012-01-15T13:50:43Z</time>
      </trkpt>
      <trkpt lat="43.70341" lon="6.96594">
        <ele>652.3</ele>
        <time>2012-01-15T13:50:46Z</time>
      </trkpt>
      <trkpt lat="43.70342" lon="6.96583">
        <ele>653.4</ele>
        <time>2012-01-15T13:50:50Z</time>
      </trkpt>
      <trkpt lat="43.70342" lon="6.96571">
        <ele>654.8</ele>
        <time>2012-01-15T13:50:54Z</time>
      </trkpt>
      <trkpt lat="43.70341" lon="6.96559">
        <ele>656.4</ele>
        <time>2012-01-15T13:50:59Z</time>
      </trkpt>
      <trkpt lat="43.7034" lon="6.96547">
        <ele>657.2</ele>
        <time>2012-01-15T13:51:03Z</time>
      </trkpt>
      <trkpt lat="43.7034" lon="6.96544">
        <ele>657.4</ele>
        <time>2012-01-15T13:51:04Z</time>
      </trkpt>
      <trkpt lat="43.70338" lon="6.96523">
        <ele>657.8</ele>
        <time>2012-01-15T13:51:12Z</time>
      </trkpt>
      <trkpt lat="43.70337" lon="6.96511">
        <ele>659.3</ele>
        <time>2012-01-15T13:51:27Z</time>
      </trkpt>
      <trkpt lat="43.70334" lon="6.965">
        <ele>659</ele>
        <time>2012-01-15T13:51:35Z</time>
      </trkpt>
      <trkpt lat="43.70333" lon="6.96489">
        <ele>660.2</ele>
        <time>2012-01-15T13:51:42Z</time>
      </trkpt>
      <trkpt lat="43.70333" lon="6.96478">
        <ele>659.9</ele>
        <time>2012-01-15T13:51:45Z</time>
      </trkpt>
      <trkpt lat="43.70334" lon="6.96468">
        <ele>660.4</ele>
        <time>2012-01-15T13:51:49Z</time>
      </trkpt>
      <trkpt lat="43.70333" lon="6.96458">
        <ele>661.3</ele>
        <time>2012-01-15T13:51:53Z</time>
      </trkpt>
      <trkpt lat="43.70334" lon="6.96446">
        <ele>661.7</ele>
        <time>2012-01-15T13:51:58Z</time>
      </trkpt>
      <trkpt lat="43.70332" lon="6.96435">
        <ele>661.9</ele>
        <time>2012-01-15T13:52:02Z</time>
      </trkpt>
      <trkpt lat="43.70332" lon="6.96426">
        <ele>661.1</ele>
        <time>2012-01-15T13:52:05Z</time>
      </trkpt>
      <trkpt lat="43.70331" lon="6.96422">
        <ele>661</ele>
        <time>2012-01-15T13:52:06Z</time>
      </trkpt>
      <trkpt lat="43.70324" lon="6.96408">
        <ele>661.1</ele>
        <time>2012-01-15T13:52:10Z</time>
      </trkpt>
      <trkpt lat="43.70321" lon="6.96399">
        <ele>660.4</ele>
        <time>2012-01-15T13:52:12Z</time>
      </trkpt>
      <trkpt lat="43.70319" lon="6.96388">
        <ele>660.1</ele>
        <time>2012-01-15T13:52:16Z</time>
      </trkpt>
      <trkpt lat="43.70313" lon="6.9638">
        <ele>659.8</ele>
        <time>2012-01-15T13:52:19Z</time>
      </trkpt>
      <trkpt lat="43.70308" lon="6.96371">
        <ele>658.2</ele>
        <time>2012-01-15T13:52:23Z</time>
      </trkpt>
      <trkpt lat="43.70303" lon="6.96363">
        <ele>657.1</ele>
        <time>2012-01-15T13:52:26Z</time>
      </trkpt>
      <trkpt lat="43.70298" lon="6.96354">
        <ele>655.4</ele>
        <time>2012-01-15T13:52:29Z</time>
      </trkpt>
      <trkpt lat="43.70291" lon="6.96347">
        <ele>653.1</ele>
        <time>2012-01-15T13:52:33Z</time>
      </trkpt>
      <trkpt lat="43.70284" lon="6.96341">
        <ele>650.1</ele>
        <time>2012-01-15T13:52:38Z</time>
      </trkpt>
      <trkpt lat="43.70279" lon="6.96333">
        <ele>648.3</ele>
        <time>2012-01-15T13:52:41Z</time>
      </trkpt>
      <trkpt lat="43.70274" lon="6.96324">
        <ele>646.7</ele>
        <time>2012-01-15T13:52:44Z</time>
      </trkpt>
      <trkpt lat="43.7027" lon="6.96316">
        <ele>645.6</ele>
        <time>2012-01-15T13:52:47Z</time>
      </trkpt>
      <trkpt lat="43.70264" lon="6.9631">
        <ele>644.8</ele>
        <time>2012-01-15T13:52:50Z</time>
      </trkpt>
      <trkpt lat="43.7026" lon="6.96302">
        <ele>644.2</ele>
        <time>2012-01-15T13:52:52Z</time>
      </trkpt>
      <trkpt lat="43.70257" lon="6.96291">
        <ele>643.1</ele>
        <time>2012-01-15T13:52:56Z</time>
      </trkpt>
      <trkpt lat="43.70254" lon="6.9628">
        <ele>642.5</ele>
        <time>2012-01-15T13:53:00Z</time>
      </trkpt>
      <trkpt lat="43.70252" lon="6.96272">
        <ele>643.1</ele>
        <time>2012-01-15T13:53:03Z</time>
      </trkpt>
      <trkpt lat="43.70248" lon="6.96265">
        <ele>643.5</ele>
        <time>2012-01-15T13:53:05Z</time>
      </trkpt>
      <trkpt lat="43.70241" lon="6.96259">
        <ele>642.6</ele>
        <time>2012-01-15T13:53:08Z</time>
      </trkpt>
      <trkpt lat="43.70239" lon="6.96257">
        <ele>642.3</ele>
        <time>2012-01-15T13:53:09Z</time>
      </trkpt>
      <trkpt lat="43.70226" lon="6.9625">
        <ele>636.9</ele>
        <time>2012-01-15T13:53:18Z</time>
      </trkpt>
      <trkpt lat="43.70221" lon="6.96244">
        <ele>635.1</ele>
        <time>2012-01-15T13:53:20Z</time>
      </trkpt>
      <trkpt lat="43.7022" lon="6.96255">
        <ele>632.3</ele>
        <time>2012-01-15T13:53:33Z</time>
      </trkpt>
      <trkpt lat="43.70224" lon="6.96262">
        <ele>632.1</ele>
        <time>2012-01-15T13:53:36Z</time>
      </trkpt>
      <trkpt lat="43.70228" lon="6.9627">
        <ele>632.5</ele>
        <time>2012-01-15T13:53:39Z</time>
      </trkpt>
      <trkpt lat="43.70233" lon="6.96279">
        <ele>632.6</ele>
        <time>2012-01-15T13:53:42Z</time>
      </trkpt>
      <trkpt lat="43.70237" lon="6.96288">
        <ele>633.2</ele>
        <time>2012-01-15T13:53:45Z</time>
      </trkpt>
      <trkpt lat="43.70241" lon="6.96298">
        <ele>633.4</ele>
        <time>2012-01-15T13:53:48Z</time>
      </trkpt>
      <trkpt lat="43.70246" lon="6.96307">
        <ele>633.3</ele>
        <time>2012-01-15T13:53:51Z</time>
      </trkpt>
      <trkpt lat="43.7025" lon="6.96318">
        <ele>633.7</ele>
        <time>2012-01-15T13:53:54Z</time>
      </trkpt>
      <trkpt lat="43.70254" lon="6.96328">
        <ele>634.8</ele>
        <time>2012-01-15T13:53:57Z</time>
      </trkpt>
      <trkpt lat="43.70259" lon="6.96338">
        <ele>635.4</ele>
        <time>2012-01-15T13:54:00Z</time>
      </trkpt>
      <trkpt lat="43.70264" lon="6.96348">
        <ele>634.9</ele>
        <time>2012-01-15T13:54:03Z</time>
      </trkpt>
      <trkpt lat="43.70268" lon="6.96359">
        <ele>634.7</ele>
        <time>2012-01-15T13:54:06Z</time>
      </trkpt>
      <trkpt lat="43.70273" lon="6.96369">
        <ele>635.7</ele>
        <time>2012-01-15T13:54:09Z</time>
      </trkpt>
      <trkpt lat="43.70275" lon="6.96372">
        <ele>635.7</ele>
        <time>2012-01-15T13:54:10Z</time>
      </trkpt>
      <trkpt lat="43.70279" lon="6.96384">
        <ele>636</ele>
        <time>2012-01-15T13:54:13Z</time>
      </trkpt>
      <trkpt lat="43.70282" lon="6.96391">
        <ele>636.1</ele>
        <time>2012-01-15T13:54:15Z</time>
      </trkpt>
      <trkpt lat="43.70284" lon="6.96399">
        <ele>636.2</ele>
        <time>2012-01-15T13:54:17Z</time>
      </trkpt>
      <trkpt lat="43.70286" lon="6.96407">
        <ele>636.1</ele>
        <time>2012-01-15T13:54:19Z</time>
      </trkpt>
      <trkpt lat="43.70288" lon="6.96415">
        <ele>635.9</ele>
        <time>2012-01-15T13:54:21Z</time>
      </trkpt>
      <trkpt lat="43.7029" lon="6.96424">
        <ele>635.8</ele>
        <time>2012-01-15T13:54:23Z</time>
      </trkpt>
      <trkpt lat="43.70291" lon="6.96433">
        <ele>636.8</ele>
        <time>2012-01-15T13:54:25Z</time>
      </trkpt>
      <trkpt lat="43.70293" lon="6.96441">
        <ele>637.3</ele>
        <time>2012-01-15T13:54:27Z</time>
      </trkpt>
      <trkpt lat="43.70294" lon="6.9645">
        <ele>637.5</ele>
        <time>2012-01-15T13:54:29Z</time>
      </trkpt>
      <trkpt lat="43.70296" lon="6.96459">
        <ele>637.4</ele>
        <time>2012-01-15T13:54:31Z</time>
      </trkpt>
      <trkpt lat="43.70297" lon="6.96468">
        <ele>637.1</ele>
        <time>2012-01-15T13:54:33Z</time>
      </trkpt>
      <trkpt lat="43.70298" lon="6.96477">
        <ele>637.2</ele>
        <time>2012-01-15T13:54:35Z</time>
      </trkpt>
      <trkpt lat="43.703" lon="6.96486">
        <ele>638.1</ele>
        <time>2012-01-15T13:54:37Z</time>
      </trkpt>
      <trkpt lat="43.70301" lon="6.96495">
        <ele>638.2</ele>
        <time>2012-01-15T13:54:39Z</time>
      </trkpt>
      <trkpt lat="43.70303" lon="6.96505">
        <ele>638</ele>
        <time>2012-01-15T13:54:41Z</time>
      </trkpt>
      <trkpt lat="43.70304" lon="6.96514">
        <ele>638.1</ele>
        <time>2012-01-15T13:54:43Z</time>
      </trkpt>
      <trkpt lat="43.70305" lon="6.96523">
        <ele>638.2</ele>
        <time>2012-01-15T13:54:45Z</time>
      </trkpt>
      <trkpt lat="43.70307" lon="6.96533">
        <ele>638.1</ele>
        <time>2012-01-15T13:54:47Z</time>
      </trkpt>
      <trkpt lat="43.70309" lon="6.96542">
        <ele>637.7</ele>
        <time>2012-01-15T13:54:49Z</time>
      </trkpt>
      <trkpt lat="43.7031" lon="6.96551">
        <ele>638.6</ele>
        <time>2012-01-15T13:54:51Z</time>
      </trkpt>
      <trkpt lat="43.70312" lon="6.9656">
        <ele>638.8</ele>
        <time>2012-01-15T13:54:53Z</time>
      </trkpt>
      <trkpt lat="43.70313" lon="6.96569">
        <ele>638.9</ele>
        <time>2012-01-15T13:54:55Z</time>
      </trkpt>
      <trkpt lat="43.70314" lon="6.96578">
        <ele>639.8</ele>
        <time>2012-01-15T13:54:57Z</time>
      </trkpt>
      <trkpt lat="43.70316" lon="6.96587">
        <ele>640.6</ele>
        <time>2012-01-15T13:54:59Z</time>
      </trkpt>
      <trkpt lat="43.70317" lon="6.96595">
        <ele>640.8</ele>
        <time>2012-01-15T13:55:01Z</time>
      </trkpt>
      <trkpt lat="43.70319" lon="6.96604">
        <ele>640.7</ele>
        <time>2012-01-15T13:55:03Z</time>
      </trkpt>
      <trkpt lat="43.7032" lon="6.96613">
        <ele>640.6</ele>
        <time>2012-01-15T13:55:05Z</time>
      </trkpt>
      <trkpt lat="43.70322" lon="6.96622">
        <ele>640.8</ele>
        <time>2012-01-15T13:55:07Z</time>
      </trkpt>
      <trkpt lat="43.70323" lon="6.96631">
        <ele>641.1</ele>
        <time>2012-01-15T13:55:09Z</time>
      </trkpt>
      <trkpt lat="43.70325" lon="6.9664">
        <ele>641.2</ele>
        <time>2012-01-15T13:55:11Z</time>
      </trkpt>
      <trkpt lat="43.70325" lon="6.96645">
        <ele>641.3</ele>
        <time>2012-01-15T13:55:12Z</time>
      </trkpt>
      <trkpt lat="43.70328" lon="6.96658">
        <ele>641.5</ele>
        <time>2012-01-15T13:55:15Z</time>
      </trkpt>
      <trkpt lat="43.7033" lon="6.96668">
        <ele>642.2</ele>
        <time>2012-01-15T13:55:17Z</time>
      </trkpt>
      <trkpt lat="43.70331" lon="6.96677">
        <ele>642.5</ele>
        <time>2012-01-15T13:55:19Z</time>
      </trkpt>
      <trkpt lat="43.70333" lon="6.96685">
        <ele>642.3</ele>
        <time>2012-01-15T13:55:21Z</time>
      </trkpt>
      <trkpt lat="43.70335" lon="6.96694">
        <ele>642.1</ele>
        <time>2012-01-15T13:55:23Z</time>
      </trkpt>
      <trkpt lat="43.70336" lon="6.96704">
        <ele>642</ele>
        <time>2012-01-15T13:55:25Z</time>
      </trkpt>
      <trkpt lat="43.70338" lon="6.96712">
        <ele>642</ele>
        <time>2012-01-15T13:55:27Z</time>
      </trkpt>
      <trkpt lat="43.70339" lon="6.96721">
        <ele>642.4</ele>
        <time>2012-01-15T13:55:29Z</time>
      </trkpt>
      <trkpt lat="43.70341" lon="6.9673">
        <ele>642.8</ele>
        <time>2012-01-15T13:55:31Z</time>
      </trkpt>
      <trkpt lat="43.70342" lon="6.96739">
        <ele>643.4</ele>
        <time>2012-01-15T13:55:33Z</time>
      </trkpt>
      <trkpt lat="43.70344" lon="6.96748">
        <ele>643.8</ele>
        <time>2012-01-15T13:55:35Z</time>
      </trkpt>
      <trkpt lat="43.70345" lon="6.96757">
        <ele>644</ele>
        <time>2012-01-15T13:55:37Z</time>
      </trkpt>
      <trkpt lat="43.70346" lon="6.96766">
        <ele>644.4</ele>
        <time>2012-01-15T13:55:39Z</time>
      </trkpt>
      <trkpt lat="43.70346" lon="6.96774">
        <ele>644.8</ele>
        <time>2012-01-15T13:55:41Z</time>
      </trkpt>
      <trkpt lat="43.70347" lon="6.96783">
        <ele>644.9</ele>
        <time>2012-01-15T13:55:43Z</time>
      </trkpt>
      <trkpt lat="43.70347" lon="6.96792">
        <ele>645.2</ele>
        <time>2012-01-15T13:55:45Z</time>
      </trkpt>
      <trkpt lat="43.70348" lon="6.96801">
        <ele>644.9</ele>
        <time>2012-01-15T13:55:47Z</time>
      </trkpt>
      <trkpt lat="43.70348" lon="6.9681">
        <ele>644.2</ele>
        <time>2012-01-15T13:55:49Z</time>
      </trkpt>
      <trkpt lat="43.70349" lon="6.96819">
        <ele>644.9</ele>
        <time>2012-01-15T13:55:51Z</time>
      </trkpt>
      <trkpt lat="43.7035" lon="6.96827">
        <ele>645.3</ele>
        <time>2012-01-15T13:55:53Z</time>
      </trkpt>
      <trkpt lat="43.70352" lon="6.96836">
        <ele>645.5</ele>
        <time>2012-01-15T13:55:55Z</time>
      </trkpt>
      <trkpt lat="43.70353" lon="6.96845">
        <ele>645.7</ele>
        <time>2012-01-15T13:55:57Z</time>
      </trkpt>
      <trkpt lat="43.70355" lon="6.96853">
        <ele>645.9</ele>
        <time>2012-01-15T13:55:59Z</time>
      </trkpt>
      <trkpt lat="43.70356" lon="6.96862">
        <ele>646.6</ele>
        <time>2012-01-15T13:56:01Z</time>
      </trkpt>
      <trkpt lat="43.70357" lon="6.96871">
        <ele>647.2</ele>
        <time>2012-01-15T13:56:03Z</time>
      </trkpt>
      <trkpt lat="43.70358" lon="6.9688">
        <ele>647.7</ele>
        <time>2012-01-15T13:56:05Z</time>
      </trkpt>
      <trkpt lat="43.7036" lon="6.96889">
        <ele>647.8</ele>
        <time>2012-01-15T13:56:07Z</time>
      </trkpt>
      <trkpt lat="43.70361" lon="6.96897">
        <ele>648</ele>
        <time>2012-01-15T13:56:09Z</time>
      </trkpt>
      <trkpt lat="43.70362" lon="6.96906">
        <ele>648.3</ele>
        <time>2012-01-15T13:56:11Z</time>
      </trkpt>
      <trkpt lat="43.70363" lon="6.96915">
        <ele>648.6</ele>
        <time>2012-01-15T13:56:13Z</time>
      </trkpt>
      <trkpt lat="43.70364" lon="6.96919">
        <ele>648.7</ele>
        <time>2012-01-15T13:56:14Z</time>
      </trkpt>
      <trkpt lat="43.70366" lon="6.96932">
        <ele>648.2</ele>
        <time>2012-01-15T13:56:17Z</time>
      </trkpt>
      <trkpt lat="43.70367" lon="6.96941">
        <ele>647.7</ele>
        <time>2012-01-15T13:56:19Z</time>
      </trkpt>
      <trkpt lat="43.70368" lon="6.96949">
        <ele>648.8</ele>
        <time>2012-01-15T13:56:21Z</time>
      </trkpt>
      <trkpt lat="43.70369" lon="6.96958">
        <ele>649.7</ele>
        <time>2012-01-15T13:56:23Z</time>
      </trkpt>
      <trkpt lat="43.7037" lon="6.96966">
        <ele>650</ele>
        <time>2012-01-15T13:56:25Z</time>
      </trkpt>
      <trkpt lat="43.70371" lon="6.96974">
        <ele>649.9</ele>
        <time>2012-01-15T13:56:27Z</time>
      </trkpt>
      <trkpt lat="43.70372" lon="6.96983">
        <ele>649.9</ele>
        <time>2012-01-15T13:56:29Z</time>
      </trkpt>
      <trkpt lat="43.70373" lon="6.96991">
        <ele>650.6</ele>
        <time>2012-01-15T13:56:31Z</time>
      </trkpt>
      <trkpt lat="43.70375" lon="6.97">
        <ele>650.8</ele>
        <time>2012-01-15T13:56:33Z</time>
      </trkpt>
      <trkpt lat="43.70377" lon="6.97008">
        <ele>651.2</ele>
        <time>2012-01-15T13:56:35Z</time>
      </trkpt>
      <trkpt lat="43.70379" lon="6.97016">
        <ele>651.5</ele>
        <time>2012-01-15T13:56:37Z</time>
      </trkpt>
      <trkpt lat="43.70382" lon="6.97024">
        <ele>651.6</ele>
        <time>2012-01-15T13:56:39Z</time>
      </trkpt>
      <trkpt lat="43.70386" lon="6.97032">
        <ele>651.9</ele>
        <time>2012-01-15T13:56:41Z</time>
      </trkpt>
      <trkpt lat="43.7039" lon="6.97038">
        <ele>651.8</ele>
        <time>2012-01-15T13:56:43Z</time>
      </trkpt>
      <trkpt lat="43.70394" lon="6.97045">
        <ele>651.7</ele>
        <time>2012-01-15T13:56:45Z</time>
      </trkpt>
      <trkpt lat="43.70399" lon="6.97051">
        <ele>651.4</ele>
        <time>2012-01-15T13:56:47Z</time>
      </trkpt>
      <trkpt lat="43.70404" lon="6.97057">
        <ele>651.2</ele>
        <time>2012-01-15T13:56:49Z</time>
      </trkpt>
      <trkpt lat="43.70409" lon="6.97063">
        <ele>651.1</ele>
        <time>2012-01-15T13:56:51Z</time>
      </trkpt>
      <trkpt lat="43.70413" lon="6.97069">
        <ele>651.2</ele>
        <time>2012-01-15T13:56:53Z</time>
      </trkpt>
      <trkpt lat="43.70418" lon="6.97074">
        <ele>652</ele>
        <time>2012-01-15T13:56:55Z</time>
      </trkpt>
      <trkpt lat="43.70423" lon="6.9708">
        <ele>652.1</ele>
        <time>2012-01-15T13:56:57Z</time>
      </trkpt>
      <trkpt lat="43.70428" lon="6.97085">
        <ele>652.2</ele>
        <time>2012-01-15T13:56:59Z</time>
      </trkpt>
      <trkpt lat="43.70433" lon="6.97091">
        <ele>652.2</ele>
        <time>2012-01-15T13:57:01Z</time>
      </trkpt>
      <trkpt lat="43.70439" lon="6.97096">
        <ele>652.6</ele>
        <time>2012-01-15T13:57:03Z</time>
      </trkpt>
      <trkpt lat="43.70444" lon="6.97101">
        <ele>653.2</ele>
        <time>2012-01-15T13:57:05Z</time>
      </trkpt>
      <trkpt lat="43.70449" lon="6.97107">
        <ele>653.2</ele>
        <time>2012-01-15T13:57:07Z</time>
      </trkpt>
      <trkpt lat="43.70455" lon="6.97115">
        <ele>653.6</ele>
        <time>2012-01-15T13:57:10Z</time>
      </trkpt>
      <trkpt lat="43.7046" lon="6.9712">
        <ele>654.1</ele>
        <time>2012-01-15T13:57:12Z</time>
      </trkpt>
      <trkpt lat="43.70466" lon="6.97126">
        <ele>654.5</ele>
        <time>2012-01-15T13:57:14Z</time>
      </trkpt>
      <trkpt lat="43.70468" lon="6.97129">
        <ele>654.3</ele>
        <time>2012-01-15T13:57:15Z</time>
      </trkpt>
      <trkpt lat="43.70476" lon="6.97136">
        <ele>654.9</ele>
        <time>2012-01-15T13:57:18Z</time>
      </trkpt>
      <trkpt lat="43.70484" lon="6.97143">
        <ele>655.6</ele>
        <time>2012-01-15T13:57:21Z</time>
      </trkpt>
      <trkpt lat="43.70491" lon="6.97148">
        <ele>655.3</ele>
        <time>2012-01-15T13:57:24Z</time>
      </trkpt>
      <trkpt lat="43.70499" lon="6.97152">
        <ele>655.7</ele>
        <time>2012-01-15T13:57:27Z</time>
      </trkpt>
      <trkpt lat="43.70505" lon="6.97155">
        <ele>655.6</ele>
        <time>2012-01-15T13:57:29Z</time>
      </trkpt>
      <trkpt lat="43.70512" lon="6.97158">
        <ele>655.5</ele>
        <time>2012-01-15T13:57:31Z</time>
      </trkpt>
      <trkpt lat="43.70518" lon="6.9716">
        <ele>655.6</ele>
        <time>2012-01-15T13:57:33Z</time>
      </trkpt>
      <trkpt lat="43.70525" lon="6.97162">
        <ele>656.1</ele>
        <time>2012-01-15T13:57:35Z</time>
      </trkpt>
      <trkpt lat="43.70533" lon="6.97165">
        <ele>656.2</ele>
        <time>2012-01-15T13:57:38Z</time>
      </trkpt>
      <trkpt lat="43.70542" lon="6.97167">
        <ele>656.3</ele>
        <time>2012-01-15T13:57:41Z</time>
      </trkpt>
      <trkpt lat="43.70548" lon="6.97167">
        <ele>656.6</ele>
        <time>2012-01-15T13:57:43Z</time>
      </trkpt>
      <trkpt lat="43.70555" lon="6.97168">
        <ele>656.9</ele>
        <time>2012-01-15T13:57:45Z</time>
      </trkpt>
      <trkpt lat="43.70562" lon="6.97168">
        <ele>657.2</ele>
        <time>2012-01-15T13:57:47Z</time>
      </trkpt>
      <trkpt lat="43.70569" lon="6.97168">
        <ele>656.9</ele>
        <time>2012-01-15T13:57:49Z</time>
      </trkpt>
      <trkpt lat="43.70575" lon="6.97168">
        <ele>657</ele>
        <time>2012-01-15T13:57:51Z</time>
      </trkpt>
      <trkpt lat="43.70584" lon="6.97168">
        <ele>657.3</ele>
        <time>2012-01-15T13:57:54Z</time>
      </trkpt>
      <trkpt lat="43.7059" lon="6.97168">
        <ele>657.4</ele>
        <time>2012-01-15T13:57:56Z</time>
      </trkpt>
      <trkpt lat="43.70597" lon="6.97169">
        <ele>657.6</ele>
        <time>2012-01-15T13:57:58Z</time>
      </trkpt>
      <trkpt lat="43.70603" lon="6.97169">
        <ele>657.9</ele>
        <time>2012-01-15T13:58:00Z</time>
      </trkpt>
      <trkpt lat="43.70609" lon="6.9717">
        <ele>658.6</ele>
        <time>2012-01-15T13:58:02Z</time>
      </trkpt>
      <trkpt lat="43.70616" lon="6.97171">
        <ele>659.5</ele>
        <time>2012-01-15T13:58:04Z</time>
      </trkpt>
      <trkpt lat="43.70622" lon="6.97172">
        <ele>659.6</ele>
        <time>2012-01-15T13:58:06Z</time>
      </trkpt>
      <trkpt lat="43.70628" lon="6.97173">
        <ele>659.3</ele>
        <time>2012-01-15T13:58:08Z</time>
      </trkpt>
      <trkpt lat="43.70635" lon="6.97175">
        <ele>659.2</ele>
        <time>2012-01-15T13:58:10Z</time>
      </trkpt>
      <trkpt lat="43.70641" lon="6.97177">
        <ele>659.4</ele>
        <time>2012-01-15T13:58:12Z</time>
      </trkpt>
      <trkpt lat="43.70648" lon="6.97179">
        <ele>659.9</ele>
        <time>2012-01-15T13:58:14Z</time>
      </trkpt>
      <trkpt lat="43.70655" lon="6.97181">
        <ele>660.3</ele>
        <time>2012-01-15T13:58:16Z</time>
      </trkpt>
      <trkpt lat="43.70658" lon="6.97182">
        <ele>660.5</ele>
        <time>2012-01-15T13:58:17Z</time>
      </trkpt>
      <trkpt lat="43.70668" lon="6.97185">
        <ele>660.6</ele>
        <time>2012-01-15T13:58:20Z</time>
      </trkpt>
      <trkpt lat="43.70675" lon="6.97188">
        <ele>661.3</ele>
        <time>2012-01-15T13:58:22Z</time>
      </trkpt>
      <trkpt lat="43.70681" lon="6.97191">
        <ele>661.2</ele>
        <time>2012-01-15T13:58:24Z</time>
      </trkpt>
      <trkpt lat="43.70688" lon="6.97194">
        <ele>661.2</ele>
        <time>2012-01-15T13:58:26Z</time>
      </trkpt>
      <trkpt lat="43.70694" lon="6.97198">
        <ele>661.5</ele>
        <time>2012-01-15T13:58:28Z</time>
      </trkpt>
      <trkpt lat="43.707" lon="6.97202">
        <ele>661.7</ele>
        <time>2012-01-15T13:58:30Z</time>
      </trkpt>
      <trkpt lat="43.70705" lon="6.97207">
        <ele>661.5</ele>
        <time>2012-01-15T13:58:32Z</time>
      </trkpt>
      <trkpt lat="43.70711" lon="6.97212">
        <ele>662.4</ele>
        <time>2012-01-15T13:58:34Z</time>
      </trkpt>
      <trkpt lat="43.70716" lon="6.97218">
        <ele>662.8</ele>
        <time>2012-01-15T13:58:36Z</time>
      </trkpt>
      <trkpt lat="43.70721" lon="6.97223">
        <ele>662.6</ele>
        <time>2012-01-15T13:58:38Z</time>
      </trkpt>
      <trkpt lat="43.70726" lon="6.9723">
        <ele>662.6</ele>
        <time>2012-01-15T13:58:40Z</time>
      </trkpt>
      <trkpt lat="43.7073" lon="6.97236">
        <ele>662.9</ele>
        <time>2012-01-15T13:58:42Z</time>
      </trkpt>
      <trkpt lat="43.70735" lon="6.97243">
        <ele>663.5</ele>
        <time>2012-01-15T13:58:44Z</time>
      </trkpt>
      <trkpt lat="43.70739" lon="6.97251">
        <ele>663.4</ele>
        <time>2012-01-15T13:58:46Z</time>
      </trkpt>
      <trkpt lat="43.70743" lon="6.97258">
        <ele>663.6</ele>
        <time>2012-01-15T13:58:48Z</time>
      </trkpt>
      <trkpt lat="43.70747" lon="6.97265">
        <ele>663.7</ele>
        <time>2012-01-15T13:58:50Z</time>
      </trkpt>
      <trkpt lat="43.7075" lon="6.97273">
        <ele>664</ele>
        <time>2012-01-15T13:58:52Z</time>
      </trkpt>
      <trkpt lat="43.70753" lon="6.97281">
        <ele>664.5</ele>
        <time>2012-01-15T13:58:54Z</time>
      </trkpt>
      <trkpt lat="43.70756" lon="6.97289">
        <ele>665</ele>
        <time>2012-01-15T13:58:56Z</time>
      </trkpt>
      <trkpt lat="43.70758" lon="6.97297">
        <ele>665</ele>
        <time>2012-01-15T13:58:58Z</time>
      </trkpt>
      <trkpt lat="43.7076" lon="6.97305">
        <ele>664.6</ele>
        <time>2012-01-15T13:59:00Z</time>
      </trkpt>
      <trkpt lat="43.70761" lon="6.97314">
        <ele>664.6</ele>
        <time>2012-01-15T13:59:02Z</time>
      </trkpt>
      <trkpt lat="43.70762" lon="6.97323">
        <ele>664.7</ele>
        <time>2012-01-15T13:59:04Z</time>
      </trkpt>
      <trkpt lat="43.70764" lon="6.97331">
        <ele>664.7</ele>
        <time>2012-01-15T13:59:06Z</time>
      </trkpt>
      <trkpt lat="43.70764" lon="6.9734">
        <ele>664.8</ele>
        <time>2012-01-15T13:59:08Z</time>
      </trkpt>
      <trkpt lat="43.70765" lon="6.97348">
        <ele>664.7</ele>
        <time>2012-01-15T13:59:10Z</time>
      </trkpt>
      <trkpt lat="43.70766" lon="6.97358">
        <ele>664.9</ele>
        <time>2012-01-15T13:59:12Z</time>
      </trkpt>
      <trkpt lat="43.70766" lon="6.97368">
        <ele>665.3</ele>
        <time>2012-01-15T13:59:14Z</time>
      </trkpt>
      <trkpt lat="43.70766" lon="6.97379">
        <ele>666</ele>
        <time>2012-01-15T13:59:16Z</time>
      </trkpt>
      <trkpt lat="43.70767" lon="6.97389">
        <ele>666.7</ele>
        <time>2012-01-15T13:59:18Z</time>
      </trkpt>
      <trkpt lat="43.70767" lon="6.97393">
        <ele>667</ele>
        <time>2012-01-15T13:59:19Z</time>
      </trkpt>
      <trkpt lat="43.70768" lon="6.97407">
        <ele>667.1</ele>
        <time>2012-01-15T13:59:22Z</time>
      </trkpt>
      <trkpt lat="43.70769" lon="6.97416">
        <ele>667.7</ele>
        <time>2012-01-15T13:59:24Z</time>
      </trkpt>
      <trkpt lat="43.7077" lon="6.97428">
        <ele>667.6</ele>
        <time>2012-01-15T13:59:27Z</time>
      </trkpt>
      <trkpt lat="43.70768" lon="6.9744">
        <ele>666.9</ele>
        <time>2012-01-15T13:59:31Z</time>
      </trkpt>
      <trkpt lat="43.70765" lon="6.97447">
        <ele>666.5</ele>
        <time>2012-01-15T13:59:33Z</time>
      </trkpt>
      <trkpt lat="43.7076" lon="6.97455">
        <ele>666.7</ele>
        <time>2012-01-15T13:59:35Z</time>
      </trkpt>
      <trkpt lat="43.70755" lon="6.97463">
        <ele>666.4</ele>
        <time>2012-01-15T13:59:37Z</time>
      </trkpt>
      <trkpt lat="43.70752" lon="6.97468">
        <ele>666</ele>
        <time>2012-01-15T13:59:38Z</time>
      </trkpt>
      <trkpt lat="43.70748" lon="6.97474">
        <ele>665.7</ele>
        <time>2012-01-15T13:59:39Z</time>
      </trkpt>
      <trkpt lat="43.70745" lon="6.97479">
        <ele>665.4</ele>
        <time>2012-01-15T13:59:40Z</time>
      </trkpt>
      <trkpt lat="43.70742" lon="6.97485">
        <ele>665.1</ele>
        <time>2012-01-15T13:59:41Z</time>
      </trkpt>
      <trkpt lat="43.70738" lon="6.97491">
        <ele>664.7</ele>
        <time>2012-01-15T13:59:42Z</time>
      </trkpt>
      <trkpt lat="43.70734" lon="6.97497">
        <ele>664.4</ele>
        <time>2012-01-15T13:59:43Z</time>
      </trkpt>
      <trkpt lat="43.70729" lon="6.97501">
        <ele>664.2</ele>
        <time>2012-01-15T13:59:44Z</time>
      </trkpt>
      <trkpt lat="43.70724" lon="6.97505">
        <ele>663.6</ele>
        <time>2012-01-15T13:59:45Z</time>
      </trkpt>
      <trkpt lat="43.70718" lon="6.97508">
        <ele>663.1</ele>
        <time>2012-01-15T13:59:46Z</time>
      </trkpt>
      <trkpt lat="43.70713" lon="6.97512">
        <ele>662.1</ele>
        <time>2012-01-15T13:59:47Z</time>
      </trkpt>
      <trkpt lat="43.70707" lon="6.97516">
        <ele>661.3</ele>
        <time>2012-01-15T13:59:48Z</time>
      </trkpt>
      <trkpt lat="43.70702" lon="6.97519">
        <ele>660.6</ele>
        <time>2012-01-15T13:59:49Z</time>
      </trkpt>
      <trkpt lat="43.70697" lon="6.97522">
        <ele>660</ele>
        <time>2012-01-15T13:59:50Z</time>
      </trkpt>
      <trkpt lat="43.70693" lon="6.97524">
        <ele>659.6</ele>
        <time>2012-01-15T13:59:51Z</time>
      </trkpt>
      <trkpt lat="43.70688" lon="6.97526">
        <ele>659.3</ele>
        <time>2012-01-15T13:59:52Z</time>
      </trkpt>
      <trkpt lat="43.70684" lon="6.97529">
        <ele>659.1</ele>
        <time>2012-01-15T13:59:53Z</time>
      </trkpt>
      <trkpt lat="43.7068" lon="6.97531">
        <ele>658</ele>
        <time>2012-01-15T13:59:54Z</time>
      </trkpt>
      <trkpt lat="43.70675" lon="6.97533">
        <ele>657.1</ele>
        <time>2012-01-15T13:59:55Z</time>
      </trkpt>
      <trkpt lat="43.70671" lon="6.97534">
        <ele>656.4</ele>
        <time>2012-01-15T13:59:56Z</time>
      </trkpt>
      <trkpt lat="43.70665" lon="6.97535">
        <ele>655.9</ele>
        <time>2012-01-15T13:59:57Z</time>
      </trkpt>
      <trkpt lat="43.7066" lon="6.97537">
        <ele>655.5</ele>
        <time>2012-01-15T13:59:58Z</time>
      </trkpt>
      <trkpt lat="43.70656" lon="6.9754">
        <ele>655.1</ele>
        <time>2012-01-15T13:59:59Z</time>
      </trkpt>
      <trkpt lat="43.70652" lon="6.97544">
        <ele>654.8</ele>
        <time>2012-01-15T14:00:00Z</time>
      </trkpt>
      <trkpt lat="43.70644" lon="6.97551">
        <ele>654.5</ele>
        <time>2012-01-15T14:00:02Z</time>
      </trkpt>
      <trkpt lat="43.70638" lon="6.97558">
        <ele>654.2</ele>
        <time>2012-01-15T14:00:04Z</time>
      </trkpt>
      <trkpt lat="43.7063" lon="6.97561">
        <ele>654.3</ele>
        <time>2012-01-15T14:00:06Z</time>
      </trkpt>
      <trkpt lat="43.70622" lon="6.97561">
        <ele>654.6</ele>
        <time>2012-01-15T14:00:08Z</time>
      </trkpt>
      <trkpt lat="43.70615" lon="6.97562">
        <ele>654.8</ele>
        <time>2012-01-15T14:00:10Z</time>
      </trkpt>
      <trkpt lat="43.70608" lon="6.9757">
        <ele>654.6</ele>
        <time>2012-01-15T14:00:55Z</time>
      </trkpt>
      <trkpt lat="43.70608" lon="6.97571">
        <ele>654.5</ele>
        <time>2012-01-15T14:00:56Z</time>
      </trkpt>
      <trkpt lat="43.70608" lon="6.9757">
        <ele>654.3</ele>
        <time>2012-01-15T14:03:26Z</time>
      </trkpt>
      <trkpt lat="43.7061" lon="6.9757">
        <ele>654.1</ele>
        <time>2012-01-15T14:03:27Z</time>
      </trkpt>
      <trkpt lat="43.70625" lon="6.97567">
        <ele>654.7</ele>
        <time>2012-01-15T14:03:39Z</time>
      </trkpt>
      <trkpt lat="43.70616" lon="6.97568">
        <ele>655.3</ele>
        <time>2012-01-15T14:03:49Z</time>
      </trkpt>
      <trkpt lat="43.70609" lon="6.97567">
        <ele>653.9</ele>
        <time>2012-01-15T14:03:52Z</time>
      </trkpt>
      <trkpt lat="43.70602" lon="6.97566">
        <ele>654.3</ele>
        <time>2012-01-15T14:07:03Z</time>
      </trkpt>
      <trkpt lat="43.706" lon="6.97564">
        <ele>654.4</ele>
        <time>2012-01-15T14:07:04Z</time>
      </trkpt>
      <trkpt lat="43.70593" lon="6.97553">
        <ele>653.1</ele>
        <time>2012-01-15T14:07:08Z</time>
      </trkpt>
      <trkpt lat="43.70588" lon="6.97545">
        <ele>652.5</ele>
        <time>2012-01-15T14:07:10Z</time>
      </trkpt>
      <trkpt lat="43.7059" lon="6.97535">
        <ele>649.6</ele>
        <time>2012-01-15T14:07:14Z</time>
      </trkpt>
      <trkpt lat="43.70589" lon="6.97526">
        <ele>649.2</ele>
        <time>2012-01-15T14:07:17Z</time>
      </trkpt>
      <trkpt lat="43.70582" lon="6.97518">
        <ele>646.8</ele>
        <time>2012-01-15T14:07:21Z</time>
      </trkpt>
      <trkpt lat="43.70579" lon="6.97507">
        <ele>641</ele>
        <time>2012-01-15T14:07:34Z</time>
      </trkpt>
      <trkpt lat="43.70577" lon="6.97496">
        <ele>641.9</ele>
        <time>2012-01-15T14:08:06Z</time>
      </trkpt>
      <trkpt lat="43.70576" lon="6.97493">
        <ele>641.7</ele>
        <time>2012-01-15T14:08:07Z</time>
      </trkpt>
      <trkpt lat="43.7057" lon="6.97475">
        <ele>639</ele>
        <time>2012-01-15T14:08:12Z</time>
      </trkpt>
      <trkpt lat="43.70564" lon="6.97474">
        <ele>637.9</ele>
        <time>2012-01-15T14:08:14Z</time>
      </trkpt>
      <trkpt lat="43.70557" lon="6.97475">
        <ele>637.1</ele>
        <time>2012-01-15T14:08:16Z</time>
      </trkpt>
      <trkpt lat="43.7055" lon="6.97476">
        <ele>636</ele>
        <time>2012-01-15T14:08:18Z</time>
      </trkpt>
      <trkpt lat="43.70541" lon="6.97475">
        <ele>634.7</ele>
        <time>2012-01-15T14:08:21Z</time>
      </trkpt>
      <trkpt lat="43.70533" lon="6.97473">
        <ele>632.4</ele>
        <time>2012-01-15T14:08:24Z</time>
      </trkpt>
      <trkpt lat="43.70527" lon="6.97467">
        <ele>629.7</ele>
        <time>2012-01-15T14:08:28Z</time>
      </trkpt>
      <trkpt lat="43.7052" lon="6.97467">
        <ele>627.6</ele>
        <time>2012-01-15T14:08:31Z</time>
      </trkpt>
      <trkpt lat="43.70513" lon="6.97467">
        <ele>626.6</ele>
        <time>2012-01-15T14:08:34Z</time>
      </trkpt>
      <trkpt lat="43.70507" lon="6.97466">
        <ele>626.2</ele>
        <time>2012-01-15T14:08:36Z</time>
      </trkpt>
      <trkpt lat="43.70499" lon="6.97465">
        <ele>624.9</ele>
        <time>2012-01-15T14:08:39Z</time>
      </trkpt>
      <trkpt lat="43.70491" lon="6.97461">
        <ele>624.1</ele>
        <time>2012-01-15T14:08:42Z</time>
      </trkpt>
      <trkpt lat="43.70484" lon="6.97461">
        <ele>622.4</ele>
        <time>2012-01-15T14:08:45Z</time>
      </trkpt>
      <trkpt lat="43.70477" lon="6.97466">
        <ele>620.9</ele>
        <time>2012-01-15T14:08:49Z</time>
      </trkpt>
      <trkpt lat="43.70469" lon="6.9746">
        <ele>619.4</ele>
        <time>2012-01-15T14:08:53Z</time>
      </trkpt>
      <trkpt lat="43.70462" lon="6.97455">
        <ele>618.4</ele>
        <time>2012-01-15T14:08:56Z</time>
      </trkpt>
      <trkpt lat="43.70461" lon="6.97445">
        <ele>615.7</ele>
        <time>2012-01-15T14:09:06Z</time>
      </trkpt>
      <trkpt lat="43.70455" lon="6.97436">
        <ele>613.9</ele>
        <time>2012-01-15T14:09:12Z</time>
      </trkpt>
      <trkpt lat="43.70453" lon="6.97435">
        <ele>613.5</ele>
        <time>2012-01-15T14:09:13Z</time>
      </trkpt>
      <trkpt lat="43.70448" lon="6.97418">
        <ele>609.9</ele>
        <time>2012-01-15T14:09:29Z</time>
      </trkpt>
      <trkpt lat="43.70441" lon="6.97414">
        <ele>609.8</ele>
        <time>2012-01-15T14:09:33Z</time>
      </trkpt>
      <trkpt lat="43.70433" lon="6.97415">
        <ele>607.4</ele>
        <time>2012-01-15T14:09:37Z</time>
      </trkpt>
      <trkpt lat="43.70425" lon="6.97416">
        <ele>606.6</ele>
        <time>2012-01-15T14:09:41Z</time>
      </trkpt>
      <trkpt lat="43.70417" lon="6.97419">
        <ele>604</ele>
        <time>2012-01-15T14:09:47Z</time>
      </trkpt>
      <trkpt lat="43.70414" lon="6.97407">
        <ele>603.5</ele>
        <time>2012-01-15T14:10:31Z</time>
      </trkpt>
      <trkpt lat="43.70414" lon="6.97407">
        <ele>603.1</ele>
        <time>2012-01-15T14:10:32Z</time>
      </trkpt>
      <trkpt lat="43.70407" lon="6.974">
        <ele>601.5</ele>
        <time>2012-01-15T14:11:38Z</time>
      </trkpt>
      <trkpt lat="43.70392" lon="6.97394">
        <ele>600.8</ele>
        <time>2012-01-15T14:11:52Z</time>
      </trkpt>
      <trkpt lat="43.70385" lon="6.97393">
        <ele>600.3</ele>
        <time>2012-01-15T14:11:57Z</time>
      </trkpt>
      <trkpt lat="43.70377" lon="6.97393">
        <ele>599.3</ele>
        <time>2012-01-15T14:12:02Z</time>
      </trkpt>
      <trkpt lat="43.70372" lon="6.97402">
        <ele>598.1</ele>
        <time>2012-01-15T14:12:26Z</time>
      </trkpt>
      <trkpt lat="43.70364" lon="6.97408">
        <ele>596.7</ele>
        <time>2012-01-15T14:12:32Z</time>
      </trkpt>
      <trkpt lat="43.70358" lon="6.97414">
        <ele>595.2</ele>
        <time>2012-01-15T14:12:36Z</time>
      </trkpt>
      <trkpt lat="43.70352" lon="6.97423">
        <ele>593.9</ele>
        <time>2012-01-15T14:12:41Z</time>
      </trkpt>
      <trkpt lat="43.70352" lon="6.97423">
        <ele>593.6</ele>
        <time>2012-01-15T14:12:42Z</time>
      </trkpt>
      <trkpt lat="43.70338" lon="6.97433">
        <ele>592.2</ele>
        <time>2012-01-15T14:13:09Z</time>
      </trkpt>
      <trkpt lat="43.70329" lon="6.97431">
        <ele>589.2</ele>
        <time>2012-01-15T14:13:21Z</time>
      </trkpt>
      <trkpt lat="43.70322" lon="6.97428">
        <ele>588.3</ele>
        <time>2012-01-15T14:13:51Z</time>
      </trkpt>
      <trkpt lat="43.70319" lon="6.97426">
        <ele>588</ele>
        <time>2012-01-15T14:13:52Z</time>
      </trkpt>
      <trkpt lat="43.70306" lon="6.97419">
        <ele>588.4</ele>
        <time>2012-01-15T14:13:57Z</time>
      </trkpt>
      <trkpt lat="43.70297" lon="6.97417">
        <ele>588</ele>
        <time>2012-01-15T14:14:00Z</time>
      </trkpt>
      <trkpt lat="43.70291" lon="6.97414">
        <ele>587.6</ele>
        <time>2012-01-15T14:14:02Z</time>
      </trkpt>
      <trkpt lat="43.70285" lon="6.97411">
        <ele>587.3</ele>
        <time>2012-01-15T14:14:04Z</time>
      </trkpt>
      <trkpt lat="43.70279" lon="6.97405">
        <ele>586.9</ele>
        <time>2012-01-15T14:14:06Z</time>
      </trkpt>
      <trkpt lat="43.70275" lon="6.97396">
        <ele>586</ele>
        <time>2012-01-15T14:14:08Z</time>
      </trkpt>
      <trkpt lat="43.70274" lon="6.9739">
        <ele>585.3</ele>
        <time>2012-01-15T14:14:09Z</time>
      </trkpt>
      <trkpt lat="43.70273" lon="6.97384">
        <ele>584.8</ele>
        <time>2012-01-15T14:14:10Z</time>
      </trkpt>
      <trkpt lat="43.70272" lon="6.97377">
        <ele>584</ele>
        <time>2012-01-15T14:14:11Z</time>
      </trkpt>
      <trkpt lat="43.70272" lon="6.97369">
        <ele>583.3</ele>
        <time>2012-01-15T14:14:12Z</time>
      </trkpt>
      <trkpt lat="43.70272" lon="6.97362">
        <ele>582.3</ele>
        <time>2012-01-15T14:14:13Z</time>
      </trkpt>
      <trkpt lat="43.70272" lon="6.97355">
        <ele>581.4</ele>
        <time>2012-01-15T14:14:14Z</time>
      </trkpt>
      <trkpt lat="43.70273" lon="6.97347">
        <ele>580.7</ele>
        <time>2012-01-15T14:14:15Z</time>
      </trkpt>
      <trkpt lat="43.70273" lon="6.9734">
        <ele>580.2</ele>
        <time>2012-01-15T14:14:16Z</time>
      </trkpt>
      <trkpt lat="43.70273" lon="6.97333">
        <ele>579.8</ele>
        <time>2012-01-15T14:14:17Z</time>
      </trkpt>
      <trkpt lat="43.70273" lon="6.97325">
        <ele>579.2</ele>
        <time>2012-01-15T14:14:18Z</time>
      </trkpt>
      <trkpt lat="43.70273" lon="6.97318">
        <ele>578.8</ele>
        <time>2012-01-15T14:14:19Z</time>
      </trkpt>
      <trkpt lat="43.70273" lon="6.97311">
        <ele>577.6</ele>
        <time>2012-01-15T14:14:20Z</time>
      </trkpt>
      <trkpt lat="43.70273" lon="6.97304">
        <ele>576.7</ele>
        <time>2012-01-15T14:14:21Z</time>
      </trkpt>
      <trkpt lat="43.70273" lon="6.97292">
        <ele>575.6</ele>
        <time>2012-01-15T14:14:23Z</time>
      </trkpt>
      <trkpt lat="43.70272" lon="6.97283">
        <ele>574.4</ele>
        <time>2012-01-15T14:14:25Z</time>
      </trkpt>
      <trkpt lat="43.70268" lon="6.97273">
        <ele>571.5</ele>
        <time>2012-01-15T14:14:28Z</time>
      </trkpt>
      <trkpt lat="43.70267" lon="6.97264">
        <ele>570.6</ele>
        <time>2012-01-15T14:14:30Z</time>
      </trkpt>
      <trkpt lat="43.70265" lon="6.97254">
        <ele>569.6</ele>
        <time>2012-01-15T14:14:32Z</time>
      </trkpt>
      <trkpt lat="43.70264" lon="6.97243">
        <ele>568.3</ele>
        <time>2012-01-15T14:14:34Z</time>
      </trkpt>
      <trkpt lat="43.70264" lon="6.97232">
        <ele>567.5</ele>
        <time>2012-01-15T14:14:36Z</time>
      </trkpt>
      <trkpt lat="43.70263" lon="6.97222">
        <ele>566.9</ele>
        <time>2012-01-15T14:14:38Z</time>
      </trkpt>
      <trkpt lat="43.70262" lon="6.97216">
        <ele>566.2</ele>
        <time>2012-01-15T14:14:39Z</time>
      </trkpt>
      <trkpt lat="43.7026" lon="6.97209">
        <ele>565.8</ele>
        <time>2012-01-15T14:14:40Z</time>
      </trkpt>
      <trkpt lat="43.70257" lon="6.97198">
        <ele>564.4</ele>
        <time>2012-01-15T14:14:42Z</time>
      </trkpt>
      <trkpt lat="43.70255" lon="6.97187">
        <ele>562.9</ele>
        <time>2012-01-15T14:14:44Z</time>
      </trkpt>
      <trkpt lat="43.70253" lon="6.97175">
        <ele>561.2</ele>
        <time>2012-01-15T14:14:47Z</time>
      </trkpt>
      <trkpt lat="43.70251" lon="6.97187">
        <ele>557</ele>
        <time>2012-01-15T14:14:55Z</time>
      </trkpt>
      <trkpt lat="43.70251" lon="6.97191">
        <ele>556.6</ele>
        <time>2012-01-15T14:14:56Z</time>
      </trkpt>
      <trkpt lat="43.70248" lon="6.97207">
        <ele>554.7</ele>
        <time>2012-01-15T14:14:59Z</time>
      </trkpt>
      <trkpt lat="43.70246" lon="6.97217">
        <ele>553.4</ele>
        <time>2012-01-15T14:15:01Z</time>
      </trkpt>
      <trkpt lat="43.70245" lon="6.97229">
        <ele>552</ele>
        <time>2012-01-15T14:15:03Z</time>
      </trkpt>
      <trkpt lat="43.70244" lon="6.97236">
        <ele>551.3</ele>
        <time>2012-01-15T14:15:04Z</time>
      </trkpt>
      <trkpt lat="43.70243" lon="6.97242">
        <ele>550.5</ele>
        <time>2012-01-15T14:15:05Z</time>
      </trkpt>
      <trkpt lat="43.70243" lon="6.97249">
        <ele>549.8</ele>
        <time>2012-01-15T14:15:06Z</time>
      </trkpt>
      <trkpt lat="43.7024" lon="6.97261">
        <ele>548.4</ele>
        <time>2012-01-15T14:15:08Z</time>
      </trkpt>
      <trkpt lat="43.70238" lon="6.97272">
        <ele>547.2</ele>
        <time>2012-01-15T14:15:10Z</time>
      </trkpt>
      <trkpt lat="43.70237" lon="6.97283">
        <ele>546.2</ele>
        <time>2012-01-15T14:15:12Z</time>
      </trkpt>
      <trkpt lat="43.7023" lon="6.97277">
        <ele>542.9</ele>
        <time>2012-01-15T14:15:21Z</time>
      </trkpt>
      <trkpt lat="43.70229" lon="6.97267">
        <ele>542.1</ele>
        <time>2012-01-15T14:15:23Z</time>
      </trkpt>
      <trkpt lat="43.70229" lon="6.97261">
        <ele>541.4</ele>
        <time>2012-01-15T14:15:24Z</time>
      </trkpt>
      <trkpt lat="43.70229" lon="6.97254">
        <ele>540.8</ele>
        <time>2012-01-15T14:15:25Z</time>
      </trkpt>
      <trkpt lat="43.70229" lon="6.97247">
        <ele>540.4</ele>
        <time>2012-01-15T14:15:26Z</time>
      </trkpt>
      <trkpt lat="43.70229" lon="6.97239">
        <ele>539.9</ele>
        <time>2012-01-15T14:15:27Z</time>
      </trkpt>
      <trkpt lat="43.70229" lon="6.97232">
        <ele>539.6</ele>
        <time>2012-01-15T14:15:28Z</time>
      </trkpt>
      <trkpt lat="43.70228" lon="6.97225">
        <ele>539.1</ele>
        <time>2012-01-15T14:15:29Z</time>
      </trkpt>
      <trkpt lat="43.70226" lon="6.97218">
        <ele>538.7</ele>
        <time>2012-01-15T14:15:30Z</time>
      </trkpt>
      <trkpt lat="43.70225" lon="6.97211">
        <ele>537.5</ele>
        <time>2012-01-15T14:15:31Z</time>
      </trkpt>
      <trkpt lat="43.70223" lon="6.97204">
        <ele>536.6</ele>
        <time>2012-01-15T14:15:32Z</time>
      </trkpt>
      <trkpt lat="43.70222" lon="6.97197">
        <ele>535.9</ele>
        <time>2012-01-15T14:15:33Z</time>
      </trkpt>
      <trkpt lat="43.70221" lon="6.97192">
        <ele>534.7</ele>
        <time>2012-01-15T14:15:34Z</time>
      </trkpt>
      <trkpt lat="43.70218" lon="6.97181">
        <ele>532.5</ele>
        <time>2012-01-15T14:15:36Z</time>
      </trkpt>
      <trkpt lat="43.70214" lon="6.9717">
        <ele>529.3</ele>
        <time>2012-01-15T14:15:40Z</time>
      </trkpt>
      <trkpt lat="43.70211" lon="6.97161">
        <ele>526.5</ele>
        <time>2012-01-15T14:15:43Z</time>
      </trkpt>
      <trkpt lat="43.70208" lon="6.97152">
        <ele>524.8</ele>
        <time>2012-01-15T14:15:45Z</time>
      </trkpt>
      <trkpt lat="43.70204" lon="6.97143">
        <ele>523.7</ele>
        <time>2012-01-15T14:15:47Z</time>
      </trkpt>
      <trkpt lat="43.702" lon="6.97133">
        <ele>521.4</ele>
        <time>2012-01-15T14:15:49Z</time>
      </trkpt>
      <trkpt lat="43.70195" lon="6.97123">
        <ele>519.9</ele>
        <time>2012-01-15T14:15:51Z</time>
      </trkpt>
      <trkpt lat="43.70193" lon="6.97112">
        <ele>518.4</ele>
        <time>2012-01-15T14:15:53Z</time>
      </trkpt>
      <trkpt lat="43.70189" lon="6.97101">
        <ele>515.3</ele>
        <time>2012-01-15T14:15:56Z</time>
      </trkpt>
      <trkpt lat="43.70186" lon="6.97091">
        <ele>512.1</ele>
        <time>2012-01-15T14:16:00Z</time>
      </trkpt>
      <trkpt lat="43.70185" lon="6.97088">
        <ele>511.5</ele>
        <time>2012-01-15T14:16:01Z</time>
      </trkpt>
      <trkpt lat="43.70176" lon="6.97073">
        <ele>506.7</ele>
        <time>2012-01-15T14:16:07Z</time>
      </trkpt>
      <trkpt lat="43.70168" lon="6.97068">
        <ele>501.6</ele>
        <time>2012-01-15T14:16:14Z</time>
      </trkpt>
      <trkpt lat="43.70166" lon="6.97057">
        <ele>498.8</ele>
        <time>2012-01-15T14:16:32Z</time>
      </trkpt>
      <trkpt lat="43.70166" lon="6.97047">
        <ele>498.7</ele>
        <time>2012-01-15T14:16:38Z</time>
      </trkpt>
      <trkpt lat="43.70165" lon="6.97037">
        <ele>498.4</ele>
        <time>2012-01-15T14:16:41Z</time>
      </trkpt>
      <trkpt lat="43.70163" lon="6.97026">
        <ele>498.9</ele>
        <time>2012-01-15T14:16:44Z</time>
      </trkpt>
      <trkpt lat="43.70162" lon="6.97017">
        <ele>499</ele>
        <time>2012-01-15T14:16:47Z</time>
      </trkpt>
      <trkpt lat="43.70163" lon="6.97007">
        <ele>498.6</ele>
        <time>2012-01-15T14:16:50Z</time>
      </trkpt>
      <trkpt lat="43.70163" lon="6.96997">
        <ele>498.9</ele>
        <time>2012-01-15T14:16:53Z</time>
      </trkpt>
      <trkpt lat="43.70161" lon="6.96987">
        <ele>498.4</ele>
        <time>2012-01-15T14:16:56Z</time>
      </trkpt>
      <trkpt lat="43.70159" lon="6.96976">
        <ele>498.1</ele>
        <time>2012-01-15T14:16:59Z</time>
      </trkpt>
      <trkpt lat="43.7016" lon="6.96964">
        <ele>498.5</ele>
        <time>2012-01-15T14:17:02Z</time>
      </trkpt>
      <trkpt lat="43.7016" lon="6.9696">
        <ele>498.8</ele>
        <time>2012-01-15T14:17:03Z</time>
      </trkpt>
      <trkpt lat="43.70159" lon="6.96942">
        <ele>497.8</ele>
        <time>2012-01-15T14:17:08Z</time>
      </trkpt>
      <trkpt lat="43.70158" lon="6.96931">
        <ele>497.7</ele>
        <time>2012-01-15T14:17:11Z</time>
      </trkpt>
      <trkpt lat="43.70157" lon="6.9692">
        <ele>498.1</ele>
        <time>2012-01-15T14:17:14Z</time>
      </trkpt>
      <trkpt lat="43.70157" lon="6.96908">
        <ele>498.5</ele>
        <time>2012-01-15T14:17:17Z</time>
      </trkpt>
      <trkpt lat="43.70158" lon="6.96896">
        <ele>498.7</ele>
        <time>2012-01-15T14:17:20Z</time>
      </trkpt>
      <trkpt lat="43.70159" lon="6.96884">
        <ele>498.4</ele>
        <time>2012-01-15T14:17:23Z</time>
      </trkpt>
      <trkpt lat="43.7016" lon="6.96876">
        <ele>498.8</ele>
        <time>2012-01-15T14:17:25Z</time>
      </trkpt>
      <trkpt lat="43.70161" lon="6.96868">
        <ele>499</ele>
        <time>2012-01-15T14:17:27Z</time>
      </trkpt>
      <trkpt lat="43.70162" lon="6.96859">
        <ele>498.6</ele>
        <time>2012-01-15T14:17:29Z</time>
      </trkpt>
      <trkpt lat="43.70164" lon="6.96851">
        <ele>499.2</ele>
        <time>2012-01-15T14:17:31Z</time>
      </trkpt>
      <trkpt lat="43.70165" lon="6.96843">
        <ele>498.5</ele>
        <time>2012-01-15T14:17:33Z</time>
      </trkpt>
      <trkpt lat="43.70165" lon="6.96835">
        <ele>498</ele>
        <time>2012-01-15T14:17:35Z</time>
      </trkpt>
      <trkpt lat="43.70164" lon="6.96826">
        <ele>497.6</ele>
        <time>2012-01-15T14:17:37Z</time>
      </trkpt>
      <trkpt lat="43.70163" lon="6.96814">
        <ele>497.5</ele>
        <time>2012-01-15T14:17:40Z</time>
      </trkpt>
      <trkpt lat="43.70161" lon="6.96802">
        <ele>497.8</ele>
        <time>2012-01-15T14:17:43Z</time>
      </trkpt>
      <trkpt lat="43.70159" lon="6.96791">
        <ele>499</ele>
        <time>2012-01-15T14:17:46Z</time>
      </trkpt>
      <trkpt lat="43.70157" lon="6.96779">
        <ele>498.4</ele>
        <time>2012-01-15T14:17:49Z</time>
      </trkpt>
      <trkpt lat="43.70155" lon="6.96768">
        <ele>498.4</ele>
        <time>2012-01-15T14:17:53Z</time>
      </trkpt>
      <trkpt lat="43.70149" lon="6.96759">
        <ele>498.2</ele>
        <time>2012-01-15T14:17:57Z</time>
      </trkpt>
      <trkpt lat="43.70141" lon="6.96755">
        <ele>498.5</ele>
        <time>2012-01-15T14:18:05Z</time>
      </trkpt>
      <trkpt lat="43.7014" lon="6.96755">
        <ele>498.4</ele>
        <time>2012-01-15T14:18:06Z</time>
      </trkpt>
      <trkpt lat="43.70142" lon="6.96775">
        <ele>498.1</ele>
        <time>2012-01-15T14:18:20Z</time>
      </trkpt>
      <trkpt lat="43.70141" lon="6.96784">
        <ele>497.8</ele>
        <time>2012-01-15T14:18:23Z</time>
      </trkpt>
      <trkpt lat="43.70135" lon="6.96788">
        <ele>497.5</ele>
        <time>2012-01-15T14:18:26Z</time>
      </trkpt>
      <trkpt lat="43.70127" lon="6.96786">
        <ele>498.1</ele>
        <time>2012-01-15T14:18:29Z</time>
      </trkpt>
      <trkpt lat="43.70119" lon="6.9679">
        <ele>498.2</ele>
        <time>2012-01-15T14:18:32Z</time>
      </trkpt>
      <trkpt lat="43.70113" lon="6.96794">
        <ele>498.5</ele>
        <time>2012-01-15T14:18:34Z</time>
      </trkpt>
      <trkpt lat="43.70106" lon="6.96799">
        <ele>498.5</ele>
        <time>2012-01-15T14:18:36Z</time>
      </trkpt>
      <trkpt lat="43.701" lon="6.96804">
        <ele>498.2</ele>
        <time>2012-01-15T14:18:38Z</time>
      </trkpt>
      <trkpt lat="43.70094" lon="6.9681">
        <ele>497.9</ele>
        <time>2012-01-15T14:18:40Z</time>
      </trkpt>
      <trkpt lat="43.70087" lon="6.96815">
        <ele>498</ele>
        <time>2012-01-15T14:18:42Z</time>
      </trkpt>
      <trkpt lat="43.7008" lon="6.9682">
        <ele>498.2</ele>
        <time>2012-01-15T14:18:44Z</time>
      </trkpt>
      <trkpt lat="43.70075" lon="6.96828">
        <ele>498.3</ele>
        <time>2012-01-15T14:18:46Z</time>
      </trkpt>
      <trkpt lat="43.70068" lon="6.96836">
        <ele>498.8</ele>
        <time>2012-01-15T14:18:50Z</time>
      </trkpt>
      <trkpt lat="43.70047" lon="6.96855">
        <ele>498</ele>
        <time>2012-01-15T14:19:05Z</time>
      </trkpt>
      <trkpt lat="43.7004" lon="6.96862">
        <ele>498.7</ele>
        <time>2012-01-15T14:19:10Z</time>
      </trkpt>
      <trkpt lat="43.70033" lon="6.96866">
        <ele>498.9</ele>
        <time>2012-01-15T14:19:14Z</time>
      </trkpt>
      <trkpt lat="43.70026" lon="6.96871">
        <ele>498.6</ele>
        <time>2012-01-15T14:19:17Z</time>
      </trkpt>
      <trkpt lat="43.70019" lon="6.96876">
        <ele>498.5</ele>
        <time>2012-01-15T14:19:20Z</time>
      </trkpt>
      <trkpt lat="43.70013" lon="6.9688">
        <ele>498.2</ele>
        <time>2012-01-15T14:19:22Z</time>
      </trkpt>
      <trkpt lat="43.70008" lon="6.96883">
        <ele>497.9</ele>
        <time>2012-01-15T14:19:24Z</time>
      </trkpt>
      <trkpt lat="43.7" lon="6.96888">
        <ele>497.6</ele>
        <time>2012-01-15T14:19:27Z</time>
      </trkpt>
      <trkpt lat="43.69992" lon="6.96893">
        <ele>497.3</ele>
        <time>2012-01-15T14:19:30Z</time>
      </trkpt>
      <trkpt lat="43.69984" lon="6.96898">
        <ele>497.8</ele>
        <time>2012-01-15T14:19:33Z</time>
      </trkpt>
      <trkpt lat="43.69979" lon="6.96903">
        <ele>497.9</ele>
        <time>2012-01-15T14:19:35Z</time>
      </trkpt>
      <trkpt lat="43.69971" lon="6.96906">
        <ele>498.2</ele>
        <time>2012-01-15T14:19:38Z</time>
      </trkpt>
      <trkpt lat="43.69963" lon="6.96908">
        <ele>498.4</ele>
        <time>2012-01-15T14:19:41Z</time>
      </trkpt>
      <trkpt lat="43.69955" lon="6.96911">
        <ele>498.3</ele>
        <time>2012-01-15T14:19:44Z</time>
      </trkpt>
      <trkpt lat="43.69947" lon="6.96912">
        <ele>497.8</ele>
        <time>2012-01-15T14:19:47Z</time>
      </trkpt>
      <trkpt lat="43.6994" lon="6.96913">
        <ele>497.6</ele>
        <time>2012-01-15T14:19:50Z</time>
      </trkpt>
      <trkpt lat="43.69931" lon="6.96915">
        <ele>498.1</ele>
        <time>2012-01-15T14:19:53Z</time>
      </trkpt>
      <trkpt lat="43.69925" lon="6.96917">
        <ele>498</ele>
        <time>2012-01-15T14:19:55Z</time>
      </trkpt>
      <trkpt lat="43.69918" lon="6.96917">
        <ele>498.2</ele>
        <time>2012-01-15T14:19:57Z</time>
      </trkpt>
      <trkpt lat="43.69912" lon="6.96917">
        <ele>498.6</ele>
        <time>2012-01-15T14:19:59Z</time>
      </trkpt>
      <trkpt lat="43.69903" lon="6.96917">
        <ele>498.4</ele>
        <time>2012-01-15T14:20:02Z</time>
      </trkpt>
      <trkpt lat="43.69895" lon="6.96912">
        <ele>497.8</ele>
        <time>2012-01-15T14:20:05Z</time>
      </trkpt>
      <trkpt lat="43.69888" lon="6.96905">
        <ele>498.2</ele>
        <time>2012-01-15T14:20:08Z</time>
      </trkpt>
      <trkpt lat="43.6988" lon="6.96903">
        <ele>497.5</ele>
        <time>2012-01-15T14:20:11Z</time>
      </trkpt>
      <trkpt lat="43.69877" lon="6.96903">
        <ele>497.8</ele>
        <time>2012-01-15T14:20:12Z</time>
      </trkpt>
      <trkpt lat="43.69866" lon="6.96902">
        <ele>497.8</ele>
        <time>2012-01-15T14:20:16Z</time>
      </trkpt>
      <trkpt lat="43.69859" lon="6.96901">
        <ele>497.5</ele>
        <time>2012-01-15T14:20:18Z</time>
      </trkpt>
      <trkpt lat="43.69853" lon="6.96899">
        <ele>497.4</ele>
        <time>2012-01-15T14:20:20Z</time>
      </trkpt>
      <trkpt lat="43.69846" lon="6.96899">
        <ele>497.7</ele>
        <time>2012-01-15T14:20:22Z</time>
      </trkpt>
      <trkpt lat="43.6984" lon="6.969">
        <ele>497.1</ele>
        <time>2012-01-15T14:20:24Z</time>
      </trkpt>
      <trkpt lat="43.69833" lon="6.969">
        <ele>497.3</ele>
        <time>2012-01-15T14:20:26Z</time>
      </trkpt>
      <trkpt lat="43.69827" lon="6.96899">
        <ele>497.2</ele>
        <time>2012-01-15T14:20:28Z</time>
      </trkpt>
      <trkpt lat="43.69821" lon="6.96898">
        <ele>496.8</ele>
        <time>2012-01-15T14:20:30Z</time>
      </trkpt>
      <trkpt lat="43.69814" lon="6.96897">
        <ele>496.6</ele>
        <time>2012-01-15T14:20:32Z</time>
      </trkpt>
      <trkpt lat="43.69806" lon="6.96893">
        <ele>497</ele>
        <time>2012-01-15T14:20:35Z</time>
      </trkpt>
      <trkpt lat="43.698" lon="6.96891">
        <ele>497.4</ele>
        <time>2012-01-15T14:20:37Z</time>
      </trkpt>
      <trkpt lat="43.69794" lon="6.96888">
        <ele>498.1</ele>
        <time>2012-01-15T14:20:39Z</time>
      </trkpt>
      <trkpt lat="43.69788" lon="6.96886">
        <ele>498.1</ele>
        <time>2012-01-15T14:20:41Z</time>
      </trkpt>
      <trkpt lat="43.69781" lon="6.96885">
        <ele>498.4</ele>
        <time>2012-01-15T14:20:43Z</time>
      </trkpt>
      <trkpt lat="43.69774" lon="6.96887">
        <ele>498.5</ele>
        <time>2012-01-15T14:20:45Z</time>
      </trkpt>
      <trkpt lat="43.69767" lon="6.96888">
        <ele>498.4</ele>
        <time>2012-01-15T14:20:47Z</time>
      </trkpt>
      <trkpt lat="43.69761" lon="6.9689">
        <ele>498.2</ele>
        <time>2012-01-15T14:20:49Z</time>
      </trkpt>
      <trkpt lat="43.69754" lon="6.96891">
        <ele>498.1</ele>
        <time>2012-01-15T14:20:51Z</time>
      </trkpt>
      <trkpt lat="43.69747" lon="6.96893">
        <ele>497.4</ele>
        <time>2012-01-15T14:20:53Z</time>
      </trkpt>
      <trkpt lat="43.69741" lon="6.96895">
        <ele>498.1</ele>
        <time>2012-01-15T14:20:55Z</time>
      </trkpt>
      <trkpt lat="43.69735" lon="6.96898">
        <ele>497.9</ele>
        <time>2012-01-15T14:20:57Z</time>
      </trkpt>
      <trkpt lat="43.69726" lon="6.96898">
        <ele>497.8</ele>
        <time>2012-01-15T14:21:00Z</time>
      </trkpt>
      <trkpt lat="43.69718" lon="6.96895">
        <ele>497.5</ele>
        <time>2012-01-15T14:21:03Z</time>
      </trkpt>
      <trkpt lat="43.69709" lon="6.96897">
        <ele>497.8</ele>
        <time>2012-01-15T14:21:06Z</time>
      </trkpt>
      <trkpt lat="43.69703" lon="6.96898">
        <ele>497.7</ele>
        <time>2012-01-15T14:21:08Z</time>
      </trkpt>
      <trkpt lat="43.69697" lon="6.96899">
        <ele>497.5</ele>
        <time>2012-01-15T14:21:10Z</time>
      </trkpt>
      <trkpt lat="43.69691" lon="6.96902">
        <ele>497.4</ele>
        <time>2012-01-15T14:21:12Z</time>
      </trkpt>
      <trkpt lat="43.69683" lon="6.96904">
        <ele>497.8</ele>
        <time>2012-01-15T14:21:15Z</time>
      </trkpt>
      <trkpt lat="43.6968" lon="6.96907">
        <ele>497.9</ele>
        <time>2012-01-15T14:21:16Z</time>
      </trkpt>
      <trkpt lat="43.69675" lon="6.96919">
        <ele>497.6</ele>
        <time>2012-01-15T14:21:19Z</time>
      </trkpt>
      <trkpt lat="43.69671" lon="6.96927">
        <ele>497.5</ele>
        <time>2012-01-15T14:21:21Z</time>
      </trkpt>
      <trkpt lat="43.69666" lon="6.96933">
        <ele>497.3</ele>
        <time>2012-01-15T14:21:23Z</time>
      </trkpt>
      <trkpt lat="43.6966" lon="6.96938">
        <ele>497.4</ele>
        <time>2012-01-15T14:21:25Z</time>
      </trkpt>
      <trkpt lat="43.69654" lon="6.96945">
        <ele>497.3</ele>
        <time>2012-01-15T14:21:28Z</time>
      </trkpt>
      <trkpt lat="43.69648" lon="6.96951">
        <ele>497.6</ele>
        <time>2012-01-15T14:21:31Z</time>
      </trkpt>
      <trkpt lat="43.69641" lon="6.96954">
        <ele>497.3</ele>
        <time>2012-01-15T14:21:34Z</time>
      </trkpt>
      <trkpt lat="43.69637" lon="6.96959">
        <ele>497</ele>
        <time>2012-01-15T14:21:36Z</time>
      </trkpt>
      <trkpt lat="43.69633" lon="6.96967">
        <ele>497</ele>
        <time>2012-01-15T14:21:38Z</time>
      </trkpt>
      <trkpt lat="43.69628" lon="6.96976">
        <ele>496.7</ele>
        <time>2012-01-15T14:21:40Z</time>
      </trkpt>
      <trkpt lat="43.69624" lon="6.96985">
        <ele>496.9</ele>
        <time>2012-01-15T14:21:42Z</time>
      </trkpt>
      <trkpt lat="43.6962" lon="6.96992">
        <ele>496.9</ele>
        <time>2012-01-15T14:21:44Z</time>
      </trkpt>
      <trkpt lat="43.69615" lon="6.96998">
        <ele>497</ele>
        <time>2012-01-15T14:21:46Z</time>
      </trkpt>
      <trkpt lat="43.69612" lon="6.97006">
        <ele>497.1</ele>
        <time>2012-01-15T14:21:48Z</time>
      </trkpt>
      <trkpt lat="43.69609" lon="6.97014">
        <ele>497.7</ele>
        <time>2012-01-15T14:21:50Z</time>
      </trkpt>
      <trkpt lat="43.69607" lon="6.97023">
        <ele>497.6</ele>
        <time>2012-01-15T14:21:52Z</time>
      </trkpt>
      <trkpt lat="43.69605" lon="6.97032">
        <ele>497.3</ele>
        <time>2012-01-15T14:21:54Z</time>
      </trkpt>
      <trkpt lat="43.69603" lon="6.97041">
        <ele>496.7</ele>
        <time>2012-01-15T14:21:56Z</time>
      </trkpt>
      <trkpt lat="43.69601" lon="6.97049">
        <ele>496.2</ele>
        <time>2012-01-15T14:21:58Z</time>
      </trkpt>
      <trkpt lat="43.69598" lon="6.97058">
        <ele>496.1</ele>
        <time>2012-01-15T14:22:00Z</time>
      </trkpt>
      <trkpt lat="43.69596" lon="6.97065">
        <ele>496.6</ele>
        <time>2012-01-15T14:22:02Z</time>
      </trkpt>
      <trkpt lat="43.69592" lon="6.97074">
        <ele>496.6</ele>
        <time>2012-01-15T14:22:05Z</time>
      </trkpt>
      <trkpt lat="43.69588" lon="6.97083">
        <ele>496.5</ele>
        <time>2012-01-15T14:22:09Z</time>
      </trkpt>
      <trkpt lat="43.69581" lon="6.9709">
        <ele>495.7</ele>
        <time>2012-01-15T14:22:12Z</time>
      </trkpt>
      <trkpt lat="43.69576" lon="6.97098">
        <ele>496.3</ele>
        <time>2012-01-15T14:22:15Z</time>
      </trkpt>
      <trkpt lat="43.69571" lon="6.97104">
        <ele>496.6</ele>
        <time>2012-01-15T14:22:18Z</time>
      </trkpt>
      <trkpt lat="43.69569" lon="6.97107">
        <ele>496.6</ele>
        <time>2012-01-15T14:22:19Z</time>
      </trkpt>
      <trkpt lat="43.69558" lon="6.97117">
        <ele>497.6</ele>
        <time>2012-01-15T14:22:24Z</time>
      </trkpt>
      <trkpt lat="43.69552" lon="6.97123">
        <ele>497.8</ele>
        <time>2012-01-15T14:22:27Z</time>
      </trkpt>
      <trkpt lat="43.69546" lon="6.97129">
        <ele>497</ele>
        <time>2012-01-15T14:22:30Z</time>
      </trkpt>
      <trkpt lat="43.6954" lon="6.97133">
        <ele>496.6</ele>
        <time>2012-01-15T14:22:32Z</time>
      </trkpt>
      <trkpt lat="43.69534" lon="6.97136">
        <ele>496.7</ele>
        <time>2012-01-15T14:22:34Z</time>
      </trkpt>
      <trkpt lat="43.69527" lon="6.9714">
        <ele>496.9</ele>
        <time>2012-01-15T14:22:36Z</time>
      </trkpt>
      <trkpt lat="43.69521" lon="6.97141">
        <ele>497</ele>
        <time>2012-01-15T14:22:38Z</time>
      </trkpt>
      <trkpt lat="43.69514" lon="6.97143">
        <ele>496.3</ele>
        <time>2012-01-15T14:22:40Z</time>
      </trkpt>
      <trkpt lat="43.69507" lon="6.97145">
        <ele>495.9</ele>
        <time>2012-01-15T14:22:42Z</time>
      </trkpt>
      <trkpt lat="43.69499" lon="6.97147">
        <ele>496.7</ele>
        <time>2012-01-15T14:22:45Z</time>
      </trkpt>
      <trkpt lat="43.69491" lon="6.97151">
        <ele>497</ele>
        <time>2012-01-15T14:22:52Z</time>
      </trkpt>
      <trkpt lat="43.69483" lon="6.97158">
        <ele>496.1</ele>
        <time>2012-01-15T14:23:02Z</time>
      </trkpt>
      <trkpt lat="43.69475" lon="6.97159">
        <ele>496.9</ele>
        <time>2012-01-15T14:23:22Z</time>
      </trkpt>
      <trkpt lat="43.69474" lon="6.9716">
        <ele>496.9</ele>
        <time>2012-01-15T14:23:23Z</time>
      </trkpt>
      <trkpt lat="43.69468" lon="6.97178">
        <ele>496.4</ele>
        <time>2012-01-15T14:23:34Z</time>
      </trkpt>
      <trkpt lat="43.69465" lon="6.97188">
        <ele>497.3</ele>
        <time>2012-01-15T14:23:38Z</time>
      </trkpt>
      <trkpt lat="43.69462" lon="6.972">
        <ele>497.1</ele>
        <time>2012-01-15T14:25:38Z</time>
      </trkpt>
      <trkpt lat="43.69462" lon="6.972">
        <ele>497.2</ele>
        <time>2012-01-15T14:25:39Z</time>
      </trkpt>
      <trkpt lat="43.69454" lon="6.97221">
        <ele>496.7</ele>
        <time>2012-01-15T14:26:43Z</time>
      </trkpt>
      <trkpt lat="43.69454" lon="6.97222">
        <ele>496.6</ele>
        <time>2012-01-15T14:26:44Z</time>
      </trkpt>
      <trkpt lat="43.69444" lon="6.97235">
        <ele>496.7</ele>
        <time>2012-01-15T14:27:02Z</time>
      </trkpt>
      <trkpt lat="43.69437" lon="6.97238">
        <ele>497.4</ele>
        <time>2012-01-15T14:27:05Z</time>
      </trkpt>
      <trkpt lat="43.6943" lon="6.9724">
        <ele>496.8</ele>
        <time>2012-01-15T14:27:08Z</time>
      </trkpt>
      <trkpt lat="43.69423" lon="6.97241">
        <ele>497.2</ele>
        <time>2012-01-15T14:27:11Z</time>
      </trkpt>
      <trkpt lat="43.69416" lon="6.97239">
        <ele>497.1</ele>
        <time>2012-01-15T14:27:14Z</time>
      </trkpt>
      <trkpt lat="43.6941" lon="6.97236">
        <ele>496.8</ele>
        <time>2012-01-15T14:27:16Z</time>
      </trkpt>
      <trkpt lat="43.69402" lon="6.97231">
        <ele>496.3</ele>
        <time>2012-01-15T14:27:19Z</time>
      </trkpt>
      <trkpt lat="43.69394" lon="6.97227">
        <ele>496.3</ele>
        <time>2012-01-15T14:27:22Z</time>
      </trkpt>
      <trkpt lat="43.69386" lon="6.97224">
        <ele>496.5</ele>
        <time>2012-01-15T14:27:25Z</time>
      </trkpt>
      <trkpt lat="43.69379" lon="6.97226">
        <ele>496.3</ele>
        <time>2012-01-15T14:27:28Z</time>
      </trkpt>
      <trkpt lat="43.69371" lon="6.97231">
        <ele>496.2</ele>
        <time>2012-01-15T14:27:36Z</time>
      </trkpt>
      <trkpt lat="43.69363" lon="6.97236">
        <ele>496.2</ele>
        <time>2012-01-15T14:27:46Z</time>
      </trkpt>
      <trkpt lat="43.69361" lon="6.97237">
        <ele>496.1</ele>
        <time>2012-01-15T14:27:47Z</time>
      </trkpt>
      <trkpt lat="43.69349" lon="6.9724">
        <ele>496.2</ele>
        <time>2012-01-15T14:27:52Z</time>
      </trkpt>
      <trkpt lat="43.6934" lon="6.97243">
        <ele>496</ele>
        <time>2012-01-15T14:27:56Z</time>
      </trkpt>
      <trkpt lat="43.69333" lon="6.97247">
        <ele>496.1</ele>
        <time>2012-01-15T14:27:59Z</time>
      </trkpt>
      <trkpt lat="43.69326" lon="6.97253">
        <ele>496.3</ele>
        <time>2012-01-15T14:28:02Z</time>
      </trkpt>
      <trkpt lat="43.6932" lon="6.97259">
        <ele>496.3</ele>
        <time>2012-01-15T14:28:05Z</time>
      </trkpt>
      <trkpt lat="43.69314" lon="6.97264">
        <ele>496.8</ele>
        <time>2012-01-15T14:28:08Z</time>
      </trkpt>
      <trkpt lat="43.69306" lon="6.9727">
        <ele>496.8</ele>
        <time>2012-01-15T14:28:12Z</time>
      </trkpt>
      <trkpt lat="43.69299" lon="6.97275">
        <ele>496.7</ele>
        <time>2012-01-15T14:28:15Z</time>
      </trkpt>
      <trkpt lat="43.69291" lon="6.9728">
        <ele>496.4</ele>
        <time>2012-01-15T14:28:18Z</time>
      </trkpt>
      <trkpt lat="43.69286" lon="6.97286">
        <ele>496.3</ele>
        <time>2012-01-15T14:28:21Z</time>
      </trkpt>
      <trkpt lat="43.69279" lon="6.97293">
        <ele>496.6</ele>
        <time>2012-01-15T14:28:24Z</time>
      </trkpt>
      <trkpt lat="43.69274" lon="6.97299">
        <ele>497</ele>
        <time>2012-01-15T14:28:26Z</time>
      </trkpt>
      <trkpt lat="43.69271" lon="6.97311">
        <ele>497.2</ele>
        <time>2012-01-15T14:28:29Z</time>
      </trkpt>
      <trkpt lat="43.69269" lon="6.97319">
        <ele>496.7</ele>
        <time>2012-01-15T14:28:31Z</time>
      </trkpt>
      <trkpt lat="43.69267" lon="6.97327">
        <ele>496.2</ele>
        <time>2012-01-15T14:28:33Z</time>
      </trkpt>
      <trkpt lat="43.69266" lon="6.97335">
        <ele>496.3</ele>
        <time>2012-01-15T14:28:35Z</time>
      </trkpt>
      <trkpt lat="43.6926" lon="6.97345">
        <ele>496.3</ele>
        <time>2012-01-15T14:28:38Z</time>
      </trkpt>
      <trkpt lat="43.69253" lon="6.9735">
        <ele>496.9</ele>
        <time>2012-01-15T14:28:41Z</time>
      </trkpt>
      <trkpt lat="43.69247" lon="6.97355">
        <ele>496.4</ele>
        <time>2012-01-15T14:28:44Z</time>
      </trkpt>
      <trkpt lat="43.69241" lon="6.97363">
        <ele>496.9</ele>
        <time>2012-01-15T14:28:48Z</time>
      </trkpt>
      <trkpt lat="43.69241" lon="6.97366">
        <ele>497</ele>
        <time>2012-01-15T14:28:49Z</time>
      </trkpt>
      <trkpt lat="43.69251" lon="6.97378">
        <ele>495.1</ele>
        <time>2012-01-15T14:28:55Z</time>
      </trkpt>
      <trkpt lat="43.69251" lon="6.97388">
        <ele>493.7</ele>
        <time>2012-01-15T14:28:57Z</time>
      </trkpt>
      <trkpt lat="43.69256" lon="6.97395">
        <ele>491.1</ele>
        <time>2012-01-15T14:29:00Z</time>
      </trkpt>
      <trkpt lat="43.69263" lon="6.97398">
        <ele>490.5</ele>
        <time>2012-01-15T14:29:02Z</time>
      </trkpt>
      <trkpt lat="43.69269" lon="6.97396">
        <ele>489.2</ele>
        <time>2012-01-15T14:29:04Z</time>
      </trkpt>
      <trkpt lat="43.69272" lon="6.97388">
        <ele>487.1</ele>
        <time>2012-01-15T14:29:06Z</time>
      </trkpt>
      <trkpt lat="43.69275" lon="6.97379">
        <ele>486.1</ele>
        <time>2012-01-15T14:29:08Z</time>
      </trkpt>
      <trkpt lat="43.6928" lon="6.97369">
        <ele>485.1</ele>
        <time>2012-01-15T14:29:10Z</time>
      </trkpt>
      <trkpt lat="43.69287" lon="6.97364">
        <ele>483.6</ele>
        <time>2012-01-15T14:29:12Z</time>
      </trkpt>
      <trkpt lat="43.69292" lon="6.97366">
        <ele>482.9</ele>
        <time>2012-01-15T14:29:13Z</time>
      </trkpt>
      <trkpt lat="43.69296" lon="6.97366">
        <ele>482.3</ele>
        <time>2012-01-15T14:29:14Z</time>
      </trkpt>
      <trkpt lat="43.69302" lon="6.97365">
        <ele>481.9</ele>
        <time>2012-01-15T14:29:15Z</time>
      </trkpt>
      <trkpt lat="43.69308" lon="6.97364">
        <ele>481.6</ele>
        <time>2012-01-15T14:29:16Z</time>
      </trkpt>
      <trkpt lat="43.69313" lon="6.9736">
        <ele>481.3</ele>
        <time>2012-01-15T14:29:17Z</time>
      </trkpt>
      <trkpt lat="43.69318" lon="6.97355">
        <ele>481.1</ele>
        <time>2012-01-15T14:29:18Z</time>
      </trkpt>
      <trkpt lat="43.69322" lon="6.9735">
        <ele>480.9</ele>
        <time>2012-01-15T14:29:19Z</time>
      </trkpt>
      <trkpt lat="43.69326" lon="6.97344">
        <ele>480.6</ele>
        <time>2012-01-15T14:29:20Z</time>
      </trkpt>
      <trkpt lat="43.6933" lon="6.97339">
        <ele>480.4</ele>
        <time>2012-01-15T14:29:21Z</time>
      </trkpt>
      <trkpt lat="43.69334" lon="6.97334">
        <ele>479.5</ele>
        <time>2012-01-15T14:29:22Z</time>
      </trkpt>
      <trkpt lat="43.6934" lon="6.97327">
        <ele>478.2</ele>
        <time>2012-01-15T14:29:24Z</time>
      </trkpt>
      <trkpt lat="43.69347" lon="6.9733">
        <ele>476.7</ele>
        <time>2012-01-15T14:29:27Z</time>
      </trkpt>
      <trkpt lat="43.69353" lon="6.97337">
        <ele>475.6</ele>
        <time>2012-01-15T14:29:29Z</time>
      </trkpt>
      <trkpt lat="43.6936" lon="6.9734">
        <ele>474.6</ele>
        <time>2012-01-15T14:29:31Z</time>
      </trkpt>
      <trkpt lat="43.69368" lon="6.9734">
        <ele>473.7</ele>
        <time>2012-01-15T14:29:34Z</time>
      </trkpt>
      <trkpt lat="43.69373" lon="6.97348">
        <ele>473</ele>
        <time>2012-01-15T14:29:38Z</time>
      </trkpt>
      <trkpt lat="43.69378" lon="6.97357">
        <ele>468.7</ele>
        <time>2012-01-15T14:29:43Z</time>
      </trkpt>
      <trkpt lat="43.69381" lon="6.97367">
        <ele>465.7</ele>
        <time>2012-01-15T14:29:47Z</time>
      </trkpt>
      <trkpt lat="43.69384" lon="6.97377">
        <ele>462.1</ele>
        <time>2012-01-15T14:29:51Z</time>
      </trkpt>
      <trkpt lat="43.69385" lon="6.97379">
        <ele>461.6</ele>
        <time>2012-01-15T14:29:52Z</time>
      </trkpt>
      <trkpt lat="43.69395" lon="6.97394">
        <ele>454.3</ele>
        <time>2012-01-15T14:30:00Z</time>
      </trkpt>
      <trkpt lat="43.69402" lon="6.974">
        <ele>451.4</ele>
        <time>2012-01-15T14:30:05Z</time>
      </trkpt>
      <trkpt lat="43.6941" lon="6.97403">
        <ele>448.2</ele>
        <time>2012-01-15T14:30:10Z</time>
      </trkpt>
      <trkpt lat="43.69417" lon="6.97408">
        <ele>446.3</ele>
        <time>2012-01-15T14:30:14Z</time>
      </trkpt>
      <trkpt lat="43.69417" lon="6.9742">
        <ele>442.6</ele>
        <time>2012-01-15T14:30:19Z</time>
      </trkpt>
      <trkpt lat="43.6942" lon="6.97432">
        <ele>439.3</ele>
        <time>2012-01-15T14:30:25Z</time>
      </trkpt>
      <trkpt lat="43.69421" lon="6.97444">
        <ele>436.3</ele>
        <time>2012-01-15T14:30:28Z</time>
      </trkpt>
      <trkpt lat="43.69423" lon="6.97454">
        <ele>432.2</ele>
        <time>2012-01-15T14:30:33Z</time>
      </trkpt>
      <trkpt lat="43.69425" lon="6.97464">
        <ele>429.3</ele>
        <time>2012-01-15T14:30:36Z</time>
      </trkpt>
      <trkpt lat="43.69427" lon="6.97471">
        <ele>426.8</ele>
        <time>2012-01-15T14:30:38Z</time>
      </trkpt>
      <trkpt lat="43.6943" lon="6.97482">
        <ele>423.3</ele>
        <time>2012-01-15T14:30:41Z</time>
      </trkpt>
      <trkpt lat="43.69432" lon="6.97494">
        <ele>418.7</ele>
        <time>2012-01-15T14:30:56Z</time>
      </trkpt>
      <trkpt lat="43.69432" lon="6.97495">
        <ele>418.5</ele>
        <time>2012-01-15T14:30:57Z</time>
      </trkpt>
      <trkpt lat="43.69427" lon="6.97505">
        <ele>417.8</ele>
        <time>2012-01-15T14:32:43Z</time>
      </trkpt>
      <trkpt lat="43.69426" lon="6.97506">
        <ele>417.5</ele>
        <time>2012-01-15T14:32:44Z</time>
      </trkpt>
      <trkpt lat="43.69431" lon="6.97514">
        <ele>414.6</ele>
        <time>2012-01-15T14:33:23Z</time>
      </trkpt>
      <trkpt lat="43.69439" lon="6.97513">
        <ele>414.8</ele>
        <time>2012-01-15T14:33:27Z</time>
      </trkpt>
      <trkpt lat="43.69446" lon="6.97508">
        <ele>414.9</ele>
        <time>2012-01-15T14:33:30Z</time>
      </trkpt>
      <trkpt lat="43.69452" lon="6.97501">
        <ele>415.5</ele>
        <time>2012-01-15T14:33:33Z</time>
      </trkpt>
      <trkpt lat="43.69458" lon="6.97494">
        <ele>414.7</ele>
        <time>2012-01-15T14:33:36Z</time>
      </trkpt>
      <trkpt lat="43.69465" lon="6.97487">
        <ele>414.5</ele>
        <time>2012-01-15T14:33:39Z</time>
      </trkpt>
      <trkpt lat="43.69473" lon="6.97483">
        <ele>414.4</ele>
        <time>2012-01-15T14:33:42Z</time>
      </trkpt>
      <trkpt lat="43.69481" lon="6.97478">
        <ele>414.8</ele>
        <time>2012-01-15T14:33:45Z</time>
      </trkpt>
      <trkpt lat="43.69483" lon="6.97477">
        <ele>414.7</ele>
        <time>2012-01-15T14:33:46Z</time>
      </trkpt>
      <trkpt lat="43.69496" lon="6.97468">
        <ele>414.4</ele>
        <time>2012-01-15T14:33:51Z</time>
      </trkpt>
      <trkpt lat="43.69504" lon="6.97463">
        <ele>415.1</ele>
        <time>2012-01-15T14:33:54Z</time>
      </trkpt>
      <trkpt lat="43.69511" lon="6.97458">
        <ele>416</ele>
        <time>2012-01-15T14:33:57Z</time>
      </trkpt>
      <trkpt lat="43.69518" lon="6.97452">
        <ele>416</ele>
        <time>2012-01-15T14:34:00Z</time>
      </trkpt>
      <trkpt lat="43.69524" lon="6.97448">
        <ele>415.1</ele>
        <time>2012-01-15T14:34:02Z</time>
      </trkpt>
      <trkpt lat="43.6953" lon="6.97443">
        <ele>414.7</ele>
        <time>2012-01-15T14:34:04Z</time>
      </trkpt>
      <trkpt lat="43.69538" lon="6.97437">
        <ele>415</ele>
        <time>2012-01-15T14:34:07Z</time>
      </trkpt>
      <trkpt lat="43.69545" lon="6.97433">
        <ele>414.4</ele>
        <time>2012-01-15T14:34:10Z</time>
      </trkpt>
      <trkpt lat="43.69552" lon="6.97429">
        <ele>414</ele>
        <time>2012-01-15T14:34:13Z</time>
      </trkpt>
      <trkpt lat="43.69558" lon="6.97426">
        <ele>414.3</ele>
        <time>2012-01-15T14:34:15Z</time>
      </trkpt>
      <trkpt lat="43.69565" lon="6.97423">
        <ele>414.2</ele>
        <time>2012-01-15T14:34:17Z</time>
      </trkpt>
      <trkpt lat="43.6957" lon="6.97421">
        <ele>414.3</ele>
        <time>2012-01-15T14:34:19Z</time>
      </trkpt>
      <trkpt lat="43.69576" lon="6.97419">
        <ele>414.2</ele>
        <time>2012-01-15T14:34:21Z</time>
      </trkpt>
      <trkpt lat="43.69582" lon="6.97417">
        <ele>414</ele>
        <time>2012-01-15T14:34:23Z</time>
      </trkpt>
      <trkpt lat="43.69591" lon="6.97416">
        <ele>414.2</ele>
        <time>2012-01-15T14:34:26Z</time>
      </trkpt>
      <trkpt lat="43.69598" lon="6.97415">
        <ele>414.8</ele>
        <time>2012-01-15T14:34:30Z</time>
      </trkpt>
      <trkpt lat="43.69604" lon="6.97415">
        <ele>414.6</ele>
        <time>2012-01-15T14:34:32Z</time>
      </trkpt>
      <trkpt lat="43.69611" lon="6.97412">
        <ele>413.5</ele>
        <time>2012-01-15T14:34:34Z</time>
      </trkpt>
      <trkpt lat="43.69617" lon="6.97407">
        <ele>413.1</ele>
        <time>2012-01-15T14:34:36Z</time>
      </trkpt>
      <trkpt lat="43.69623" lon="6.97398">
        <ele>412.4</ele>
        <time>2012-01-15T14:34:39Z</time>
      </trkpt>
      <trkpt lat="43.69628" lon="6.97388">
        <ele>412.3</ele>
        <time>2012-01-15T14:34:42Z</time>
      </trkpt>
      <trkpt lat="43.69632" lon="6.97382">
        <ele>412.5</ele>
        <time>2012-01-15T14:34:44Z</time>
      </trkpt>
      <trkpt lat="43.69637" lon="6.97372">
        <ele>413.1</ele>
        <time>2012-01-15T14:34:47Z</time>
      </trkpt>
      <trkpt lat="43.69638" lon="6.9737">
        <ele>413.2</ele>
        <time>2012-01-15T14:34:48Z</time>
      </trkpt>
      <trkpt lat="43.69648" lon="6.97358">
        <ele>414.5</ele>
        <time>2012-01-15T14:34:53Z</time>
      </trkpt>
      <trkpt lat="43.69652" lon="6.97348">
        <ele>414.9</ele>
        <time>2012-01-15T14:34:58Z</time>
      </trkpt>
      <trkpt lat="43.69656" lon="6.97337">
        <ele>417.9</ele>
        <time>2012-01-15T14:35:07Z</time>
      </trkpt>
      <trkpt lat="43.69659" lon="6.97326">
        <ele>421.1</ele>
        <time>2012-01-15T14:35:19Z</time>
      </trkpt>
      <trkpt lat="43.69664" lon="6.97316">
        <ele>423.7</ele>
        <time>2012-01-15T14:35:31Z</time>
      </trkpt>
      <trkpt lat="43.69662" lon="6.97303">
        <ele>423.8</ele>
        <time>2012-01-15T14:35:41Z</time>
      </trkpt>
      <trkpt lat="43.69665" lon="6.97292">
        <ele>424.7</ele>
        <time>2012-01-15T14:35:56Z</time>
      </trkpt>
      <trkpt lat="43.69666" lon="6.97292">
        <ele>425</ele>
        <time>2012-01-15T14:35:57Z</time>
      </trkpt>
      <trkpt lat="43.69679" lon="6.97283">
        <ele>425.3</ele>
        <time>2012-01-15T14:36:08Z</time>
      </trkpt>
      <trkpt lat="43.69684" lon="6.97275">
        <ele>423.8</ele>
        <time>2012-01-15T14:36:11Z</time>
      </trkpt>
      <trkpt lat="43.69689" lon="6.97268">
        <ele>422.8</ele>
        <time>2012-01-15T14:36:13Z</time>
      </trkpt>
      <trkpt lat="43.69694" lon="6.97263">
        <ele>421.8</ele>
        <time>2012-01-15T14:36:15Z</time>
      </trkpt>
      <trkpt lat="43.69699" lon="6.97259">
        <ele>420.2</ele>
        <time>2012-01-15T14:36:17Z</time>
      </trkpt>
      <trkpt lat="43.69705" lon="6.97255">
        <ele>418.7</ele>
        <time>2012-01-15T14:36:19Z</time>
      </trkpt>
      <trkpt lat="43.6971" lon="6.97248">
        <ele>416.4</ele>
        <time>2012-01-15T14:36:22Z</time>
      </trkpt>
      <trkpt lat="43.69716" lon="6.97239">
        <ele>415.1</ele>
        <time>2012-01-15T14:36:26Z</time>
      </trkpt>
      <trkpt lat="43.69724" lon="6.97236">
        <ele>414.4</ele>
        <time>2012-01-15T14:36:31Z</time>
      </trkpt>
      <trkpt lat="43.69731" lon="6.97234">
        <ele>415.2</ele>
        <time>2012-01-15T14:36:35Z</time>
      </trkpt>
      <trkpt lat="43.69737" lon="6.97228">
        <ele>415</ele>
        <time>2012-01-15T14:36:39Z</time>
      </trkpt>
      <trkpt lat="43.69742" lon="6.97218">
        <ele>415</ele>
        <time>2012-01-15T14:36:44Z</time>
      </trkpt>
      <trkpt lat="43.69746" lon="6.97207">
        <ele>416.1</ele>
        <time>2012-01-15T14:36:49Z</time>
      </trkpt>
      <trkpt lat="43.69752" lon="6.97197">
        <ele>416.8</ele>
        <time>2012-01-15T14:36:53Z</time>
      </trkpt>
      <trkpt lat="43.69756" lon="6.97189">
        <ele>416.8</ele>
        <time>2012-01-15T14:36:56Z</time>
      </trkpt>
      <trkpt lat="43.69759" lon="6.9718">
        <ele>416.4</ele>
        <time>2012-01-15T14:37:00Z</time>
      </trkpt>
      <trkpt lat="43.6976" lon="6.97178">
        <ele>416.3</ele>
        <time>2012-01-15T14:37:01Z</time>
      </trkpt>
      <trkpt lat="43.69773" lon="6.97169">
        <ele>415.7</ele>
        <time>2012-01-15T14:37:11Z</time>
      </trkpt>
      <trkpt lat="43.69781" lon="6.97174">
        <ele>416.3</ele>
        <time>2012-01-15T14:37:15Z</time>
      </trkpt>
      <trkpt lat="43.69788" lon="6.97179">
        <ele>416.4</ele>
        <time>2012-01-15T14:37:18Z</time>
      </trkpt>
      <trkpt lat="43.69796" lon="6.97173">
        <ele>417</ele>
        <time>2012-01-15T14:37:26Z</time>
      </trkpt>
      <trkpt lat="43.69799" lon="6.97162">
        <ele>419.5</ele>
        <time>2012-01-15T14:37:43Z</time>
      </trkpt>
      <trkpt lat="43.69802" lon="6.9715">
        <ele>424.1</ele>
        <time>2012-01-15T14:37:58Z</time>
      </trkpt>
      <trkpt lat="43.69809" lon="6.97156">
        <ele>425.4</ele>
        <time>2012-01-15T14:38:09Z</time>
      </trkpt>
      <trkpt lat="43.6981" lon="6.97158">
        <ele>425.5</ele>
        <time>2012-01-15T14:38:10Z</time>
      </trkpt>
      <trkpt lat="43.69818" lon="6.97175">
        <ele>424.7</ele>
        <time>2012-01-15T14:38:17Z</time>
      </trkpt>
      <trkpt lat="43.69823" lon="6.97181">
        <ele>425</ele>
        <time>2012-01-15T14:38:19Z</time>
      </trkpt>
      <trkpt lat="43.6983" lon="6.97182">
        <ele>424.2</ele>
        <time>2012-01-15T14:38:23Z</time>
      </trkpt>
      <trkpt lat="43.69838" lon="6.97177">
        <ele>423.6</ele>
        <time>2012-01-15T14:38:27Z</time>
      </trkpt>
      <trkpt lat="43.69844" lon="6.97174">
        <ele>422.6</ele>
        <time>2012-01-15T14:38:30Z</time>
      </trkpt>
      <trkpt lat="43.69851" lon="6.97171">
        <ele>421.8</ele>
        <time>2012-01-15T14:38:32Z</time>
      </trkpt>
      <trkpt lat="43.69858" lon="6.97171">
        <ele>421.3</ele>
        <time>2012-01-15T14:38:34Z</time>
      </trkpt>
      <trkpt lat="43.69865" lon="6.97165">
        <ele>419.6</ele>
        <time>2012-01-15T14:38:38Z</time>
      </trkpt>
      <trkpt lat="43.69872" lon="6.97161">
        <ele>418.5</ele>
        <time>2012-01-15T14:38:40Z</time>
      </trkpt>
      <trkpt lat="43.69877" lon="6.97157">
        <ele>417.7</ele>
        <time>2012-01-15T14:38:41Z</time>
      </trkpt>
      <trkpt lat="43.69881" lon="6.97152">
        <ele>416.7</ele>
        <time>2012-01-15T14:38:42Z</time>
      </trkpt>
      <trkpt lat="43.69886" lon="6.97148">
        <ele>416</ele>
        <time>2012-01-15T14:38:43Z</time>
      </trkpt>
      <trkpt lat="43.69891" lon="6.97142">
        <ele>414.7</ele>
        <time>2012-01-15T14:38:45Z</time>
      </trkpt>
      <trkpt lat="43.69898" lon="6.97138">
        <ele>414.4</ele>
        <time>2012-01-15T14:38:48Z</time>
      </trkpt>
      <trkpt lat="43.69906" lon="6.97134">
        <ele>414.3</ele>
        <time>2012-01-15T14:38:51Z</time>
      </trkpt>
      <trkpt lat="43.69912" lon="6.97125">
        <ele>415.1</ele>
        <time>2012-01-15T14:38:55Z</time>
      </trkpt>
      <trkpt lat="43.69917" lon="6.97122">
        <ele>415.5</ele>
        <time>2012-01-15T14:38:58Z</time>
      </trkpt>
      <trkpt lat="43.69924" lon="6.97119">
        <ele>414.8</ele>
        <time>2012-01-15T14:39:00Z</time>
      </trkpt>
      <trkpt lat="43.69929" lon="6.97114">
        <ele>414.6</ele>
        <time>2012-01-15T14:39:02Z</time>
      </trkpt>
      <trkpt lat="43.69934" lon="6.97107">
        <ele>414.1</ele>
        <time>2012-01-15T14:39:05Z</time>
      </trkpt>
      <trkpt lat="43.69942" lon="6.97101">
        <ele>414</ele>
        <time>2012-01-15T14:39:12Z</time>
      </trkpt>
      <trkpt lat="43.69943" lon="6.97101">
        <ele>414</ele>
        <time>2012-01-15T14:39:13Z</time>
      </trkpt>
      <trkpt lat="43.6995" lon="6.97118">
        <ele>413.5</ele>
        <time>2012-01-15T14:39:38Z</time>
      </trkpt>
      <trkpt lat="43.69949" lon="6.9713">
        <ele>413.4</ele>
        <time>2012-01-15T14:39:44Z</time>
      </trkpt>
      <trkpt lat="43.69946" lon="6.97142">
        <ele>413.8</ele>
        <time>2012-01-15T14:39:49Z</time>
      </trkpt>
      <trkpt lat="43.69942" lon="6.97151">
        <ele>414.1</ele>
        <time>2012-01-15T14:39:53Z</time>
      </trkpt>
      <trkpt lat="43.69939" lon="6.97162">
        <ele>414.1</ele>
        <time>2012-01-15T14:39:57Z</time>
      </trkpt>
      <trkpt lat="43.69945" lon="6.97172">
        <ele>415.2</ele>
        <time>2012-01-15T14:40:04Z</time>
      </trkpt>
      <trkpt lat="43.69954" lon="6.97173">
        <ele>416.4</ele>
        <time>2012-01-15T14:40:10Z</time>
      </trkpt>
      <trkpt lat="43.69962" lon="6.97174">
        <ele>416.1</ele>
        <time>2012-01-15T14:40:14Z</time>
      </trkpt>
      <trkpt lat="43.69964" lon="6.97175">
        <ele>416.7</ele>
        <time>2012-01-15T14:40:15Z</time>
      </trkpt>
      <trkpt lat="43.69971" lon="6.97192">
        <ele>417.2</ele>
        <time>2012-01-15T14:40:21Z</time>
      </trkpt>
      <trkpt lat="43.69972" lon="6.97202">
        <ele>416.7</ele>
        <time>2012-01-15T14:40:24Z</time>
      </trkpt>
      <trkpt lat="43.69974" lon="6.97213">
        <ele>416.5</ele>
        <time>2012-01-15T14:40:27Z</time>
      </trkpt>
      <trkpt lat="43.69975" lon="6.97223">
        <ele>417.2</ele>
        <time>2012-01-15T14:40:30Z</time>
      </trkpt>
      <trkpt lat="43.69975" lon="6.97235">
        <ele>416.6</ele>
        <time>2012-01-15T14:40:33Z</time>
      </trkpt>
      <trkpt lat="43.69975" lon="6.97245">
        <ele>417.3</ele>
        <time>2012-01-15T14:40:35Z</time>
      </trkpt>
      <trkpt lat="43.69974" lon="6.97255">
        <ele>417.4</ele>
        <time>2012-01-15T14:40:37Z</time>
      </trkpt>
      <trkpt lat="43.69972" lon="6.97264">
        <ele>416.8</ele>
        <time>2012-01-15T14:40:39Z</time>
      </trkpt>
      <trkpt lat="43.69969" lon="6.97274">
        <ele>416.8</ele>
        <time>2012-01-15T14:40:42Z</time>
      </trkpt>
      <trkpt lat="43.69965" lon="6.97285">
        <ele>417.6</ele>
        <time>2012-01-15T14:40:45Z</time>
      </trkpt>
      <trkpt lat="43.69963" lon="6.97296">
        <ele>417.1</ele>
        <time>2012-01-15T14:40:48Z</time>
      </trkpt>
      <trkpt lat="43.69961" lon="6.97308">
        <ele>416.9</ele>
        <time>2012-01-15T14:40:51Z</time>
      </trkpt>
      <trkpt lat="43.69959" lon="6.9732">
        <ele>417.2</ele>
        <time>2012-01-15T14:40:54Z</time>
      </trkpt>
      <trkpt lat="43.69958" lon="6.97328">
        <ele>417.3</ele>
        <time>2012-01-15T14:40:56Z</time>
      </trkpt>
      <trkpt lat="43.69956" lon="6.9734">
        <ele>417.5</ele>
        <time>2012-01-15T14:40:59Z</time>
      </trkpt>
      <trkpt lat="43.69955" lon="6.9735">
        <ele>417</ele>
        <time>2012-01-15T14:41:02Z</time>
      </trkpt>
      <trkpt lat="43.69956" lon="6.97361">
        <ele>416.7</ele>
        <time>2012-01-15T14:41:05Z</time>
      </trkpt>
      <trkpt lat="43.69958" lon="6.97372">
        <ele>416.6</ele>
        <time>2012-01-15T14:41:08Z</time>
      </trkpt>
      <trkpt lat="43.69961" lon="6.97384">
        <ele>416.4</ele>
        <time>2012-01-15T14:41:11Z</time>
      </trkpt>
      <trkpt lat="43.69964" lon="6.97392">
        <ele>416.8</ele>
        <time>2012-01-15T14:41:13Z</time>
      </trkpt>
      <trkpt lat="43.69965" lon="6.974">
        <ele>416.6</ele>
        <time>2012-01-15T14:41:15Z</time>
      </trkpt>
      <trkpt lat="43.69965" lon="6.97404">
        <ele>416.6</ele>
        <time>2012-01-15T14:41:16Z</time>
      </trkpt>
      <trkpt lat="43.69966" lon="6.97417">
        <ele>416.4</ele>
        <time>2012-01-15T14:41:19Z</time>
      </trkpt>
      <trkpt lat="43.69967" lon="6.97428">
        <ele>416.6</ele>
        <time>2012-01-15T14:41:22Z</time>
      </trkpt>
      <trkpt lat="43.69965" lon="6.97438">
        <ele>417.2</ele>
        <time>2012-01-15T14:41:25Z</time>
      </trkpt>
      <trkpt lat="43.69962" lon="6.97447">
        <ele>417</ele>
        <time>2012-01-15T14:41:28Z</time>
      </trkpt>
      <trkpt lat="43.69961" lon="6.97459">
        <ele>417.1</ele>
        <time>2012-01-15T14:41:31Z</time>
      </trkpt>
      <trkpt lat="43.69961" lon="6.97467">
        <ele>417</ele>
        <time>2012-01-15T14:41:33Z</time>
      </trkpt>
      <trkpt lat="43.69962" lon="6.97476">
        <ele>417.5</ele>
        <time>2012-01-15T14:41:35Z</time>
      </trkpt>
      <trkpt lat="43.69963" lon="6.97485">
        <ele>418.2</ele>
        <time>2012-01-15T14:41:37Z</time>
      </trkpt>
      <trkpt lat="43.69964" lon="6.97493">
        <ele>418.2</ele>
        <time>2012-01-15T14:41:39Z</time>
      </trkpt>
      <trkpt lat="43.69965" lon="6.97501">
        <ele>417.5</ele>
        <time>2012-01-15T14:41:41Z</time>
      </trkpt>
      <trkpt lat="43.69967" lon="6.9751">
        <ele>417.5</ele>
        <time>2012-01-15T14:41:43Z</time>
      </trkpt>
      <trkpt lat="43.69969" lon="6.97518">
        <ele>417</ele>
        <time>2012-01-15T14:41:45Z</time>
      </trkpt>
      <trkpt lat="43.69972" lon="6.97526">
        <ele>417</ele>
        <time>2012-01-15T14:41:47Z</time>
      </trkpt>
      <trkpt lat="43.69974" lon="6.97535">
        <ele>417.4</ele>
        <time>2012-01-15T14:41:49Z</time>
      </trkpt>
      <trkpt lat="43.69976" lon="6.97542">
        <ele>417.2</ele>
        <time>2012-01-15T14:41:51Z</time>
      </trkpt>
      <trkpt lat="43.69979" lon="6.9755">
        <ele>417.5</ele>
        <time>2012-01-15T14:41:53Z</time>
      </trkpt>
      <trkpt lat="43.69981" lon="6.97559">
        <ele>417.1</ele>
        <time>2012-01-15T14:41:55Z</time>
      </trkpt>
      <trkpt lat="43.69984" lon="6.97567">
        <ele>417.1</ele>
        <time>2012-01-15T14:41:57Z</time>
      </trkpt>
      <trkpt lat="43.69986" lon="6.97575">
        <ele>417.5</ele>
        <time>2012-01-15T14:41:59Z</time>
      </trkpt>
      <trkpt lat="43.69989" lon="6.97584">
        <ele>417.9</ele>
        <time>2012-01-15T14:42:01Z</time>
      </trkpt>
      <trkpt lat="43.69992" lon="6.97592">
        <ele>417.8</ele>
        <time>2012-01-15T14:42:03Z</time>
      </trkpt>
      <trkpt lat="43.69994" lon="6.976">
        <ele>417.8</ele>
        <time>2012-01-15T14:42:05Z</time>
      </trkpt>
      <trkpt lat="43.69997" lon="6.97609">
        <ele>418</ele>
        <time>2012-01-15T14:42:07Z</time>
      </trkpt>
      <trkpt lat="43.69999" lon="6.97618">
        <ele>418</ele>
        <time>2012-01-15T14:42:09Z</time>
      </trkpt>
      <trkpt lat="43.70001" lon="6.97627">
        <ele>417.6</ele>
        <time>2012-01-15T14:42:11Z</time>
      </trkpt>
      <trkpt lat="43.70003" lon="6.97636">
        <ele>417.2</ele>
        <time>2012-01-15T14:42:13Z</time>
      </trkpt>
      <trkpt lat="43.70005" lon="6.97645">
        <ele>417.2</ele>
        <time>2012-01-15T14:42:15Z</time>
      </trkpt>
      <trkpt lat="43.70006" lon="6.97654">
        <ele>417</ele>
        <time>2012-01-15T14:42:17Z</time>
      </trkpt>
      <trkpt lat="43.70007" lon="6.97659">
        <ele>417.1</ele>
        <time>2012-01-15T14:42:18Z</time>
      </trkpt>
      <trkpt lat="43.70009" lon="6.97671">
        <ele>417.4</ele>
        <time>2012-01-15T14:42:21Z</time>
      </trkpt>
      <trkpt lat="43.70011" lon="6.9768">
        <ele>417.7</ele>
        <time>2012-01-15T14:42:23Z</time>
      </trkpt>
      <trkpt lat="43.70012" lon="6.97689">
        <ele>417.7</ele>
        <time>2012-01-15T14:42:25Z</time>
      </trkpt>
      <trkpt lat="43.70013" lon="6.97699">
        <ele>417.4</ele>
        <time>2012-01-15T14:42:27Z</time>
      </trkpt>
      <trkpt lat="43.70016" lon="6.97708">
        <ele>417.7</ele>
        <time>2012-01-15T14:42:29Z</time>
      </trkpt>
      <trkpt lat="43.70019" lon="6.97716">
        <ele>417.9</ele>
        <time>2012-01-15T14:42:31Z</time>
      </trkpt>
      <trkpt lat="43.70023" lon="6.97723">
        <ele>418.3</ele>
        <time>2012-01-15T14:42:33Z</time>
      </trkpt>
      <trkpt lat="43.70026" lon="6.97732">
        <ele>418.4</ele>
        <time>2012-01-15T14:42:35Z</time>
      </trkpt>
      <trkpt lat="43.70028" lon="6.9774">
        <ele>418</ele>
        <time>2012-01-15T14:42:37Z</time>
      </trkpt>
      <trkpt lat="43.7003" lon="6.97748">
        <ele>417.9</ele>
        <time>2012-01-15T14:42:39Z</time>
      </trkpt>
      <trkpt lat="43.70032" lon="6.9776">
        <ele>418.1</ele>
        <time>2012-01-15T14:42:42Z</time>
      </trkpt>
      <trkpt lat="43.70035" lon="6.97772">
        <ele>418.3</ele>
        <time>2012-01-15T14:42:50Z</time>
      </trkpt>
      <trkpt lat="43.70034" lon="6.97782">
        <ele>418.9</ele>
        <time>2012-01-15T14:43:05Z</time>
      </trkpt>
      <trkpt lat="43.70035" lon="6.97792">
        <ele>418.5</ele>
        <time>2012-01-15T14:43:08Z</time>
      </trkpt>
      <trkpt lat="43.70037" lon="6.97803">
        <ele>418.7</ele>
        <time>2012-01-15T14:43:11Z</time>
      </trkpt>
      <trkpt lat="43.7004" lon="6.97811">
        <ele>418.7</ele>
        <time>2012-01-15T14:43:13Z</time>
      </trkpt>
      <trkpt lat="43.70042" lon="6.97818">
        <ele>418.3</ele>
        <time>2012-01-15T14:43:15Z</time>
      </trkpt>
      <trkpt lat="43.70045" lon="6.97826">
        <ele>418.4</ele>
        <time>2012-01-15T14:43:17Z</time>
      </trkpt>
      <trkpt lat="43.70047" lon="6.97834">
        <ele>418.7</ele>
        <time>2012-01-15T14:43:19Z</time>
      </trkpt>
      <trkpt lat="43.70048" lon="6.97838">
        <ele>418.7</ele>
        <time>2012-01-15T14:43:20Z</time>
      </trkpt>
      <trkpt lat="43.70049" lon="6.97851">
        <ele>419</ele>
        <time>2012-01-15T14:43:23Z</time>
      </trkpt>
      <trkpt lat="43.70049" lon="6.9786">
        <ele>418.4</ele>
        <time>2012-01-15T14:43:25Z</time>
      </trkpt>
      <trkpt lat="43.7005" lon="6.97871">
        <ele>418.2</ele>
        <time>2012-01-15T14:43:28Z</time>
      </trkpt>
      <trkpt lat="43.70052" lon="6.97879">
        <ele>418.1</ele>
        <time>2012-01-15T14:43:30Z</time>
      </trkpt>
      <trkpt lat="43.70055" lon="6.97888">
        <ele>418.2</ele>
        <time>2012-01-15T14:43:32Z</time>
      </trkpt>
      <trkpt lat="43.70057" lon="6.97896">
        <ele>418.2</ele>
        <time>2012-01-15T14:43:34Z</time>
      </trkpt>
      <trkpt lat="43.70059" lon="6.97904">
        <ele>418.7</ele>
        <time>2012-01-15T14:43:36Z</time>
      </trkpt>
      <trkpt lat="43.70061" lon="6.97912">
        <ele>419.2</ele>
        <time>2012-01-15T14:43:38Z</time>
      </trkpt>
      <trkpt lat="43.70063" lon="6.9792">
        <ele>418.6</ele>
        <time>2012-01-15T14:43:40Z</time>
      </trkpt>
      <trkpt lat="43.70064" lon="6.97929">
        <ele>418.7</ele>
        <time>2012-01-15T14:43:42Z</time>
      </trkpt>
      <trkpt lat="43.70066" lon="6.97937">
        <ele>418.6</ele>
        <time>2012-01-15T14:43:44Z</time>
      </trkpt>
      <trkpt lat="43.70068" lon="6.97946">
        <ele>418.3</ele>
        <time>2012-01-15T14:43:46Z</time>
      </trkpt>
      <trkpt lat="43.7007" lon="6.97956">
        <ele>418</ele>
        <time>2012-01-15T14:43:48Z</time>
      </trkpt>
      <trkpt lat="43.7007" lon="6.97968">
        <ele>418.1</ele>
        <time>2012-01-15T14:43:51Z</time>
      </trkpt>
      <trkpt lat="43.70072" lon="6.97979">
        <ele>419</ele>
        <time>2012-01-15T14:43:54Z</time>
      </trkpt>
      <trkpt lat="43.70073" lon="6.97987">
        <ele>418.4</ele>
        <time>2012-01-15T14:43:56Z</time>
      </trkpt>
      <trkpt lat="43.70074" lon="6.97996">
        <ele>418.2</ele>
        <time>2012-01-15T14:43:58Z</time>
      </trkpt>
      <trkpt lat="43.70075" lon="6.98007">
        <ele>418.1</ele>
        <time>2012-01-15T14:44:01Z</time>
      </trkpt>
      <trkpt lat="43.70075" lon="6.98016">
        <ele>417.8</ele>
        <time>2012-01-15T14:44:04Z</time>
      </trkpt>
      <trkpt lat="43.70077" lon="6.98028">
        <ele>418.5</ele>
        <time>2012-01-15T14:44:07Z</time>
      </trkpt>
      <trkpt lat="43.70078" lon="6.98037">
        <ele>418.9</ele>
        <time>2012-01-15T14:44:09Z</time>
      </trkpt>
      <trkpt lat="43.70079" lon="6.98046">
        <ele>418.3</ele>
        <time>2012-01-15T14:44:11Z</time>
      </trkpt>
      <trkpt lat="43.7008" lon="6.98055">
        <ele>417.6</ele>
        <time>2012-01-15T14:44:13Z</time>
      </trkpt>
      <trkpt lat="43.70081" lon="6.98063">
        <ele>418</ele>
        <time>2012-01-15T14:44:15Z</time>
      </trkpt>
      <trkpt lat="43.70082" lon="6.98075">
        <ele>418.3</ele>
        <time>2012-01-15T14:44:18Z</time>
      </trkpt>
      <trkpt lat="43.70083" lon="6.98087">
        <ele>418.1</ele>
        <time>2012-01-15T14:44:21Z</time>
      </trkpt>
      <trkpt lat="43.70083" lon="6.9809">
        <ele>418.2</ele>
        <time>2012-01-15T14:44:22Z</time>
      </trkpt>
      <trkpt lat="43.70083" lon="6.98106">
        <ele>418.7</ele>
        <time>2012-01-15T14:44:27Z</time>
      </trkpt>
      <trkpt lat="43.70081" lon="6.98118">
        <ele>418.7</ele>
        <time>2012-01-15T14:44:31Z</time>
      </trkpt>
      <trkpt lat="43.70081" lon="6.98127">
        <ele>417.8</ele>
        <time>2012-01-15T14:44:33Z</time>
      </trkpt>
      <trkpt lat="43.7008" lon="6.98137">
        <ele>416.6</ele>
        <time>2012-01-15T14:44:35Z</time>
      </trkpt>
      <trkpt lat="43.70079" lon="6.98145">
        <ele>416.8</ele>
        <time>2012-01-15T14:44:37Z</time>
      </trkpt>
      <trkpt lat="43.70077" lon="6.98154">
        <ele>416.9</ele>
        <time>2012-01-15T14:44:39Z</time>
      </trkpt>
      <trkpt lat="43.70075" lon="6.98166">
        <ele>417.3</ele>
        <time>2012-01-15T14:44:42Z</time>
      </trkpt>
      <trkpt lat="43.70075" lon="6.98175">
        <ele>417</ele>
        <time>2012-01-15T14:44:44Z</time>
      </trkpt>
      <trkpt lat="43.70076" lon="6.98186">
        <ele>417</ele>
        <time>2012-01-15T14:44:46Z</time>
      </trkpt>
      <trkpt lat="43.70077" lon="6.98195">
        <ele>417.2</ele>
        <time>2012-01-15T14:44:48Z</time>
      </trkpt>
      <trkpt lat="43.70079" lon="6.98205">
        <ele>417.4</ele>
        <time>2012-01-15T14:44:50Z</time>
      </trkpt>
      <trkpt lat="43.70081" lon="6.98213">
        <ele>417.5</ele>
        <time>2012-01-15T14:44:52Z</time>
      </trkpt>
      <trkpt lat="43.70085" lon="6.98224">
        <ele>417.5</ele>
        <time>2012-01-15T14:44:55Z</time>
      </trkpt>
      <trkpt lat="43.70088" lon="6.98233">
        <ele>417.7</ele>
        <time>2012-01-15T14:44:58Z</time>
      </trkpt>
      <trkpt lat="43.70091" lon="6.98241">
        <ele>418.3</ele>
        <time>2012-01-15T14:45:01Z</time>
      </trkpt>
      <trkpt lat="43.70093" lon="6.98254">
        <ele>418.6</ele>
        <time>2012-01-15T14:45:12Z</time>
      </trkpt>
      <trkpt lat="43.70095" lon="6.98265">
        <ele>418.7</ele>
        <time>2012-01-15T14:46:27Z</time>
      </trkpt>
      <trkpt lat="43.70096" lon="6.98269">
        <ele>419.1</ele>
        <time>2012-01-15T14:46:28Z</time>
      </trkpt>
      <trkpt lat="43.701" lon="6.98287">
        <ele>419.1</ele>
        <time>2012-01-15T14:46:33Z</time>
      </trkpt>
      <trkpt lat="43.70102" lon="6.98296">
        <ele>419.1</ele>
        <time>2012-01-15T14:46:36Z</time>
      </trkpt>
      <trkpt lat="43.70103" lon="6.98306">
        <ele>419.3</ele>
        <time>2012-01-15T14:46:39Z</time>
      </trkpt>
      <trkpt lat="43.70105" lon="6.98318">
        <ele>419.7</ele>
        <time>2012-01-15T14:46:42Z</time>
      </trkpt>
      <trkpt lat="43.70107" lon="6.98328">
        <ele>419.1</ele>
        <time>2012-01-15T14:46:45Z</time>
      </trkpt>
      <trkpt lat="43.70108" lon="6.98336">
        <ele>419.7</ele>
        <time>2012-01-15T14:46:47Z</time>
      </trkpt>
      <trkpt lat="43.7011" lon="6.98345">
        <ele>419.7</ele>
        <time>2012-01-15T14:46:49Z</time>
      </trkpt>
      <trkpt lat="43.7011" lon="6.98355">
        <ele>419.7</ele>
        <time>2012-01-15T14:46:51Z</time>
      </trkpt>
      <trkpt lat="43.70111" lon="6.98365">
        <ele>419.8</ele>
        <time>2012-01-15T14:46:53Z</time>
      </trkpt>
      <trkpt lat="43.7011" lon="6.98374">
        <ele>419.8</ele>
        <time>2012-01-15T14:46:55Z</time>
      </trkpt>
      <trkpt lat="43.7011" lon="6.98384">
        <ele>419.6</ele>
        <time>2012-01-15T14:46:57Z</time>
      </trkpt>
      <trkpt lat="43.70113" lon="6.98393">
        <ele>419.9</ele>
        <time>2012-01-15T14:46:59Z</time>
      </trkpt>
      <trkpt lat="43.70117" lon="6.98404">
        <ele>419.9</ele>
        <time>2012-01-15T14:47:02Z</time>
      </trkpt>
      <trkpt lat="43.7012" lon="6.98411">
        <ele>419.6</ele>
        <time>2012-01-15T14:47:04Z</time>
      </trkpt>
      <trkpt lat="43.70125" lon="6.98421">
        <ele>419.5</ele>
        <time>2012-01-15T14:47:07Z</time>
      </trkpt>
      <trkpt lat="43.7013" lon="6.98431">
        <ele>420.1</ele>
        <time>2012-01-15T14:47:10Z</time>
      </trkpt>
      <trkpt lat="43.70134" lon="6.98442">
        <ele>420</ele>
        <time>2012-01-15T14:47:13Z</time>
      </trkpt>
      <trkpt lat="43.70139" lon="6.98451">
        <ele>419.4</ele>
        <time>2012-01-15T14:47:16Z</time>
      </trkpt>
      <trkpt lat="43.70145" lon="6.98456">
        <ele>419.2</ele>
        <time>2012-01-15T14:47:18Z</time>
      </trkpt>
      <trkpt lat="43.7015" lon="6.98461">
        <ele>419.2</ele>
        <time>2012-01-15T14:47:20Z</time>
      </trkpt>
      <trkpt lat="43.70156" lon="6.98466">
        <ele>419.4</ele>
        <time>2012-01-15T14:47:22Z</time>
      </trkpt>
      <trkpt lat="43.70161" lon="6.98473">
        <ele>419.8</ele>
        <time>2012-01-15T14:47:24Z</time>
      </trkpt>
      <trkpt lat="43.70166" lon="6.98479">
        <ele>419.7</ele>
        <time>2012-01-15T14:47:26Z</time>
      </trkpt>
      <trkpt lat="43.70173" lon="6.98487">
        <ele>419.2</ele>
        <time>2012-01-15T14:47:29Z</time>
      </trkpt>
      <trkpt lat="43.70175" lon="6.9849">
        <ele>419.1</ele>
        <time>2012-01-15T14:47:30Z</time>
      </trkpt>
      <trkpt lat="43.70183" lon="6.98502">
        <ele>419.3</ele>
        <time>2012-01-15T14:47:33Z</time>
      </trkpt>
      <trkpt lat="43.70187" lon="6.98509">
        <ele>419.3</ele>
        <time>2012-01-15T14:47:35Z</time>
      </trkpt>
      <trkpt lat="43.70193" lon="6.98518">
        <ele>419.6</ele>
        <time>2012-01-15T14:47:38Z</time>
      </trkpt>
      <trkpt lat="43.70197" lon="6.98525">
        <ele>419.7</ele>
        <time>2012-01-15T14:47:40Z</time>
      </trkpt>
      <trkpt lat="43.702" lon="6.98533">
        <ele>419.8</ele>
        <time>2012-01-15T14:47:42Z</time>
      </trkpt>
      <trkpt lat="43.70205" lon="6.98544">
        <ele>419.9</ele>
        <time>2012-01-15T14:47:45Z</time>
      </trkpt>
      <trkpt lat="43.70207" lon="6.98552">
        <ele>420.5</ele>
        <time>2012-01-15T14:47:47Z</time>
      </trkpt>
      <trkpt lat="43.7021" lon="6.98561">
        <ele>420.7</ele>
        <time>2012-01-15T14:47:49Z</time>
      </trkpt>
      <trkpt lat="43.70215" lon="6.98566">
        <ele>420.5</ele>
        <time>2012-01-15T14:47:51Z</time>
      </trkpt>
      <trkpt lat="43.70221" lon="6.98572">
        <ele>420.6</ele>
        <time>2012-01-15T14:47:54Z</time>
      </trkpt>
      <trkpt lat="43.70228" lon="6.98577">
        <ele>420.7</ele>
        <time>2012-01-15T14:47:57Z</time>
      </trkpt>
      <trkpt lat="43.70235" lon="6.9858">
        <ele>420.1</ele>
        <time>2012-01-15T14:47:59Z</time>
      </trkpt>
      <trkpt lat="43.70241" lon="6.98583">
        <ele>420.4</ele>
        <time>2012-01-15T14:48:01Z</time>
      </trkpt>
      <trkpt lat="43.70247" lon="6.98587">
        <ele>420.9</ele>
        <time>2012-01-15T14:48:03Z</time>
      </trkpt>
      <trkpt lat="43.70254" lon="6.98591">
        <ele>421.3</ele>
        <time>2012-01-15T14:48:05Z</time>
      </trkpt>
      <trkpt lat="43.70261" lon="6.9859">
        <ele>421.1</ele>
        <time>2012-01-15T14:48:07Z</time>
      </trkpt>
      <trkpt lat="43.70267" lon="6.98588">
        <ele>420.8</ele>
        <time>2012-01-15T14:48:09Z</time>
      </trkpt>
      <trkpt lat="43.70274" lon="6.98588">
        <ele>420.7</ele>
        <time>2012-01-15T14:48:11Z</time>
      </trkpt>
      <trkpt lat="43.70281" lon="6.98589">
        <ele>420</ele>
        <time>2012-01-15T14:48:13Z</time>
      </trkpt>
      <trkpt lat="43.70288" lon="6.98591">
        <ele>420</ele>
        <time>2012-01-15T14:48:15Z</time>
      </trkpt>
      <trkpt lat="43.70295" lon="6.98592">
        <ele>420.4</ele>
        <time>2012-01-15T14:48:17Z</time>
      </trkpt>
      <trkpt lat="43.70301" lon="6.98593">
        <ele>420.6</ele>
        <time>2012-01-15T14:48:19Z</time>
      </trkpt>
      <trkpt lat="43.70308" lon="6.98594">
        <ele>420.8</ele>
        <time>2012-01-15T14:48:21Z</time>
      </trkpt>
      <trkpt lat="43.70315" lon="6.98594">
        <ele>421</ele>
        <time>2012-01-15T14:48:23Z</time>
      </trkpt>
      <trkpt lat="43.70323" lon="6.98595">
        <ele>420.7</ele>
        <time>2012-01-15T14:48:25Z</time>
      </trkpt>
      <trkpt lat="43.7033" lon="6.98594">
        <ele>420.1</ele>
        <time>2012-01-15T14:48:27Z</time>
      </trkpt>
      <trkpt lat="43.70339" lon="6.98594">
        <ele>420.3</ele>
        <time>2012-01-15T14:48:30Z</time>
      </trkpt>
      <trkpt lat="43.70342" lon="6.98593">
        <ele>420.4</ele>
        <time>2012-01-15T14:48:31Z</time>
      </trkpt>
      <trkpt lat="43.70353" lon="6.98594">
        <ele>420.5</ele>
        <time>2012-01-15T14:48:34Z</time>
      </trkpt>
      <trkpt lat="43.70359" lon="6.98593">
        <ele>421</ele>
        <time>2012-01-15T14:48:36Z</time>
      </trkpt>
      <trkpt lat="43.70367" lon="6.98588">
        <ele>420.3</ele>
        <time>2012-01-15T14:48:39Z</time>
      </trkpt>
      <trkpt lat="43.70372" lon="6.98579">
        <ele>419.7</ele>
        <time>2012-01-15T14:48:42Z</time>
      </trkpt>
      <trkpt lat="43.70379" lon="6.98572">
        <ele>420</ele>
        <time>2012-01-15T14:48:45Z</time>
      </trkpt>
      <trkpt lat="43.70385" lon="6.98563">
        <ele>420.2</ele>
        <time>2012-01-15T14:48:48Z</time>
      </trkpt>
      <trkpt lat="43.7039" lon="6.98554">
        <ele>420.9</ele>
        <time>2012-01-15T14:48:52Z</time>
      </trkpt>
      <trkpt lat="43.70398" lon="6.98551">
        <ele>421.1</ele>
        <time>2012-01-15T14:49:11Z</time>
      </trkpt>
      <trkpt lat="43.70404" lon="6.98557">
        <ele>420.8</ele>
        <time>2012-01-15T14:49:21Z</time>
      </trkpt>
      <trkpt lat="43.70407" lon="6.98565">
        <ele>419.1</ele>
        <time>2012-01-15T14:49:24Z</time>
      </trkpt>
      <trkpt lat="43.7041" lon="6.98573">
        <ele>417.6</ele>
        <time>2012-01-15T14:49:26Z</time>
      </trkpt>
      <trkpt lat="43.70413" lon="6.98582">
        <ele>415.7</ele>
        <time>2012-01-15T14:49:28Z</time>
      </trkpt>
      <trkpt lat="43.70419" lon="6.98591">
        <ele>412.5</ele>
        <time>2012-01-15T14:49:31Z</time>
      </trkpt>
      <trkpt lat="43.70422" lon="6.98594">
        <ele>411.2</ele>
        <time>2012-01-15T14:49:32Z</time>
      </trkpt>
      <trkpt lat="43.70431" lon="6.98603">
        <ele>408.4</ele>
        <time>2012-01-15T14:49:35Z</time>
      </trkpt>
      <trkpt lat="43.70434" lon="6.98608">
        <ele>407.5</ele>
        <time>2012-01-15T14:49:36Z</time>
      </trkpt>
      <trkpt lat="43.70439" lon="6.98618">
        <ele>404.7</ele>
        <time>2012-01-15T14:49:38Z</time>
      </trkpt>
      <trkpt lat="43.70444" lon="6.98626">
        <ele>403.1</ele>
        <time>2012-01-15T14:49:40Z</time>
      </trkpt>
      <trkpt lat="43.70451" lon="6.98632">
        <ele>398.6</ele>
        <time>2012-01-15T14:49:47Z</time>
      </trkpt>
      <trkpt lat="43.70457" lon="6.9864">
        <ele>398.4</ele>
        <time>2012-01-15T14:49:59Z</time>
      </trkpt>
      <trkpt lat="43.70461" lon="6.9865">
        <ele>397.9</ele>
        <time>2012-01-15T14:50:03Z</time>
      </trkpt>
      <trkpt lat="43.70469" lon="6.98655">
        <ele>397.3</ele>
        <time>2012-01-15T14:50:06Z</time>
      </trkpt>
      <trkpt lat="43.70475" lon="6.98658">
        <ele>397.2</ele>
        <time>2012-01-15T14:50:08Z</time>
      </trkpt>
      <trkpt lat="43.70483" lon="6.98662">
        <ele>396.5</ele>
        <time>2012-01-15T14:50:10Z</time>
      </trkpt>
      <trkpt lat="43.7049" lon="6.98667">
        <ele>395.5</ele>
        <time>2012-01-15T14:50:12Z</time>
      </trkpt>
      <trkpt lat="43.70496" lon="6.98674">
        <ele>393.8</ele>
        <time>2012-01-15T14:50:14Z</time>
      </trkpt>
      <trkpt lat="43.70498" lon="6.98681">
        <ele>391.9</ele>
        <time>2012-01-15T14:50:16Z</time>
      </trkpt>
      <trkpt lat="43.70501" lon="6.98689">
        <ele>389.9</ele>
        <time>2012-01-15T14:50:18Z</time>
      </trkpt>
      <trkpt lat="43.70509" lon="6.98695">
        <ele>386.1</ele>
        <time>2012-01-15T14:50:21Z</time>
      </trkpt>
      <trkpt lat="43.70514" lon="6.98705">
        <ele>381.5</ele>
        <time>2012-01-15T14:50:24Z</time>
      </trkpt>
      <trkpt lat="43.70518" lon="6.98712">
        <ele>378.9</ele>
        <time>2012-01-15T14:50:26Z</time>
      </trkpt>
      <trkpt lat="43.70522" lon="6.9872">
        <ele>376.2</ele>
        <time>2012-01-15T14:50:28Z</time>
      </trkpt>
      <trkpt lat="43.70525" lon="6.98727">
        <ele>373.1</ele>
        <time>2012-01-15T14:50:30Z</time>
      </trkpt>
      <trkpt lat="43.7053" lon="6.98735">
        <ele>369.2</ele>
        <time>2012-01-15T14:50:33Z</time>
      </trkpt>
      <trkpt lat="43.70532" lon="6.98738">
        <ele>367.6</ele>
        <time>2012-01-15T14:50:34Z</time>
      </trkpt>
      <trkpt lat="43.70539" lon="6.98753">
        <ele>362</ele>
        <time>2012-01-15T14:50:39Z</time>
      </trkpt>
      <trkpt lat="43.70541" lon="6.98764">
        <ele>360.1</ele>
        <time>2012-01-15T14:50:41Z</time>
      </trkpt>
      <trkpt lat="43.70544" lon="6.98774">
        <ele>357.7</ele>
        <time>2012-01-15T14:50:43Z</time>
      </trkpt>
      <trkpt lat="43.70547" lon="6.98785">
        <ele>355.5</ele>
        <time>2012-01-15T14:50:45Z</time>
      </trkpt>
      <trkpt lat="43.70549" lon="6.98795">
        <ele>352.9</ele>
        <time>2012-01-15T14:50:47Z</time>
      </trkpt>
      <trkpt lat="43.70551" lon="6.98805">
        <ele>350.5</ele>
        <time>2012-01-15T14:50:50Z</time>
      </trkpt>
      <trkpt lat="43.70557" lon="6.98812">
        <ele>346</ele>
        <time>2012-01-15T14:50:59Z</time>
      </trkpt>
      <trkpt lat="43.7056" lon="6.98824">
        <ele>345</ele>
        <time>2012-01-15T14:51:10Z</time>
      </trkpt>
      <trkpt lat="43.70564" lon="6.98835">
        <ele>343.2</ele>
        <time>2012-01-15T14:51:46Z</time>
      </trkpt>
      <trkpt lat="43.70564" lon="6.98836">
        <ele>343.4</ele>
        <time>2012-01-15T14:51:47Z</time>
      </trkpt>
      <trkpt lat="43.70562" lon="6.98856">
        <ele>341</ele>
        <time>2012-01-15T14:51:53Z</time>
      </trkpt>
      <trkpt lat="43.70557" lon="6.98861">
        <ele>338.8</ele>
        <time>2012-01-15T14:51:56Z</time>
      </trkpt>
      <trkpt lat="43.70549" lon="6.9886">
        <ele>337.5</ele>
        <time>2012-01-15T14:51:58Z</time>
      </trkpt>
      <trkpt lat="43.70544" lon="6.98859">
        <ele>336.4</ele>
        <time>2012-01-15T14:51:59Z</time>
      </trkpt>
      <trkpt lat="43.7054" lon="6.98858">
        <ele>335.5</ele>
        <time>2012-01-15T14:52:00Z</time>
      </trkpt>
      <trkpt lat="43.70535" lon="6.98856">
        <ele>334.8</ele>
        <time>2012-01-15T14:52:01Z</time>
      </trkpt>
      <trkpt lat="43.70529" lon="6.98854">
        <ele>334.2</ele>
        <time>2012-01-15T14:52:02Z</time>
      </trkpt>
      <trkpt lat="43.70524" lon="6.98852">
        <ele>333.7</ele>
        <time>2012-01-15T14:52:03Z</time>
      </trkpt>
      <trkpt lat="43.70518" lon="6.9885">
        <ele>332.6</ele>
        <time>2012-01-15T14:52:04Z</time>
      </trkpt>
      <trkpt lat="43.70512" lon="6.98848">
        <ele>331.9</ele>
        <time>2012-01-15T14:52:05Z</time>
      </trkpt>
      <trkpt lat="43.70507" lon="6.98846">
        <ele>331.3</ele>
        <time>2012-01-15T14:52:06Z</time>
      </trkpt>
      <trkpt lat="43.70501" lon="6.98845">
        <ele>331.1</ele>
        <time>2012-01-15T14:52:07Z</time>
      </trkpt>
      <trkpt lat="43.70495" lon="6.98844">
        <ele>330.9</ele>
        <time>2012-01-15T14:52:08Z</time>
      </trkpt>
      <trkpt lat="43.7049" lon="6.98844">
        <ele>330.7</ele>
        <time>2012-01-15T14:52:09Z</time>
      </trkpt>
      <trkpt lat="43.70484" lon="6.98844">
        <ele>330.6</ele>
        <time>2012-01-15T14:52:10Z</time>
      </trkpt>
      <trkpt lat="43.70478" lon="6.98845">
        <ele>330.3</ele>
        <time>2012-01-15T14:52:11Z</time>
      </trkpt>
      <trkpt lat="43.70472" lon="6.98846">
        <ele>330.1</ele>
        <time>2012-01-15T14:52:12Z</time>
      </trkpt>
      <trkpt lat="43.70465" lon="6.98848">
        <ele>329.9</ele>
        <time>2012-01-15T14:52:13Z</time>
      </trkpt>
      <trkpt lat="43.70459" lon="6.9885">
        <ele>329.5</ele>
        <time>2012-01-15T14:52:14Z</time>
      </trkpt>
      <trkpt lat="43.70453" lon="6.98851">
        <ele>329.1</ele>
        <time>2012-01-15T14:52:15Z</time>
      </trkpt>
      <trkpt lat="43.70446" lon="6.98854">
        <ele>328.4</ele>
        <time>2012-01-15T14:52:16Z</time>
      </trkpt>
      <trkpt lat="43.7044" lon="6.98856">
        <ele>327.8</ele>
        <time>2012-01-15T14:52:17Z</time>
      </trkpt>
      <trkpt lat="43.70433" lon="6.98857">
        <ele>327.4</ele>
        <time>2012-01-15T14:52:18Z</time>
      </trkpt>
      <trkpt lat="43.70426" lon="6.98858">
        <ele>327.2</ele>
        <time>2012-01-15T14:52:19Z</time>
      </trkpt>
      <trkpt lat="43.70419" lon="6.98858">
        <ele>327</ele>
        <time>2012-01-15T14:52:20Z</time>
      </trkpt>
      <trkpt lat="43.70412" lon="6.98857">
        <ele>326.5</ele>
        <time>2012-01-15T14:52:21Z</time>
      </trkpt>
      <trkpt lat="43.70406" lon="6.98855">
        <ele>326.1</ele>
        <time>2012-01-15T14:52:22Z</time>
      </trkpt>
      <trkpt lat="43.70399" lon="6.98854">
        <ele>325.8</ele>
        <time>2012-01-15T14:52:23Z</time>
      </trkpt>
      <trkpt lat="43.70393" lon="6.98853">
        <ele>325.5</ele>
        <time>2012-01-15T14:52:24Z</time>
      </trkpt>
      <trkpt lat="43.70387" lon="6.98852">
        <ele>325.3</ele>
        <time>2012-01-15T14:52:25Z</time>
      </trkpt>
      <trkpt lat="43.70381" lon="6.98852">
        <ele>325.5</ele>
        <time>2012-01-15T14:52:26Z</time>
      </trkpt>
      <trkpt lat="43.70375" lon="6.98853">
        <ele>325.5</ele>
        <time>2012-01-15T14:52:27Z</time>
      </trkpt>
      <trkpt lat="43.70369" lon="6.98854">
        <ele>325.2</ele>
        <time>2012-01-15T14:52:28Z</time>
      </trkpt>
      <trkpt lat="43.70363" lon="6.98855">
        <ele>325</ele>
        <time>2012-01-15T14:52:29Z</time>
      </trkpt>
      <trkpt lat="43.70357" lon="6.98856">
        <ele>324.9</ele>
        <time>2012-01-15T14:52:30Z</time>
      </trkpt>
      <trkpt lat="43.70352" lon="6.98857">
        <ele>324.9</ele>
        <time>2012-01-15T14:52:31Z</time>
      </trkpt>
      <trkpt lat="43.70346" lon="6.98858">
        <ele>324.8</ele>
        <time>2012-01-15T14:52:32Z</time>
      </trkpt>
      <trkpt lat="43.70341" lon="6.98859">
        <ele>324.5</ele>
        <time>2012-01-15T14:52:33Z</time>
      </trkpt>
      <trkpt lat="43.70335" lon="6.98859">
        <ele>324.3</ele>
        <time>2012-01-15T14:52:34Z</time>
      </trkpt>
      <trkpt lat="43.7033" lon="6.9886">
        <ele>324</ele>
        <time>2012-01-15T14:52:35Z</time>
      </trkpt>
      <trkpt lat="43.70325" lon="6.98861">
        <ele>323.9</ele>
        <time>2012-01-15T14:52:36Z</time>
      </trkpt>
      <trkpt lat="43.70317" lon="6.98863">
        <ele>324.1</ele>
        <time>2012-01-15T14:52:38Z</time>
      </trkpt>
      <trkpt lat="43.70309" lon="6.98864">
        <ele>324.7</ele>
        <time>2012-01-15T14:52:40Z</time>
      </trkpt>
      <trkpt lat="43.70303" lon="6.98865">
        <ele>325.4</ele>
        <time>2012-01-15T14:52:42Z</time>
      </trkpt>
      <trkpt lat="43.70296" lon="6.98866">
        <ele>325.7</ele>
        <time>2012-01-15T14:52:44Z</time>
      </trkpt>
      <trkpt lat="43.70289" lon="6.98867">
        <ele>325.8</ele>
        <time>2012-01-15T14:52:46Z</time>
      </trkpt>
      <trkpt lat="43.70283" lon="6.98869">
        <ele>325.9</ele>
        <time>2012-01-15T14:52:48Z</time>
      </trkpt>
      <trkpt lat="43.70279" lon="6.9887">
        <ele>326.2</ele>
        <time>2012-01-15T14:52:49Z</time>
      </trkpt>
      <trkpt lat="43.70265" lon="6.98871">
        <ele>326.4</ele>
        <time>2012-01-15T14:52:52Z</time>
      </trkpt>
      <trkpt lat="43.70258" lon="6.98867">
        <ele>326.4</ele>
        <time>2012-01-15T14:52:54Z</time>
      </trkpt>
      <trkpt lat="43.70252" lon="6.98862">
        <ele>326.8</ele>
        <time>2012-01-15T14:52:56Z</time>
      </trkpt>
      <trkpt lat="43.70246" lon="6.98857">
        <ele>327.2</ele>
        <time>2012-01-15T14:52:58Z</time>
      </trkpt>
      <trkpt lat="43.70239" lon="6.98853">
        <ele>326.9</ele>
        <time>2012-01-15T14:53:00Z</time>
      </trkpt>
      <trkpt lat="43.70232" lon="6.98851">
        <ele>326.7</ele>
        <time>2012-01-15T14:53:02Z</time>
      </trkpt>
      <trkpt lat="43.70224" lon="6.98853">
        <ele>326.5</ele>
        <time>2012-01-15T14:53:04Z</time>
      </trkpt>
      <trkpt lat="43.70217" lon="6.98857">
        <ele>326.3</ele>
        <time>2012-01-15T14:53:06Z</time>
      </trkpt>
      <trkpt lat="43.7021" lon="6.9886">
        <ele>326</ele>
        <time>2012-01-15T14:53:08Z</time>
      </trkpt>
      <trkpt lat="43.70201" lon="6.98858">
        <ele>325.6</ele>
        <time>2012-01-15T14:53:11Z</time>
      </trkpt>
      <trkpt lat="43.70192" lon="6.98857">
        <ele>325.6</ele>
        <time>2012-01-15T14:53:14Z</time>
      </trkpt>
      <trkpt lat="43.70184" lon="6.98861">
        <ele>326.4</ele>
        <time>2012-01-15T14:53:17Z</time>
      </trkpt>
      <trkpt lat="43.70179" lon="6.9887">
        <ele>327.8</ele>
        <time>2012-01-15T14:53:20Z</time>
      </trkpt>
      <trkpt lat="43.70175" lon="6.98881">
        <ele>328.8</ele>
        <time>2012-01-15T14:53:23Z</time>
      </trkpt>
      <trkpt lat="43.70174" lon="6.98891">
        <ele>329.5</ele>
        <time>2012-01-15T14:53:26Z</time>
      </trkpt>
      <trkpt lat="43.70172" lon="6.98901">
        <ele>330.4</ele>
        <time>2012-01-15T14:53:29Z</time>
      </trkpt>
      <trkpt lat="43.7017" lon="6.98911">
        <ele>331.6</ele>
        <time>2012-01-15T14:53:32Z</time>
      </trkpt>
      <trkpt lat="43.70165" lon="6.98918">
        <ele>333.1</ele>
        <time>2012-01-15T14:53:37Z</time>
      </trkpt>
      <trkpt lat="43.70156" lon="6.98917">
        <ele>333.3</ele>
        <time>2012-01-15T14:53:40Z</time>
      </trkpt>
      <trkpt lat="43.70148" lon="6.98916">
        <ele>333</ele>
        <time>2012-01-15T14:53:43Z</time>
      </trkpt>
      <trkpt lat="43.7014" lon="6.98917">
        <ele>334.3</ele>
        <time>2012-01-15T14:53:47Z</time>
      </trkpt>
      <trkpt lat="43.70133" lon="6.98924">
        <ele>335.1</ele>
        <time>2012-01-15T14:53:53Z</time>
      </trkpt>
      <trkpt lat="43.70132" lon="6.98924">
        <ele>334.7</ele>
        <time>2012-01-15T14:53:54Z</time>
      </trkpt>
      <trkpt lat="43.70134" lon="6.989">
        <ele>335.4</ele>
        <time>2012-01-15T14:54:34Z</time>
      </trkpt>
      <trkpt lat="43.70139" lon="6.9889">
        <ele>335.4</ele>
        <time>2012-01-15T14:54:56Z</time>
      </trkpt>
      <trkpt lat="43.70139" lon="6.9889">
        <ele>335.4</ele>
        <time>2012-01-15T14:54:57Z</time>
      </trkpt>
      <trkpt lat="43.70139" lon="6.98913">
        <ele>334.9</ele>
        <time>2012-01-15T14:55:20Z</time>
      </trkpt>
      <trkpt lat="43.70136" lon="6.98924">
        <ele>335.5</ele>
        <time>2012-01-15T14:55:31Z</time>
      </trkpt>
      <trkpt lat="43.70145" lon="6.98922">
        <ele>335.9</ele>
        <time>2012-01-15T15:02:00Z</time>
      </trkpt>
      <trkpt lat="43.70145" lon="6.98922">
        <ele>335.9</ele>
        <time>2012-01-15T15:02:01Z</time>
      </trkpt>
      <trkpt lat="43.70136" lon="6.98927">
        <ele>336</ele>
        <time>2012-01-15T15:03:44Z</time>
      </trkpt>
      <trkpt lat="43.70145" lon="6.98928">
        <ele>335.2</ele>
        <time>2012-01-15T15:11:47Z</time>
      </trkpt>
      <trkpt lat="43.70136" lon="6.98922">
        <ele>335.5</ele>
        <time>2012-01-15T15:16:25Z</time>
      </trkpt>
      <trkpt lat="43.70133" lon="6.98905">
        <ele>335.3</ele>
        <time>2012-01-15T15:16:31Z</time>
      </trkpt>
      <trkpt lat="43.70129" lon="6.98894">
        <ele>334.5</ele>
        <time>2012-01-15T15:16:34Z</time>
      </trkpt>
      <trkpt lat="43.70126" lon="6.98886">
        <ele>334</ele>
        <time>2012-01-15T15:16:36Z</time>
      </trkpt>
      <trkpt lat="43.70123" lon="6.98877">
        <ele>333.3</ele>
        <time>2012-01-15T15:16:38Z</time>
      </trkpt>
      <trkpt lat="43.70118" lon="6.98868">
        <ele>332.6</ele>
        <time>2012-01-15T15:16:40Z</time>
      </trkpt>
      <trkpt lat="43.70115" lon="6.98863">
        <ele>332.3</ele>
        <time>2012-01-15T15:16:41Z</time>
      </trkpt>
      <trkpt lat="43.70112" lon="6.98858">
        <ele>332.1</ele>
        <time>2012-01-15T15:16:42Z</time>
      </trkpt>
      <trkpt lat="43.70109" lon="6.98853">
        <ele>331.8</ele>
        <time>2012-01-15T15:16:43Z</time>
      </trkpt>
      <trkpt lat="43.70105" lon="6.98849">
        <ele>331.5</ele>
        <time>2012-01-15T15:16:44Z</time>
      </trkpt>
      <trkpt lat="43.70101" lon="6.98845">
        <ele>331.1</ele>
        <time>2012-01-15T15:16:45Z</time>
      </trkpt>
      <trkpt lat="43.70098" lon="6.9884">
        <ele>330.9</ele>
        <time>2012-01-15T15:16:46Z</time>
      </trkpt>
      <trkpt lat="43.70095" lon="6.98835">
        <ele>330.7</ele>
        <time>2012-01-15T15:16:47Z</time>
      </trkpt>
      <trkpt lat="43.70092" lon="6.98829">
        <ele>330.6</ele>
        <time>2012-01-15T15:16:48Z</time>
      </trkpt>
      <trkpt lat="43.70089" lon="6.98824">
        <ele>330.5</ele>
        <time>2012-01-15T15:16:49Z</time>
      </trkpt>
      <trkpt lat="43.70086" lon="6.98818">
        <ele>330</ele>
        <time>2012-01-15T15:16:50Z</time>
      </trkpt>
      <trkpt lat="43.70084" lon="6.98813">
        <ele>329.7</ele>
        <time>2012-01-15T15:16:51Z</time>
      </trkpt>
      <trkpt lat="43.70081" lon="6.98808">
        <ele>329.3</ele>
        <time>2012-01-15T15:16:52Z</time>
      </trkpt>
      <trkpt lat="43.70079" lon="6.98803">
        <ele>329</ele>
        <time>2012-01-15T15:16:53Z</time>
      </trkpt>
      <trkpt lat="43.70076" lon="6.98797">
        <ele>328.8</ele>
        <time>2012-01-15T15:16:54Z</time>
      </trkpt>
      <trkpt lat="43.70072" lon="6.98792">
        <ele>328.6</ele>
        <time>2012-01-15T15:16:55Z</time>
      </trkpt>
      <trkpt lat="43.70066" lon="6.98784">
        <ele>328.3</ele>
        <time>2012-01-15T15:16:57Z</time>
      </trkpt>
      <trkpt lat="43.70059" lon="6.98776">
        <ele>328.3</ele>
        <time>2012-01-15T15:16:59Z</time>
      </trkpt>
      <trkpt lat="43.70053" lon="6.98768">
        <ele>328.4</ele>
        <time>2012-01-15T15:17:01Z</time>
      </trkpt>
      <trkpt lat="43.70046" lon="6.98761">
        <ele>328</ele>
        <time>2012-01-15T15:17:03Z</time>
      </trkpt>
      <trkpt lat="43.7004" lon="6.98754">
        <ele>327.6</ele>
        <time>2012-01-15T15:17:05Z</time>
      </trkpt>
      <trkpt lat="43.70035" lon="6.98747">
        <ele>328.2</ele>
        <time>2012-01-15T15:17:07Z</time>
      </trkpt>
      <trkpt lat="43.7003" lon="6.9874">
        <ele>327.9</ele>
        <time>2012-01-15T15:17:09Z</time>
      </trkpt>
      <trkpt lat="43.70026" lon="6.98732">
        <ele>327.6</ele>
        <time>2012-01-15T15:17:11Z</time>
      </trkpt>
      <trkpt lat="43.70023" lon="6.98723">
        <ele>327.6</ele>
        <time>2012-01-15T15:17:13Z</time>
      </trkpt>
      <trkpt lat="43.70019" lon="6.98715">
        <ele>327.5</ele>
        <time>2012-01-15T15:17:15Z</time>
      </trkpt>
      <trkpt lat="43.70015" lon="6.98706">
        <ele>327.3</ele>
        <time>2012-01-15T15:17:17Z</time>
      </trkpt>
      <trkpt lat="43.70011" lon="6.98698">
        <ele>327.5</ele>
        <time>2012-01-15T15:17:19Z</time>
      </trkpt>
      <trkpt lat="43.70006" lon="6.9869">
        <ele>327.6</ele>
        <time>2012-01-15T15:17:21Z</time>
      </trkpt>
      <trkpt lat="43.70002" lon="6.98681">
        <ele>327.2</ele>
        <time>2012-01-15T15:17:23Z</time>
      </trkpt>
      <trkpt lat="43.69998" lon="6.98673">
        <ele>326.7</ele>
        <time>2012-01-15T15:17:25Z</time>
      </trkpt>
      <trkpt lat="43.69994" lon="6.98664">
        <ele>326.4</ele>
        <time>2012-01-15T15:17:27Z</time>
      </trkpt>
      <trkpt lat="43.69991" lon="6.9866">
        <ele>326.5</ele>
        <time>2012-01-15T15:17:28Z</time>
      </trkpt>
      <trkpt lat="43.69984" lon="6.98648">
        <ele>326.4</ele>
        <time>2012-01-15T15:17:31Z</time>
      </trkpt>
      <trkpt lat="43.69977" lon="6.98642">
        <ele>326.1</ele>
        <time>2012-01-15T15:17:33Z</time>
      </trkpt>
      <trkpt lat="43.69971" lon="6.98635">
        <ele>325.9</ele>
        <time>2012-01-15T15:17:35Z</time>
      </trkpt>
      <trkpt lat="43.69964" lon="6.98629">
        <ele>325.9</ele>
        <time>2012-01-15T15:17:37Z</time>
      </trkpt>
      <trkpt lat="43.69958" lon="6.98622">
        <ele>326.2</ele>
        <time>2012-01-15T15:17:39Z</time>
      </trkpt>
      <trkpt lat="43.69952" lon="6.98615">
        <ele>325.7</ele>
        <time>2012-01-15T15:17:41Z</time>
      </trkpt>
      <trkpt lat="43.69946" lon="6.98608">
        <ele>326.5</ele>
        <time>2012-01-15T15:17:43Z</time>
      </trkpt>
      <trkpt lat="43.69939" lon="6.98601">
        <ele>325.9</ele>
        <time>2012-01-15T15:17:45Z</time>
      </trkpt>
      <trkpt lat="43.69932" lon="6.98595">
        <ele>325.6</ele>
        <time>2012-01-15T15:17:47Z</time>
      </trkpt>
      <trkpt lat="43.69926" lon="6.98588">
        <ele>325.2</ele>
        <time>2012-01-15T15:17:49Z</time>
      </trkpt>
      <trkpt lat="43.6992" lon="6.98581">
        <ele>324.8</ele>
        <time>2012-01-15T15:17:51Z</time>
      </trkpt>
      <trkpt lat="43.69913" lon="6.98574">
        <ele>324.6</ele>
        <time>2012-01-15T15:17:53Z</time>
      </trkpt>
      <trkpt lat="43.69907" lon="6.98567">
        <ele>324.9</ele>
        <time>2012-01-15T15:17:55Z</time>
      </trkpt>
      <trkpt lat="43.69901" lon="6.9856">
        <ele>325.6</ele>
        <time>2012-01-15T15:17:57Z</time>
      </trkpt>
      <trkpt lat="43.69895" lon="6.98553">
        <ele>325.3</ele>
        <time>2012-01-15T15:17:59Z</time>
      </trkpt>
      <trkpt lat="43.69889" lon="6.98546">
        <ele>325.5</ele>
        <time>2012-01-15T15:18:01Z</time>
      </trkpt>
      <trkpt lat="43.69884" lon="6.98539">
        <ele>325.3</ele>
        <time>2012-01-15T15:18:03Z</time>
      </trkpt>
      <trkpt lat="43.69879" lon="6.98532">
        <ele>324.7</ele>
        <time>2012-01-15T15:18:05Z</time>
      </trkpt>
      <trkpt lat="43.69874" lon="6.98524">
        <ele>325</ele>
        <time>2012-01-15T15:18:07Z</time>
      </trkpt>
      <trkpt lat="43.69869" lon="6.98517">
        <ele>325.2</ele>
        <time>2012-01-15T15:18:09Z</time>
      </trkpt>
      <trkpt lat="43.69863" lon="6.98509">
        <ele>325.7</ele>
        <time>2012-01-15T15:18:11Z</time>
      </trkpt>
      <trkpt lat="43.69858" lon="6.985">
        <ele>325.9</ele>
        <time>2012-01-15T15:18:13Z</time>
      </trkpt>
      <trkpt lat="43.69853" lon="6.98492">
        <ele>325.4</ele>
        <time>2012-01-15T15:18:15Z</time>
      </trkpt>
      <trkpt lat="43.69848" lon="6.98483">
        <ele>325</ele>
        <time>2012-01-15T15:18:17Z</time>
      </trkpt>
      <trkpt lat="43.69843" lon="6.98474">
        <ele>324.9</ele>
        <time>2012-01-15T15:18:19Z</time>
      </trkpt>
      <trkpt lat="43.69837" lon="6.98465">
        <ele>324.4</ele>
        <time>2012-01-15T15:18:21Z</time>
      </trkpt>
      <trkpt lat="43.69832" lon="6.98456">
        <ele>324.4</ele>
        <time>2012-01-15T15:18:23Z</time>
      </trkpt>
      <trkpt lat="43.69827" lon="6.98446">
        <ele>324.3</ele>
        <time>2012-01-15T15:18:25Z</time>
      </trkpt>
      <trkpt lat="43.69823" lon="6.98435">
        <ele>324.3</ele>
        <time>2012-01-15T15:18:27Z</time>
      </trkpt>
      <trkpt lat="43.69821" lon="6.9843">
        <ele>324.3</ele>
        <time>2012-01-15T15:18:28Z</time>
      </trkpt>
      <trkpt lat="43.69818" lon="6.98424">
        <ele>324.1</ele>
        <time>2012-01-15T15:18:29Z</time>
      </trkpt>
      <trkpt lat="43.69814" lon="6.98413">
        <ele>323.8</ele>
        <time>2012-01-15T15:18:31Z</time>
      </trkpt>
      <trkpt lat="43.69812" lon="6.98407">
        <ele>323.7</ele>
        <time>2012-01-15T15:18:32Z</time>
      </trkpt>
      <trkpt lat="43.6981" lon="6.98402">
        <ele>323.7</ele>
        <time>2012-01-15T15:18:33Z</time>
      </trkpt>
      <trkpt lat="43.69807" lon="6.98391">
        <ele>322.4</ele>
        <time>2012-01-15T15:18:35Z</time>
      </trkpt>
      <trkpt lat="43.69805" lon="6.98385">
        <ele>322.4</ele>
        <time>2012-01-15T15:18:36Z</time>
      </trkpt>
      <trkpt lat="43.69803" lon="6.98379">
        <ele>322.3</ele>
        <time>2012-01-15T15:18:37Z</time>
      </trkpt>
      <trkpt lat="43.698" lon="6.98367">
        <ele>322.4</ele>
        <time>2012-01-15T15:18:39Z</time>
      </trkpt>
      <trkpt lat="43.698" lon="6.98361">
        <ele>322.5</ele>
        <time>2012-01-15T15:18:40Z</time>
      </trkpt>
      <trkpt lat="43.69799" lon="6.98349">
        <ele>322.4</ele>
        <time>2012-01-15T15:18:42Z</time>
      </trkpt>
      <trkpt lat="43.69801" lon="6.98337">
        <ele>322.1</ele>
        <time>2012-01-15T15:18:44Z</time>
      </trkpt>
      <trkpt lat="43.69803" lon="6.98325">
        <ele>321.4</ele>
        <time>2012-01-15T15:18:46Z</time>
      </trkpt>
      <trkpt lat="43.69805" lon="6.98313">
        <ele>320.8</ele>
        <time>2012-01-15T15:18:48Z</time>
      </trkpt>
      <trkpt lat="43.69807" lon="6.98302">
        <ele>320.4</ele>
        <time>2012-01-15T15:18:50Z</time>
      </trkpt>
      <trkpt lat="43.6981" lon="6.98291">
        <ele>320.6</ele>
        <time>2012-01-15T15:18:52Z</time>
      </trkpt>
      <trkpt lat="43.69812" lon="6.98279">
        <ele>321.5</ele>
        <time>2012-01-15T15:18:54Z</time>
      </trkpt>
      <trkpt lat="43.69815" lon="6.98268">
        <ele>321.4</ele>
        <time>2012-01-15T15:18:56Z</time>
      </trkpt>
      <trkpt lat="43.69817" lon="6.98256">
        <ele>321.4</ele>
        <time>2012-01-15T15:18:58Z</time>
      </trkpt>
      <trkpt lat="43.69819" lon="6.9825">
        <ele>321.4</ele>
        <time>2012-01-15T15:18:59Z</time>
      </trkpt>
      <trkpt lat="43.6982" lon="6.98244">
        <ele>321</ele>
        <time>2012-01-15T15:19:00Z</time>
      </trkpt>
      <trkpt lat="43.69823" lon="6.98233">
        <ele>320.5</ele>
        <time>2012-01-15T15:19:02Z</time>
      </trkpt>
      <trkpt lat="43.69827" lon="6.98222">
        <ele>320.9</ele>
        <time>2012-01-15T15:19:04Z</time>
      </trkpt>
      <trkpt lat="43.6983" lon="6.9821">
        <ele>320.5</ele>
        <time>2012-01-15T15:19:06Z</time>
      </trkpt>
      <trkpt lat="43.69832" lon="6.98204">
        <ele>320.4</ele>
        <time>2012-01-15T15:19:07Z</time>
      </trkpt>
      <trkpt lat="43.69833" lon="6.98198">
        <ele>320.3</ele>
        <time>2012-01-15T15:19:08Z</time>
      </trkpt>
      <trkpt lat="43.69833" lon="6.98191">
        <ele>320.2</ele>
        <time>2012-01-15T15:19:09Z</time>
      </trkpt>
      <trkpt lat="43.69834" lon="6.98185">
        <ele>320.1</ele>
        <time>2012-01-15T15:19:10Z</time>
      </trkpt>
      <trkpt lat="43.69837" lon="6.98173">
        <ele>319.8</ele>
        <time>2012-01-15T15:19:12Z</time>
      </trkpt>
      <trkpt lat="43.69839" lon="6.98162">
        <ele>319.7</ele>
        <time>2012-01-15T15:19:14Z</time>
      </trkpt>
      <trkpt lat="43.69842" lon="6.98151">
        <ele>319.7</ele>
        <time>2012-01-15T15:19:16Z</time>
      </trkpt>
      <trkpt lat="43.69845" lon="6.9814">
        <ele>319.5</ele>
        <time>2012-01-15T15:19:18Z</time>
      </trkpt>
      <trkpt lat="43.69849" lon="6.98131">
        <ele>319.6</ele>
        <time>2012-01-15T15:19:20Z</time>
      </trkpt>
      <trkpt lat="43.69852" lon="6.98121">
        <ele>319.9</ele>
        <time>2012-01-15T15:19:22Z</time>
      </trkpt>
      <trkpt lat="43.69855" lon="6.98112">
        <ele>320.5</ele>
        <time>2012-01-15T15:19:24Z</time>
      </trkpt>
      <trkpt lat="43.69858" lon="6.98103">
        <ele>321</ele>
        <time>2012-01-15T15:19:26Z</time>
      </trkpt>
      <trkpt lat="43.6986" lon="6.98093">
        <ele>321.4</ele>
        <time>2012-01-15T15:19:28Z</time>
      </trkpt>
      <trkpt lat="43.69862" lon="6.98083">
        <ele>322.2</ele>
        <time>2012-01-15T15:19:30Z</time>
      </trkpt>
      <trkpt lat="43.69862" lon="6.98078">
        <ele>322.4</ele>
        <time>2012-01-15T15:19:31Z</time>
      </trkpt>
      <trkpt lat="43.69866" lon="6.98067">
        <ele>322.8</ele>
        <time>2012-01-15T15:19:34Z</time>
      </trkpt>
      <trkpt lat="43.69867" lon="6.98058">
        <ele>322.9</ele>
        <time>2012-01-15T15:19:36Z</time>
      </trkpt>
      <trkpt lat="43.69867" lon="6.98049">
        <ele>322.8</ele>
        <time>2012-01-15T15:19:38Z</time>
      </trkpt>
      <trkpt lat="43.69867" lon="6.98037">
        <ele>322.1</ele>
        <time>2012-01-15T15:19:41Z</time>
      </trkpt>
      <trkpt lat="43.69865" lon="6.98025">
        <ele>322.1</ele>
        <time>2012-01-15T15:19:44Z</time>
      </trkpt>
      <trkpt lat="43.69863" lon="6.98016">
        <ele>322.7</ele>
        <time>2012-01-15T15:19:46Z</time>
      </trkpt>
      <trkpt lat="43.69861" lon="6.98008">
        <ele>323</ele>
        <time>2012-01-15T15:19:48Z</time>
      </trkpt>
      <trkpt lat="43.69858" lon="6.98">
        <ele>323.4</ele>
        <time>2012-01-15T15:19:50Z</time>
      </trkpt>
      <trkpt lat="43.69855" lon="6.97992">
        <ele>323.6</ele>
        <time>2012-01-15T15:19:52Z</time>
      </trkpt>
      <trkpt lat="43.69852" lon="6.97985">
        <ele>324</ele>
        <time>2012-01-15T15:19:54Z</time>
      </trkpt>
      <trkpt lat="43.69848" lon="6.97977">
        <ele>324.4</ele>
        <time>2012-01-15T15:19:56Z</time>
      </trkpt>
      <trkpt lat="43.69845" lon="6.97969">
        <ele>324.9</ele>
        <time>2012-01-15T15:19:58Z</time>
      </trkpt>
      <trkpt lat="43.69841" lon="6.97961">
        <ele>325.3</ele>
        <time>2012-01-15T15:20:00Z</time>
      </trkpt>
      <trkpt lat="43.69838" lon="6.97953">
        <ele>325.4</ele>
        <time>2012-01-15T15:20:02Z</time>
      </trkpt>
      <trkpt lat="43.69834" lon="6.97945">
        <ele>325.5</ele>
        <time>2012-01-15T15:20:04Z</time>
      </trkpt>
      <trkpt lat="43.69831" lon="6.97937">
        <ele>325.7</ele>
        <time>2012-01-15T15:20:06Z</time>
      </trkpt>
      <trkpt lat="43.69827" lon="6.9793">
        <ele>325.3</ele>
        <time>2012-01-15T15:20:08Z</time>
      </trkpt>
      <trkpt lat="43.69823" lon="6.97922">
        <ele>325.2</ele>
        <time>2012-01-15T15:20:10Z</time>
      </trkpt>
      <trkpt lat="43.6982" lon="6.97914">
        <ele>325.7</ele>
        <time>2012-01-15T15:20:12Z</time>
      </trkpt>
      <trkpt lat="43.69817" lon="6.97905">
        <ele>325.8</ele>
        <time>2012-01-15T15:20:14Z</time>
      </trkpt>
      <trkpt lat="43.69814" lon="6.97897">
        <ele>326</ele>
        <time>2012-01-15T15:20:16Z</time>
      </trkpt>
      <trkpt lat="43.69813" lon="6.97887">
        <ele>326.6</ele>
        <time>2012-01-15T15:20:18Z</time>
      </trkpt>
      <trkpt lat="43.69812" lon="6.97878">
        <ele>327.2</ele>
        <time>2012-01-15T15:20:20Z</time>
      </trkpt>
      <trkpt lat="43.69812" lon="6.97868">
        <ele>326.9</ele>
        <time>2012-01-15T15:20:22Z</time>
      </trkpt>
      <trkpt lat="43.69812" lon="6.97859">
        <ele>327.3</ele>
        <time>2012-01-15T15:20:24Z</time>
      </trkpt>
      <trkpt lat="43.69811" lon="6.9785">
        <ele>327.6</ele>
        <time>2012-01-15T15:20:26Z</time>
      </trkpt>
      <trkpt lat="43.69811" lon="6.97842">
        <ele>328.1</ele>
        <time>2012-01-15T15:20:28Z</time>
      </trkpt>
      <trkpt lat="43.6981" lon="6.97832">
        <ele>328.3</ele>
        <time>2012-01-15T15:20:30Z</time>
      </trkpt>
      <trkpt lat="43.69808" lon="6.97823">
        <ele>328.3</ele>
        <time>2012-01-15T15:20:32Z</time>
      </trkpt>
      <trkpt lat="43.69807" lon="6.97818">
        <ele>328.5</ele>
        <time>2012-01-15T15:20:33Z</time>
      </trkpt>
      <trkpt lat="43.69803" lon="6.97804">
        <ele>328.7</ele>
        <time>2012-01-15T15:20:36Z</time>
      </trkpt>
      <trkpt lat="43.69799" lon="6.97795">
        <ele>328.7</ele>
        <time>2012-01-15T15:20:38Z</time>
      </trkpt>
      <trkpt lat="43.69796" lon="6.97786">
        <ele>328.7</ele>
        <time>2012-01-15T15:20:40Z</time>
      </trkpt>
      <trkpt lat="43.69792" lon="6.97777">
        <ele>328.7</ele>
        <time>2012-01-15T15:20:42Z</time>
      </trkpt>
      <trkpt lat="43.69787" lon="6.97769">
        <ele>328.6</ele>
        <time>2012-01-15T15:20:44Z</time>
      </trkpt>
      <trkpt lat="43.69782" lon="6.97762">
        <ele>328.5</ele>
        <time>2012-01-15T15:20:46Z</time>
      </trkpt>
      <trkpt lat="43.69777" lon="6.97756">
        <ele>328.2</ele>
        <time>2012-01-15T15:20:48Z</time>
      </trkpt>
      <trkpt lat="43.6977" lon="6.9775">
        <ele>328.5</ele>
        <time>2012-01-15T15:20:50Z</time>
      </trkpt>
      <trkpt lat="43.69764" lon="6.97745">
        <ele>328.7</ele>
        <time>2012-01-15T15:20:52Z</time>
      </trkpt>
      <trkpt lat="43.69757" lon="6.9774">
        <ele>329</ele>
        <time>2012-01-15T15:20:54Z</time>
      </trkpt>
      <trkpt lat="43.69751" lon="6.97737">
        <ele>329</ele>
        <time>2012-01-15T15:20:56Z</time>
      </trkpt>
      <trkpt lat="43.69744" lon="6.97734">
        <ele>328.6</ele>
        <time>2012-01-15T15:20:58Z</time>
      </trkpt>
      <trkpt lat="43.69737" lon="6.97732">
        <ele>328.4</ele>
        <time>2012-01-15T15:21:00Z</time>
      </trkpt>
      <trkpt lat="43.6973" lon="6.97731">
        <ele>328.9</ele>
        <time>2012-01-15T15:21:02Z</time>
      </trkpt>
      <trkpt lat="43.69724" lon="6.97731">
        <ele>329.2</ele>
        <time>2012-01-15T15:21:04Z</time>
      </trkpt>
      <trkpt lat="43.69717" lon="6.97731">
        <ele>329.8</ele>
        <time>2012-01-15T15:21:06Z</time>
      </trkpt>
      <trkpt lat="43.6971" lon="6.97733">
        <ele>329.9</ele>
        <time>2012-01-15T15:21:08Z</time>
      </trkpt>
      <trkpt lat="43.69704" lon="6.97735">
        <ele>329.7</ele>
        <time>2012-01-15T15:21:10Z</time>
      </trkpt>
      <trkpt lat="43.69697" lon="6.97738">
        <ele>330.1</ele>
        <time>2012-01-15T15:21:12Z</time>
      </trkpt>
      <trkpt lat="43.6969" lon="6.97742">
        <ele>330.8</ele>
        <time>2012-01-15T15:21:14Z</time>
      </trkpt>
      <trkpt lat="43.69684" lon="6.97746">
        <ele>330.9</ele>
        <time>2012-01-15T15:21:16Z</time>
      </trkpt>
      <trkpt lat="43.69679" lon="6.97752">
        <ele>331.2</ele>
        <time>2012-01-15T15:21:18Z</time>
      </trkpt>
      <trkpt lat="43.69673" lon="6.97757">
        <ele>331.6</ele>
        <time>2012-01-15T15:21:20Z</time>
      </trkpt>
      <trkpt lat="43.69668" lon="6.97763">
        <ele>332.1</ele>
        <time>2012-01-15T15:21:22Z</time>
      </trkpt>
      <trkpt lat="43.69663" lon="6.97768">
        <ele>332.4</ele>
        <time>2012-01-15T15:21:24Z</time>
      </trkpt>
      <trkpt lat="43.69658" lon="6.97774">
        <ele>331.6</ele>
        <time>2012-01-15T15:21:26Z</time>
      </trkpt>
      <trkpt lat="43.69652" lon="6.9778">
        <ele>332.4</ele>
        <time>2012-01-15T15:21:28Z</time>
      </trkpt>
      <trkpt lat="43.69647" lon="6.97786">
        <ele>332.5</ele>
        <time>2012-01-15T15:21:30Z</time>
      </trkpt>
      <trkpt lat="43.69642" lon="6.97791">
        <ele>332.5</ele>
        <time>2012-01-15T15:21:32Z</time>
      </trkpt>
      <trkpt lat="43.69637" lon="6.97797">
        <ele>332.8</ele>
        <time>2012-01-15T15:21:34Z</time>
      </trkpt>
      <trkpt lat="43.69635" lon="6.978">
        <ele>333</ele>
        <time>2012-01-15T15:21:35Z</time>
      </trkpt>
      <trkpt lat="43.69627" lon="6.97808">
        <ele>333.7</ele>
        <time>2012-01-15T15:21:38Z</time>
      </trkpt>
      <trkpt lat="43.69622" lon="6.97814">
        <ele>334.1</ele>
        <time>2012-01-15T15:21:40Z</time>
      </trkpt>
      <trkpt lat="43.69617" lon="6.9782">
        <ele>334.3</ele>
        <time>2012-01-15T15:21:42Z</time>
      </trkpt>
      <trkpt lat="43.69612" lon="6.97826">
        <ele>334.1</ele>
        <time>2012-01-15T15:21:44Z</time>
      </trkpt>
      <trkpt lat="43.69606" lon="6.97831">
        <ele>334.4</ele>
        <time>2012-01-15T15:21:46Z</time>
      </trkpt>
      <trkpt lat="43.696" lon="6.97836">
        <ele>335.2</ele>
        <time>2012-01-15T15:21:48Z</time>
      </trkpt>
      <trkpt lat="43.69594" lon="6.9784">
        <ele>335.8</ele>
        <time>2012-01-15T15:21:50Z</time>
      </trkpt>
      <trkpt lat="43.69587" lon="6.97844">
        <ele>336.1</ele>
        <time>2012-01-15T15:21:52Z</time>
      </trkpt>
      <trkpt lat="43.69581" lon="6.97846">
        <ele>336.3</ele>
        <time>2012-01-15T15:21:54Z</time>
      </trkpt>
      <trkpt lat="43.69574" lon="6.97848">
        <ele>336.3</ele>
        <time>2012-01-15T15:21:56Z</time>
      </trkpt>
      <trkpt lat="43.69567" lon="6.97848">
        <ele>336.1</ele>
        <time>2012-01-15T15:21:58Z</time>
      </trkpt>
      <trkpt lat="43.6956" lon="6.97848">
        <ele>336</ele>
        <time>2012-01-15T15:22:00Z</time>
      </trkpt>
      <trkpt lat="43.69554" lon="6.97848">
        <ele>336.3</ele>
        <time>2012-01-15T15:22:02Z</time>
      </trkpt>
      <trkpt lat="43.69547" lon="6.97848">
        <ele>337</ele>
        <time>2012-01-15T15:22:04Z</time>
      </trkpt>
      <trkpt lat="43.69541" lon="6.97849">
        <ele>337.2</ele>
        <time>2012-01-15T15:22:06Z</time>
      </trkpt>
      <trkpt lat="43.69534" lon="6.9785">
        <ele>337.6</ele>
        <time>2012-01-15T15:22:08Z</time>
      </trkpt>
      <trkpt lat="43.69527" lon="6.97852">
        <ele>338.1</ele>
        <time>2012-01-15T15:22:10Z</time>
      </trkpt>
      <trkpt lat="43.69521" lon="6.97855">
        <ele>338.4</ele>
        <time>2012-01-15T15:22:12Z</time>
      </trkpt>
      <trkpt lat="43.69514" lon="6.97858">
        <ele>338.6</ele>
        <time>2012-01-15T15:22:14Z</time>
      </trkpt>
      <trkpt lat="43.69507" lon="6.97862">
        <ele>339</ele>
        <time>2012-01-15T15:22:16Z</time>
      </trkpt>
      <trkpt lat="43.695" lon="6.97866">
        <ele>339.4</ele>
        <time>2012-01-15T15:22:18Z</time>
      </trkpt>
      <trkpt lat="43.69494" lon="6.9787">
        <ele>339.5</ele>
        <time>2012-01-15T15:22:20Z</time>
      </trkpt>
      <trkpt lat="43.69487" lon="6.97874">
        <ele>339.6</ele>
        <time>2012-01-15T15:22:22Z</time>
      </trkpt>
      <trkpt lat="43.69481" lon="6.97878">
        <ele>340.1</ele>
        <time>2012-01-15T15:22:24Z</time>
      </trkpt>
      <trkpt lat="43.69474" lon="6.97882">
        <ele>340.8</ele>
        <time>2012-01-15T15:22:26Z</time>
      </trkpt>
      <trkpt lat="43.69468" lon="6.97885">
        <ele>340.3</ele>
        <time>2012-01-15T15:22:28Z</time>
      </trkpt>
      <trkpt lat="43.69462" lon="6.97887">
        <ele>340.3</ele>
        <time>2012-01-15T15:22:30Z</time>
      </trkpt>
      <trkpt lat="43.69455" lon="6.97888">
        <ele>340.8</ele>
        <time>2012-01-15T15:22:32Z</time>
      </trkpt>
      <trkpt lat="43.69448" lon="6.9789">
        <ele>341.5</ele>
        <time>2012-01-15T15:22:34Z</time>
      </trkpt>
      <trkpt lat="43.69442" lon="6.9789">
        <ele>342.2</ele>
        <time>2012-01-15T15:22:36Z</time>
      </trkpt>
      <trkpt lat="43.69439" lon="6.9789">
        <ele>342.4</ele>
        <time>2012-01-15T15:22:37Z</time>
      </trkpt>
      <trkpt lat="43.69429" lon="6.97889">
        <ele>342.2</ele>
        <time>2012-01-15T15:22:40Z</time>
      </trkpt>
      <trkpt lat="43.69423" lon="6.97888">
        <ele>342.7</ele>
        <time>2012-01-15T15:22:42Z</time>
      </trkpt>
      <trkpt lat="43.69414" lon="6.97887">
        <ele>343.3</ele>
        <time>2012-01-15T15:22:45Z</time>
      </trkpt>
      <trkpt lat="43.69408" lon="6.97885">
        <ele>343.1</ele>
        <time>2012-01-15T15:22:47Z</time>
      </trkpt>
      <trkpt lat="43.69401" lon="6.97885">
        <ele>343.3</ele>
        <time>2012-01-15T15:22:49Z</time>
      </trkpt>
      <trkpt lat="43.69395" lon="6.97886">
        <ele>343.5</ele>
        <time>2012-01-15T15:22:51Z</time>
      </trkpt>
      <trkpt lat="43.69388" lon="6.97887">
        <ele>344</ele>
        <time>2012-01-15T15:22:53Z</time>
      </trkpt>
      <trkpt lat="43.69382" lon="6.97889">
        <ele>344.5</ele>
        <time>2012-01-15T15:22:55Z</time>
      </trkpt>
      <trkpt lat="43.69375" lon="6.97892">
        <ele>344.8</ele>
        <time>2012-01-15T15:22:57Z</time>
      </trkpt>
      <trkpt lat="43.69369" lon="6.97895">
        <ele>344.8</ele>
        <time>2012-01-15T15:22:59Z</time>
      </trkpt>
      <trkpt lat="43.69363" lon="6.97899">
        <ele>344.7</ele>
        <time>2012-01-15T15:23:01Z</time>
      </trkpt>
      <trkpt lat="43.69357" lon="6.97904">
        <ele>345.2</ele>
        <time>2012-01-15T15:23:03Z</time>
      </trkpt>
      <trkpt lat="43.69352" lon="6.97909">
        <ele>345.7</ele>
        <time>2012-01-15T15:23:05Z</time>
      </trkpt>
      <trkpt lat="43.69346" lon="6.97914">
        <ele>346.1</ele>
        <time>2012-01-15T15:23:07Z</time>
      </trkpt>
      <trkpt lat="43.69341" lon="6.97919">
        <ele>346.4</ele>
        <time>2012-01-15T15:23:09Z</time>
      </trkpt>
      <trkpt lat="43.69335" lon="6.97924">
        <ele>346.8</ele>
        <time>2012-01-15T15:23:11Z</time>
      </trkpt>
      <trkpt lat="43.69329" lon="6.97928">
        <ele>346.9</ele>
        <time>2012-01-15T15:23:13Z</time>
      </trkpt>
      <trkpt lat="43.69323" lon="6.97932">
        <ele>346.8</ele>
        <time>2012-01-15T15:23:15Z</time>
      </trkpt>
      <trkpt lat="43.69316" lon="6.97935">
        <ele>347.5</ele>
        <time>2012-01-15T15:23:17Z</time>
      </trkpt>
      <trkpt lat="43.69309" lon="6.97937">
        <ele>347.7</ele>
        <time>2012-01-15T15:23:19Z</time>
      </trkpt>
      <trkpt lat="43.69302" lon="6.97939">
        <ele>347.9</ele>
        <time>2012-01-15T15:23:21Z</time>
      </trkpt>
      <trkpt lat="43.69295" lon="6.97942">
        <ele>348.1</ele>
        <time>2012-01-15T15:23:23Z</time>
      </trkpt>
      <trkpt lat="43.69289" lon="6.97943">
        <ele>348.8</ele>
        <time>2012-01-15T15:23:25Z</time>
      </trkpt>
      <trkpt lat="43.69282" lon="6.97945">
        <ele>349</ele>
        <time>2012-01-15T15:23:27Z</time>
      </trkpt>
      <trkpt lat="43.69275" lon="6.97946">
        <ele>349.8</ele>
        <time>2012-01-15T15:23:29Z</time>
      </trkpt>
      <trkpt lat="43.69269" lon="6.97948">
        <ele>350.5</ele>
        <time>2012-01-15T15:23:31Z</time>
      </trkpt>
      <trkpt lat="43.69263" lon="6.97951">
        <ele>350.8</ele>
        <time>2012-01-15T15:23:33Z</time>
      </trkpt>
      <trkpt lat="43.69257" lon="6.97954">
        <ele>350.7</ele>
        <time>2012-01-15T15:23:35Z</time>
      </trkpt>
      <trkpt lat="43.69251" lon="6.9796">
        <ele>350.6</ele>
        <time>2012-01-15T15:23:37Z</time>
      </trkpt>
      <trkpt lat="43.69248" lon="6.97963">
        <ele>350.8</ele>
        <time>2012-01-15T15:23:38Z</time>
      </trkpt>
      <trkpt lat="43.6924" lon="6.97973">
        <ele>351.2</ele>
        <time>2012-01-15T15:23:41Z</time>
      </trkpt>
      <trkpt lat="43.69236" lon="6.97981">
        <ele>351.6</ele>
        <time>2012-01-15T15:23:43Z</time>
      </trkpt>
      <trkpt lat="43.69232" lon="6.97988">
        <ele>351.7</ele>
        <time>2012-01-15T15:23:45Z</time>
      </trkpt>
      <trkpt lat="43.69227" lon="6.97994">
        <ele>352</ele>
        <time>2012-01-15T15:23:47Z</time>
      </trkpt>
      <trkpt lat="43.69222" lon="6.98">
        <ele>352.4</ele>
        <time>2012-01-15T15:23:49Z</time>
      </trkpt>
      <trkpt lat="43.69216" lon="6.98005">
        <ele>352.6</ele>
        <time>2012-01-15T15:23:51Z</time>
      </trkpt>
      <trkpt lat="43.6921" lon="6.98008">
        <ele>352.6</ele>
        <time>2012-01-15T15:23:53Z</time>
      </trkpt>
      <trkpt lat="43.69204" lon="6.98012">
        <ele>353</ele>
        <time>2012-01-15T15:23:55Z</time>
      </trkpt>
      <trkpt lat="43.69198" lon="6.98014">
        <ele>353.5</ele>
        <time>2012-01-15T15:23:57Z</time>
      </trkpt>
      <trkpt lat="43.69191" lon="6.98015">
        <ele>353.4</ele>
        <time>2012-01-15T15:23:59Z</time>
      </trkpt>
      <trkpt lat="43.69184" lon="6.98016">
        <ele>352.9</ele>
        <time>2012-01-15T15:24:01Z</time>
      </trkpt>
      <trkpt lat="43.69177" lon="6.98015">
        <ele>353.5</ele>
        <time>2012-01-15T15:24:03Z</time>
      </trkpt>
      <trkpt lat="43.69171" lon="6.98014">
        <ele>353.8</ele>
        <time>2012-01-15T15:24:05Z</time>
      </trkpt>
      <trkpt lat="43.69164" lon="6.98012">
        <ele>354.6</ele>
        <time>2012-01-15T15:24:07Z</time>
      </trkpt>
      <trkpt lat="43.69158" lon="6.98009">
        <ele>354.8</ele>
        <time>2012-01-15T15:24:09Z</time>
      </trkpt>
      <trkpt lat="43.69152" lon="6.98007">
        <ele>355.1</ele>
        <time>2012-01-15T15:24:11Z</time>
      </trkpt>
      <trkpt lat="43.69145" lon="6.98005">
        <ele>355.5</ele>
        <time>2012-01-15T15:24:13Z</time>
      </trkpt>
      <trkpt lat="43.69139" lon="6.98002">
        <ele>355.6</ele>
        <time>2012-01-15T15:24:15Z</time>
      </trkpt>
      <trkpt lat="43.69132" lon="6.98">
        <ele>356.3</ele>
        <time>2012-01-15T15:24:17Z</time>
      </trkpt>
      <trkpt lat="43.69126" lon="6.97997">
        <ele>356.6</ele>
        <time>2012-01-15T15:24:19Z</time>
      </trkpt>
      <trkpt lat="43.69119" lon="6.97995">
        <ele>356.5</ele>
        <time>2012-01-15T15:24:21Z</time>
      </trkpt>
      <trkpt lat="43.69113" lon="6.97992">
        <ele>356.7</ele>
        <time>2012-01-15T15:24:23Z</time>
      </trkpt>
      <trkpt lat="43.69106" lon="6.97989">
        <ele>357.2</ele>
        <time>2012-01-15T15:24:25Z</time>
      </trkpt>
      <trkpt lat="43.691" lon="6.97987">
        <ele>357.6</ele>
        <time>2012-01-15T15:24:27Z</time>
      </trkpt>
      <trkpt lat="43.69093" lon="6.97984">
        <ele>358.2</ele>
        <time>2012-01-15T15:24:29Z</time>
      </trkpt>
      <trkpt lat="43.69087" lon="6.97981">
        <ele>358.7</ele>
        <time>2012-01-15T15:24:31Z</time>
      </trkpt>
      <trkpt lat="43.6908" lon="6.97979">
        <ele>359</ele>
        <time>2012-01-15T15:24:33Z</time>
      </trkpt>
      <trkpt lat="43.69074" lon="6.97976">
        <ele>358.9</ele>
        <time>2012-01-15T15:24:35Z</time>
      </trkpt>
      <trkpt lat="43.69067" lon="6.97973">
        <ele>358.9</ele>
        <time>2012-01-15T15:24:37Z</time>
      </trkpt>
      <trkpt lat="43.69061" lon="6.9797">
        <ele>359.2</ele>
        <time>2012-01-15T15:24:39Z</time>
      </trkpt>
      <trkpt lat="43.69058" lon="6.97969">
        <ele>359.3</ele>
        <time>2012-01-15T15:24:40Z</time>
      </trkpt>
      <trkpt lat="43.69048" lon="6.97965">
        <ele>359.7</ele>
        <time>2012-01-15T15:24:43Z</time>
      </trkpt>
      <trkpt lat="43.69042" lon="6.97962">
        <ele>359.9</ele>
        <time>2012-01-15T15:24:45Z</time>
      </trkpt>
      <trkpt lat="43.69035" lon="6.9796">
        <ele>360</ele>
        <time>2012-01-15T15:24:47Z</time>
      </trkpt>
      <trkpt lat="43.69028" lon="6.97959">
        <ele>360.2</ele>
        <time>2012-01-15T15:24:49Z</time>
      </trkpt>
      <trkpt lat="43.69021" lon="6.97958">
        <ele>360.7</ele>
        <time>2012-01-15T15:24:51Z</time>
      </trkpt>
      <trkpt lat="43.69015" lon="6.97957">
        <ele>361.2</ele>
        <time>2012-01-15T15:24:53Z</time>
      </trkpt>
      <trkpt lat="43.69008" lon="6.97956">
        <ele>361.7</ele>
        <time>2012-01-15T15:24:55Z</time>
      </trkpt>
      <trkpt lat="43.69002" lon="6.97955">
        <ele>361.8</ele>
        <time>2012-01-15T15:24:57Z</time>
      </trkpt>
      <trkpt lat="43.68995" lon="6.97954">
        <ele>361.8</ele>
        <time>2012-01-15T15:24:59Z</time>
      </trkpt>
      <trkpt lat="43.68988" lon="6.97954">
        <ele>361.7</ele>
        <time>2012-01-15T15:25:01Z</time>
      </trkpt>
      <trkpt lat="43.68981" lon="6.97954">
        <ele>361.7</ele>
        <time>2012-01-15T15:25:03Z</time>
      </trkpt>
      <trkpt lat="43.68974" lon="6.97954">
        <ele>361.7</ele>
        <time>2012-01-15T15:25:05Z</time>
      </trkpt>
      <trkpt lat="43.68967" lon="6.97954">
        <ele>362.5</ele>
        <time>2012-01-15T15:25:07Z</time>
      </trkpt>
      <trkpt lat="43.68961" lon="6.97954">
        <ele>362.8</ele>
        <time>2012-01-15T15:25:09Z</time>
      </trkpt>
      <trkpt lat="43.68954" lon="6.97953">
        <ele>363.1</ele>
        <time>2012-01-15T15:25:11Z</time>
      </trkpt>
      <trkpt lat="43.68948" lon="6.97953">
        <ele>363.4</ele>
        <time>2012-01-15T15:25:13Z</time>
      </trkpt>
      <trkpt lat="43.68941" lon="6.97952">
        <ele>363.6</ele>
        <time>2012-01-15T15:25:15Z</time>
      </trkpt>
      <trkpt lat="43.68934" lon="6.97952">
        <ele>363.5</ele>
        <time>2012-01-15T15:25:17Z</time>
      </trkpt>
      <trkpt lat="43.68927" lon="6.97951">
        <ele>364.6</ele>
        <time>2012-01-15T15:25:19Z</time>
      </trkpt>
      <trkpt lat="43.68921" lon="6.97949">
        <ele>365.3</ele>
        <time>2012-01-15T15:25:21Z</time>
      </trkpt>
      <trkpt lat="43.68914" lon="6.97947">
        <ele>365.2</ele>
        <time>2012-01-15T15:25:23Z</time>
      </trkpt>
      <trkpt lat="43.68907" lon="6.97944">
        <ele>365.4</ele>
        <time>2012-01-15T15:25:25Z</time>
      </trkpt>
      <trkpt lat="43.68901" lon="6.97941">
        <ele>365.8</ele>
        <time>2012-01-15T15:25:27Z</time>
      </trkpt>
      <trkpt lat="43.68895" lon="6.97937">
        <ele>366.2</ele>
        <time>2012-01-15T15:25:29Z</time>
      </trkpt>
      <trkpt lat="43.68889" lon="6.97933">
        <ele>366.5</ele>
        <time>2012-01-15T15:25:31Z</time>
      </trkpt>
      <trkpt lat="43.68883" lon="6.97929">
        <ele>366.6</ele>
        <time>2012-01-15T15:25:33Z</time>
      </trkpt>
      <trkpt lat="43.68877" lon="6.97924">
        <ele>366.8</ele>
        <time>2012-01-15T15:25:35Z</time>
      </trkpt>
      <trkpt lat="43.6887" lon="6.97921">
        <ele>366.5</ele>
        <time>2012-01-15T15:25:37Z</time>
      </trkpt>
      <trkpt lat="43.68864" lon="6.97916">
        <ele>366.8</ele>
        <time>2012-01-15T15:25:39Z</time>
      </trkpt>
      <trkpt lat="43.68858" lon="6.97912">
        <ele>367.6</ele>
        <time>2012-01-15T15:25:41Z</time>
      </trkpt>
      <trkpt lat="43.68855" lon="6.9791">
        <ele>368.1</ele>
        <time>2012-01-15T15:25:42Z</time>
      </trkpt>
      <trkpt lat="43.68846" lon="6.97904">
        <ele>368.1</ele>
        <time>2012-01-15T15:25:45Z</time>
      </trkpt>
      <trkpt lat="43.6884" lon="6.97901">
        <ele>368</ele>
        <time>2012-01-15T15:25:47Z</time>
      </trkpt>
      <trkpt lat="43.68834" lon="6.97897">
        <ele>368.7</ele>
        <time>2012-01-15T15:25:49Z</time>
      </trkpt>
      <trkpt lat="43.68828" lon="6.97894">
        <ele>368.9</ele>
        <time>2012-01-15T15:25:51Z</time>
      </trkpt>
      <trkpt lat="43.68821" lon="6.97891">
        <ele>369</ele>
        <time>2012-01-15T15:25:53Z</time>
      </trkpt>
      <trkpt lat="43.68815" lon="6.97889">
        <ele>369.1</ele>
        <time>2012-01-15T15:25:55Z</time>
      </trkpt>
      <trkpt lat="43.68809" lon="6.97888">
        <ele>369.1</ele>
        <time>2012-01-15T15:25:57Z</time>
      </trkpt>
      <trkpt lat="43.68802" lon="6.97886">
        <ele>369.9</ele>
        <time>2012-01-15T15:25:59Z</time>
      </trkpt>
      <trkpt lat="43.68796" lon="6.97885">
        <ele>370.2</ele>
        <time>2012-01-15T15:26:01Z</time>
      </trkpt>
      <trkpt lat="43.68789" lon="6.97885">
        <ele>370.4</ele>
        <time>2012-01-15T15:26:03Z</time>
      </trkpt>
      <trkpt lat="43.68782" lon="6.97885">
        <ele>370.6</ele>
        <time>2012-01-15T15:26:05Z</time>
      </trkpt>
      <trkpt lat="43.68776" lon="6.97886">
        <ele>370.6</ele>
        <time>2012-01-15T15:26:07Z</time>
      </trkpt>
      <trkpt lat="43.68769" lon="6.97887">
        <ele>370.5</ele>
        <time>2012-01-15T15:26:09Z</time>
      </trkpt>
      <trkpt lat="43.68762" lon="6.97888">
        <ele>371.4</ele>
        <time>2012-01-15T15:26:11Z</time>
      </trkpt>
      <trkpt lat="43.68756" lon="6.97888">
        <ele>371.8</ele>
        <time>2012-01-15T15:26:13Z</time>
      </trkpt>
      <trkpt lat="43.68749" lon="6.97889">
        <ele>371.3</ele>
        <time>2012-01-15T15:26:15Z</time>
      </trkpt>
      <trkpt lat="43.68743" lon="6.9789">
        <ele>371.5</ele>
        <time>2012-01-15T15:26:17Z</time>
      </trkpt>
      <trkpt lat="43.68737" lon="6.97891">
        <ele>371.7</ele>
        <time>2012-01-15T15:26:19Z</time>
      </trkpt>
      <trkpt lat="43.6873" lon="6.97891">
        <ele>371.7</ele>
        <time>2012-01-15T15:26:21Z</time>
      </trkpt>
      <trkpt lat="43.68724" lon="6.97892">
        <ele>371.8</ele>
        <time>2012-01-15T15:26:23Z</time>
      </trkpt>
      <trkpt lat="43.68718" lon="6.97893">
        <ele>372.2</ele>
        <time>2012-01-15T15:26:25Z</time>
      </trkpt>
      <trkpt lat="43.68711" lon="6.97893">
        <ele>373.2</ele>
        <time>2012-01-15T15:26:27Z</time>
      </trkpt>
      <trkpt lat="43.68705" lon="6.97893">
        <ele>373.6</ele>
        <time>2012-01-15T15:26:29Z</time>
      </trkpt>
      <trkpt lat="43.68698" lon="6.97891">
        <ele>373.9</ele>
        <time>2012-01-15T15:26:31Z</time>
      </trkpt>
      <trkpt lat="43.68692" lon="6.9789">
        <ele>374.3</ele>
        <time>2012-01-15T15:26:33Z</time>
      </trkpt>
      <trkpt lat="43.68686" lon="6.97887">
        <ele>374.4</ele>
        <time>2012-01-15T15:26:35Z</time>
      </trkpt>
      <trkpt lat="43.6868" lon="6.97884">
        <ele>374.4</ele>
        <time>2012-01-15T15:26:37Z</time>
      </trkpt>
      <trkpt lat="43.68674" lon="6.9788">
        <ele>374.7</ele>
        <time>2012-01-15T15:26:39Z</time>
      </trkpt>
      <trkpt lat="43.68668" lon="6.97877">
        <ele>375</ele>
        <time>2012-01-15T15:26:41Z</time>
      </trkpt>
      <trkpt lat="43.68662" lon="6.97874">
        <ele>375.1</ele>
        <time>2012-01-15T15:26:43Z</time>
      </trkpt>
      <trkpt lat="43.68659" lon="6.97872">
        <ele>375.1</ele>
        <time>2012-01-15T15:26:44Z</time>
      </trkpt>
      <trkpt lat="43.6865" lon="6.97867">
        <ele>375.3</ele>
        <time>2012-01-15T15:26:47Z</time>
      </trkpt>
      <trkpt lat="43.68644" lon="6.97864">
        <ele>376</ele>
        <time>2012-01-15T15:26:49Z</time>
      </trkpt>
      <trkpt lat="43.68638" lon="6.9786">
        <ele>376</ele>
        <time>2012-01-15T15:26:51Z</time>
      </trkpt>
      <trkpt lat="43.68632" lon="6.97857">
        <ele>376.3</ele>
        <time>2012-01-15T15:26:53Z</time>
      </trkpt>
      <trkpt lat="43.68626" lon="6.97853">
        <ele>376.5</ele>
        <time>2012-01-15T15:26:55Z</time>
      </trkpt>
      <trkpt lat="43.68619" lon="6.9785">
        <ele>377.4</ele>
        <time>2012-01-15T15:26:57Z</time>
      </trkpt>
      <trkpt lat="43.68613" lon="6.97846">
        <ele>378.4</ele>
        <time>2012-01-15T15:26:59Z</time>
      </trkpt>
      <trkpt lat="43.68608" lon="6.97843">
        <ele>378.6</ele>
        <time>2012-01-15T15:27:01Z</time>
      </trkpt>
      <trkpt lat="43.686" lon="6.97836">
        <ele>379.2</ele>
        <time>2012-01-15T15:27:04Z</time>
      </trkpt>
      <trkpt lat="43.68595" lon="6.97831">
        <ele>379.8</ele>
        <time>2012-01-15T15:27:06Z</time>
      </trkpt>
      <trkpt lat="43.68589" lon="6.97822">
        <ele>379.6</ele>
        <time>2012-01-15T15:27:09Z</time>
      </trkpt>
      <trkpt lat="43.68583" lon="6.97814">
        <ele>379.7</ele>
        <time>2012-01-15T15:27:12Z</time>
      </trkpt>
      <trkpt lat="43.68578" lon="6.97805">
        <ele>380.1</ele>
        <time>2012-01-15T15:27:15Z</time>
      </trkpt>
      <trkpt lat="43.68572" lon="6.97797">
        <ele>380</ele>
        <time>2012-01-15T15:27:18Z</time>
      </trkpt>
      <trkpt lat="43.68566" lon="6.97788">
        <ele>380.6</ele>
        <time>2012-01-15T15:27:21Z</time>
      </trkpt>
      <trkpt lat="43.68559" lon="6.9778">
        <ele>381.4</ele>
        <time>2012-01-15T15:27:24Z</time>
      </trkpt>
      <trkpt lat="43.68555" lon="6.97774">
        <ele>381.6</ele>
        <time>2012-01-15T15:27:26Z</time>
      </trkpt>
      <trkpt lat="43.6855" lon="6.97768">
        <ele>381.8</ele>
        <time>2012-01-15T15:27:28Z</time>
      </trkpt>
      <trkpt lat="43.68544" lon="6.9776">
        <ele>382.2</ele>
        <time>2012-01-15T15:27:31Z</time>
      </trkpt>
      <trkpt lat="43.68539" lon="6.97754">
        <ele>382.4</ele>
        <time>2012-01-15T15:27:33Z</time>
      </trkpt>
      <trkpt lat="43.68534" lon="6.97749">
        <ele>382.6</ele>
        <time>2012-01-15T15:27:35Z</time>
      </trkpt>
      <trkpt lat="43.68529" lon="6.97745">
        <ele>382.7</ele>
        <time>2012-01-15T15:27:37Z</time>
      </trkpt>
      <trkpt lat="43.68523" lon="6.97741">
        <ele>383.4</ele>
        <time>2012-01-15T15:27:39Z</time>
      </trkpt>
      <trkpt lat="43.68517" lon="6.97738">
        <ele>383.5</ele>
        <time>2012-01-15T15:27:41Z</time>
      </trkpt>
      <trkpt lat="43.68511" lon="6.97735">
        <ele>384</ele>
        <time>2012-01-15T15:27:43Z</time>
      </trkpt>
      <trkpt lat="43.68505" lon="6.97733">
        <ele>384.2</ele>
        <time>2012-01-15T15:27:45Z</time>
      </trkpt>
      <trkpt lat="43.68502" lon="6.97731">
        <ele>384.2</ele>
        <time>2012-01-15T15:27:46Z</time>
      </trkpt>
      <trkpt lat="43.68493" lon="6.97726">
        <ele>384.8</ele>
        <time>2012-01-15T15:27:49Z</time>
      </trkpt>
      <trkpt lat="43.68488" lon="6.97722">
        <ele>385</ele>
        <time>2012-01-15T15:27:51Z</time>
      </trkpt>
      <trkpt lat="43.68482" lon="6.97717">
        <ele>384.8</ele>
        <time>2012-01-15T15:27:53Z</time>
      </trkpt>
      <trkpt lat="43.68475" lon="6.97709">
        <ele>385.3</ele>
        <time>2012-01-15T15:27:56Z</time>
      </trkpt>
      <trkpt lat="43.68471" lon="6.97703">
        <ele>385.6</ele>
        <time>2012-01-15T15:27:58Z</time>
      </trkpt>
      <trkpt lat="43.68466" lon="6.97698">
        <ele>385.4</ele>
        <time>2012-01-15T15:28:00Z</time>
      </trkpt>
      <trkpt lat="43.68459" lon="6.9769">
        <ele>386.4</ele>
        <time>2012-01-15T15:28:03Z</time>
      </trkpt>
      <trkpt lat="43.68453" lon="6.97684">
        <ele>386.8</ele>
        <time>2012-01-15T15:28:06Z</time>
      </trkpt>
      <trkpt lat="43.68446" lon="6.97677">
        <ele>387.4</ele>
        <time>2012-01-15T15:28:09Z</time>
      </trkpt>
      <trkpt lat="43.68439" lon="6.97669">
        <ele>387.6</ele>
        <time>2012-01-15T15:28:12Z</time>
      </trkpt>
      <trkpt lat="43.68435" lon="6.97663">
        <ele>387.6</ele>
        <time>2012-01-15T15:28:14Z</time>
      </trkpt>
      <trkpt lat="43.6843" lon="6.97658">
        <ele>387.9</ele>
        <time>2012-01-15T15:28:16Z</time>
      </trkpt>
      <trkpt lat="43.68423" lon="6.9765">
        <ele>388.6</ele>
        <time>2012-01-15T15:28:19Z</time>
      </trkpt>
      <trkpt lat="43.68416" lon="6.97643">
        <ele>388.8</ele>
        <time>2012-01-15T15:28:22Z</time>
      </trkpt>
      <trkpt lat="43.68411" lon="6.97638">
        <ele>389.6</ele>
        <time>2012-01-15T15:28:24Z</time>
      </trkpt>
      <trkpt lat="43.68406" lon="6.97633">
        <ele>389.3</ele>
        <time>2012-01-15T15:28:26Z</time>
      </trkpt>
      <trkpt lat="43.68401" lon="6.97627">
        <ele>388.9</ele>
        <time>2012-01-15T15:28:28Z</time>
      </trkpt>
      <trkpt lat="43.68396" lon="6.97622">
        <ele>389.4</ele>
        <time>2012-01-15T15:28:30Z</time>
      </trkpt>
      <trkpt lat="43.6839" lon="6.97618">
        <ele>390</ele>
        <time>2012-01-15T15:28:32Z</time>
      </trkpt>
      <trkpt lat="43.68385" lon="6.97615">
        <ele>390.6</ele>
        <time>2012-01-15T15:28:34Z</time>
      </trkpt>
      <trkpt lat="43.68379" lon="6.97612">
        <ele>391.2</ele>
        <time>2012-01-15T15:28:36Z</time>
      </trkpt>
      <trkpt lat="43.68372" lon="6.97609">
        <ele>391.4</ele>
        <time>2012-01-15T15:28:38Z</time>
      </trkpt>
      <trkpt lat="43.68366" lon="6.97605">
        <ele>391.8</ele>
        <time>2012-01-15T15:28:40Z</time>
      </trkpt>
      <trkpt lat="43.68361" lon="6.97602">
        <ele>392.1</ele>
        <time>2012-01-15T15:28:42Z</time>
      </trkpt>
      <trkpt lat="43.68355" lon="6.97598">
        <ele>392.3</ele>
        <time>2012-01-15T15:28:44Z</time>
      </trkpt>
      <trkpt lat="43.68348" lon="6.97592">
        <ele>393.1</ele>
        <time>2012-01-15T15:28:47Z</time>
      </trkpt>
      <trkpt lat="43.68345" lon="6.97589">
        <ele>393.4</ele>
        <time>2012-01-15T15:28:48Z</time>
      </trkpt>
      <trkpt lat="43.68335" lon="6.97576">
        <ele>393.7</ele>
        <time>2012-01-15T15:28:53Z</time>
      </trkpt>
      <trkpt lat="43.68329" lon="6.97569">
        <ele>394.2</ele>
        <time>2012-01-15T15:28:56Z</time>
      </trkpt>
      <trkpt lat="43.68325" lon="6.97562">
        <ele>394.4</ele>
        <time>2012-01-15T15:28:59Z</time>
      </trkpt>
      <trkpt lat="43.68319" lon="6.97554">
        <ele>394</ele>
        <time>2012-01-15T15:29:02Z</time>
      </trkpt>
      <trkpt lat="43.68314" lon="6.97547">
        <ele>393.8</ele>
        <time>2012-01-15T15:29:05Z</time>
      </trkpt>
      <trkpt lat="43.68308" lon="6.9754">
        <ele>393.9</ele>
        <time>2012-01-15T15:29:08Z</time>
      </trkpt>
      <trkpt lat="43.68303" lon="6.97533">
        <ele>394.6</ele>
        <time>2012-01-15T15:29:11Z</time>
      </trkpt>
      <trkpt lat="43.68299" lon="6.97526">
        <ele>395.1</ele>
        <time>2012-01-15T15:29:13Z</time>
      </trkpt>
      <trkpt lat="43.68295" lon="6.97519">
        <ele>395.2</ele>
        <time>2012-01-15T15:29:15Z</time>
      </trkpt>
      <trkpt lat="43.68291" lon="6.97512">
        <ele>395.6</ele>
        <time>2012-01-15T15:29:17Z</time>
      </trkpt>
      <trkpt lat="43.68288" lon="6.97505">
        <ele>396.1</ele>
        <time>2012-01-15T15:29:19Z</time>
      </trkpt>
      <trkpt lat="43.68285" lon="6.97497">
        <ele>396.5</ele>
        <time>2012-01-15T15:29:21Z</time>
      </trkpt>
      <trkpt lat="43.68282" lon="6.97489">
        <ele>397.2</ele>
        <time>2012-01-15T15:29:23Z</time>
      </trkpt>
      <trkpt lat="43.6828" lon="6.97481">
        <ele>397.6</ele>
        <time>2012-01-15T15:29:25Z</time>
      </trkpt>
      <trkpt lat="43.68278" lon="6.97473">
        <ele>397.9</ele>
        <time>2012-01-15T15:29:27Z</time>
      </trkpt>
      <trkpt lat="43.68276" lon="6.97465">
        <ele>398.2</ele>
        <time>2012-01-15T15:29:29Z</time>
      </trkpt>
      <trkpt lat="43.68274" lon="6.97453">
        <ele>397.9</ele>
        <time>2012-01-15T15:29:32Z</time>
      </trkpt>
      <trkpt lat="43.68272" lon="6.97442">
        <ele>398.6</ele>
        <time>2012-01-15T15:29:35Z</time>
      </trkpt>
      <trkpt lat="43.68269" lon="6.9743">
        <ele>398.8</ele>
        <time>2012-01-15T15:29:38Z</time>
      </trkpt>
      <trkpt lat="43.68266" lon="6.97418">
        <ele>398.7</ele>
        <time>2012-01-15T15:29:41Z</time>
      </trkpt>
      <trkpt lat="43.68264" lon="6.9741">
        <ele>399.3</ele>
        <time>2012-01-15T15:29:43Z</time>
      </trkpt>
      <trkpt lat="43.6826" lon="6.97403">
        <ele>399.6</ele>
        <time>2012-01-15T15:29:45Z</time>
      </trkpt>
      <trkpt lat="43.68257" lon="6.97395">
        <ele>400.1</ele>
        <time>2012-01-15T15:29:47Z</time>
      </trkpt>
      <trkpt lat="43.68254" lon="6.97389">
        <ele>400.7</ele>
        <time>2012-01-15T15:29:49Z</time>
      </trkpt>
      <trkpt lat="43.68252" lon="6.97385">
        <ele>400.6</ele>
        <time>2012-01-15T15:29:50Z</time>
      </trkpt>
      <trkpt lat="43.68245" lon="6.97376">
        <ele>400.7</ele>
        <time>2012-01-15T15:29:53Z</time>
      </trkpt>
      <trkpt lat="43.6824" lon="6.9737">
        <ele>401.1</ele>
        <time>2012-01-15T15:29:55Z</time>
      </trkpt>
      <trkpt lat="43.68235" lon="6.97361">
        <ele>401.5</ele>
        <time>2012-01-15T15:29:58Z</time>
      </trkpt>
      <trkpt lat="43.68232" lon="6.9735">
        <ele>401.3</ele>
        <time>2012-01-15T15:30:01Z</time>
      </trkpt>
      <trkpt lat="43.68228" lon="6.9734">
        <ele>402.3</ele>
        <time>2012-01-15T15:30:04Z</time>
      </trkpt>
      <trkpt lat="43.68224" lon="6.97329">
        <ele>402.5</ele>
        <time>2012-01-15T15:30:07Z</time>
      </trkpt>
      <trkpt lat="43.68221" lon="6.97318">
        <ele>402.9</ele>
        <time>2012-01-15T15:30:10Z</time>
      </trkpt>
      <trkpt lat="43.68217" lon="6.97308">
        <ele>403.1</ele>
        <time>2012-01-15T15:30:13Z</time>
      </trkpt>
      <trkpt lat="43.68214" lon="6.97298">
        <ele>403.6</ele>
        <time>2012-01-15T15:30:16Z</time>
      </trkpt>
      <trkpt lat="43.6821" lon="6.97289">
        <ele>404.7</ele>
        <time>2012-01-15T15:30:19Z</time>
      </trkpt>
      <trkpt lat="43.68207" lon="6.97281">
        <ele>404.7</ele>
        <time>2012-01-15T15:30:21Z</time>
      </trkpt>
      <trkpt lat="43.68205" lon="6.97273">
        <ele>404.2</ele>
        <time>2012-01-15T15:30:23Z</time>
      </trkpt>
      <trkpt lat="43.68201" lon="6.97262">
        <ele>404.5</ele>
        <time>2012-01-15T15:30:26Z</time>
      </trkpt>
      <trkpt lat="43.68197" lon="6.97251">
        <ele>404.9</ele>
        <time>2012-01-15T15:30:29Z</time>
      </trkpt>
      <trkpt lat="43.68193" lon="6.97241">
        <ele>405.3</ele>
        <time>2012-01-15T15:30:32Z</time>
      </trkpt>
      <trkpt lat="43.68189" lon="6.97231">
        <ele>405.7</ele>
        <time>2012-01-15T15:30:35Z</time>
      </trkpt>
      <trkpt lat="43.68186" lon="6.97222">
        <ele>406.3</ele>
        <time>2012-01-15T15:30:38Z</time>
      </trkpt>
      <trkpt lat="43.68183" lon="6.97213">
        <ele>406.4</ele>
        <time>2012-01-15T15:30:41Z</time>
      </trkpt>
      <trkpt lat="43.68179" lon="6.97205">
        <ele>406.7</ele>
        <time>2012-01-15T15:30:44Z</time>
      </trkpt>
      <trkpt lat="43.68174" lon="6.97196">
        <ele>407.4</ele>
        <time>2012-01-15T15:30:47Z</time>
      </trkpt>
      <trkpt lat="43.68167" lon="6.97188">
        <ele>407.7</ele>
        <time>2012-01-15T15:30:50Z</time>
      </trkpt>
      <trkpt lat="43.68165" lon="6.97186">
        <ele>407.8</ele>
        <time>2012-01-15T15:30:51Z</time>
      </trkpt>
      <trkpt lat="43.68151" lon="6.97181">
        <ele>408.4</ele>
        <time>2012-01-15T15:30:56Z</time>
      </trkpt>
      <trkpt lat="43.68142" lon="6.97182">
        <ele>408.2</ele>
        <time>2012-01-15T15:30:59Z</time>
      </trkpt>
      <trkpt lat="43.68135" lon="6.97183">
        <ele>408.6</ele>
        <time>2012-01-15T15:31:02Z</time>
      </trkpt>
      <trkpt lat="43.68129" lon="6.97186">
        <ele>409.1</ele>
        <time>2012-01-15T15:31:04Z</time>
      </trkpt>
      <trkpt lat="43.68124" lon="6.97189">
        <ele>409.5</ele>
        <time>2012-01-15T15:31:06Z</time>
      </trkpt>
      <trkpt lat="43.68118" lon="6.97192">
        <ele>409.7</ele>
        <time>2012-01-15T15:31:08Z</time>
      </trkpt>
      <trkpt lat="43.68109" lon="6.97194">
        <ele>410.3</ele>
        <time>2012-01-15T15:31:11Z</time>
      </trkpt>
      <trkpt lat="43.681" lon="6.97196">
        <ele>410.2</ele>
        <time>2012-01-15T15:31:14Z</time>
      </trkpt>
      <trkpt lat="43.68094" lon="6.97198">
        <ele>410.4</ele>
        <time>2012-01-15T15:31:16Z</time>
      </trkpt>
      <trkpt lat="43.68086" lon="6.97202">
        <ele>411</ele>
        <time>2012-01-15T15:31:19Z</time>
      </trkpt>
      <trkpt lat="43.6808" lon="6.97206">
        <ele>412.2</ele>
        <time>2012-01-15T15:31:22Z</time>
      </trkpt>
      <trkpt lat="43.68072" lon="6.97209">
        <ele>411.9</ele>
        <time>2012-01-15T15:31:26Z</time>
      </trkpt>
      <trkpt lat="43.68071" lon="6.97206">
        <ele>411.3</ele>
        <time>2012-01-15T15:32:49Z</time>
      </trkpt>
    </trkseg>
  </trk>
</gpx>